<?xml version="1.0" encoding="UTF-8" standalone="no" ?>
<gpx xmlns="http://www.topografix.com/GPX/1/1" xmlns:xsi="http://www.w3.org/2001/XMLSchema-instance" xsi:schemaLocation="http://www.topografix.com/GPX/1/1 http://www.topografix.com/GPX/1/1/gpx.xsd" version="1.1" creator="VisuGPX - https://www.visugpx.com">
  <metadata>
    <name>Château-Arnoux-14</name>
    <desc><![CDATA[bruno, christian, vincent, maurice, michel, j michel, tiherry]]></desc>
  </metadata>
  <trk>
    <name><![CDATA[Château-Arnoux-Saint-Auban VTT électrique]]></name>
    <trkseg>
      <trkpt lat="44.0954" lon="5.99962">
        <ele>500</ele>
        <time>2022-04-06T07:59:06.000Z</time>
      </trkpt>
      <trkpt lat="44.0954" lon="5.99961">
        <ele>500</ele>
        <time>2022-04-06T07:59:06.000Z</time>
      </trkpt>
      <trkpt lat="44.09539" lon="5.99965">
        <ele>500.20001220703</ele>
        <time>2022-04-06T07:59:06.001Z</time>
      </trkpt>
      <trkpt lat="44.09538" lon="5.99971">
        <ele>500</ele>
        <time>2022-04-06T07:59:06.003Z</time>
      </trkpt>
      <trkpt lat="44.09535" lon="5.99968">
        <ele>499.60000610352</ele>
        <time>2022-04-06T07:59:06.006Z</time>
      </trkpt>
      <trkpt lat="44.09534" lon="5.99962">
        <ele>499.60000610352</ele>
        <time>2022-04-06T07:59:06.011Z</time>
      </trkpt>
      <trkpt lat="44.09531" lon="5.99958">
        <ele>500</ele>
        <time>2022-04-06T07:59:06.017Z</time>
      </trkpt>
      <trkpt lat="44.09529" lon="5.99956">
        <ele>500.20001220703</ele>
        <time>2022-04-06T07:59:06.024Z</time>
      </trkpt>
      <trkpt lat="44.09528" lon="5.99954">
        <ele>500.20001220703</ele>
        <time>2022-04-06T07:59:06.032Z</time>
      </trkpt>
      <trkpt lat="44.09526" lon="5.9995">
        <ele>500.39999389648</ele>
        <time>2022-04-06T07:59:06.041Z</time>
      </trkpt>
      <trkpt lat="44.0952" lon="5.9994">
        <ele>500.79998779297</ele>
        <time>2022-04-06T07:59:06.053Z</time>
      </trkpt>
      <trkpt lat="44.09518" lon="5.99935">
        <ele>501</ele>
        <time>2022-04-06T07:59:06.066Z</time>
      </trkpt>
      <trkpt lat="44.09517" lon="5.99934">
        <ele>501.20001220703</ele>
        <time>2022-04-06T07:59:06.079Z</time>
      </trkpt>
      <trkpt lat="44.09514" lon="5.99927">
        <ele>501.79998779297</ele>
        <time>2022-04-06T07:59:06.094Z</time>
      </trkpt>
      <trkpt lat="44.09512" lon="5.99925">
        <ele>502.20001220703</ele>
        <time>2022-04-06T07:59:06.110Z</time>
      </trkpt>
      <trkpt lat="44.09508" lon="5.99916">
        <ele>503.20001220703</ele>
        <time>2022-04-06T07:59:06.128Z</time>
      </trkpt>
      <trkpt lat="44.09507" lon="5.99915">
        <ele>503.39999389648</ele>
        <time>2022-04-06T07:59:06.147Z</time>
      </trkpt>
      <trkpt lat="44.09502" lon="5.99907">
        <ele>504.20001220703</ele>
        <time>2022-04-06T07:59:06.168Z</time>
      </trkpt>
      <trkpt lat="44.09501" lon="5.99905">
        <ele>504.39999389648</ele>
        <time>2022-04-06T07:59:06.190Z</time>
      </trkpt>
      <trkpt lat="44.09498" lon="5.99901">
        <ele>504.79998779297</ele>
        <time>2022-04-06T07:59:06.213Z</time>
      </trkpt>
      <trkpt lat="44.09496" lon="5.99897">
        <ele>505.39999389648</ele>
        <time>2022-04-06T07:59:06.237Z</time>
      </trkpt>
      <trkpt lat="44.09495" lon="5.99895">
        <ele>505.39999389648</ele>
        <time>2022-04-06T07:59:06.262Z</time>
      </trkpt>
      <trkpt lat="44.09492" lon="5.99887">
        <ele>506.60000610352</ele>
        <time>2022-04-06T07:59:06.289Z</time>
      </trkpt>
      <trkpt lat="44.09488" lon="5.99881">
        <ele>507.20001220703</ele>
        <time>2022-04-06T07:59:06.317Z</time>
      </trkpt>
      <trkpt lat="44.09487" lon="5.99877">
        <ele>507.79998779297</ele>
        <time>2022-04-06T07:59:06.347Z</time>
      </trkpt>
      <trkpt lat="44.09484" lon="5.99864">
        <ele>508.39999389648</ele>
        <time>2022-04-06T07:59:06.380Z</time>
      </trkpt>
      <trkpt lat="44.09479" lon="5.99851">
        <ele>509.20001220703</ele>
        <time>2022-04-06T07:59:06.416Z</time>
      </trkpt>
      <trkpt lat="44.09477" lon="5.99843">
        <ele>509.60000610352</ele>
        <time>2022-04-06T07:59:06.454Z</time>
      </trkpt>
      <trkpt lat="44.09475" lon="5.99835">
        <ele>510.20001220703</ele>
        <time>2022-04-06T07:59:06.494Z</time>
      </trkpt>
      <trkpt lat="44.09474" lon="5.99817">
        <ele>511.20001220703</ele>
        <time>2022-04-06T07:59:06.538Z</time>
      </trkpt>
      <trkpt lat="44.0947" lon="5.99791">
        <ele>512.59997558594</ele>
        <time>2022-04-06T07:59:06.588Z</time>
      </trkpt>
      <trkpt lat="44.09469" lon="5.99787">
        <ele>512.79998779297</ele>
        <time>2022-04-06T07:59:06.639Z</time>
      </trkpt>
      <trkpt lat="44.09467" lon="5.9977">
        <ele>514</ele>
        <time>2022-04-06T07:59:06.694Z</time>
      </trkpt>
      <trkpt lat="44.09466" lon="5.99756">
        <ele>514.79998779297</ele>
        <time>2022-04-06T07:59:06.752Z</time>
      </trkpt>
      <trkpt lat="44.09465" lon="5.99749">
        <ele>515</ele>
        <time>2022-04-06T07:59:06.812Z</time>
      </trkpt>
      <trkpt lat="44.09464" lon="5.99725">
        <ele>516.40002441406</ele>
        <time>2022-04-06T07:59:06.877Z</time>
      </trkpt>
      <trkpt lat="44.09462" lon="5.99704">
        <ele>517.40002441406</ele>
        <time>2022-04-06T07:59:06.947Z</time>
      </trkpt>
      <trkpt lat="44.0946" lon="5.99687">
        <ele>518.40002441406</ele>
        <time>2022-04-06T07:59:07.021Z</time>
      </trkpt>
      <trkpt lat="44.0946" lon="5.99684">
        <ele>518.59997558594</ele>
        <time>2022-04-06T07:59:07.096Z</time>
      </trkpt>
      <trkpt lat="44.09457" lon="5.99666">
        <ele>519.79998779297</ele>
        <time>2022-04-06T07:59:07.175Z</time>
      </trkpt>
      <trkpt lat="44.09456" lon="5.99663">
        <ele>520</ele>
        <time>2022-04-06T07:59:07.254Z</time>
      </trkpt>
      <trkpt lat="44.09455" lon="5.99654">
        <ele>520.79998779297</ele>
        <time>2022-04-06T07:59:07.336Z</time>
      </trkpt>
      <trkpt lat="44.09452" lon="5.99639">
        <ele>521.79998779297</ele>
        <time>2022-04-06T07:59:07.421Z</time>
      </trkpt>
      <trkpt lat="44.0945" lon="5.99633">
        <ele>522</ele>
        <time>2022-04-06T07:59:07.508Z</time>
      </trkpt>
      <trkpt lat="44.09446" lon="5.99621">
        <ele>523.20001220703</ele>
        <time>2022-04-06T07:59:07.598Z</time>
      </trkpt>
      <trkpt lat="44.0944" lon="5.9961">
        <ele>524.40002441406</ele>
        <time>2022-04-06T07:59:07.691Z</time>
      </trkpt>
      <trkpt lat="44.09437" lon="5.99605">
        <ele>525.20001220703</ele>
        <time>2022-04-06T07:59:07.785Z</time>
      </trkpt>
      <trkpt lat="44.09436" lon="5.99603">
        <ele>525.59997558594</ele>
        <time>2022-04-06T07:59:07.880Z</time>
      </trkpt>
      <trkpt lat="44.09428" lon="5.99587">
        <ele>526.59997558594</ele>
        <time>2022-04-06T07:59:07.979Z</time>
      </trkpt>
      <trkpt lat="44.09423" lon="5.99579">
        <ele>527.40002441406</ele>
        <time>2022-04-06T07:59:08.081Z</time>
      </trkpt>
      <trkpt lat="44.09421" lon="5.99573">
        <ele>527.59997558594</ele>
        <time>2022-04-06T07:59:08.184Z</time>
      </trkpt>
      <trkpt lat="44.09416" lon="5.99558">
        <ele>528.59997558594</ele>
        <time>2022-04-06T07:59:08.291Z</time>
      </trkpt>
      <trkpt lat="44.09408" lon="5.99529">
        <ele>528.59997558594</ele>
        <time>2022-04-06T07:59:08.405Z</time>
      </trkpt>
      <trkpt lat="44.09392" lon="5.99491">
        <ele>528.59997558594</ele>
        <time>2022-04-06T07:59:08.529Z</time>
      </trkpt>
      <trkpt lat="44.09379" lon="5.99468">
        <ele>529</ele>
        <time>2022-04-06T07:59:08.660Z</time>
      </trkpt>
      <trkpt lat="44.09374" lon="5.99462">
        <ele>529</ele>
        <time>2022-04-06T07:59:08.793Z</time>
      </trkpt>
      <trkpt lat="44.09368" lon="5.99454">
        <ele>529.40002441406</ele>
        <time>2022-04-06T07:59:08.928Z</time>
      </trkpt>
      <trkpt lat="44.09357" lon="5.9944">
        <ele>529.40002441406</ele>
        <time>2022-04-06T07:59:09.068Z</time>
      </trkpt>
      <trkpt lat="44.09337" lon="5.99415">
        <ele>530</ele>
        <time>2022-04-06T07:59:09.217Z</time>
      </trkpt>
      <trkpt lat="44.09335" lon="5.99412">
        <ele>530</ele>
        <time>2022-04-06T07:59:09.367Z</time>
      </trkpt>
      <trkpt lat="44.09321" lon="5.99384">
        <ele>530.20001220703</ele>
        <time>2022-04-06T07:59:09.524Z</time>
      </trkpt>
      <trkpt lat="44.09302" lon="5.99347">
        <ele>530.59997558594</ele>
        <time>2022-04-06T07:59:09.692Z</time>
      </trkpt>
      <trkpt lat="44.09281" lon="5.99312">
        <ele>531</ele>
        <time>2022-04-06T07:59:09.870Z</time>
      </trkpt>
      <trkpt lat="44.09269" lon="5.99279">
        <ele>531.20001220703</ele>
        <time>2022-04-06T07:59:10.057Z</time>
      </trkpt>
      <trkpt lat="44.09264" lon="5.9924">
        <ele>531.40002441406</ele>
        <time>2022-04-06T07:59:10.252Z</time>
      </trkpt>
      <trkpt lat="44.09263" lon="5.99221">
        <ele>532</ele>
        <time>2022-04-06T07:59:10.452Z</time>
      </trkpt>
      <trkpt lat="44.09263" lon="5.99192">
        <ele>532.59997558594</ele>
        <time>2022-04-06T07:59:10.658Z</time>
      </trkpt>
      <trkpt lat="44.09264" lon="5.99168">
        <ele>533.20001220703</ele>
        <time>2022-04-06T07:59:10.870Z</time>
      </trkpt>
      <trkpt lat="44.09265" lon="5.9913">
        <ele>534</ele>
        <time>2022-04-06T07:59:11.091Z</time>
      </trkpt>
      <trkpt lat="44.09265" lon="5.99125">
        <ele>534.20001220703</ele>
        <time>2022-04-06T07:59:11.313Z</time>
      </trkpt>
      <trkpt lat="44.09264" lon="5.99085">
        <ele>535</ele>
        <time>2022-04-06T07:59:11.544Z</time>
      </trkpt>
      <trkpt lat="44.09265" lon="5.99065">
        <ele>535.40002441406</ele>
        <time>2022-04-06T07:59:11.779Z</time>
      </trkpt>
      <trkpt lat="44.09265" lon="5.99025">
        <ele>535.40002441406</ele>
        <time>2022-04-06T07:59:12.024Z</time>
      </trkpt>
      <trkpt lat="44.0927" lon="5.98971">
        <ele>534.79998779297</ele>
        <time>2022-04-06T07:59:12.281Z</time>
      </trkpt>
      <trkpt lat="44.09274" lon="5.98944">
        <ele>534.20001220703</ele>
        <time>2022-04-06T07:59:12.544Z</time>
      </trkpt>
      <trkpt lat="44.09276" lon="5.98933">
        <ele>533.79998779297</ele>
        <time>2022-04-06T07:59:12.810Z</time>
      </trkpt>
      <trkpt lat="44.09277" lon="5.98927">
        <ele>533.79998779297</ele>
        <time>2022-04-06T07:59:13.077Z</time>
      </trkpt>
      <trkpt lat="44.09276" lon="5.98905">
        <ele>534</ele>
        <time>2022-04-06T07:59:13.349Z</time>
      </trkpt>
      <trkpt lat="44.09276" lon="5.98895">
        <ele>534.20001220703</ele>
        <time>2022-04-06T07:59:13.623Z</time>
      </trkpt>
      <trkpt lat="44.09277" lon="5.98879">
        <ele>534.20001220703</ele>
        <time>2022-04-06T07:59:13.901Z</time>
      </trkpt>
      <trkpt lat="44.09278" lon="5.98873">
        <ele>534.40002441406</ele>
        <time>2022-04-06T07:59:14.181Z</time>
      </trkpt>
      <trkpt lat="44.09284" lon="5.98841">
        <ele>534.79998779297</ele>
        <time>2022-04-06T07:59:14.468Z</time>
      </trkpt>
      <trkpt lat="44.09286" lon="5.98823">
        <ele>535.20001220703</ele>
        <time>2022-04-06T07:59:14.759Z</time>
      </trkpt>
      <trkpt lat="44.09286" lon="5.98819">
        <ele>535.40002441406</ele>
        <time>2022-04-06T07:59:15.051Z</time>
      </trkpt>
      <trkpt lat="44.09285" lon="5.98811">
        <ele>536.59997558594</ele>
        <time>2022-04-06T07:59:15.345Z</time>
      </trkpt>
      <trkpt lat="44.09286" lon="5.98807">
        <ele>537.20001220703</ele>
        <time>2022-04-06T07:59:15.640Z</time>
      </trkpt>
      <trkpt lat="44.09289" lon="5.988">
        <ele>537.59997558594</ele>
        <time>2022-04-06T07:59:15.937Z</time>
      </trkpt>
      <trkpt lat="44.09291" lon="5.98797">
        <ele>537.79998779297</ele>
        <time>2022-04-06T07:59:16.235Z</time>
      </trkpt>
      <trkpt lat="44.09293" lon="5.98783">
        <ele>538.40002441406</ele>
        <time>2022-04-06T07:59:16.536Z</time>
      </trkpt>
      <trkpt lat="44.09294" lon="5.9878">
        <ele>538.79998779297</ele>
        <time>2022-04-06T07:59:16.838Z</time>
      </trkpt>
      <trkpt lat="44.09299" lon="5.98773">
        <ele>540.20001220703</ele>
        <time>2022-04-06T07:59:17.142Z</time>
      </trkpt>
      <trkpt lat="44.09304" lon="5.98764">
        <ele>541.40002441406</ele>
        <time>2022-04-06T07:59:17.449Z</time>
      </trkpt>
      <trkpt lat="44.09305" lon="5.98761">
        <ele>541.79998779297</ele>
        <time>2022-04-06T07:59:17.756Z</time>
      </trkpt>
      <trkpt lat="44.09306" lon="5.98758">
        <ele>542.40002441406</ele>
        <time>2022-04-06T07:59:18.064Z</time>
      </trkpt>
      <trkpt lat="44.0931" lon="5.98751">
        <ele>543.59997558594</ele>
        <time>2022-04-06T07:59:18.374Z</time>
      </trkpt>
      <trkpt lat="44.09312" lon="5.98747">
        <ele>544.59997558594</ele>
        <time>2022-04-06T07:59:18.685Z</time>
      </trkpt>
      <trkpt lat="44.09314" lon="5.98745">
        <ele>545</ele>
        <time>2022-04-06T07:59:18.997Z</time>
      </trkpt>
      <trkpt lat="44.0932" lon="5.98736">
        <ele>546</ele>
        <time>2022-04-06T07:59:19.312Z</time>
      </trkpt>
      <trkpt lat="44.09323" lon="5.98729">
        <ele>547.20001220703</ele>
        <time>2022-04-06T07:59:19.629Z</time>
      </trkpt>
      <trkpt lat="44.09324" lon="5.98727">
        <ele>547.59997558594</ele>
        <time>2022-04-06T07:59:19.946Z</time>
      </trkpt>
      <trkpt lat="44.09325" lon="5.98719">
        <ele>548.59997558594</ele>
        <time>2022-04-06T07:59:20.265Z</time>
      </trkpt>
      <trkpt lat="44.09326" lon="5.98712">
        <ele>549</ele>
        <time>2022-04-06T07:59:20.586Z</time>
      </trkpt>
      <trkpt lat="44.09329" lon="5.98706">
        <ele>549.59997558594</ele>
        <time>2022-04-06T07:59:20.908Z</time>
      </trkpt>
      <trkpt lat="44.09329" lon="5.98703">
        <ele>549.79998779297</ele>
        <time>2022-04-06T07:59:21.231Z</time>
      </trkpt>
      <trkpt lat="44.0933" lon="5.987">
        <ele>549.79998779297</ele>
        <time>2022-04-06T07:59:21.555Z</time>
      </trkpt>
      <trkpt lat="44.09341" lon="5.98681">
        <ele>551.20001220703</ele>
        <time>2022-04-06T07:59:21.884Z</time>
      </trkpt>
      <trkpt lat="44.09346" lon="5.98668">
        <ele>551.79998779297</ele>
        <time>2022-04-06T07:59:22.217Z</time>
      </trkpt>
      <trkpt lat="44.09351" lon="5.98656">
        <ele>552.40002441406</ele>
        <time>2022-04-06T07:59:22.553Z</time>
      </trkpt>
      <trkpt lat="44.09356" lon="5.98648">
        <ele>553.20001220703</ele>
        <time>2022-04-06T07:59:22.891Z</time>
      </trkpt>
      <trkpt lat="44.0936" lon="5.98644">
        <ele>553.59997558594</ele>
        <time>2022-04-06T07:59:23.231Z</time>
      </trkpt>
      <trkpt lat="44.09364" lon="5.98637">
        <ele>554.59997558594</ele>
        <time>2022-04-06T07:59:23.573Z</time>
      </trkpt>
      <trkpt lat="44.09365" lon="5.98634">
        <ele>554.79998779297</ele>
        <time>2022-04-06T07:59:23.916Z</time>
      </trkpt>
      <trkpt lat="44.0937" lon="5.98623">
        <ele>555.40002441406</ele>
        <time>2022-04-06T07:59:24.262Z</time>
      </trkpt>
      <trkpt lat="44.09377" lon="5.98609">
        <ele>556</ele>
        <time>2022-04-06T07:59:24.611Z</time>
      </trkpt>
      <trkpt lat="44.09381" lon="5.98603">
        <ele>556.59997558594</ele>
        <time>2022-04-06T07:59:24.962Z</time>
      </trkpt>
      <trkpt lat="44.09384" lon="5.98596">
        <ele>557.59997558594</ele>
        <time>2022-04-06T07:59:25.315Z</time>
      </trkpt>
      <trkpt lat="44.09386" lon="5.98591">
        <ele>558.40002441406</ele>
        <time>2022-04-06T07:59:25.669Z</time>
      </trkpt>
      <trkpt lat="44.09387" lon="5.98587">
        <ele>559</ele>
        <time>2022-04-06T07:59:26.024Z</time>
      </trkpt>
      <trkpt lat="44.0939" lon="5.98575">
        <ele>560.20001220703</ele>
        <time>2022-04-06T07:59:26.382Z</time>
      </trkpt>
      <trkpt lat="44.09391" lon="5.98571">
        <ele>560.40002441406</ele>
        <time>2022-04-06T07:59:26.741Z</time>
      </trkpt>
      <trkpt lat="44.09398" lon="5.98558">
        <ele>561.20001220703</ele>
        <time>2022-04-06T07:59:27.104Z</time>
      </trkpt>
      <trkpt lat="44.09402" lon="5.98553">
        <ele>561.59997558594</ele>
        <time>2022-04-06T07:59:27.469Z</time>
      </trkpt>
      <trkpt lat="44.09407" lon="5.98541">
        <ele>562.40002441406</ele>
        <time>2022-04-06T07:59:27.837Z</time>
      </trkpt>
      <trkpt lat="44.09407" lon="5.98538">
        <ele>562.40002441406</ele>
        <time>2022-04-06T07:59:28.205Z</time>
      </trkpt>
      <trkpt lat="44.09408" lon="5.98529">
        <ele>563.20001220703</ele>
        <time>2022-04-06T07:59:28.575Z</time>
      </trkpt>
      <trkpt lat="44.0941" lon="5.9852">
        <ele>563.40002441406</ele>
        <time>2022-04-06T07:59:28.948Z</time>
      </trkpt>
      <trkpt lat="44.09411" lon="5.98515">
        <ele>563.59997558594</ele>
        <time>2022-04-06T07:59:29.322Z</time>
      </trkpt>
      <trkpt lat="44.09412" lon="5.98503">
        <ele>564.20001220703</ele>
        <time>2022-04-06T07:59:29.698Z</time>
      </trkpt>
      <trkpt lat="44.09412" lon="5.98501">
        <ele>564.40002441406</ele>
        <time>2022-04-06T07:59:30.075Z</time>
      </trkpt>
      <trkpt lat="44.09413" lon="5.98498">
        <ele>564.40002441406</ele>
        <time>2022-04-06T07:59:30.453Z</time>
      </trkpt>
      <trkpt lat="44.09413" lon="5.98478">
        <ele>565.79998779297</ele>
        <time>2022-04-06T07:59:30.835Z</time>
      </trkpt>
      <trkpt lat="44.09412" lon="5.98457">
        <ele>567</ele>
        <time>2022-04-06T07:59:31.222Z</time>
      </trkpt>
      <trkpt lat="44.09412" lon="5.98448">
        <ele>567</ele>
        <time>2022-04-06T07:59:31.611Z</time>
      </trkpt>
      <trkpt lat="44.0941" lon="5.98441">
        <ele>567.20001220703</ele>
        <time>2022-04-06T07:59:32.002Z</time>
      </trkpt>
      <trkpt lat="44.09409" lon="5.98425">
        <ele>567.79998779297</ele>
        <time>2022-04-06T07:59:32.396Z</time>
      </trkpt>
      <trkpt lat="44.09406" lon="5.98414">
        <ele>568.20001220703</ele>
        <time>2022-04-06T07:59:32.793Z</time>
      </trkpt>
      <trkpt lat="44.09405" lon="5.98406">
        <ele>568.59997558594</ele>
        <time>2022-04-06T07:59:33.192Z</time>
      </trkpt>
      <trkpt lat="44.09407" lon="5.98388">
        <ele>569.59997558594</ele>
        <time>2022-04-06T07:59:33.595Z</time>
      </trkpt>
      <trkpt lat="44.09408" lon="5.98385">
        <ele>569.59997558594</ele>
        <time>2022-04-06T07:59:33.999Z</time>
      </trkpt>
      <trkpt lat="44.09412" lon="5.9836">
        <ele>570</ele>
        <time>2022-04-06T07:59:34.409Z</time>
      </trkpt>
      <trkpt lat="44.09415" lon="5.98347">
        <ele>570.59997558594</ele>
        <time>2022-04-06T07:59:34.822Z</time>
      </trkpt>
      <trkpt lat="44.09417" lon="5.98345">
        <ele>570.79998779297</ele>
        <time>2022-04-06T07:59:35.235Z</time>
      </trkpt>
      <trkpt lat="44.09419" lon="5.98337">
        <ele>571.40002441406</ele>
        <time>2022-04-06T07:59:35.650Z</time>
      </trkpt>
      <trkpt lat="44.09422" lon="5.98331">
        <ele>572</ele>
        <time>2022-04-06T07:59:36.067Z</time>
      </trkpt>
      <trkpt lat="44.09422" lon="5.98328">
        <ele>572.20001220703</ele>
        <time>2022-04-06T07:59:36.485Z</time>
      </trkpt>
      <trkpt lat="44.09423" lon="5.9832">
        <ele>572.59997558594</ele>
        <time>2022-04-06T07:59:36.904Z</time>
      </trkpt>
      <trkpt lat="44.09423" lon="5.98314">
        <ele>573.40002441406</ele>
        <time>2022-04-06T07:59:37.325Z</time>
      </trkpt>
      <trkpt lat="44.09423" lon="5.983">
        <ele>574.40002441406</ele>
        <time>2022-04-06T07:59:37.749Z</time>
      </trkpt>
      <trkpt lat="44.09424" lon="5.9829">
        <ele>575.20001220703</ele>
        <time>2022-04-06T07:59:38.176Z</time>
      </trkpt>
      <trkpt lat="44.09424" lon="5.98287">
        <ele>575.40002441406</ele>
        <time>2022-04-06T07:59:38.603Z</time>
      </trkpt>
      <trkpt lat="44.09425" lon="5.98284">
        <ele>575.59997558594</ele>
        <time>2022-04-06T07:59:39.031Z</time>
      </trkpt>
      <trkpt lat="44.09425" lon="5.98278">
        <ele>575.79998779297</ele>
        <time>2022-04-06T07:59:39.460Z</time>
      </trkpt>
      <trkpt lat="44.09425" lon="5.9827">
        <ele>576.79998779297</ele>
        <time>2022-04-06T07:59:39.891Z</time>
      </trkpt>
      <trkpt lat="44.09426" lon="5.98267">
        <ele>577</ele>
        <time>2022-04-06T07:59:40.323Z</time>
      </trkpt>
      <trkpt lat="44.09431" lon="5.98255">
        <ele>578.20001220703</ele>
        <time>2022-04-06T07:59:40.758Z</time>
      </trkpt>
      <trkpt lat="44.09432" lon="5.98251">
        <ele>578.40002441406</ele>
        <time>2022-04-06T07:59:41.194Z</time>
      </trkpt>
      <trkpt lat="44.09431" lon="5.98242">
        <ele>579</ele>
        <time>2022-04-06T07:59:41.632Z</time>
      </trkpt>
      <trkpt lat="44.0943" lon="5.9823">
        <ele>579.40002441406</ele>
        <time>2022-04-06T07:59:42.073Z</time>
      </trkpt>
      <trkpt lat="44.0943" lon="5.98224">
        <ele>579.40002441406</ele>
        <time>2022-04-06T07:59:42.515Z</time>
      </trkpt>
      <trkpt lat="44.0943" lon="5.98221">
        <ele>579.59997558594</ele>
        <time>2022-04-06T07:59:42.958Z</time>
      </trkpt>
      <trkpt lat="44.0943" lon="5.98218">
        <ele>579.79998779297</ele>
        <time>2022-04-06T07:59:43.402Z</time>
      </trkpt>
      <trkpt lat="44.09431" lon="5.98216">
        <ele>580</ele>
        <time>2022-04-06T07:59:43.846Z</time>
      </trkpt>
      <trkpt lat="44.09434" lon="5.98205">
        <ele>581</ele>
        <time>2022-04-06T07:59:44.293Z</time>
      </trkpt>
      <trkpt lat="44.09434" lon="5.98202">
        <ele>581.40002441406</ele>
        <time>2022-04-06T07:59:44.741Z</time>
      </trkpt>
      <trkpt lat="44.09433" lon="5.98194">
        <ele>582</ele>
        <time>2022-04-06T07:59:45.190Z</time>
      </trkpt>
      <trkpt lat="44.09433" lon="5.98189">
        <ele>582.20001220703</ele>
        <time>2022-04-06T07:59:45.640Z</time>
      </trkpt>
      <trkpt lat="44.09431" lon="5.98183">
        <ele>582.40002441406</ele>
        <time>2022-04-06T07:59:46.092Z</time>
      </trkpt>
      <trkpt lat="44.0943" lon="5.9817">
        <ele>583.59997558594</ele>
        <time>2022-04-06T07:59:46.547Z</time>
      </trkpt>
      <trkpt lat="44.09433" lon="5.9816">
        <ele>584.20001220703</ele>
        <time>2022-04-06T07:59:47.005Z</time>
      </trkpt>
      <trkpt lat="44.09436" lon="5.98149">
        <ele>584.79998779297</ele>
        <time>2022-04-06T07:59:47.465Z</time>
      </trkpt>
      <trkpt lat="44.09441" lon="5.98142">
        <ele>585.20001220703</ele>
        <time>2022-04-06T07:59:47.927Z</time>
      </trkpt>
      <trkpt lat="44.09449" lon="5.9813">
        <ele>585.40002441406</ele>
        <time>2022-04-06T07:59:48.393Z</time>
      </trkpt>
      <trkpt lat="44.09454" lon="5.98122">
        <ele>586</ele>
        <time>2022-04-06T07:59:48.862Z</time>
      </trkpt>
      <trkpt lat="44.09457" lon="5.98113">
        <ele>586.59997558594</ele>
        <time>2022-04-06T07:59:49.333Z</time>
      </trkpt>
      <trkpt lat="44.09459" lon="5.98104">
        <ele>587</ele>
        <time>2022-04-06T07:59:49.806Z</time>
      </trkpt>
      <trkpt lat="44.09461" lon="5.98099">
        <ele>587.20001220703</ele>
        <time>2022-04-06T07:59:50.280Z</time>
      </trkpt>
      <trkpt lat="44.09471" lon="5.9809">
        <ele>588</ele>
        <time>2022-04-06T07:59:50.758Z</time>
      </trkpt>
      <trkpt lat="44.09477" lon="5.98086">
        <ele>589.40002441406</ele>
        <time>2022-04-06T07:59:51.238Z</time>
      </trkpt>
      <trkpt lat="44.09478" lon="5.98084">
        <ele>589.59997558594</ele>
        <time>2022-04-06T07:59:51.719Z</time>
      </trkpt>
      <trkpt lat="44.0948" lon="5.98079">
        <ele>590.20001220703</ele>
        <time>2022-04-06T07:59:52.201Z</time>
      </trkpt>
      <trkpt lat="44.09483" lon="5.98075">
        <ele>590.40002441406</ele>
        <time>2022-04-06T07:59:52.684Z</time>
      </trkpt>
      <trkpt lat="44.09492" lon="5.98069">
        <ele>591.40002441406</ele>
        <time>2022-04-06T07:59:53.170Z</time>
      </trkpt>
      <trkpt lat="44.09504" lon="5.98057">
        <ele>592</ele>
        <time>2022-04-06T07:59:53.661Z</time>
      </trkpt>
      <trkpt lat="44.09508" lon="5.98054">
        <ele>592.40002441406</ele>
        <time>2022-04-06T07:59:54.154Z</time>
      </trkpt>
      <trkpt lat="44.09516" lon="5.98047">
        <ele>593.20001220703</ele>
        <time>2022-04-06T07:59:54.650Z</time>
      </trkpt>
      <trkpt lat="44.0952" lon="5.98042">
        <ele>593.59997558594</ele>
        <time>2022-04-06T07:59:55.147Z</time>
      </trkpt>
      <trkpt lat="44.09526" lon="5.9803">
        <ele>594.59997558594</ele>
        <time>2022-04-06T07:59:55.647Z</time>
      </trkpt>
      <trkpt lat="44.09534" lon="5.9802">
        <ele>595.59997558594</ele>
        <time>2022-04-06T07:59:56.151Z</time>
      </trkpt>
      <trkpt lat="44.09536" lon="5.98018">
        <ele>595.79998779297</ele>
        <time>2022-04-06T07:59:56.656Z</time>
      </trkpt>
      <trkpt lat="44.09547" lon="5.98011">
        <ele>596.40002441406</ele>
        <time>2022-04-06T07:59:57.165Z</time>
      </trkpt>
      <trkpt lat="44.09549" lon="5.9801">
        <ele>596.79998779297</ele>
        <time>2022-04-06T07:59:57.674Z</time>
      </trkpt>
      <trkpt lat="44.0955" lon="5.98008">
        <ele>597.20001220703</ele>
        <time>2022-04-06T07:59:58.184Z</time>
      </trkpt>
      <trkpt lat="44.09554" lon="5.98002">
        <ele>597.79998779297</ele>
        <time>2022-04-06T07:59:58.696Z</time>
      </trkpt>
      <trkpt lat="44.09567" lon="5.97997">
        <ele>597.59997558594</ele>
        <time>2022-04-06T07:59:59.212Z</time>
      </trkpt>
      <trkpt lat="44.09571" lon="5.97996">
        <ele>597.40002441406</ele>
        <time>2022-04-06T07:59:59.729Z</time>
      </trkpt>
      <trkpt lat="44.09582" lon="5.97992">
        <ele>596</ele>
        <time>2022-04-06T08:00:00.250Z</time>
      </trkpt>
      <trkpt lat="44.09586" lon="5.97992">
        <ele>595.59997558594</ele>
        <time>2022-04-06T08:00:00.772Z</time>
      </trkpt>
      <trkpt lat="44.09593" lon="5.97992">
        <ele>595.20001220703</ele>
        <time>2022-04-06T08:00:01.296Z</time>
      </trkpt>
      <trkpt lat="44.09598" lon="5.97995">
        <ele>594.59997558594</ele>
        <time>2022-04-06T08:00:01.822Z</time>
      </trkpt>
      <trkpt lat="44.09597" lon="5.97998">
        <ele>594.40002441406</ele>
        <time>2022-04-06T08:00:02.349Z</time>
      </trkpt>
      <trkpt lat="44.09596" lon="5.98002">
        <ele>594.40002441406</ele>
        <time>2022-04-06T08:00:02.877Z</time>
      </trkpt>
      <trkpt lat="44.09595" lon="5.98006">
        <ele>594.20001220703</ele>
        <time>2022-04-06T08:00:03.406Z</time>
      </trkpt>
      <trkpt lat="44.09593" lon="5.98019">
        <ele>595</ele>
        <time>2022-04-06T08:00:03.938Z</time>
      </trkpt>
      <trkpt lat="44.09593" lon="5.98027">
        <ele>595.59997558594</ele>
        <time>2022-04-06T08:00:04.471Z</time>
      </trkpt>
      <trkpt lat="44.09594" lon="5.98031">
        <ele>596</ele>
        <time>2022-04-06T08:00:05.005Z</time>
      </trkpt>
      <trkpt lat="44.09594" lon="5.98034">
        <ele>596.20001220703</ele>
        <time>2022-04-06T08:00:05.540Z</time>
      </trkpt>
      <trkpt lat="44.09594" lon="5.98039">
        <ele>596.59997558594</ele>
        <time>2022-04-06T08:00:06.076Z</time>
      </trkpt>
      <trkpt lat="44.09595" lon="5.98041">
        <ele>596.79998779297</ele>
        <time>2022-04-06T08:00:06.613Z</time>
      </trkpt>
      <trkpt lat="44.09597" lon="5.98043">
        <ele>596.79998779297</ele>
        <time>2022-04-06T08:00:07.150Z</time>
      </trkpt>
      <trkpt lat="44.09605" lon="5.98049">
        <ele>597.79998779297</ele>
        <time>2022-04-06T08:00:07.690Z</time>
      </trkpt>
      <trkpt lat="44.09606" lon="5.98051">
        <ele>598</ele>
        <time>2022-04-06T08:00:08.231Z</time>
      </trkpt>
      <trkpt lat="44.09612" lon="5.98055">
        <ele>599.40002441406</ele>
        <time>2022-04-06T08:00:08.774Z</time>
      </trkpt>
      <trkpt lat="44.09613" lon="5.98055">
        <ele>599.79998779297</ele>
        <time>2022-04-06T08:00:09.317Z</time>
      </trkpt>
      <trkpt lat="44.09614" lon="5.98052">
        <ele>600.40002441406</ele>
        <time>2022-04-06T08:00:09.861Z</time>
      </trkpt>
      <trkpt lat="44.09616" lon="5.9805">
        <ele>600.59997558594</ele>
        <time>2022-04-06T08:00:10.406Z</time>
      </trkpt>
      <trkpt lat="44.09616" lon="5.98046">
        <ele>600.59997558594</ele>
        <time>2022-04-06T08:00:10.951Z</time>
      </trkpt>
      <trkpt lat="44.09616" lon="5.98045">
        <ele>600.59997558594</ele>
        <time>2022-04-06T08:00:11.497Z</time>
      </trkpt>
      <trkpt lat="44.09617" lon="5.98051">
        <ele>600.79998779297</ele>
        <time>2022-04-06T08:00:12.044Z</time>
      </trkpt>
      <trkpt lat="44.09615" lon="5.98066">
        <ele>600.59997558594</ele>
        <time>2022-04-06T08:00:12.595Z</time>
      </trkpt>
      <trkpt lat="44.09615" lon="5.98068">
        <ele>600.59997558594</ele>
        <time>2022-04-06T08:00:13.146Z</time>
      </trkpt>
      <trkpt lat="44.09619" lon="5.98083">
        <ele>600</ele>
        <time>2022-04-06T08:00:13.701Z</time>
      </trkpt>
      <trkpt lat="44.09624" lon="5.98089">
        <ele>600.40002441406</ele>
        <time>2022-04-06T08:00:14.258Z</time>
      </trkpt>
      <trkpt lat="44.09627" lon="5.9809">
        <ele>600.40002441406</ele>
        <time>2022-04-06T08:00:14.816Z</time>
      </trkpt>
      <trkpt lat="44.09627" lon="5.9809">
        <ele>600.40002441406</ele>
        <time>2022-04-06T08:00:15.374Z</time>
      </trkpt>
      <trkpt lat="44.09632" lon="5.98095">
        <ele>600.40002441406</ele>
        <time>2022-04-06T08:00:15.934Z</time>
      </trkpt>
      <trkpt lat="44.09636" lon="5.98099">
        <ele>600.20001220703</ele>
        <time>2022-04-06T08:00:16.495Z</time>
      </trkpt>
      <trkpt lat="44.09638" lon="5.98101">
        <ele>600.20001220703</ele>
        <time>2022-04-06T08:00:17.057Z</time>
      </trkpt>
      <trkpt lat="44.0964" lon="5.98103">
        <ele>600.20001220703</ele>
        <time>2022-04-06T08:00:17.620Z</time>
      </trkpt>
      <trkpt lat="44.0965" lon="5.98115">
        <ele>600.40002441406</ele>
        <time>2022-04-06T08:00:18.187Z</time>
      </trkpt>
      <trkpt lat="44.09661" lon="5.98128">
        <ele>600.20001220703</ele>
        <time>2022-04-06T08:00:18.759Z</time>
      </trkpt>
      <trkpt lat="44.09673" lon="5.98144">
        <ele>599.40002441406</ele>
        <time>2022-04-06T08:00:19.336Z</time>
      </trkpt>
      <trkpt lat="44.09682" lon="5.98148">
        <ele>599.40002441406</ele>
        <time>2022-04-06T08:00:19.916Z</time>
      </trkpt>
      <trkpt lat="44.09684" lon="5.98146">
        <ele>599.40002441406</ele>
        <time>2022-04-06T08:00:20.497Z</time>
      </trkpt>
      <trkpt lat="44.09688" lon="5.98135">
        <ele>600.59997558594</ele>
        <time>2022-04-06T08:00:21.081Z</time>
      </trkpt>
      <trkpt lat="44.0969" lon="5.98133">
        <ele>600.59997558594</ele>
        <time>2022-04-06T08:00:21.665Z</time>
      </trkpt>
      <trkpt lat="44.09696" lon="5.98129">
        <ele>601.59997558594</ele>
        <time>2022-04-06T08:00:22.251Z</time>
      </trkpt>
      <trkpt lat="44.09697" lon="5.98128">
        <ele>601.59997558594</ele>
        <time>2022-04-06T08:00:22.838Z</time>
      </trkpt>
      <trkpt lat="44.097" lon="5.98128">
        <ele>601.79998779297</ele>
        <time>2022-04-06T08:00:23.426Z</time>
      </trkpt>
      <trkpt lat="44.09706" lon="5.98125">
        <ele>603.20001220703</ele>
        <time>2022-04-06T08:00:24.015Z</time>
      </trkpt>
      <trkpt lat="44.09713" lon="5.98119">
        <ele>604.20001220703</ele>
        <time>2022-04-06T08:00:24.607Z</time>
      </trkpt>
      <trkpt lat="44.09717" lon="5.98118">
        <ele>604.59997558594</ele>
        <time>2022-04-06T08:00:25.200Z</time>
      </trkpt>
      <trkpt lat="44.09724" lon="5.98114">
        <ele>605.59997558594</ele>
        <time>2022-04-06T08:00:25.796Z</time>
      </trkpt>
      <trkpt lat="44.09725" lon="5.98114">
        <ele>606.20001220703</ele>
        <time>2022-04-06T08:00:26.392Z</time>
      </trkpt>
      <trkpt lat="44.09728" lon="5.98114">
        <ele>606.79998779297</ele>
        <time>2022-04-06T08:00:26.989Z</time>
      </trkpt>
      <trkpt lat="44.09731" lon="5.98114">
        <ele>607.59997558594</ele>
        <time>2022-04-06T08:00:27.587Z</time>
      </trkpt>
      <trkpt lat="44.09736" lon="5.98113">
        <ele>608</ele>
        <time>2022-04-06T08:00:28.187Z</time>
      </trkpt>
      <trkpt lat="44.0974" lon="5.98114">
        <ele>608.59997558594</ele>
        <time>2022-04-06T08:00:28.788Z</time>
      </trkpt>
      <trkpt lat="44.09741" lon="5.98115">
        <ele>608.79998779297</ele>
        <time>2022-04-06T08:00:29.389Z</time>
      </trkpt>
      <trkpt lat="44.09745" lon="5.98116">
        <ele>609.20001220703</ele>
        <time>2022-04-06T08:00:29.992Z</time>
      </trkpt>
      <trkpt lat="44.09746" lon="5.98116">
        <ele>609.40002441406</ele>
        <time>2022-04-06T08:00:30.595Z</time>
      </trkpt>
      <trkpt lat="44.09749" lon="5.98117">
        <ele>609.59997558594</ele>
        <time>2022-04-06T08:00:31.199Z</time>
      </trkpt>
      <trkpt lat="44.09756" lon="5.98119">
        <ele>610</ele>
        <time>2022-04-06T08:00:31.805Z</time>
      </trkpt>
      <trkpt lat="44.0976" lon="5.98121">
        <ele>610.20001220703</ele>
        <time>2022-04-06T08:00:32.413Z</time>
      </trkpt>
      <trkpt lat="44.0977" lon="5.98123">
        <ele>611.20001220703</ele>
        <time>2022-04-06T08:00:33.024Z</time>
      </trkpt>
      <trkpt lat="44.0978" lon="5.98125">
        <ele>611.79998779297</ele>
        <time>2022-04-06T08:00:33.638Z</time>
      </trkpt>
      <trkpt lat="44.09783" lon="5.98124">
        <ele>612</ele>
        <time>2022-04-06T08:00:34.253Z</time>
      </trkpt>
      <trkpt lat="44.09786" lon="5.98121">
        <ele>612.20001220703</ele>
        <time>2022-04-06T08:00:34.869Z</time>
      </trkpt>
      <trkpt lat="44.09787" lon="5.98111">
        <ele>613</ele>
        <time>2022-04-06T08:00:35.487Z</time>
      </trkpt>
      <trkpt lat="44.09785" lon="5.98108">
        <ele>613.40002441406</ele>
        <time>2022-04-06T08:00:36.106Z</time>
      </trkpt>
      <trkpt lat="44.09784" lon="5.98103">
        <ele>614.40002441406</ele>
        <time>2022-04-06T08:00:36.727Z</time>
      </trkpt>
      <trkpt lat="44.09783" lon="5.98092">
        <ele>615.79998779297</ele>
        <time>2022-04-06T08:00:37.350Z</time>
      </trkpt>
      <trkpt lat="44.09782" lon="5.98089">
        <ele>616.20001220703</ele>
        <time>2022-04-06T08:00:37.974Z</time>
      </trkpt>
      <trkpt lat="44.0978" lon="5.98078">
        <ele>617.40002441406</ele>
        <time>2022-04-06T08:00:38.600Z</time>
      </trkpt>
      <trkpt lat="44.09778" lon="5.9807">
        <ele>618.20001220703</ele>
        <time>2022-04-06T08:00:39.228Z</time>
      </trkpt>
      <trkpt lat="44.09778" lon="5.98067">
        <ele>618.59997558594</ele>
        <time>2022-04-06T08:00:39.857Z</time>
      </trkpt>
      <trkpt lat="44.09778" lon="5.98059">
        <ele>620</ele>
        <time>2022-04-06T08:00:40.488Z</time>
      </trkpt>
      <trkpt lat="44.09777" lon="5.98053">
        <ele>621.20001220703</ele>
        <time>2022-04-06T08:00:41.120Z</time>
      </trkpt>
      <trkpt lat="44.09777" lon="5.98048">
        <ele>621.40002441406</ele>
        <time>2022-04-06T08:00:41.753Z</time>
      </trkpt>
      <trkpt lat="44.09776" lon="5.98039">
        <ele>622.20001220703</ele>
        <time>2022-04-06T08:00:42.388Z</time>
      </trkpt>
      <trkpt lat="44.09775" lon="5.98027">
        <ele>622.79998779297</ele>
        <time>2022-04-06T08:00:43.026Z</time>
      </trkpt>
      <trkpt lat="44.09775" lon="5.98025">
        <ele>623.20001220703</ele>
        <time>2022-04-06T08:00:43.665Z</time>
      </trkpt>
      <trkpt lat="44.09773" lon="5.98019">
        <ele>624.20001220703</ele>
        <time>2022-04-06T08:00:44.305Z</time>
      </trkpt>
      <trkpt lat="44.0977" lon="5.98013">
        <ele>624.79998779297</ele>
        <time>2022-04-06T08:00:44.947Z</time>
      </trkpt>
      <trkpt lat="44.09769" lon="5.9801">
        <ele>625</ele>
        <time>2022-04-06T08:00:45.589Z</time>
      </trkpt>
      <trkpt lat="44.09767" lon="5.98003">
        <ele>625.40002441406</ele>
        <time>2022-04-06T08:00:46.233Z</time>
      </trkpt>
      <trkpt lat="44.09768" lon="5.97995">
        <ele>626.59997558594</ele>
        <time>2022-04-06T08:00:46.879Z</time>
      </trkpt>
      <trkpt lat="44.0977" lon="5.97989">
        <ele>627.40002441406</ele>
        <time>2022-04-06T08:00:47.527Z</time>
      </trkpt>
      <trkpt lat="44.0977" lon="5.97984">
        <ele>627.59997558594</ele>
        <time>2022-04-06T08:00:48.176Z</time>
      </trkpt>
      <trkpt lat="44.09773" lon="5.9798">
        <ele>627.59997558594</ele>
        <time>2022-04-06T08:00:48.826Z</time>
      </trkpt>
      <trkpt lat="44.09785" lon="5.97962">
        <ele>627.79998779297</ele>
        <time>2022-04-06T08:00:49.481Z</time>
      </trkpt>
      <trkpt lat="44.09801" lon="5.97938">
        <ele>628.40002441406</ele>
        <time>2022-04-06T08:00:50.144Z</time>
      </trkpt>
      <trkpt lat="44.09804" lon="5.97932">
        <ele>629</ele>
        <time>2022-04-06T08:00:50.809Z</time>
      </trkpt>
      <trkpt lat="44.09813" lon="5.97921">
        <ele>629.40002441406</ele>
        <time>2022-04-06T08:00:51.477Z</time>
      </trkpt>
      <trkpt lat="44.09822" lon="5.97908">
        <ele>630</ele>
        <time>2022-04-06T08:00:52.149Z</time>
      </trkpt>
      <trkpt lat="44.09827" lon="5.97898">
        <ele>631</ele>
        <time>2022-04-06T08:00:52.824Z</time>
      </trkpt>
      <trkpt lat="44.09835" lon="5.97882">
        <ele>632.40002441406</ele>
        <time>2022-04-06T08:00:53.504Z</time>
      </trkpt>
      <trkpt lat="44.0984" lon="5.97873">
        <ele>633.20001220703</ele>
        <time>2022-04-06T08:00:54.186Z</time>
      </trkpt>
      <trkpt lat="44.0984" lon="5.9787">
        <ele>633.79998779297</ele>
        <time>2022-04-06T08:00:54.869Z</time>
      </trkpt>
      <trkpt lat="44.0984" lon="5.97859">
        <ele>634.79998779297</ele>
        <time>2022-04-06T08:00:55.554Z</time>
      </trkpt>
      <trkpt lat="44.09842" lon="5.97849">
        <ele>636</ele>
        <time>2022-04-06T08:00:56.242Z</time>
      </trkpt>
      <trkpt lat="44.09842" lon="5.97843">
        <ele>636.59997558594</ele>
        <time>2022-04-06T08:00:56.931Z</time>
      </trkpt>
      <trkpt lat="44.09843" lon="5.97836">
        <ele>637</ele>
        <time>2022-04-06T08:00:57.622Z</time>
      </trkpt>
      <trkpt lat="44.09846" lon="5.97827">
        <ele>638</ele>
        <time>2022-04-06T08:00:58.315Z</time>
      </trkpt>
      <trkpt lat="44.09848" lon="5.97824">
        <ele>638.20001220703</ele>
        <time>2022-04-06T08:00:59.009Z</time>
      </trkpt>
      <trkpt lat="44.09859" lon="5.97807">
        <ele>638.79998779297</ele>
        <time>2022-04-06T08:00:59.708Z</time>
      </trkpt>
      <trkpt lat="44.09861" lon="5.97804">
        <ele>639</ele>
        <time>2022-04-06T08:01:00.408Z</time>
      </trkpt>
      <trkpt lat="44.0987" lon="5.97792">
        <ele>640.40002441406</ele>
        <time>2022-04-06T08:01:01.112Z</time>
      </trkpt>
      <trkpt lat="44.09873" lon="5.97786">
        <ele>640.79998779297</ele>
        <time>2022-04-06T08:01:01.818Z</time>
      </trkpt>
      <trkpt lat="44.09877" lon="5.97776">
        <ele>641.59997558594</ele>
        <time>2022-04-06T08:01:02.526Z</time>
      </trkpt>
      <trkpt lat="44.09882" lon="5.97761">
        <ele>641.79998779297</ele>
        <time>2022-04-06T08:01:03.238Z</time>
      </trkpt>
      <trkpt lat="44.09891" lon="5.97734">
        <ele>642.59997558594</ele>
        <time>2022-04-06T08:01:03.957Z</time>
      </trkpt>
      <trkpt lat="44.09898" lon="5.97715">
        <ele>643.59997558594</ele>
        <time>2022-04-06T08:01:04.681Z</time>
      </trkpt>
      <trkpt lat="44.09899" lon="5.97711">
        <ele>643.79998779297</ele>
        <time>2022-04-06T08:01:05.406Z</time>
      </trkpt>
      <trkpt lat="44.09905" lon="5.97694">
        <ele>644.59997558594</ele>
        <time>2022-04-06T08:01:06.135Z</time>
      </trkpt>
      <trkpt lat="44.09908" lon="5.97683">
        <ele>645.20001220703</ele>
        <time>2022-04-06T08:01:06.867Z</time>
      </trkpt>
      <trkpt lat="44.0991" lon="5.97675">
        <ele>645.79998779297</ele>
        <time>2022-04-06T08:01:07.601Z</time>
      </trkpt>
      <trkpt lat="44.09914" lon="5.97659">
        <ele>646.79998779297</ele>
        <time>2022-04-06T08:01:08.338Z</time>
      </trkpt>
      <trkpt lat="44.09917" lon="5.97651">
        <ele>647.40002441406</ele>
        <time>2022-04-06T08:01:09.077Z</time>
      </trkpt>
      <trkpt lat="44.0992" lon="5.97643">
        <ele>648</ele>
        <time>2022-04-06T08:01:09.818Z</time>
      </trkpt>
      <trkpt lat="44.09926" lon="5.97625">
        <ele>648.40002441406</ele>
        <time>2022-04-06T08:01:10.564Z</time>
      </trkpt>
      <trkpt lat="44.09933" lon="5.9761">
        <ele>649</ele>
        <time>2022-04-06T08:01:11.314Z</time>
      </trkpt>
      <trkpt lat="44.09938" lon="5.97605">
        <ele>649.59997558594</ele>
        <time>2022-04-06T08:01:12.066Z</time>
      </trkpt>
      <trkpt lat="44.09942" lon="5.97599">
        <ele>650.20001220703</ele>
        <time>2022-04-06T08:01:12.820Z</time>
      </trkpt>
      <trkpt lat="44.09951" lon="5.97589">
        <ele>651.20001220703</ele>
        <time>2022-04-06T08:01:13.577Z</time>
      </trkpt>
      <trkpt lat="44.09957" lon="5.97582">
        <ele>651.79998779297</ele>
        <time>2022-04-06T08:01:14.337Z</time>
      </trkpt>
      <trkpt lat="44.09962" lon="5.97577">
        <ele>652.20001220703</ele>
        <time>2022-04-06T08:01:15.099Z</time>
      </trkpt>
      <trkpt lat="44.09968" lon="5.97573">
        <ele>653</ele>
        <time>2022-04-06T08:01:15.863Z</time>
      </trkpt>
      <trkpt lat="44.09973" lon="5.97571">
        <ele>653.40002441406</ele>
        <time>2022-04-06T08:01:16.629Z</time>
      </trkpt>
      <trkpt lat="44.09978" lon="5.97569">
        <ele>653.79998779297</ele>
        <time>2022-04-06T08:01:17.396Z</time>
      </trkpt>
      <trkpt lat="44.0998" lon="5.9757">
        <ele>654</ele>
        <time>2022-04-06T08:01:18.164Z</time>
      </trkpt>
      <trkpt lat="44.09984" lon="5.97572">
        <ele>654.40002441406</ele>
        <time>2022-04-06T08:01:18.933Z</time>
      </trkpt>
      <trkpt lat="44.09987" lon="5.97571">
        <ele>654.79998779297</ele>
        <time>2022-04-06T08:01:19.703Z</time>
      </trkpt>
      <trkpt lat="44.09993" lon="5.97562">
        <ele>655.79998779297</ele>
        <time>2022-04-06T08:01:20.476Z</time>
      </trkpt>
      <trkpt lat="44.09995" lon="5.9756">
        <ele>656</ele>
        <time>2022-04-06T08:01:21.250Z</time>
      </trkpt>
      <trkpt lat="44.09999" lon="5.97558">
        <ele>656.79998779297</ele>
        <time>2022-04-06T08:01:22.025Z</time>
      </trkpt>
      <trkpt lat="44.10001" lon="5.97558">
        <ele>657.79998779297</ele>
        <time>2022-04-06T08:01:22.801Z</time>
      </trkpt>
      <trkpt lat="44.10003" lon="5.97558">
        <ele>658.40002441406</ele>
        <time>2022-04-06T08:01:23.577Z</time>
      </trkpt>
      <trkpt lat="44.10004" lon="5.97559">
        <ele>659.20001220703</ele>
        <time>2022-04-06T08:01:24.354Z</time>
      </trkpt>
      <trkpt lat="44.10005" lon="5.97571">
        <ele>660</ele>
        <time>2022-04-06T08:01:25.134Z</time>
      </trkpt>
      <trkpt lat="44.10005" lon="5.97575">
        <ele>660.20001220703</ele>
        <time>2022-04-06T08:01:25.915Z</time>
      </trkpt>
      <trkpt lat="44.10005" lon="5.97584">
        <ele>661.40002441406</ele>
        <time>2022-04-06T08:01:26.698Z</time>
      </trkpt>
      <trkpt lat="44.10004" lon="5.97589">
        <ele>662.20001220703</ele>
        <time>2022-04-06T08:01:27.482Z</time>
      </trkpt>
      <trkpt lat="44.10003" lon="5.97592">
        <ele>662.79998779297</ele>
        <time>2022-04-06T08:01:28.267Z</time>
      </trkpt>
      <trkpt lat="44.10002" lon="5.97594">
        <ele>663.20001220703</ele>
        <time>2022-04-06T08:01:29.052Z</time>
      </trkpt>
      <trkpt lat="44.10001" lon="5.97597">
        <ele>664.20001220703</ele>
        <time>2022-04-06T08:01:29.838Z</time>
      </trkpt>
      <trkpt lat="44.10002" lon="5.97602">
        <ele>665.40002441406</ele>
        <time>2022-04-06T08:01:30.625Z</time>
      </trkpt>
      <trkpt lat="44.10004" lon="5.97602">
        <ele>665.59997558594</ele>
        <time>2022-04-06T08:01:31.413Z</time>
      </trkpt>
      <trkpt lat="44.10007" lon="5.97602">
        <ele>666.59997558594</ele>
        <time>2022-04-06T08:01:32.202Z</time>
      </trkpt>
      <trkpt lat="44.10012" lon="5.97602">
        <ele>667.59997558594</ele>
        <time>2022-04-06T08:01:32.992Z</time>
      </trkpt>
      <trkpt lat="44.10021" lon="5.97596">
        <ele>668.79998779297</ele>
        <time>2022-04-06T08:01:33.785Z</time>
      </trkpt>
      <trkpt lat="44.10025" lon="5.97592">
        <ele>668.79998779297</ele>
        <time>2022-04-06T08:01:34.580Z</time>
      </trkpt>
      <trkpt lat="44.10032" lon="5.97589">
        <ele>669.20001220703</ele>
        <time>2022-04-06T08:01:35.377Z</time>
      </trkpt>
      <trkpt lat="44.10036" lon="5.97588">
        <ele>669.59997558594</ele>
        <time>2022-04-06T08:01:36.176Z</time>
      </trkpt>
      <trkpt lat="44.10039" lon="5.97589">
        <ele>670</ele>
        <time>2022-04-06T08:01:36.975Z</time>
      </trkpt>
      <trkpt lat="44.10041" lon="5.97589">
        <ele>671</ele>
        <time>2022-04-06T08:01:37.775Z</time>
      </trkpt>
      <trkpt lat="44.10042" lon="5.97589">
        <ele>671.59997558594</ele>
        <time>2022-04-06T08:01:38.575Z</time>
      </trkpt>
      <trkpt lat="44.10049" lon="5.97584">
        <ele>672.59997558594</ele>
        <time>2022-04-06T08:01:39.378Z</time>
      </trkpt>
      <trkpt lat="44.10052" lon="5.97582">
        <ele>672.79998779297</ele>
        <time>2022-04-06T08:01:40.182Z</time>
      </trkpt>
      <trkpt lat="44.10065" lon="5.97572">
        <ele>674</ele>
        <time>2022-04-06T08:01:40.991Z</time>
      </trkpt>
      <trkpt lat="44.10069" lon="5.9757">
        <ele>674.20001220703</ele>
        <time>2022-04-06T08:01:41.801Z</time>
      </trkpt>
      <trkpt lat="44.10084" lon="5.97554">
        <ele>675</ele>
        <time>2022-04-06T08:01:42.617Z</time>
      </trkpt>
      <trkpt lat="44.10087" lon="5.97553">
        <ele>675.20001220703</ele>
        <time>2022-04-06T08:01:43.434Z</time>
      </trkpt>
      <trkpt lat="44.10102" lon="5.97545">
        <ele>675.59997558594</ele>
        <time>2022-04-06T08:01:44.256Z</time>
      </trkpt>
      <trkpt lat="44.10113" lon="5.97531">
        <ele>675.79998779297</ele>
        <time>2022-04-06T08:01:45.083Z</time>
      </trkpt>
      <trkpt lat="44.10117" lon="5.97526">
        <ele>676.20001220703</ele>
        <time>2022-04-06T08:01:45.911Z</time>
      </trkpt>
      <trkpt lat="44.10126" lon="5.97514">
        <ele>676.79998779297</ele>
        <time>2022-04-06T08:01:46.743Z</time>
      </trkpt>
      <trkpt lat="44.10132" lon="5.97505">
        <ele>677.40002441406</ele>
        <time>2022-04-06T08:01:47.578Z</time>
      </trkpt>
      <trkpt lat="44.10142" lon="5.9749">
        <ele>678.40002441406</ele>
        <time>2022-04-06T08:01:48.418Z</time>
      </trkpt>
      <trkpt lat="44.1015" lon="5.97476">
        <ele>679</ele>
        <time>2022-04-06T08:01:49.262Z</time>
      </trkpt>
      <trkpt lat="44.10155" lon="5.9747">
        <ele>679.59997558594</ele>
        <time>2022-04-06T08:01:50.108Z</time>
      </trkpt>
      <trkpt lat="44.10158" lon="5.97463">
        <ele>680</ele>
        <time>2022-04-06T08:01:50.956Z</time>
      </trkpt>
      <trkpt lat="44.10161" lon="5.97454">
        <ele>680.79998779297</ele>
        <time>2022-04-06T08:01:51.806Z</time>
      </trkpt>
      <trkpt lat="44.10166" lon="5.97439">
        <ele>681.79998779297</ele>
        <time>2022-04-06T08:01:52.660Z</time>
      </trkpt>
      <trkpt lat="44.10172" lon="5.97432">
        <ele>683</ele>
        <time>2022-04-06T08:01:53.517Z</time>
      </trkpt>
      <trkpt lat="44.10177" lon="5.97425">
        <ele>683.40002441406</ele>
        <time>2022-04-06T08:01:54.376Z</time>
      </trkpt>
      <trkpt lat="44.10179" lon="5.97419">
        <ele>683.59997558594</ele>
        <time>2022-04-06T08:01:55.236Z</time>
      </trkpt>
      <trkpt lat="44.10184" lon="5.97412">
        <ele>683.79998779297</ele>
        <time>2022-04-06T08:01:56.098Z</time>
      </trkpt>
      <trkpt lat="44.10187" lon="5.97402">
        <ele>684.20001220703</ele>
        <time>2022-04-06T08:01:56.963Z</time>
      </trkpt>
      <trkpt lat="44.10187" lon="5.97393">
        <ele>685.20001220703</ele>
        <time>2022-04-06T08:01:57.830Z</time>
      </trkpt>
      <trkpt lat="44.10188" lon="5.97386">
        <ele>686.59997558594</ele>
        <time>2022-04-06T08:01:58.699Z</time>
      </trkpt>
      <trkpt lat="44.1019" lon="5.97383">
        <ele>687.20001220703</ele>
        <time>2022-04-06T08:01:59.568Z</time>
      </trkpt>
      <trkpt lat="44.10192" lon="5.9738">
        <ele>687.79998779297</ele>
        <time>2022-04-06T08:02:00.438Z</time>
      </trkpt>
      <trkpt lat="44.10194" lon="5.97376">
        <ele>688</ele>
        <time>2022-04-06T08:02:01.309Z</time>
      </trkpt>
      <trkpt lat="44.10201" lon="5.97362">
        <ele>688.79998779297</ele>
        <time>2022-04-06T08:02:02.184Z</time>
      </trkpt>
      <trkpt lat="44.10215" lon="5.97351">
        <ele>689.20001220703</ele>
        <time>2022-04-06T08:02:03.065Z</time>
      </trkpt>
      <trkpt lat="44.10228" lon="5.9734">
        <ele>690</ele>
        <time>2022-04-06T08:02:03.950Z</time>
      </trkpt>
      <trkpt lat="44.10232" lon="5.97336">
        <ele>690.59997558594</ele>
        <time>2022-04-06T08:02:04.837Z</time>
      </trkpt>
      <trkpt lat="44.10242" lon="5.97327">
        <ele>691.20001220703</ele>
        <time>2022-04-06T08:02:05.728Z</time>
      </trkpt>
      <trkpt lat="44.1025" lon="5.97318">
        <ele>692.20001220703</ele>
        <time>2022-04-06T08:02:06.622Z</time>
      </trkpt>
      <trkpt lat="44.10251" lon="5.97316">
        <ele>692.20001220703</ele>
        <time>2022-04-06T08:02:07.516Z</time>
      </trkpt>
      <trkpt lat="44.10253" lon="5.97316">
        <ele>692.40002441406</ele>
        <time>2022-04-06T08:02:08.411Z</time>
      </trkpt>
      <trkpt lat="44.10254" lon="5.9732">
        <ele>692.59997558594</ele>
        <time>2022-04-06T08:02:09.307Z</time>
      </trkpt>
      <trkpt lat="44.10252" lon="5.97325">
        <ele>693.40002441406</ele>
        <time>2022-04-06T08:02:10.204Z</time>
      </trkpt>
      <trkpt lat="44.1025" lon="5.97328">
        <ele>693.79998779297</ele>
        <time>2022-04-06T08:02:11.102Z</time>
      </trkpt>
      <trkpt lat="44.10248" lon="5.97332">
        <ele>694</ele>
        <time>2022-04-06T08:02:12.001Z</time>
      </trkpt>
      <trkpt lat="44.10246" lon="5.97335">
        <ele>693.79998779297</ele>
        <time>2022-04-06T08:02:12.901Z</time>
      </trkpt>
      <trkpt lat="44.10244" lon="5.97341">
        <ele>694.20001220703</ele>
        <time>2022-04-06T08:02:13.803Z</time>
      </trkpt>
      <trkpt lat="44.10242" lon="5.97344">
        <ele>694.59997558594</ele>
        <time>2022-04-06T08:02:14.706Z</time>
      </trkpt>
      <trkpt lat="44.10234" lon="5.97359">
        <ele>695.79998779297</ele>
        <time>2022-04-06T08:02:15.613Z</time>
      </trkpt>
      <trkpt lat="44.10232" lon="5.97361">
        <ele>696.20001220703</ele>
        <time>2022-04-06T08:02:16.521Z</time>
      </trkpt>
      <trkpt lat="44.10228" lon="5.9737">
        <ele>696.79998779297</ele>
        <time>2022-04-06T08:02:17.431Z</time>
      </trkpt>
      <trkpt lat="44.10228" lon="5.97374">
        <ele>697.20001220703</ele>
        <time>2022-04-06T08:02:18.342Z</time>
      </trkpt>
      <trkpt lat="44.10228" lon="5.97384">
        <ele>698.20001220703</ele>
        <time>2022-04-06T08:02:19.255Z</time>
      </trkpt>
      <trkpt lat="44.10227" lon="5.97393">
        <ele>698.59997558594</ele>
        <time>2022-04-06T08:02:20.170Z</time>
      </trkpt>
      <trkpt lat="44.10225" lon="5.9741">
        <ele>699</ele>
        <time>2022-04-06T08:02:21.089Z</time>
      </trkpt>
      <trkpt lat="44.10225" lon="5.97416">
        <ele>699.40002441406</ele>
        <time>2022-04-06T08:02:22.010Z</time>
      </trkpt>
      <trkpt lat="44.10228" lon="5.97418">
        <ele>699.79998779297</ele>
        <time>2022-04-06T08:02:22.932Z</time>
      </trkpt>
      <trkpt lat="44.10233" lon="5.97413">
        <ele>700.59997558594</ele>
        <time>2022-04-06T08:02:23.856Z</time>
      </trkpt>
      <trkpt lat="44.10237" lon="5.97409">
        <ele>701.40002441406</ele>
        <time>2022-04-06T08:02:24.781Z</time>
      </trkpt>
      <trkpt lat="44.10239" lon="5.97406">
        <ele>701.79998779297</ele>
        <time>2022-04-06T08:02:25.707Z</time>
      </trkpt>
      <trkpt lat="44.10244" lon="5.97398">
        <ele>703.20001220703</ele>
        <time>2022-04-06T08:02:26.636Z</time>
      </trkpt>
      <trkpt lat="44.10245" lon="5.97395">
        <ele>703.59997558594</ele>
        <time>2022-04-06T08:02:27.565Z</time>
      </trkpt>
      <trkpt lat="44.10248" lon="5.97385">
        <ele>704.40002441406</ele>
        <time>2022-04-06T08:02:28.497Z</time>
      </trkpt>
      <trkpt lat="44.10254" lon="5.97377">
        <ele>704.79998779297</ele>
        <time>2022-04-06T08:02:29.431Z</time>
      </trkpt>
      <trkpt lat="44.10261" lon="5.97376">
        <ele>705.40002441406</ele>
        <time>2022-04-06T08:02:30.368Z</time>
      </trkpt>
      <trkpt lat="44.10263" lon="5.97378">
        <ele>706</ele>
        <time>2022-04-06T08:02:31.305Z</time>
      </trkpt>
      <trkpt lat="44.10263" lon="5.97382">
        <ele>706.59997558594</ele>
        <time>2022-04-06T08:02:32.243Z</time>
      </trkpt>
      <trkpt lat="44.10262" lon="5.97392">
        <ele>707.40002441406</ele>
        <time>2022-04-06T08:02:33.184Z</time>
      </trkpt>
      <trkpt lat="44.10261" lon="5.97396">
        <ele>707.59997558594</ele>
        <time>2022-04-06T08:02:34.125Z</time>
      </trkpt>
      <trkpt lat="44.1026" lon="5.97409">
        <ele>708.40002441406</ele>
        <time>2022-04-06T08:02:35.069Z</time>
      </trkpt>
      <trkpt lat="44.10261" lon="5.97409">
        <ele>708.79998779297</ele>
        <time>2022-04-06T08:02:36.014Z</time>
      </trkpt>
      <trkpt lat="44.10264" lon="5.97406">
        <ele>709.59997558594</ele>
        <time>2022-04-06T08:02:36.960Z</time>
      </trkpt>
      <trkpt lat="44.10268" lon="5.97399">
        <ele>710</ele>
        <time>2022-04-06T08:02:37.908Z</time>
      </trkpt>
      <trkpt lat="44.10269" lon="5.97397">
        <ele>710.20001220703</ele>
        <time>2022-04-06T08:02:38.857Z</time>
      </trkpt>
      <trkpt lat="44.10271" lon="5.97394">
        <ele>710.59997558594</ele>
        <time>2022-04-06T08:02:39.807Z</time>
      </trkpt>
      <trkpt lat="44.10278" lon="5.97389">
        <ele>711.20001220703</ele>
        <time>2022-04-06T08:02:40.759Z</time>
      </trkpt>
      <trkpt lat="44.1028" lon="5.97389">
        <ele>711.40002441406</ele>
        <time>2022-04-06T08:02:41.712Z</time>
      </trkpt>
      <trkpt lat="44.10284" lon="5.97388">
        <ele>712.40002441406</ele>
        <time>2022-04-06T08:02:42.666Z</time>
      </trkpt>
      <trkpt lat="44.10287" lon="5.97389">
        <ele>713</ele>
        <time>2022-04-06T08:02:43.621Z</time>
      </trkpt>
      <trkpt lat="44.10288" lon="5.97391">
        <ele>713.20001220703</ele>
        <time>2022-04-06T08:02:44.576Z</time>
      </trkpt>
      <trkpt lat="44.10289" lon="5.97393">
        <ele>713.59997558594</ele>
        <time>2022-04-06T08:02:45.532Z</time>
      </trkpt>
      <trkpt lat="44.10289" lon="5.97401">
        <ele>714.40002441406</ele>
        <time>2022-04-06T08:02:46.490Z</time>
      </trkpt>
      <trkpt lat="44.10286" lon="5.97408">
        <ele>714.40002441406</ele>
        <time>2022-04-06T08:02:47.450Z</time>
      </trkpt>
      <trkpt lat="44.10278" lon="5.9742">
        <ele>713.79998779297</ele>
        <time>2022-04-06T08:02:48.413Z</time>
      </trkpt>
      <trkpt lat="44.10264" lon="5.97444">
        <ele>712</ele>
        <time>2022-04-06T08:02:49.383Z</time>
      </trkpt>
      <trkpt lat="44.10257" lon="5.97458">
        <ele>710.79998779297</ele>
        <time>2022-04-06T08:02:50.357Z</time>
      </trkpt>
      <trkpt lat="44.10247" lon="5.97465">
        <ele>710</ele>
        <time>2022-04-06T08:02:51.335Z</time>
      </trkpt>
      <trkpt lat="44.10244" lon="5.97468">
        <ele>709.40002441406</ele>
        <time>2022-04-06T08:02:52.314Z</time>
      </trkpt>
      <trkpt lat="44.10237" lon="5.97481">
        <ele>709</ele>
        <time>2022-04-06T08:02:53.297Z</time>
      </trkpt>
      <trkpt lat="44.10236" lon="5.9749">
        <ele>709.79998779297</ele>
        <time>2022-04-06T08:02:54.282Z</time>
      </trkpt>
      <trkpt lat="44.10236" lon="5.97494">
        <ele>710.40002441406</ele>
        <time>2022-04-06T08:02:55.268Z</time>
      </trkpt>
      <trkpt lat="44.10236" lon="5.97501">
        <ele>711.79998779297</ele>
        <time>2022-04-06T08:02:56.255Z</time>
      </trkpt>
      <trkpt lat="44.10234" lon="5.97512">
        <ele>713.20001220703</ele>
        <time>2022-04-06T08:02:57.245Z</time>
      </trkpt>
      <trkpt lat="44.10233" lon="5.97523">
        <ele>714.59997558594</ele>
        <time>2022-04-06T08:02:58.237Z</time>
      </trkpt>
      <trkpt lat="44.10235" lon="5.97534">
        <ele>715.79998779297</ele>
        <time>2022-04-06T08:02:59.232Z</time>
      </trkpt>
      <trkpt lat="44.10237" lon="5.97539">
        <ele>716.40002441406</ele>
        <time>2022-04-06T08:03:00.228Z</time>
      </trkpt>
      <trkpt lat="44.10239" lon="5.97541">
        <ele>716.79998779297</ele>
        <time>2022-04-06T08:03:01.225Z</time>
      </trkpt>
      <trkpt lat="44.10246" lon="5.97552">
        <ele>717.40002441406</ele>
        <time>2022-04-06T08:03:02.225Z</time>
      </trkpt>
      <trkpt lat="44.10248" lon="5.97557">
        <ele>717.20001220703</ele>
        <time>2022-04-06T08:03:03.227Z</time>
      </trkpt>
      <trkpt lat="44.10251" lon="5.97565">
        <ele>716.79998779297</ele>
        <time>2022-04-06T08:03:04.231Z</time>
      </trkpt>
      <trkpt lat="44.10253" lon="5.97567">
        <ele>716.20001220703</ele>
        <time>2022-04-06T08:03:05.235Z</time>
      </trkpt>
      <trkpt lat="44.10253" lon="5.97568">
        <ele>715.59997558594</ele>
        <time>2022-04-06T08:03:06.240Z</time>
      </trkpt>
      <trkpt lat="44.10258" lon="5.97567">
        <ele>715</ele>
        <time>2022-04-06T08:03:07.246Z</time>
      </trkpt>
      <trkpt lat="44.10274" lon="5.97567">
        <ele>715.59997558594</ele>
        <time>2022-04-06T08:03:08.257Z</time>
      </trkpt>
      <trkpt lat="44.10296" lon="5.97569">
        <ele>715.20001220703</ele>
        <time>2022-04-06T08:03:09.275Z</time>
      </trkpt>
      <trkpt lat="44.10314" lon="5.97574">
        <ele>714.59997558594</ele>
        <time>2022-04-06T08:03:10.299Z</time>
      </trkpt>
      <trkpt lat="44.10318" lon="5.97576">
        <ele>714.59997558594</ele>
        <time>2022-04-06T08:03:11.324Z</time>
      </trkpt>
      <trkpt lat="44.10341" lon="5.97579">
        <ele>713.79998779297</ele>
        <time>2022-04-06T08:03:12.357Z</time>
      </trkpt>
      <trkpt lat="44.10356" lon="5.97575">
        <ele>713</ele>
        <time>2022-04-06T08:03:13.394Z</time>
      </trkpt>
      <trkpt lat="44.10366" lon="5.97572">
        <ele>712.59997558594</ele>
        <time>2022-04-06T08:03:14.435Z</time>
      </trkpt>
      <trkpt lat="44.1037" lon="5.97573">
        <ele>712.40002441406</ele>
        <time>2022-04-06T08:03:15.477Z</time>
      </trkpt>
      <trkpt lat="44.1039" lon="5.97572">
        <ele>711.59997558594</ele>
        <time>2022-04-06T08:03:16.525Z</time>
      </trkpt>
      <trkpt lat="44.10394" lon="5.97573">
        <ele>711.59997558594</ele>
        <time>2022-04-06T08:03:17.575Z</time>
      </trkpt>
      <trkpt lat="44.10412" lon="5.97576">
        <ele>711.20001220703</ele>
        <time>2022-04-06T08:03:18.630Z</time>
      </trkpt>
      <trkpt lat="44.1042" lon="5.97575">
        <ele>711</ele>
        <time>2022-04-06T08:03:19.688Z</time>
      </trkpt>
      <trkpt lat="44.10428" lon="5.9757">
        <ele>711.20001220703</ele>
        <time>2022-04-06T08:03:20.749Z</time>
      </trkpt>
      <trkpt lat="44.10438" lon="5.97566">
        <ele>712.79998779297</ele>
        <time>2022-04-06T08:03:21.813Z</time>
      </trkpt>
      <trkpt lat="44.1044" lon="5.97565">
        <ele>713.20001220703</ele>
        <time>2022-04-06T08:03:22.878Z</time>
      </trkpt>
      <trkpt lat="44.10441" lon="5.97564">
        <ele>714</ele>
        <time>2022-04-06T08:03:23.943Z</time>
      </trkpt>
      <trkpt lat="44.10442" lon="5.97558">
        <ele>714.79998779297</ele>
        <time>2022-04-06T08:03:25.009Z</time>
      </trkpt>
      <trkpt lat="44.10438" lon="5.97553">
        <ele>714.79998779297</ele>
        <time>2022-04-06T08:03:26.077Z</time>
      </trkpt>
      <trkpt lat="44.10433" lon="5.97548">
        <ele>714.79998779297</ele>
        <time>2022-04-06T08:03:27.147Z</time>
      </trkpt>
      <trkpt lat="44.10426" lon="5.97539">
        <ele>715</ele>
        <time>2022-04-06T08:03:28.220Z</time>
      </trkpt>
      <trkpt lat="44.10425" lon="5.97536">
        <ele>715.20001220703</ele>
        <time>2022-04-06T08:03:29.294Z</time>
      </trkpt>
      <trkpt lat="44.10422" lon="5.97526">
        <ele>716.59997558594</ele>
        <time>2022-04-06T08:03:30.370Z</time>
      </trkpt>
      <trkpt lat="44.10421" lon="5.97524">
        <ele>717.20001220703</ele>
        <time>2022-04-06T08:03:31.447Z</time>
      </trkpt>
      <trkpt lat="44.10417" lon="5.97522">
        <ele>717.79998779297</ele>
        <time>2022-04-06T08:03:32.525Z</time>
      </trkpt>
      <trkpt lat="44.10415" lon="5.9752">
        <ele>718</ele>
        <time>2022-04-06T08:03:33.604Z</time>
      </trkpt>
      <trkpt lat="44.10413" lon="5.97514">
        <ele>718.79998779297</ele>
        <time>2022-04-06T08:03:34.685Z</time>
      </trkpt>
      <trkpt lat="44.1041" lon="5.97509">
        <ele>720</ele>
        <time>2022-04-06T08:03:35.767Z</time>
      </trkpt>
      <trkpt lat="44.10402" lon="5.97507">
        <ele>721.20001220703</ele>
        <time>2022-04-06T08:03:36.852Z</time>
      </trkpt>
      <trkpt lat="44.104" lon="5.97504">
        <ele>721.40002441406</ele>
        <time>2022-04-06T08:03:37.937Z</time>
      </trkpt>
      <trkpt lat="44.10396" lon="5.97497">
        <ele>722.59997558594</ele>
        <time>2022-04-06T08:03:39.024Z</time>
      </trkpt>
      <trkpt lat="44.10394" lon="5.97494">
        <ele>723</ele>
        <time>2022-04-06T08:03:40.112Z</time>
      </trkpt>
      <trkpt lat="44.10394" lon="5.97492">
        <ele>723.59997558594</ele>
        <time>2022-04-06T08:03:41.201Z</time>
      </trkpt>
      <trkpt lat="44.10394" lon="5.97488">
        <ele>724.40002441406</ele>
        <time>2022-04-06T08:03:42.291Z</time>
      </trkpt>
      <trkpt lat="44.10394" lon="5.97487">
        <ele>724.20001220703</ele>
        <time>2022-04-06T08:03:43.381Z</time>
      </trkpt>
      <trkpt lat="44.10396" lon="5.97487">
        <ele>724</ele>
        <time>2022-04-06T08:03:44.472Z</time>
      </trkpt>
      <trkpt lat="44.10402" lon="5.97489">
        <ele>722.79998779297</ele>
        <time>2022-04-06T08:03:45.564Z</time>
      </trkpt>
      <trkpt lat="44.10406" lon="5.97491">
        <ele>720.79998779297</ele>
        <time>2022-04-06T08:03:46.658Z</time>
      </trkpt>
      <trkpt lat="44.10409" lon="5.97491">
        <ele>719.79998779297</ele>
        <time>2022-04-06T08:03:47.753Z</time>
      </trkpt>
      <trkpt lat="44.10413" lon="5.97493">
        <ele>718.79998779297</ele>
        <time>2022-04-06T08:03:48.849Z</time>
      </trkpt>
      <trkpt lat="44.10415" lon="5.97495">
        <ele>717</ele>
        <time>2022-04-06T08:03:49.946Z</time>
      </trkpt>
      <trkpt lat="44.10417" lon="5.97499">
        <ele>715.79998779297</ele>
        <time>2022-04-06T08:03:51.044Z</time>
      </trkpt>
      <trkpt lat="44.1042" lon="5.97504">
        <ele>714.59997558594</ele>
        <time>2022-04-06T08:03:52.143Z</time>
      </trkpt>
      <trkpt lat="44.10424" lon="5.97512">
        <ele>713.20001220703</ele>
        <time>2022-04-06T08:03:53.245Z</time>
      </trkpt>
      <trkpt lat="44.10424" lon="5.97516">
        <ele>712.79998779297</ele>
        <time>2022-04-06T08:03:54.348Z</time>
      </trkpt>
      <trkpt lat="44.10428" lon="5.97523">
        <ele>712.20001220703</ele>
        <time>2022-04-06T08:03:55.453Z</time>
      </trkpt>
      <trkpt lat="44.10432" lon="5.97527">
        <ele>711.79998779297</ele>
        <time>2022-04-06T08:03:56.559Z</time>
      </trkpt>
      <trkpt lat="44.1044" lon="5.97535">
        <ele>710.40002441406</ele>
        <time>2022-04-06T08:03:57.668Z</time>
      </trkpt>
      <trkpt lat="44.10447" lon="5.97542">
        <ele>709.40002441406</ele>
        <time>2022-04-06T08:03:58.780Z</time>
      </trkpt>
      <trkpt lat="44.10455" lon="5.97546">
        <ele>708.40002441406</ele>
        <time>2022-04-06T08:03:59.894Z</time>
      </trkpt>
      <trkpt lat="44.10457" lon="5.97546">
        <ele>708</ele>
        <time>2022-04-06T08:04:01.009Z</time>
      </trkpt>
      <trkpt lat="44.1046" lon="5.97549">
        <ele>707.59997558594</ele>
        <time>2022-04-06T08:04:02.125Z</time>
      </trkpt>
      <trkpt lat="44.10462" lon="5.97551">
        <ele>706.40002441406</ele>
        <time>2022-04-06T08:04:03.242Z</time>
      </trkpt>
      <trkpt lat="44.10464" lon="5.97553">
        <ele>704.79998779297</ele>
        <time>2022-04-06T08:04:04.360Z</time>
      </trkpt>
      <trkpt lat="44.10469" lon="5.97558">
        <ele>703.40002441406</ele>
        <time>2022-04-06T08:04:05.480Z</time>
      </trkpt>
      <trkpt lat="44.10476" lon="5.97562">
        <ele>701.59997558594</ele>
        <time>2022-04-06T08:04:06.602Z</time>
      </trkpt>
      <trkpt lat="44.10484" lon="5.97568">
        <ele>699.40002441406</ele>
        <time>2022-04-06T08:04:07.727Z</time>
      </trkpt>
      <trkpt lat="44.10487" lon="5.97572">
        <ele>698.20001220703</ele>
        <time>2022-04-06T08:04:08.853Z</time>
      </trkpt>
      <trkpt lat="44.10489" lon="5.97575">
        <ele>696.40002441406</ele>
        <time>2022-04-06T08:04:09.981Z</time>
      </trkpt>
      <trkpt lat="44.10495" lon="5.9758">
        <ele>695.20001220703</ele>
        <time>2022-04-06T08:04:11.111Z</time>
      </trkpt>
      <trkpt lat="44.10502" lon="5.97587">
        <ele>693.59997558594</ele>
        <time>2022-04-06T08:04:12.243Z</time>
      </trkpt>
      <trkpt lat="44.10506" lon="5.97591">
        <ele>692.59997558594</ele>
        <time>2022-04-06T08:04:13.377Z</time>
      </trkpt>
      <trkpt lat="44.10509" lon="5.97595">
        <ele>691.79998779297</ele>
        <time>2022-04-06T08:04:14.512Z</time>
      </trkpt>
      <trkpt lat="44.10514" lon="5.97599">
        <ele>690.20001220703</ele>
        <time>2022-04-06T08:04:15.649Z</time>
      </trkpt>
      <trkpt lat="44.10521" lon="5.97603">
        <ele>689</ele>
        <time>2022-04-06T08:04:16.788Z</time>
      </trkpt>
      <trkpt lat="44.10523" lon="5.97607">
        <ele>687.59997558594</ele>
        <time>2022-04-06T08:04:17.929Z</time>
      </trkpt>
      <trkpt lat="44.10529" lon="5.97617">
        <ele>686</ele>
        <time>2022-04-06T08:04:19.073Z</time>
      </trkpt>
      <trkpt lat="44.10534" lon="5.97623">
        <ele>685.20001220703</ele>
        <time>2022-04-06T08:04:20.219Z</time>
      </trkpt>
      <trkpt lat="44.10537" lon="5.97625">
        <ele>684.79998779297</ele>
        <time>2022-04-06T08:04:21.366Z</time>
      </trkpt>
      <trkpt lat="44.10541" lon="5.97627">
        <ele>684.20001220703</ele>
        <time>2022-04-06T08:04:22.514Z</time>
      </trkpt>
      <trkpt lat="44.10544" lon="5.97631">
        <ele>683.20001220703</ele>
        <time>2022-04-06T08:04:23.663Z</time>
      </trkpt>
      <trkpt lat="44.1055" lon="5.97635">
        <ele>681.79998779297</ele>
        <time>2022-04-06T08:04:24.814Z</time>
      </trkpt>
      <trkpt lat="44.10556" lon="5.97637">
        <ele>680.40002441406</ele>
        <time>2022-04-06T08:04:25.967Z</time>
      </trkpt>
      <trkpt lat="44.10557" lon="5.97635">
        <ele>679.40002441406</ele>
        <time>2022-04-06T08:04:27.121Z</time>
      </trkpt>
      <trkpt lat="44.10557" lon="5.97632">
        <ele>678</ele>
        <time>2022-04-06T08:04:28.276Z</time>
      </trkpt>
      <trkpt lat="44.10557" lon="5.97628">
        <ele>677</ele>
        <time>2022-04-06T08:04:29.432Z</time>
      </trkpt>
      <trkpt lat="44.10556" lon="5.97623">
        <ele>675.79998779297</ele>
        <time>2022-04-06T08:04:30.589Z</time>
      </trkpt>
      <trkpt lat="44.10555" lon="5.97618">
        <ele>674.40002441406</ele>
        <time>2022-04-06T08:04:31.747Z</time>
      </trkpt>
      <trkpt lat="44.10554" lon="5.97613">
        <ele>673.40002441406</ele>
        <time>2022-04-06T08:04:32.906Z</time>
      </trkpt>
      <trkpt lat="44.10554" lon="5.97604">
        <ele>672</ele>
        <time>2022-04-06T08:04:34.067Z</time>
      </trkpt>
      <trkpt lat="44.10556" lon="5.97594">
        <ele>669.40002441406</ele>
        <time>2022-04-06T08:04:35.231Z</time>
      </trkpt>
      <trkpt lat="44.10557" lon="5.9759">
        <ele>668</ele>
        <time>2022-04-06T08:04:36.395Z</time>
      </trkpt>
      <trkpt lat="44.10559" lon="5.97589">
        <ele>667</ele>
        <time>2022-04-06T08:04:37.560Z</time>
      </trkpt>
      <trkpt lat="44.10561" lon="5.97591">
        <ele>666</ele>
        <time>2022-04-06T08:04:38.726Z</time>
      </trkpt>
      <trkpt lat="44.10564" lon="5.97594">
        <ele>665</ele>
        <time>2022-04-06T08:04:39.893Z</time>
      </trkpt>
      <trkpt lat="44.10566" lon="5.97596">
        <ele>664.20001220703</ele>
        <time>2022-04-06T08:04:41.061Z</time>
      </trkpt>
      <trkpt lat="44.10569" lon="5.97596">
        <ele>663.79998779297</ele>
        <time>2022-04-06T08:04:42.230Z</time>
      </trkpt>
      <trkpt lat="44.10575" lon="5.97598">
        <ele>662.40002441406</ele>
        <time>2022-04-06T08:04:43.401Z</time>
      </trkpt>
      <trkpt lat="44.10583" lon="5.97602">
        <ele>660.20001220703</ele>
        <time>2022-04-06T08:04:44.574Z</time>
      </trkpt>
      <trkpt lat="44.10586" lon="5.97605">
        <ele>659</ele>
        <time>2022-04-06T08:04:45.749Z</time>
      </trkpt>
      <trkpt lat="44.1059" lon="5.97608">
        <ele>658</ele>
        <time>2022-04-06T08:04:46.925Z</time>
      </trkpt>
      <trkpt lat="44.10595" lon="5.97615">
        <ele>656.79998779297</ele>
        <time>2022-04-06T08:04:48.103Z</time>
      </trkpt>
      <trkpt lat="44.10599" lon="5.97618">
        <ele>656.20001220703</ele>
        <time>2022-04-06T08:04:49.283Z</time>
      </trkpt>
      <trkpt lat="44.10603" lon="5.97623">
        <ele>655.59997558594</ele>
        <time>2022-04-06T08:04:50.464Z</time>
      </trkpt>
      <trkpt lat="44.10608" lon="5.97627">
        <ele>654.59997558594</ele>
        <time>2022-04-06T08:04:51.647Z</time>
      </trkpt>
      <trkpt lat="44.10612" lon="5.97632">
        <ele>653.59997558594</ele>
        <time>2022-04-06T08:04:52.832Z</time>
      </trkpt>
      <trkpt lat="44.10621" lon="5.97639">
        <ele>652.20001220703</ele>
        <time>2022-04-06T08:04:54.020Z</time>
      </trkpt>
      <trkpt lat="44.10625" lon="5.9764">
        <ele>651.79998779297</ele>
        <time>2022-04-06T08:04:55.209Z</time>
      </trkpt>
      <trkpt lat="44.1063" lon="5.9764">
        <ele>651.59997558594</ele>
        <time>2022-04-06T08:04:56.400Z</time>
      </trkpt>
      <trkpt lat="44.10635" lon="5.97641">
        <ele>651.40002441406</ele>
        <time>2022-04-06T08:04:57.593Z</time>
      </trkpt>
      <trkpt lat="44.10639" lon="5.97643">
        <ele>651.20001220703</ele>
        <time>2022-04-06T08:04:58.787Z</time>
      </trkpt>
      <trkpt lat="44.10643" lon="5.97644">
        <ele>651</ele>
        <time>2022-04-06T08:04:59.982Z</time>
      </trkpt>
      <trkpt lat="44.10656" lon="5.97648">
        <ele>650</ele>
        <time>2022-04-06T08:05:01.182Z</time>
      </trkpt>
      <trkpt lat="44.10659" lon="5.97648">
        <ele>649.59997558594</ele>
        <time>2022-04-06T08:05:02.383Z</time>
      </trkpt>
      <trkpt lat="44.10666" lon="5.97643">
        <ele>649</ele>
        <time>2022-04-06T08:05:03.586Z</time>
      </trkpt>
      <trkpt lat="44.1067" lon="5.97639">
        <ele>648</ele>
        <time>2022-04-06T08:05:04.790Z</time>
      </trkpt>
      <trkpt lat="44.10673" lon="5.97636">
        <ele>646.79998779297</ele>
        <time>2022-04-06T08:05:05.996Z</time>
      </trkpt>
      <trkpt lat="44.10677" lon="5.97633">
        <ele>645.79998779297</ele>
        <time>2022-04-06T08:05:07.203Z</time>
      </trkpt>
      <trkpt lat="44.10682" lon="5.97631">
        <ele>645</ele>
        <time>2022-04-06T08:05:08.412Z</time>
      </trkpt>
      <trkpt lat="44.10686" lon="5.9763">
        <ele>644.20001220703</ele>
        <time>2022-04-06T08:05:09.622Z</time>
      </trkpt>
      <trkpt lat="44.10694" lon="5.97632">
        <ele>643.20001220703</ele>
        <time>2022-04-06T08:05:10.835Z</time>
      </trkpt>
      <trkpt lat="44.107" lon="5.97636">
        <ele>642.59997558594</ele>
        <time>2022-04-06T08:05:12.050Z</time>
      </trkpt>
      <trkpt lat="44.10706" lon="5.97642">
        <ele>642.20001220703</ele>
        <time>2022-04-06T08:05:13.267Z</time>
      </trkpt>
      <trkpt lat="44.10709" lon="5.97643">
        <ele>641.79998779297</ele>
        <time>2022-04-06T08:05:14.485Z</time>
      </trkpt>
      <trkpt lat="44.10711" lon="5.97641">
        <ele>641</ele>
        <time>2022-04-06T08:05:15.704Z</time>
      </trkpt>
      <trkpt lat="44.10719" lon="5.97632">
        <ele>640.40002441406</ele>
        <time>2022-04-06T08:05:16.926Z</time>
      </trkpt>
      <trkpt lat="44.10731" lon="5.9763">
        <ele>640.59997558594</ele>
        <time>2022-04-06T08:05:18.152Z</time>
      </trkpt>
      <trkpt lat="44.10733" lon="5.97631">
        <ele>640.79998779297</ele>
        <time>2022-04-06T08:05:19.378Z</time>
      </trkpt>
      <trkpt lat="44.10741" lon="5.97635">
        <ele>641</ele>
        <time>2022-04-06T08:05:20.607Z</time>
      </trkpt>
      <trkpt lat="44.10743" lon="5.97636">
        <ele>641</ele>
        <time>2022-04-06T08:05:21.837Z</time>
      </trkpt>
      <trkpt lat="44.1075" lon="5.97639">
        <ele>641</ele>
        <time>2022-04-06T08:05:23.069Z</time>
      </trkpt>
      <trkpt lat="44.10764" lon="5.97639">
        <ele>639.40002441406</ele>
        <time>2022-04-06T08:05:24.306Z</time>
      </trkpt>
      <trkpt lat="44.1077" lon="5.97636">
        <ele>638.59997558594</ele>
        <time>2022-04-06T08:05:25.545Z</time>
      </trkpt>
      <trkpt lat="44.10773" lon="5.97636">
        <ele>638.40002441406</ele>
        <time>2022-04-06T08:05:26.784Z</time>
      </trkpt>
      <trkpt lat="44.10776" lon="5.97636">
        <ele>637.40002441406</ele>
        <time>2022-04-06T08:05:28.024Z</time>
      </trkpt>
      <trkpt lat="44.10779" lon="5.97637">
        <ele>636.79998779297</ele>
        <time>2022-04-06T08:05:29.265Z</time>
      </trkpt>
      <trkpt lat="44.10788" lon="5.97636">
        <ele>635.40002441406</ele>
        <time>2022-04-06T08:05:30.509Z</time>
      </trkpt>
      <trkpt lat="44.10794" lon="5.97634">
        <ele>634.20001220703</ele>
        <time>2022-04-06T08:05:31.755Z</time>
      </trkpt>
      <trkpt lat="44.10801" lon="5.9763">
        <ele>632.40002441406</ele>
        <time>2022-04-06T08:05:33.004Z</time>
      </trkpt>
      <trkpt lat="44.10802" lon="5.9763">
        <ele>632.20001220703</ele>
        <time>2022-04-06T08:05:34.253Z</time>
      </trkpt>
      <trkpt lat="44.10802" lon="5.97629">
        <ele>632</ele>
        <time>2022-04-06T08:05:35.502Z</time>
      </trkpt>
      <trkpt lat="44.10808" lon="5.97621">
        <ele>631.79998779297</ele>
        <time>2022-04-06T08:05:36.754Z</time>
      </trkpt>
      <trkpt lat="44.1081" lon="5.97619">
        <ele>631.40002441406</ele>
        <time>2022-04-06T08:05:38.007Z</time>
      </trkpt>
      <trkpt lat="44.10813" lon="5.97618">
        <ele>630.79998779297</ele>
        <time>2022-04-06T08:05:39.260Z</time>
      </trkpt>
      <trkpt lat="44.10816" lon="5.97618">
        <ele>630</ele>
        <time>2022-04-06T08:05:40.514Z</time>
      </trkpt>
      <trkpt lat="44.10824" lon="5.97617">
        <ele>629.20001220703</ele>
        <time>2022-04-06T08:05:41.771Z</time>
      </trkpt>
      <trkpt lat="44.10828" lon="5.97617">
        <ele>628.20001220703</ele>
        <time>2022-04-06T08:05:43.029Z</time>
      </trkpt>
      <trkpt lat="44.10831" lon="5.97616">
        <ele>627</ele>
        <time>2022-04-06T08:05:44.288Z</time>
      </trkpt>
      <trkpt lat="44.10839" lon="5.97616">
        <ele>625.59997558594</ele>
        <time>2022-04-06T08:05:45.550Z</time>
      </trkpt>
      <trkpt lat="44.10843" lon="5.97617">
        <ele>624.59997558594</ele>
        <time>2022-04-06T08:05:46.813Z</time>
      </trkpt>
      <trkpt lat="44.10851" lon="5.97618">
        <ele>623</ele>
        <time>2022-04-06T08:05:48.079Z</time>
      </trkpt>
      <trkpt lat="44.10855" lon="5.97619">
        <ele>622.20001220703</ele>
        <time>2022-04-06T08:05:49.346Z</time>
      </trkpt>
      <trkpt lat="44.10857" lon="5.97621">
        <ele>621.59997558594</ele>
        <time>2022-04-06T08:05:50.614Z</time>
      </trkpt>
      <trkpt lat="44.10866" lon="5.97625">
        <ele>620.79998779297</ele>
        <time>2022-04-06T08:05:51.884Z</time>
      </trkpt>
      <trkpt lat="44.10868" lon="5.97626">
        <ele>620.59997558594</ele>
        <time>2022-04-06T08:05:53.155Z</time>
      </trkpt>
      <trkpt lat="44.10877" lon="5.97622">
        <ele>620</ele>
        <time>2022-04-06T08:05:54.429Z</time>
      </trkpt>
      <trkpt lat="44.10879" lon="5.97621">
        <ele>619.59997558594</ele>
        <time>2022-04-06T08:05:55.704Z</time>
      </trkpt>
      <trkpt lat="44.10882" lon="5.97621">
        <ele>619.20001220703</ele>
        <time>2022-04-06T08:05:56.980Z</time>
      </trkpt>
      <trkpt lat="44.10888" lon="5.9762">
        <ele>618</ele>
        <time>2022-04-06T08:05:58.258Z</time>
      </trkpt>
      <trkpt lat="44.10894" lon="5.97619">
        <ele>617</ele>
        <time>2022-04-06T08:05:59.538Z</time>
      </trkpt>
      <trkpt lat="44.10896" lon="5.97618">
        <ele>616.79998779297</ele>
        <time>2022-04-06T08:06:00.818Z</time>
      </trkpt>
      <trkpt lat="44.10901" lon="5.97612">
        <ele>615.59997558594</ele>
        <time>2022-04-06T08:06:02.100Z</time>
      </trkpt>
      <trkpt lat="44.10904" lon="5.97607">
        <ele>614.79998779297</ele>
        <time>2022-04-06T08:06:03.384Z</time>
      </trkpt>
      <trkpt lat="44.10907" lon="5.97604">
        <ele>613.40002441406</ele>
        <time>2022-04-06T08:06:04.669Z</time>
      </trkpt>
      <trkpt lat="44.10911" lon="5.97604">
        <ele>611.79998779297</ele>
        <time>2022-04-06T08:06:05.955Z</time>
      </trkpt>
      <trkpt lat="44.10912" lon="5.97607">
        <ele>610.59997558594</ele>
        <time>2022-04-06T08:06:07.242Z</time>
      </trkpt>
      <trkpt lat="44.10914" lon="5.97614">
        <ele>609.20001220703</ele>
        <time>2022-04-06T08:06:08.531Z</time>
      </trkpt>
      <trkpt lat="44.10917" lon="5.97615">
        <ele>608.40002441406</ele>
        <time>2022-04-06T08:06:09.820Z</time>
      </trkpt>
      <trkpt lat="44.1092" lon="5.97615">
        <ele>608</ele>
        <time>2022-04-06T08:06:11.110Z</time>
      </trkpt>
      <trkpt lat="44.10926" lon="5.97608">
        <ele>607.59997558594</ele>
        <time>2022-04-06T08:06:12.403Z</time>
      </trkpt>
      <trkpt lat="44.10937" lon="5.97598">
        <ele>608.20001220703</ele>
        <time>2022-04-06T08:06:13.700Z</time>
      </trkpt>
      <trkpt lat="44.10948" lon="5.97596">
        <ele>598</ele>
        <time>2022-04-06T08:06:15.001Z</time>
      </trkpt>
      <trkpt lat="44.10955" lon="5.97596">
        <ele>609.40002441406</ele>
        <time>2022-04-06T08:06:16.304Z</time>
      </trkpt>
      <trkpt lat="44.10969" lon="5.976">
        <ele>610</ele>
        <time>2022-04-06T08:06:17.611Z</time>
      </trkpt>
      <trkpt lat="44.10979" lon="5.97612">
        <ele>609.40002441406</ele>
        <time>2022-04-06T08:06:18.922Z</time>
      </trkpt>
      <trkpt lat="44.10981" lon="5.97614">
        <ele>609</ele>
        <time>2022-04-06T08:06:20.234Z</time>
      </trkpt>
      <trkpt lat="44.10985" lon="5.97619">
        <ele>607.79998779297</ele>
        <time>2022-04-06T08:06:21.548Z</time>
      </trkpt>
      <trkpt lat="44.10986" lon="5.97623">
        <ele>606.40002441406</ele>
        <time>2022-04-06T08:06:22.863Z</time>
      </trkpt>
      <trkpt lat="44.10987" lon="5.97628">
        <ele>605.79998779297</ele>
        <time>2022-04-06T08:06:24.179Z</time>
      </trkpt>
      <trkpt lat="44.10987" lon="5.97633">
        <ele>605.40002441406</ele>
        <time>2022-04-06T08:06:25.496Z</time>
      </trkpt>
      <trkpt lat="44.10989" lon="5.97637">
        <ele>604.79998779297</ele>
        <time>2022-04-06T08:06:26.814Z</time>
      </trkpt>
      <trkpt lat="44.10992" lon="5.97639">
        <ele>604</ele>
        <time>2022-04-06T08:06:28.133Z</time>
      </trkpt>
      <trkpt lat="44.11" lon="5.97634">
        <ele>602.59997558594</ele>
        <time>2022-04-06T08:06:29.455Z</time>
      </trkpt>
      <trkpt lat="44.11009" lon="5.97632">
        <ele>602.20001220703</ele>
        <time>2022-04-06T08:06:30.780Z</time>
      </trkpt>
      <trkpt lat="44.11014" lon="5.97629">
        <ele>602.40002441406</ele>
        <time>2022-04-06T08:06:32.107Z</time>
      </trkpt>
      <trkpt lat="44.11016" lon="5.97628">
        <ele>602.59997558594</ele>
        <time>2022-04-06T08:06:33.434Z</time>
      </trkpt>
      <trkpt lat="44.11019" lon="5.97628">
        <ele>602.79998779297</ele>
        <time>2022-04-06T08:06:34.762Z</time>
      </trkpt>
      <trkpt lat="44.11029" lon="5.97625">
        <ele>602.79998779297</ele>
        <time>2022-04-06T08:06:36.094Z</time>
      </trkpt>
      <trkpt lat="44.11035" lon="5.97619">
        <ele>602.79998779297</ele>
        <time>2022-04-06T08:06:37.428Z</time>
      </trkpt>
      <trkpt lat="44.11037" lon="5.97617">
        <ele>603</ele>
        <time>2022-04-06T08:06:38.763Z</time>
      </trkpt>
      <trkpt lat="44.1105" lon="5.97604">
        <ele>604.20001220703</ele>
        <time>2022-04-06T08:06:40.103Z</time>
      </trkpt>
      <trkpt lat="44.11059" lon="5.97599">
        <ele>605.59997558594</ele>
        <time>2022-04-06T08:06:41.446Z</time>
      </trkpt>
      <trkpt lat="44.11065" lon="5.97597">
        <ele>606.20001220703</ele>
        <time>2022-04-06T08:06:42.791Z</time>
      </trkpt>
      <trkpt lat="44.11077" lon="5.97595">
        <ele>606.20001220703</ele>
        <time>2022-04-06T08:06:44.140Z</time>
      </trkpt>
      <trkpt lat="44.11086" lon="5.97595">
        <ele>605.20001220703</ele>
        <time>2022-04-06T08:06:45.492Z</time>
      </trkpt>
      <trkpt lat="44.1109" lon="5.97596">
        <ele>604.40002441406</ele>
        <time>2022-04-06T08:06:46.845Z</time>
      </trkpt>
      <trkpt lat="44.11094" lon="5.976">
        <ele>603.59997558594</ele>
        <time>2022-04-06T08:06:48.199Z</time>
      </trkpt>
      <trkpt lat="44.11096" lon="5.97605">
        <ele>602.59997558594</ele>
        <time>2022-04-06T08:06:49.555Z</time>
      </trkpt>
      <trkpt lat="44.11097" lon="5.97611">
        <ele>601.59997558594</ele>
        <time>2022-04-06T08:06:50.912Z</time>
      </trkpt>
      <trkpt lat="44.11097" lon="5.97617">
        <ele>600.79998779297</ele>
        <time>2022-04-06T08:06:52.270Z</time>
      </trkpt>
      <trkpt lat="44.11098" lon="5.97621">
        <ele>600.20001220703</ele>
        <time>2022-04-06T08:06:53.629Z</time>
      </trkpt>
      <trkpt lat="44.11103" lon="5.97626">
        <ele>599.20001220703</ele>
        <time>2022-04-06T08:06:54.991Z</time>
      </trkpt>
      <trkpt lat="44.11107" lon="5.97633">
        <ele>598</ele>
        <time>2022-04-06T08:06:56.354Z</time>
      </trkpt>
      <trkpt lat="44.11108" lon="5.97637">
        <ele>597.59997558594</ele>
        <time>2022-04-06T08:06:57.718Z</time>
      </trkpt>
      <trkpt lat="44.11109" lon="5.97641">
        <ele>597.40002441406</ele>
        <time>2022-04-06T08:06:59.083Z</time>
      </trkpt>
      <trkpt lat="44.11112" lon="5.97655">
        <ele>597.79998779297</ele>
        <time>2022-04-06T08:07:00.452Z</time>
      </trkpt>
      <trkpt lat="44.11116" lon="5.97664">
        <ele>599.20001220703</ele>
        <time>2022-04-06T08:07:01.823Z</time>
      </trkpt>
      <trkpt lat="44.11117" lon="5.97663">
        <ele>599.59997558594</ele>
        <time>2022-04-06T08:07:03.195Z</time>
      </trkpt>
      <trkpt lat="44.11125" lon="5.97658">
        <ele>599.20001220703</ele>
        <time>2022-04-06T08:07:04.569Z</time>
      </trkpt>
      <trkpt lat="44.11129" lon="5.97659">
        <ele>598.20001220703</ele>
        <time>2022-04-06T08:07:05.945Z</time>
      </trkpt>
      <trkpt lat="44.11132" lon="5.9766">
        <ele>597.59997558594</ele>
        <time>2022-04-06T08:07:07.322Z</time>
      </trkpt>
      <trkpt lat="44.11135" lon="5.97659">
        <ele>597</ele>
        <time>2022-04-06T08:07:08.699Z</time>
      </trkpt>
      <trkpt lat="44.11138" lon="5.9766">
        <ele>596.20001220703</ele>
        <time>2022-04-06T08:07:10.078Z</time>
      </trkpt>
      <trkpt lat="44.11142" lon="5.97661">
        <ele>595</ele>
        <time>2022-04-06T08:07:11.458Z</time>
      </trkpt>
      <trkpt lat="44.11147" lon="5.97666">
        <ele>593.79998779297</ele>
        <time>2022-04-06T08:07:12.840Z</time>
      </trkpt>
      <trkpt lat="44.11152" lon="5.97669">
        <ele>593.40002441406</ele>
        <time>2022-04-06T08:07:14.223Z</time>
      </trkpt>
      <trkpt lat="44.11163" lon="5.97671">
        <ele>592.59997558594</ele>
        <time>2022-04-06T08:07:15.610Z</time>
      </trkpt>
      <trkpt lat="44.11171" lon="5.97673">
        <ele>591.40002441406</ele>
        <time>2022-04-06T08:07:17.000Z</time>
      </trkpt>
      <trkpt lat="44.11176" lon="5.97675">
        <ele>591</ele>
        <time>2022-04-06T08:07:18.391Z</time>
      </trkpt>
      <trkpt lat="44.11183" lon="5.97677">
        <ele>590.79998779297</ele>
        <time>2022-04-06T08:07:19.785Z</time>
      </trkpt>
      <trkpt lat="44.11191" lon="5.97678">
        <ele>590.20001220703</ele>
        <time>2022-04-06T08:07:21.181Z</time>
      </trkpt>
      <trkpt lat="44.11195" lon="5.97679">
        <ele>590.20001220703</ele>
        <time>2022-04-06T08:07:22.578Z</time>
      </trkpt>
      <trkpt lat="44.11205" lon="5.97687">
        <ele>589.40002441406</ele>
        <time>2022-04-06T08:07:23.979Z</time>
      </trkpt>
      <trkpt lat="44.11209" lon="5.97691">
        <ele>589.20001220703</ele>
        <time>2022-04-06T08:07:25.381Z</time>
      </trkpt>
      <trkpt lat="44.11212" lon="5.97696">
        <ele>589.20001220703</ele>
        <time>2022-04-06T08:07:26.785Z</time>
      </trkpt>
      <trkpt lat="44.11219" lon="5.97701">
        <ele>587.79998779297</ele>
        <time>2022-04-06T08:07:28.191Z</time>
      </trkpt>
      <trkpt lat="44.11222" lon="5.97705">
        <ele>587</ele>
        <time>2022-04-06T08:07:29.599Z</time>
      </trkpt>
      <trkpt lat="44.11224" lon="5.97708">
        <ele>586</ele>
        <time>2022-04-06T08:07:31.008Z</time>
      </trkpt>
      <trkpt lat="44.11232" lon="5.97713">
        <ele>584.20001220703</ele>
        <time>2022-04-06T08:07:32.419Z</time>
      </trkpt>
      <trkpt lat="44.11239" lon="5.97705">
        <ele>582.59997558594</ele>
        <time>2022-04-06T08:07:33.833Z</time>
      </trkpt>
      <trkpt lat="44.11248" lon="5.97697">
        <ele>581.79998779297</ele>
        <time>2022-04-06T08:07:35.251Z</time>
      </trkpt>
      <trkpt lat="44.11252" lon="5.97696">
        <ele>581.59997558594</ele>
        <time>2022-04-06T08:07:36.670Z</time>
      </trkpt>
      <trkpt lat="44.11263" lon="5.977">
        <ele>581</ele>
        <time>2022-04-06T08:07:38.092Z</time>
      </trkpt>
      <trkpt lat="44.11268" lon="5.97706">
        <ele>580.40002441406</ele>
        <time>2022-04-06T08:07:39.517Z</time>
      </trkpt>
      <trkpt lat="44.11272" lon="5.97712">
        <ele>580</ele>
        <time>2022-04-06T08:07:40.943Z</time>
      </trkpt>
      <trkpt lat="44.11281" lon="5.97707">
        <ele>580</ele>
        <time>2022-04-06T08:07:42.373Z</time>
      </trkpt>
      <trkpt lat="44.11292" lon="5.97699">
        <ele>580.20001220703</ele>
        <time>2022-04-06T08:07:43.807Z</time>
      </trkpt>
      <trkpt lat="44.11315" lon="5.97691">
        <ele>580</ele>
        <time>2022-04-06T08:07:45.248Z</time>
      </trkpt>
      <trkpt lat="44.11323" lon="5.97692">
        <ele>579.59997558594</ele>
        <time>2022-04-06T08:07:46.692Z</time>
      </trkpt>
      <trkpt lat="44.11328" lon="5.97695">
        <ele>579.40002441406</ele>
        <time>2022-04-06T08:07:48.137Z</time>
      </trkpt>
      <trkpt lat="44.11333" lon="5.97698">
        <ele>579.20001220703</ele>
        <time>2022-04-06T08:07:49.584Z</time>
      </trkpt>
      <trkpt lat="44.11342" lon="5.97706">
        <ele>578</ele>
        <time>2022-04-06T08:07:51.034Z</time>
      </trkpt>
      <trkpt lat="44.11353" lon="5.97708">
        <ele>577.20001220703</ele>
        <time>2022-04-06T08:07:52.488Z</time>
      </trkpt>
      <trkpt lat="44.11359" lon="5.97708">
        <ele>577</ele>
        <time>2022-04-06T08:07:53.944Z</time>
      </trkpt>
      <trkpt lat="44.11365" lon="5.97713">
        <ele>576</ele>
        <time>2022-04-06T08:07:55.402Z</time>
      </trkpt>
      <trkpt lat="44.11368" lon="5.97716">
        <ele>575.59997558594</ele>
        <time>2022-04-06T08:07:56.861Z</time>
      </trkpt>
      <trkpt lat="44.11372" lon="5.97719">
        <ele>575</ele>
        <time>2022-04-06T08:07:58.322Z</time>
      </trkpt>
      <trkpt lat="44.11376" lon="5.97722">
        <ele>574.20001220703</ele>
        <time>2022-04-06T08:07:59.784Z</time>
      </trkpt>
      <trkpt lat="44.1138" lon="5.97724">
        <ele>573</ele>
        <time>2022-04-06T08:08:01.247Z</time>
      </trkpt>
      <trkpt lat="44.11383" lon="5.97725">
        <ele>571.20001220703</ele>
        <time>2022-04-06T08:08:02.711Z</time>
      </trkpt>
      <trkpt lat="44.11387" lon="5.97724">
        <ele>569.40002441406</ele>
        <time>2022-04-06T08:08:04.177Z</time>
      </trkpt>
      <trkpt lat="44.1139" lon="5.97721">
        <ele>568</ele>
        <time>2022-04-06T08:08:05.644Z</time>
      </trkpt>
      <trkpt lat="44.11395" lon="5.97713">
        <ele>566.79998779297</ele>
        <time>2022-04-06T08:08:07.113Z</time>
      </trkpt>
      <trkpt lat="44.11399" lon="5.97711">
        <ele>566.79998779297</ele>
        <time>2022-04-06T08:08:08.583Z</time>
      </trkpt>
      <trkpt lat="44.11405" lon="5.97705">
        <ele>567.40002441406</ele>
        <time>2022-04-06T08:08:10.056Z</time>
      </trkpt>
      <trkpt lat="44.11417" lon="5.97697">
        <ele>566.20001220703</ele>
        <time>2022-04-06T08:08:11.533Z</time>
      </trkpt>
      <trkpt lat="44.11421" lon="5.97695">
        <ele>565.59997558594</ele>
        <time>2022-04-06T08:08:13.011Z</time>
      </trkpt>
      <trkpt lat="44.11422" lon="5.97694">
        <ele>565.40002441406</ele>
        <time>2022-04-06T08:08:14.490Z</time>
      </trkpt>
      <trkpt lat="44.11421" lon="5.97694">
        <ele>565.40002441406</ele>
        <time>2022-04-06T08:08:15.969Z</time>
      </trkpt>
      <trkpt lat="44.11425" lon="5.97692">
        <ele>565.20001220703</ele>
        <time>2022-04-06T08:08:17.449Z</time>
      </trkpt>
      <trkpt lat="44.11428" lon="5.97692">
        <ele>565</ele>
        <time>2022-04-06T08:08:18.930Z</time>
      </trkpt>
      <trkpt lat="44.11436" lon="5.97692">
        <ele>564.20001220703</ele>
        <time>2022-04-06T08:08:20.413Z</time>
      </trkpt>
      <trkpt lat="44.11439" lon="5.97692">
        <ele>564</ele>
        <time>2022-04-06T08:08:21.897Z</time>
      </trkpt>
      <trkpt lat="44.11447" lon="5.97696">
        <ele>563.40002441406</ele>
        <time>2022-04-06T08:08:23.384Z</time>
      </trkpt>
      <trkpt lat="44.11449" lon="5.97698">
        <ele>563.20001220703</ele>
        <time>2022-04-06T08:08:24.872Z</time>
      </trkpt>
      <trkpt lat="44.1145" lon="5.97701">
        <ele>563.20001220703</ele>
        <time>2022-04-06T08:08:26.360Z</time>
      </trkpt>
      <trkpt lat="44.1145" lon="5.97705">
        <ele>563</ele>
        <time>2022-04-06T08:08:27.849Z</time>
      </trkpt>
      <trkpt lat="44.1145" lon="5.9771">
        <ele>562.59997558594</ele>
        <time>2022-04-06T08:08:29.340Z</time>
      </trkpt>
      <trkpt lat="44.11452" lon="5.9772">
        <ele>561.59997558594</ele>
        <time>2022-04-06T08:08:30.833Z</time>
      </trkpt>
      <trkpt lat="44.1146" lon="5.97721">
        <ele>560.59997558594</ele>
        <time>2022-04-06T08:08:32.328Z</time>
      </trkpt>
      <trkpt lat="44.11463" lon="5.97723">
        <ele>560.40002441406</ele>
        <time>2022-04-06T08:08:33.824Z</time>
      </trkpt>
      <trkpt lat="44.11481" lon="5.9773">
        <ele>560.59997558594</ele>
        <time>2022-04-06T08:08:35.326Z</time>
      </trkpt>
      <trkpt lat="44.115" lon="5.97735">
        <ele>560.40002441406</ele>
        <time>2022-04-06T08:08:36.835Z</time>
      </trkpt>
      <trkpt lat="44.11505" lon="5.97737">
        <ele>560.20001220703</ele>
        <time>2022-04-06T08:08:38.345Z</time>
      </trkpt>
      <trkpt lat="44.11511" lon="5.97745">
        <ele>559.20001220703</ele>
        <time>2022-04-06T08:08:39.858Z</time>
      </trkpt>
      <trkpt lat="44.1152" lon="5.97756">
        <ele>557.79998779297</ele>
        <time>2022-04-06T08:08:41.375Z</time>
      </trkpt>
      <trkpt lat="44.11522" lon="5.97759">
        <ele>557</ele>
        <time>2022-04-06T08:08:42.893Z</time>
      </trkpt>
      <trkpt lat="44.11523" lon="5.97763">
        <ele>555.79998779297</ele>
        <time>2022-04-06T08:08:44.412Z</time>
      </trkpt>
      <trkpt lat="44.11521" lon="5.97773">
        <ele>554.40002441406</ele>
        <time>2022-04-06T08:08:45.933Z</time>
      </trkpt>
      <trkpt lat="44.11518" lon="5.97782">
        <ele>553.40002441406</ele>
        <time>2022-04-06T08:08:47.456Z</time>
      </trkpt>
      <trkpt lat="44.11518" lon="5.97785">
        <ele>553</ele>
        <time>2022-04-06T08:08:48.980Z</time>
      </trkpt>
      <trkpt lat="44.11519" lon="5.97788">
        <ele>552.79998779297</ele>
        <time>2022-04-06T08:08:50.505Z</time>
      </trkpt>
      <trkpt lat="44.11522" lon="5.97794">
        <ele>552.59997558594</ele>
        <time>2022-04-06T08:08:52.031Z</time>
      </trkpt>
      <trkpt lat="44.11524" lon="5.97794">
        <ele>552.20001220703</ele>
        <time>2022-04-06T08:08:53.558Z</time>
      </trkpt>
      <trkpt lat="44.11526" lon="5.97795">
        <ele>551.40002441406</ele>
        <time>2022-04-06T08:08:55.086Z</time>
      </trkpt>
      <trkpt lat="44.11529" lon="5.97796">
        <ele>549.79998779297</ele>
        <time>2022-04-06T08:08:56.615Z</time>
      </trkpt>
      <trkpt lat="44.11531" lon="5.97797">
        <ele>548.59997558594</ele>
        <time>2022-04-06T08:08:58.144Z</time>
      </trkpt>
      <trkpt lat="44.11533" lon="5.97798">
        <ele>547.59997558594</ele>
        <time>2022-04-06T08:08:59.674Z</time>
      </trkpt>
      <trkpt lat="44.11536" lon="5.978">
        <ele>547</ele>
        <time>2022-04-06T08:09:01.205Z</time>
      </trkpt>
      <trkpt lat="44.11542" lon="5.97805">
        <ele>546.20001220703</ele>
        <time>2022-04-06T08:09:02.738Z</time>
      </trkpt>
      <trkpt lat="44.11543" lon="5.97808">
        <ele>546</ele>
        <time>2022-04-06T08:09:04.272Z</time>
      </trkpt>
      <trkpt lat="44.11544" lon="5.9782">
        <ele>547.20001220703</ele>
        <time>2022-04-06T08:09:05.809Z</time>
      </trkpt>
      <trkpt lat="44.11546" lon="5.97828">
        <ele>548</ele>
        <time>2022-04-06T08:09:07.348Z</time>
      </trkpt>
      <trkpt lat="44.11549" lon="5.97836">
        <ele>548.79998779297</ele>
        <time>2022-04-06T08:09:08.889Z</time>
      </trkpt>
      <trkpt lat="44.1155" lon="5.9784">
        <ele>548.79998779297</ele>
        <time>2022-04-06T08:09:10.431Z</time>
      </trkpt>
      <trkpt lat="44.11556" lon="5.9784">
        <ele>548.79998779297</ele>
        <time>2022-04-06T08:09:11.975Z</time>
      </trkpt>
      <trkpt lat="44.11566" lon="5.97828">
        <ele>548</ele>
        <time>2022-04-06T08:09:13.523Z</time>
      </trkpt>
      <trkpt lat="44.11571" lon="5.97822">
        <ele>546.59997558594</ele>
        <time>2022-04-06T08:09:15.073Z</time>
      </trkpt>
      <trkpt lat="44.11578" lon="5.97817">
        <ele>545.40002441406</ele>
        <time>2022-04-06T08:09:16.625Z</time>
      </trkpt>
      <trkpt lat="44.11582" lon="5.97815">
        <ele>545.20001220703</ele>
        <time>2022-04-06T08:09:18.179Z</time>
      </trkpt>
      <trkpt lat="44.11585" lon="5.97813">
        <ele>544.79998779297</ele>
        <time>2022-04-06T08:09:19.734Z</time>
      </trkpt>
      <trkpt lat="44.11587" lon="5.9781">
        <ele>544.59997558594</ele>
        <time>2022-04-06T08:09:21.290Z</time>
      </trkpt>
      <trkpt lat="44.11589" lon="5.97802">
        <ele>544</ele>
        <time>2022-04-06T08:09:22.847Z</time>
      </trkpt>
      <trkpt lat="44.11594" lon="5.97795">
        <ele>542.40002441406</ele>
        <time>2022-04-06T08:09:24.407Z</time>
      </trkpt>
      <trkpt lat="44.11598" lon="5.97793">
        <ele>541.40002441406</ele>
        <time>2022-04-06T08:09:25.968Z</time>
      </trkpt>
      <trkpt lat="44.11601" lon="5.97793">
        <ele>540.59997558594</ele>
        <time>2022-04-06T08:09:27.530Z</time>
      </trkpt>
      <trkpt lat="44.1161" lon="5.97796">
        <ele>539.20001220703</ele>
        <time>2022-04-06T08:09:29.095Z</time>
      </trkpt>
      <trkpt lat="44.11614" lon="5.97797">
        <ele>538.79998779297</ele>
        <time>2022-04-06T08:09:30.661Z</time>
      </trkpt>
      <trkpt lat="44.11619" lon="5.97798">
        <ele>538.20001220703</ele>
        <time>2022-04-06T08:09:32.229Z</time>
      </trkpt>
      <trkpt lat="44.11625" lon="5.97798">
        <ele>536.59997558594</ele>
        <time>2022-04-06T08:09:33.799Z</time>
      </trkpt>
      <trkpt lat="44.11632" lon="5.97804">
        <ele>535.20001220703</ele>
        <time>2022-04-06T08:09:35.371Z</time>
      </trkpt>
      <trkpt lat="44.11635" lon="5.97808">
        <ele>534.79998779297</ele>
        <time>2022-04-06T08:09:36.945Z</time>
      </trkpt>
      <trkpt lat="44.11637" lon="5.97813">
        <ele>534.59997558594</ele>
        <time>2022-04-06T08:09:38.520Z</time>
      </trkpt>
      <trkpt lat="44.1164" lon="5.97818">
        <ele>534.20001220703</ele>
        <time>2022-04-06T08:09:40.096Z</time>
      </trkpt>
      <trkpt lat="44.11642" lon="5.97824">
        <ele>534</ele>
        <time>2022-04-06T08:09:41.674Z</time>
      </trkpt>
      <trkpt lat="44.11643" lon="5.97829">
        <ele>533.79998779297</ele>
        <time>2022-04-06T08:09:43.253Z</time>
      </trkpt>
      <trkpt lat="44.11643" lon="5.97842">
        <ele>533.20001220703</ele>
        <time>2022-04-06T08:09:44.835Z</time>
      </trkpt>
      <trkpt lat="44.11643" lon="5.97846">
        <ele>533</ele>
        <time>2022-04-06T08:09:46.418Z</time>
      </trkpt>
      <trkpt lat="44.11647" lon="5.97849">
        <ele>532</ele>
        <time>2022-04-06T08:09:48.002Z</time>
      </trkpt>
      <trkpt lat="44.11656" lon="5.97854">
        <ele>531.20001220703</ele>
        <time>2022-04-06T08:09:49.590Z</time>
      </trkpt>
      <trkpt lat="44.11663" lon="5.97854">
        <ele>531.40002441406</ele>
        <time>2022-04-06T08:09:51.180Z</time>
      </trkpt>
      <trkpt lat="44.11669" lon="5.97851">
        <ele>532.59997558594</ele>
        <time>2022-04-06T08:09:52.772Z</time>
      </trkpt>
      <trkpt lat="44.1167" lon="5.97849">
        <ele>533</ele>
        <time>2022-04-06T08:09:54.364Z</time>
      </trkpt>
      <trkpt lat="44.11671" lon="5.97841">
        <ele>533.40002441406</ele>
        <time>2022-04-06T08:09:55.958Z</time>
      </trkpt>
      <trkpt lat="44.11681" lon="5.97835">
        <ele>533.20001220703</ele>
        <time>2022-04-06T08:09:57.556Z</time>
      </trkpt>
      <trkpt lat="44.11689" lon="5.9783">
        <ele>532.59997558594</ele>
        <time>2022-04-06T08:09:59.156Z</time>
      </trkpt>
      <trkpt lat="44.11696" lon="5.9783">
        <ele>531.59997558594</ele>
        <time>2022-04-06T08:10:00.758Z</time>
      </trkpt>
      <trkpt lat="44.11705" lon="5.97829">
        <ele>530.79998779297</ele>
        <time>2022-04-06T08:10:02.363Z</time>
      </trkpt>
      <trkpt lat="44.11714" lon="5.97816">
        <ele>531</ele>
        <time>2022-04-06T08:10:03.972Z</time>
      </trkpt>
      <trkpt lat="44.11717" lon="5.97813">
        <ele>531</ele>
        <time>2022-04-06T08:10:05.582Z</time>
      </trkpt>
      <trkpt lat="44.11731" lon="5.978">
        <ele>530</ele>
        <time>2022-04-06T08:10:07.198Z</time>
      </trkpt>
      <trkpt lat="44.1174" lon="5.97792">
        <ele>528.79998779297</ele>
        <time>2022-04-06T08:10:08.817Z</time>
      </trkpt>
      <trkpt lat="44.11746" lon="5.97783">
        <ele>528</ele>
        <time>2022-04-06T08:10:10.439Z</time>
      </trkpt>
      <trkpt lat="44.11749" lon="5.97781">
        <ele>527.59997558594</ele>
        <time>2022-04-06T08:10:12.062Z</time>
      </trkpt>
      <trkpt lat="44.11752" lon="5.97779">
        <ele>527.20001220703</ele>
        <time>2022-04-06T08:10:13.686Z</time>
      </trkpt>
      <trkpt lat="44.11754" lon="5.97778">
        <ele>526.59997558594</ele>
        <time>2022-04-06T08:10:15.311Z</time>
      </trkpt>
      <trkpt lat="44.11754" lon="5.97778">
        <ele>526.40002441406</ele>
        <time>2022-04-06T08:10:16.936Z</time>
      </trkpt>
      <trkpt lat="44.11758" lon="5.97776">
        <ele>526.40002441406</ele>
        <time>2022-04-06T08:10:18.562Z</time>
      </trkpt>
      <trkpt lat="44.11762" lon="5.97776">
        <ele>526.20001220703</ele>
        <time>2022-04-06T08:10:20.189Z</time>
      </trkpt>
      <trkpt lat="44.11767" lon="5.97776">
        <ele>525</ele>
        <time>2022-04-06T08:10:21.818Z</time>
      </trkpt>
      <trkpt lat="44.11772" lon="5.97776">
        <ele>524</ele>
        <time>2022-04-06T08:10:23.449Z</time>
      </trkpt>
      <trkpt lat="44.11774" lon="5.97778">
        <ele>523.59997558594</ele>
        <time>2022-04-06T08:10:25.081Z</time>
      </trkpt>
      <trkpt lat="44.11779" lon="5.97786">
        <ele>522.79998779297</ele>
        <time>2022-04-06T08:10:26.715Z</time>
      </trkpt>
      <trkpt lat="44.11781" lon="5.9779">
        <ele>522.20001220703</ele>
        <time>2022-04-06T08:10:28.350Z</time>
      </trkpt>
      <trkpt lat="44.11786" lon="5.97794">
        <ele>521</ele>
        <time>2022-04-06T08:10:29.987Z</time>
      </trkpt>
      <trkpt lat="44.11788" lon="5.97794">
        <ele>520.59997558594</ele>
        <time>2022-04-06T08:10:31.624Z</time>
      </trkpt>
      <trkpt lat="44.11791" lon="5.97794">
        <ele>520.40002441406</ele>
        <time>2022-04-06T08:10:33.262Z</time>
      </trkpt>
      <trkpt lat="44.11795" lon="5.97797">
        <ele>519.79998779297</ele>
        <time>2022-04-06T08:10:34.902Z</time>
      </trkpt>
      <trkpt lat="44.11798" lon="5.978">
        <ele>519.20001220703</ele>
        <time>2022-04-06T08:10:36.543Z</time>
      </trkpt>
      <trkpt lat="44.11804" lon="5.97801">
        <ele>518.40002441406</ele>
        <time>2022-04-06T08:10:38.186Z</time>
      </trkpt>
      <trkpt lat="44.11808" lon="5.97802">
        <ele>518</ele>
        <time>2022-04-06T08:10:39.830Z</time>
      </trkpt>
      <trkpt lat="44.11812" lon="5.97805">
        <ele>517.59997558594</ele>
        <time>2022-04-06T08:10:41.476Z</time>
      </trkpt>
      <trkpt lat="44.11816" lon="5.97809">
        <ele>517.20001220703</ele>
        <time>2022-04-06T08:10:43.123Z</time>
      </trkpt>
      <trkpt lat="44.11825" lon="5.97813">
        <ele>516</ele>
        <time>2022-04-06T08:10:44.773Z</time>
      </trkpt>
      <trkpt lat="44.11828" lon="5.97811">
        <ele>515</ele>
        <time>2022-04-06T08:10:46.424Z</time>
      </trkpt>
      <trkpt lat="44.11829" lon="5.97809">
        <ele>514.20001220703</ele>
        <time>2022-04-06T08:10:48.076Z</time>
      </trkpt>
      <trkpt lat="44.1183" lon="5.97805">
        <ele>513.79998779297</ele>
        <time>2022-04-06T08:10:49.729Z</time>
      </trkpt>
      <trkpt lat="44.11831" lon="5.978">
        <ele>513.20001220703</ele>
        <time>2022-04-06T08:10:51.383Z</time>
      </trkpt>
      <trkpt lat="44.11833" lon="5.97794">
        <ele>512.59997558594</ele>
        <time>2022-04-06T08:10:53.038Z</time>
      </trkpt>
      <trkpt lat="44.11837" lon="5.97788">
        <ele>511.39999389648</ele>
        <time>2022-04-06T08:10:54.695Z</time>
      </trkpt>
      <trkpt lat="44.1184" lon="5.97783">
        <ele>510.39999389648</ele>
        <time>2022-04-06T08:10:56.354Z</time>
      </trkpt>
      <trkpt lat="44.11843" lon="5.97779">
        <ele>509.60000610352</ele>
        <time>2022-04-06T08:10:58.014Z</time>
      </trkpt>
      <trkpt lat="44.11845" lon="5.97775">
        <ele>508.39999389648</ele>
        <time>2022-04-06T08:10:59.675Z</time>
      </trkpt>
      <trkpt lat="44.11847" lon="5.97772">
        <ele>507.39999389648</ele>
        <time>2022-04-06T08:11:01.337Z</time>
      </trkpt>
      <trkpt lat="44.11852" lon="5.97768">
        <ele>505.39999389648</ele>
        <time>2022-04-06T08:11:03.001Z</time>
      </trkpt>
      <trkpt lat="44.11855" lon="5.97767">
        <ele>504.60000610352</ele>
        <time>2022-04-06T08:11:04.666Z</time>
      </trkpt>
      <trkpt lat="44.11858" lon="5.97766">
        <ele>503.60000610352</ele>
        <time>2022-04-06T08:11:06.332Z</time>
      </trkpt>
      <trkpt lat="44.1186" lon="5.9776">
        <ele>501.60000610352</ele>
        <time>2022-04-06T08:11:07.999Z</time>
      </trkpt>
      <trkpt lat="44.11859" lon="5.9775">
        <ele>500</ele>
        <time>2022-04-06T08:11:09.669Z</time>
      </trkpt>
      <trkpt lat="44.11862" lon="5.97742">
        <ele>498</ele>
        <time>2022-04-06T08:11:11.341Z</time>
      </trkpt>
      <trkpt lat="44.11869" lon="5.97743">
        <ele>496.20001220703</ele>
        <time>2022-04-06T08:11:13.015Z</time>
      </trkpt>
      <trkpt lat="44.11872" lon="5.97745">
        <ele>495</ele>
        <time>2022-04-06T08:11:14.690Z</time>
      </trkpt>
      <trkpt lat="44.11875" lon="5.97748">
        <ele>493.79998779297</ele>
        <time>2022-04-06T08:11:16.366Z</time>
      </trkpt>
      <trkpt lat="44.11877" lon="5.97751">
        <ele>493</ele>
        <time>2022-04-06T08:11:18.043Z</time>
      </trkpt>
      <trkpt lat="44.1188" lon="5.97754">
        <ele>492.20001220703</ele>
        <time>2022-04-06T08:11:19.721Z</time>
      </trkpt>
      <trkpt lat="44.11883" lon="5.9776">
        <ele>490.79998779297</ele>
        <time>2022-04-06T08:11:21.401Z</time>
      </trkpt>
      <trkpt lat="44.11889" lon="5.97765">
        <ele>489.60000610352</ele>
        <time>2022-04-06T08:11:23.083Z</time>
      </trkpt>
      <trkpt lat="44.11891" lon="5.97769">
        <ele>488.60000610352</ele>
        <time>2022-04-06T08:11:24.766Z</time>
      </trkpt>
      <trkpt lat="44.11893" lon="5.97774">
        <ele>487.79998779297</ele>
        <time>2022-04-06T08:11:26.450Z</time>
      </trkpt>
      <trkpt lat="44.11896" lon="5.97781">
        <ele>486.60000610352</ele>
        <time>2022-04-06T08:11:28.136Z</time>
      </trkpt>
      <trkpt lat="44.11899" lon="5.97783">
        <ele>486.20001220703</ele>
        <time>2022-04-06T08:11:29.823Z</time>
      </trkpt>
      <trkpt lat="44.11902" lon="5.97786">
        <ele>485</ele>
        <time>2022-04-06T08:11:31.511Z</time>
      </trkpt>
      <trkpt lat="44.11908" lon="5.9779">
        <ele>483.79998779297</ele>
        <time>2022-04-06T08:11:33.202Z</time>
      </trkpt>
      <trkpt lat="44.11912" lon="5.97792">
        <ele>483.20001220703</ele>
        <time>2022-04-06T08:11:34.894Z</time>
      </trkpt>
      <trkpt lat="44.11916" lon="5.97792">
        <ele>482.20001220703</ele>
        <time>2022-04-06T08:11:36.587Z</time>
      </trkpt>
      <trkpt lat="44.11919" lon="5.97791">
        <ele>481</ele>
        <time>2022-04-06T08:11:38.281Z</time>
      </trkpt>
      <trkpt lat="44.11923" lon="5.97791">
        <ele>479.79998779297</ele>
        <time>2022-04-06T08:11:39.976Z</time>
      </trkpt>
      <trkpt lat="44.11925" lon="5.9779">
        <ele>478.60000610352</ele>
        <time>2022-04-06T08:11:41.672Z</time>
      </trkpt>
      <trkpt lat="44.11926" lon="5.97789">
        <ele>477.20001220703</ele>
        <time>2022-04-06T08:11:43.369Z</time>
      </trkpt>
      <trkpt lat="44.11927" lon="5.97787">
        <ele>475.79998779297</ele>
        <time>2022-04-06T08:11:45.066Z</time>
      </trkpt>
      <trkpt lat="44.11926" lon="5.97783">
        <ele>474.60000610352</ele>
        <time>2022-04-06T08:11:46.764Z</time>
      </trkpt>
      <trkpt lat="44.11926" lon="5.97781">
        <ele>473.39999389648</ele>
        <time>2022-04-06T08:11:48.463Z</time>
      </trkpt>
      <trkpt lat="44.11925" lon="5.97778">
        <ele>472.39999389648</ele>
        <time>2022-04-06T08:11:50.162Z</time>
      </trkpt>
      <trkpt lat="44.11925" lon="5.97775">
        <ele>471.20001220703</ele>
        <time>2022-04-06T08:11:51.862Z</time>
      </trkpt>
      <trkpt lat="44.11926" lon="5.97773">
        <ele>470</ele>
        <time>2022-04-06T08:11:53.562Z</time>
      </trkpt>
      <trkpt lat="44.11927" lon="5.97773">
        <ele>468.79998779297</ele>
        <time>2022-04-06T08:11:55.263Z</time>
      </trkpt>
      <trkpt lat="44.1193" lon="5.97771">
        <ele>467.60000610352</ele>
        <time>2022-04-06T08:11:56.965Z</time>
      </trkpt>
      <trkpt lat="44.11931" lon="5.97769">
        <ele>466.20001220703</ele>
        <time>2022-04-06T08:11:58.667Z</time>
      </trkpt>
      <trkpt lat="44.11931" lon="5.97768">
        <ele>465.60000610352</ele>
        <time>2022-04-06T08:12:00.370Z</time>
      </trkpt>
      <trkpt lat="44.11938" lon="5.97772">
        <ele>465.79998779297</ele>
        <time>2022-04-06T08:12:02.075Z</time>
      </trkpt>
      <trkpt lat="44.1195" lon="5.97781">
        <ele>465.20001220703</ele>
        <time>2022-04-06T08:12:03.784Z</time>
      </trkpt>
      <trkpt lat="44.11952" lon="5.97783">
        <ele>465.20001220703</ele>
        <time>2022-04-06T08:12:05.494Z</time>
      </trkpt>
      <trkpt lat="44.11961" lon="5.97785">
        <ele>465</ele>
        <time>2022-04-06T08:12:07.207Z</time>
      </trkpt>
      <trkpt lat="44.11964" lon="5.97785">
        <ele>464.79998779297</ele>
        <time>2022-04-06T08:12:08.921Z</time>
      </trkpt>
      <trkpt lat="44.1197" lon="5.97785">
        <ele>464.60000610352</ele>
        <time>2022-04-06T08:12:10.637Z</time>
      </trkpt>
      <trkpt lat="44.11972" lon="5.97786">
        <ele>464.60000610352</ele>
        <time>2022-04-06T08:12:12.353Z</time>
      </trkpt>
      <trkpt lat="44.11978" lon="5.97781">
        <ele>464.60000610352</ele>
        <time>2022-04-06T08:12:14.072Z</time>
      </trkpt>
      <trkpt lat="44.1199" lon="5.97782">
        <ele>464.60000610352</ele>
        <time>2022-04-06T08:12:15.794Z</time>
      </trkpt>
      <trkpt lat="44.11991" lon="5.9778">
        <ele>464.60000610352</ele>
        <time>2022-04-06T08:12:17.517Z</time>
      </trkpt>
      <trkpt lat="44.11997" lon="5.97785">
        <ele>464.60000610352</ele>
        <time>2022-04-06T08:12:19.242Z</time>
      </trkpt>
      <trkpt lat="44.11999" lon="5.97787">
        <ele>464.39999389648</ele>
        <time>2022-04-06T08:12:20.968Z</time>
      </trkpt>
      <trkpt lat="44.12006" lon="5.97795">
        <ele>464.60000610352</ele>
        <time>2022-04-06T08:12:22.697Z</time>
      </trkpt>
      <trkpt lat="44.12008" lon="5.97796">
        <ele>464.60000610352</ele>
        <time>2022-04-06T08:12:24.427Z</time>
      </trkpt>
      <trkpt lat="44.12016" lon="5.9781">
        <ele>464.60000610352</ele>
        <time>2022-04-06T08:12:26.160Z</time>
      </trkpt>
      <trkpt lat="44.12019" lon="5.97829">
        <ele>463.79998779297</ele>
        <time>2022-04-06T08:12:27.898Z</time>
      </trkpt>
      <trkpt lat="44.12018" lon="5.97838">
        <ele>463.60000610352</ele>
        <time>2022-04-06T08:12:29.638Z</time>
      </trkpt>
      <trkpt lat="44.12019" lon="5.97859">
        <ele>463.39999389648</ele>
        <time>2022-04-06T08:12:31.383Z</time>
      </trkpt>
      <trkpt lat="44.12015" lon="5.9788">
        <ele>463.20001220703</ele>
        <time>2022-04-06T08:12:33.133Z</time>
      </trkpt>
      <trkpt lat="44.12009" lon="5.97895">
        <ele>462.39999389648</ele>
        <time>2022-04-06T08:12:34.887Z</time>
      </trkpt>
      <trkpt lat="44.12008" lon="5.979">
        <ele>462.20001220703</ele>
        <time>2022-04-06T08:12:36.642Z</time>
      </trkpt>
      <trkpt lat="44.12009" lon="5.97917">
        <ele>462.20001220703</ele>
        <time>2022-04-06T08:12:38.401Z</time>
      </trkpt>
      <trkpt lat="44.12011" lon="5.9792">
        <ele>462.20001220703</ele>
        <time>2022-04-06T08:12:40.161Z</time>
      </trkpt>
      <trkpt lat="44.12017" lon="5.97929">
        <ele>463.39999389648</ele>
        <time>2022-04-06T08:12:41.923Z</time>
      </trkpt>
      <trkpt lat="44.12019" lon="5.97932">
        <ele>463.79998779297</ele>
        <time>2022-04-06T08:12:43.686Z</time>
      </trkpt>
      <trkpt lat="44.12024" lon="5.97937">
        <ele>464.60000610352</ele>
        <time>2022-04-06T08:12:45.451Z</time>
      </trkpt>
      <trkpt lat="44.12031" lon="5.97943">
        <ele>466.20001220703</ele>
        <time>2022-04-06T08:12:47.219Z</time>
      </trkpt>
      <trkpt lat="44.12033" lon="5.97944">
        <ele>466.39999389648</ele>
        <time>2022-04-06T08:12:48.988Z</time>
      </trkpt>
      <trkpt lat="44.12036" lon="5.9794">
        <ele>467.20001220703</ele>
        <time>2022-04-06T08:12:50.758Z</time>
      </trkpt>
      <trkpt lat="44.12037" lon="5.97937">
        <ele>467.60000610352</ele>
        <time>2022-04-06T08:12:52.529Z</time>
      </trkpt>
      <trkpt lat="44.12037" lon="5.97934">
        <ele>467.79998779297</ele>
        <time>2022-04-06T08:12:54.300Z</time>
      </trkpt>
      <trkpt lat="44.12039" lon="5.97925">
        <ele>468.60000610352</ele>
        <time>2022-04-06T08:12:56.073Z</time>
      </trkpt>
      <trkpt lat="44.12041" lon="5.97919">
        <ele>469</ele>
        <time>2022-04-06T08:12:57.848Z</time>
      </trkpt>
      <trkpt lat="44.12043" lon="5.97918">
        <ele>469.39999389648</ele>
        <time>2022-04-06T08:12:59.624Z</time>
      </trkpt>
      <trkpt lat="44.12045" lon="5.97917">
        <ele>469.60000610352</ele>
        <time>2022-04-06T08:13:01.400Z</time>
      </trkpt>
      <trkpt lat="44.12052" lon="5.97922">
        <ele>470.39999389648</ele>
        <time>2022-04-06T08:13:03.179Z</time>
      </trkpt>
      <trkpt lat="44.12053" lon="5.97925">
        <ele>470.60000610352</ele>
        <time>2022-04-06T08:13:04.958Z</time>
      </trkpt>
      <trkpt lat="44.12059" lon="5.97935">
        <ele>471.79998779297</ele>
        <time>2022-04-06T08:13:06.740Z</time>
      </trkpt>
      <trkpt lat="44.12061" lon="5.97937">
        <ele>472.20001220703</ele>
        <time>2022-04-06T08:13:08.523Z</time>
      </trkpt>
      <trkpt lat="44.12066" lon="5.97943">
        <ele>473</ele>
        <time>2022-04-06T08:13:10.308Z</time>
      </trkpt>
      <trkpt lat="44.12075" lon="5.97949">
        <ele>474</ele>
        <time>2022-04-06T08:13:12.096Z</time>
      </trkpt>
      <trkpt lat="44.12077" lon="5.9795">
        <ele>474.20001220703</ele>
        <time>2022-04-06T08:13:13.885Z</time>
      </trkpt>
      <trkpt lat="44.12083" lon="5.97953">
        <ele>475.60000610352</ele>
        <time>2022-04-06T08:13:15.676Z</time>
      </trkpt>
      <trkpt lat="44.12087" lon="5.97954">
        <ele>476.20001220703</ele>
        <time>2022-04-06T08:13:17.468Z</time>
      </trkpt>
      <trkpt lat="44.12092" lon="5.97955">
        <ele>477</ele>
        <time>2022-04-06T08:13:19.262Z</time>
      </trkpt>
      <trkpt lat="44.12102" lon="5.97955">
        <ele>478</ele>
        <time>2022-04-06T08:13:21.059Z</time>
      </trkpt>
      <trkpt lat="44.12112" lon="5.97952">
        <ele>479.20001220703</ele>
        <time>2022-04-06T08:13:22.859Z</time>
      </trkpt>
      <trkpt lat="44.12117" lon="5.9795">
        <ele>479.79998779297</ele>
        <time>2022-04-06T08:13:24.661Z</time>
      </trkpt>
      <trkpt lat="44.12122" lon="5.97947">
        <ele>480.39999389648</ele>
        <time>2022-04-06T08:13:26.465Z</time>
      </trkpt>
      <trkpt lat="44.12127" lon="5.97941">
        <ele>481.60000610352</ele>
        <time>2022-04-06T08:13:28.271Z</time>
      </trkpt>
      <trkpt lat="44.12129" lon="5.9794">
        <ele>481.79998779297</ele>
        <time>2022-04-06T08:13:30.078Z</time>
      </trkpt>
      <trkpt lat="44.12136" lon="5.97937">
        <ele>482.79998779297</ele>
        <time>2022-04-06T08:13:31.887Z</time>
      </trkpt>
      <trkpt lat="44.12143" lon="5.97934">
        <ele>483.60000610352</ele>
        <time>2022-04-06T08:13:33.698Z</time>
      </trkpt>
      <trkpt lat="44.12145" lon="5.97934">
        <ele>484</ele>
        <time>2022-04-06T08:13:35.510Z</time>
      </trkpt>
      <trkpt lat="44.12153" lon="5.97932">
        <ele>485.20001220703</ele>
        <time>2022-04-06T08:13:37.324Z</time>
      </trkpt>
      <trkpt lat="44.12155" lon="5.97931">
        <ele>485.60000610352</ele>
        <time>2022-04-06T08:13:39.139Z</time>
      </trkpt>
      <trkpt lat="44.12161" lon="5.97929">
        <ele>486.20001220703</ele>
        <time>2022-04-06T08:13:40.956Z</time>
      </trkpt>
      <trkpt lat="44.1217" lon="5.97926">
        <ele>487.20001220703</ele>
        <time>2022-04-06T08:13:42.776Z</time>
      </trkpt>
      <trkpt lat="44.12172" lon="5.97925">
        <ele>487.60000610352</ele>
        <time>2022-04-06T08:13:44.596Z</time>
      </trkpt>
      <trkpt lat="44.12181" lon="5.97924">
        <ele>488.60000610352</ele>
        <time>2022-04-06T08:13:46.419Z</time>
      </trkpt>
      <trkpt lat="44.12184" lon="5.97924">
        <ele>488.79998779297</ele>
        <time>2022-04-06T08:13:48.243Z</time>
      </trkpt>
      <trkpt lat="44.12191" lon="5.97923">
        <ele>489.79998779297</ele>
        <time>2022-04-06T08:13:50.070Z</time>
      </trkpt>
      <trkpt lat="44.12203" lon="5.97921">
        <ele>491</ele>
        <time>2022-04-06T08:13:51.900Z</time>
      </trkpt>
      <trkpt lat="44.12215" lon="5.97918">
        <ele>492.20001220703</ele>
        <time>2022-04-06T08:13:53.734Z</time>
      </trkpt>
      <trkpt lat="44.1222" lon="5.97916">
        <ele>492.20001220703</ele>
        <time>2022-04-06T08:13:55.570Z</time>
      </trkpt>
      <trkpt lat="44.12227" lon="5.97913">
        <ele>493.39999389648</ele>
        <time>2022-04-06T08:13:57.408Z</time>
      </trkpt>
      <trkpt lat="44.12231" lon="5.97913">
        <ele>493.79998779297</ele>
        <time>2022-04-06T08:13:59.247Z</time>
      </trkpt>
      <trkpt lat="44.12239" lon="5.97912">
        <ele>494.39999389648</ele>
        <time>2022-04-06T08:14:01.089Z</time>
      </trkpt>
      <trkpt lat="44.12247" lon="5.9791">
        <ele>494.79998779297</ele>
        <time>2022-04-06T08:14:02.934Z</time>
      </trkpt>
      <trkpt lat="44.12263" lon="5.97907">
        <ele>495.39999389648</ele>
        <time>2022-04-06T08:14:04.784Z</time>
      </trkpt>
      <trkpt lat="44.12278" lon="5.97904">
        <ele>496.60000610352</ele>
        <time>2022-04-06T08:14:06.639Z</time>
      </trkpt>
      <trkpt lat="44.12281" lon="5.97902">
        <ele>497</ele>
        <time>2022-04-06T08:14:08.494Z</time>
      </trkpt>
      <trkpt lat="44.12292" lon="5.97893">
        <ele>497.60000610352</ele>
        <time>2022-04-06T08:14:10.353Z</time>
      </trkpt>
      <trkpt lat="44.12294" lon="5.97891">
        <ele>497.79998779297</ele>
        <time>2022-04-06T08:14:12.213Z</time>
      </trkpt>
      <trkpt lat="44.12304" lon="5.97876">
        <ele>497.79998779297</ele>
        <time>2022-04-06T08:14:14.078Z</time>
      </trkpt>
      <trkpt lat="44.12314" lon="5.97849">
        <ele>498.60000610352</ele>
        <time>2022-04-06T08:14:15.950Z</time>
      </trkpt>
      <trkpt lat="44.12318" lon="5.97829">
        <ele>498.79998779297</ele>
        <time>2022-04-06T08:14:17.827Z</time>
      </trkpt>
      <trkpt lat="44.1232" lon="5.9782">
        <ele>499</ele>
        <time>2022-04-06T08:14:19.706Z</time>
      </trkpt>
      <trkpt lat="44.12321" lon="5.97811">
        <ele>499.60000610352</ele>
        <time>2022-04-06T08:14:21.587Z</time>
      </trkpt>
      <trkpt lat="44.12322" lon="5.97806">
        <ele>500</ele>
        <time>2022-04-06T08:14:23.469Z</time>
      </trkpt>
      <trkpt lat="44.12324" lon="5.97794">
        <ele>501.20001220703</ele>
        <time>2022-04-06T08:14:25.354Z</time>
      </trkpt>
      <trkpt lat="44.12324" lon="5.9779">
        <ele>501.60000610352</ele>
        <time>2022-04-06T08:14:27.240Z</time>
      </trkpt>
      <trkpt lat="44.12327" lon="5.97777">
        <ele>502.39999389648</ele>
        <time>2022-04-06T08:14:29.129Z</time>
      </trkpt>
      <trkpt lat="44.12329" lon="5.97765">
        <ele>503.39999389648</ele>
        <time>2022-04-06T08:14:31.021Z</time>
      </trkpt>
      <trkpt lat="44.12332" lon="5.97753">
        <ele>504.79998779297</ele>
        <time>2022-04-06T08:14:32.915Z</time>
      </trkpt>
      <trkpt lat="44.12334" lon="5.97743">
        <ele>505.79998779297</ele>
        <time>2022-04-06T08:14:34.812Z</time>
      </trkpt>
      <trkpt lat="44.12336" lon="5.97728">
        <ele>507</ele>
        <time>2022-04-06T08:14:36.712Z</time>
      </trkpt>
      <trkpt lat="44.12337" lon="5.97725">
        <ele>507.20001220703</ele>
        <time>2022-04-06T08:14:38.613Z</time>
      </trkpt>
      <trkpt lat="44.12337" lon="5.97714">
        <ele>508.20001220703</ele>
        <time>2022-04-06T08:14:40.517Z</time>
      </trkpt>
      <trkpt lat="44.12335" lon="5.97703">
        <ele>508.79998779297</ele>
        <time>2022-04-06T08:14:42.423Z</time>
      </trkpt>
      <trkpt lat="44.12332" lon="5.97697">
        <ele>509.39999389648</ele>
        <time>2022-04-06T08:14:44.331Z</time>
      </trkpt>
      <trkpt lat="44.12325" lon="5.97691">
        <ele>510.20001220703</ele>
        <time>2022-04-06T08:14:46.241Z</time>
      </trkpt>
      <trkpt lat="44.12323" lon="5.97689">
        <ele>510.39999389648</ele>
        <time>2022-04-06T08:14:48.152Z</time>
      </trkpt>
      <trkpt lat="44.12314" lon="5.9768">
        <ele>511.60000610352</ele>
        <time>2022-04-06T08:14:50.066Z</time>
      </trkpt>
      <trkpt lat="44.12308" lon="5.97674">
        <ele>512.20001220703</ele>
        <time>2022-04-06T08:14:51.983Z</time>
      </trkpt>
      <trkpt lat="44.12303" lon="5.9767">
        <ele>512.59997558594</ele>
        <time>2022-04-06T08:14:53.902Z</time>
      </trkpt>
      <trkpt lat="44.1229" lon="5.97662">
        <ele>513.79998779297</ele>
        <time>2022-04-06T08:14:55.825Z</time>
      </trkpt>
      <trkpt lat="44.12287" lon="5.9766">
        <ele>513.79998779297</ele>
        <time>2022-04-06T08:14:57.749Z</time>
      </trkpt>
      <trkpt lat="44.12274" lon="5.97645">
        <ele>514.20001220703</ele>
        <time>2022-04-06T08:14:59.679Z</time>
      </trkpt>
      <trkpt lat="44.12272" lon="5.97626">
        <ele>514.59997558594</ele>
        <time>2022-04-06T08:15:01.613Z</time>
      </trkpt>
      <trkpt lat="44.12273" lon="5.97618">
        <ele>514.79998779297</ele>
        <time>2022-04-06T08:15:03.549Z</time>
      </trkpt>
      <trkpt lat="44.12278" lon="5.976">
        <ele>516</ele>
        <time>2022-04-06T08:15:05.489Z</time>
      </trkpt>
      <trkpt lat="44.12281" lon="5.97594">
        <ele>516.79998779297</ele>
        <time>2022-04-06T08:15:07.431Z</time>
      </trkpt>
      <trkpt lat="44.12282" lon="5.97591">
        <ele>517.20001220703</ele>
        <time>2022-04-06T08:15:09.374Z</time>
      </trkpt>
      <trkpt lat="44.12287" lon="5.97581">
        <ele>518.40002441406</ele>
        <time>2022-04-06T08:15:11.320Z</time>
      </trkpt>
      <trkpt lat="44.12292" lon="5.97568">
        <ele>519.59997558594</ele>
        <time>2022-04-06T08:15:13.269Z</time>
      </trkpt>
      <trkpt lat="44.12297" lon="5.9755">
        <ele>520.59997558594</ele>
        <time>2022-04-06T08:15:15.222Z</time>
      </trkpt>
      <trkpt lat="44.12301" lon="5.97537">
        <ele>521.59997558594</ele>
        <time>2022-04-06T08:15:17.179Z</time>
      </trkpt>
      <trkpt lat="44.12303" lon="5.97533">
        <ele>522</ele>
        <time>2022-04-06T08:15:19.137Z</time>
      </trkpt>
      <trkpt lat="44.12306" lon="5.97519">
        <ele>523.40002441406</ele>
        <time>2022-04-06T08:15:21.098Z</time>
      </trkpt>
      <trkpt lat="44.12309" lon="5.97508">
        <ele>524.20001220703</ele>
        <time>2022-04-06T08:15:23.062Z</time>
      </trkpt>
      <trkpt lat="44.12311" lon="5.97505">
        <ele>524.59997558594</ele>
        <time>2022-04-06T08:15:25.026Z</time>
      </trkpt>
      <trkpt lat="44.12315" lon="5.97496">
        <ele>525.59997558594</ele>
        <time>2022-04-06T08:15:26.993Z</time>
      </trkpt>
      <trkpt lat="44.12321" lon="5.97483">
        <ele>526.59997558594</ele>
        <time>2022-04-06T08:15:28.964Z</time>
      </trkpt>
      <trkpt lat="44.12322" lon="5.97479">
        <ele>526.79998779297</ele>
        <time>2022-04-06T08:15:30.935Z</time>
      </trkpt>
      <trkpt lat="44.12325" lon="5.97464">
        <ele>528</ele>
        <time>2022-04-06T08:15:32.910Z</time>
      </trkpt>
      <trkpt lat="44.12325" lon="5.97456">
        <ele>528.40002441406</ele>
        <time>2022-04-06T08:15:34.887Z</time>
      </trkpt>
      <trkpt lat="44.12328" lon="5.97445">
        <ele>528.59997558594</ele>
        <time>2022-04-06T08:15:36.866Z</time>
      </trkpt>
      <trkpt lat="44.12329" lon="5.97433">
        <ele>529</ele>
        <time>2022-04-06T08:15:38.848Z</time>
      </trkpt>
      <trkpt lat="44.12337" lon="5.97405">
        <ele>530.20001220703</ele>
        <time>2022-04-06T08:15:40.837Z</time>
      </trkpt>
      <trkpt lat="44.12351" lon="5.97384">
        <ele>530.40002441406</ele>
        <time>2022-04-06T08:15:42.832Z</time>
      </trkpt>
      <trkpt lat="44.1236" lon="5.97363">
        <ele>530.20001220703</ele>
        <time>2022-04-06T08:15:44.833Z</time>
      </trkpt>
      <trkpt lat="44.12368" lon="5.97325">
        <ele>529.59997558594</ele>
        <time>2022-04-06T08:15:46.843Z</time>
      </trkpt>
      <trkpt lat="44.12367" lon="5.97314">
        <ele>529.20001220703</ele>
        <time>2022-04-06T08:15:48.856Z</time>
      </trkpt>
      <trkpt lat="44.12367" lon="5.97302">
        <ele>529</ele>
        <time>2022-04-06T08:15:50.871Z</time>
      </trkpt>
      <trkpt lat="44.12369" lon="5.97292">
        <ele>528.59997558594</ele>
        <time>2022-04-06T08:15:52.889Z</time>
      </trkpt>
      <trkpt lat="44.12379" lon="5.97276">
        <ele>528.79998779297</ele>
        <time>2022-04-06T08:15:54.912Z</time>
      </trkpt>
      <trkpt lat="44.12382" lon="5.97272">
        <ele>529</ele>
        <time>2022-04-06T08:15:56.936Z</time>
      </trkpt>
      <trkpt lat="44.12394" lon="5.97247">
        <ele>530.40002441406</ele>
        <time>2022-04-06T08:15:58.967Z</time>
      </trkpt>
      <trkpt lat="44.12396" lon="5.97243">
        <ele>530.59997558594</ele>
        <time>2022-04-06T08:16:00.999Z</time>
      </trkpt>
      <trkpt lat="44.12402" lon="5.97222">
        <ele>531.40002441406</ele>
        <time>2022-04-06T08:16:03.036Z</time>
      </trkpt>
      <trkpt lat="44.12405" lon="5.97215">
        <ele>531.79998779297</ele>
        <time>2022-04-06T08:16:05.075Z</time>
      </trkpt>
      <trkpt lat="44.12408" lon="5.97187">
        <ele>532.40002441406</ele>
        <time>2022-04-06T08:16:07.120Z</time>
      </trkpt>
      <trkpt lat="44.12412" lon="5.97157">
        <ele>531.59997558594</ele>
        <time>2022-04-06T08:16:09.172Z</time>
      </trkpt>
      <trkpt lat="44.12414" lon="5.97151">
        <ele>531.59997558594</ele>
        <time>2022-04-06T08:16:11.226Z</time>
      </trkpt>
      <trkpt lat="44.12422" lon="5.97124">
        <ele>530.79998779297</ele>
        <time>2022-04-06T08:16:13.286Z</time>
      </trkpt>
      <trkpt lat="44.12424" lon="5.97117">
        <ele>530.59997558594</ele>
        <time>2022-04-06T08:16:15.348Z</time>
      </trkpt>
      <trkpt lat="44.12426" lon="5.97111">
        <ele>530.20001220703</ele>
        <time>2022-04-06T08:16:17.412Z</time>
      </trkpt>
      <trkpt lat="44.12428" lon="5.97104">
        <ele>529.79998779297</ele>
        <time>2022-04-06T08:16:19.477Z</time>
      </trkpt>
      <trkpt lat="44.12429" lon="5.97089">
        <ele>529</ele>
        <time>2022-04-06T08:16:21.546Z</time>
      </trkpt>
      <trkpt lat="44.12433" lon="5.97057">
        <ele>528.40002441406</ele>
        <time>2022-04-06T08:16:23.622Z</time>
      </trkpt>
      <trkpt lat="44.12437" lon="5.97044">
        <ele>527.79998779297</ele>
        <time>2022-04-06T08:16:25.701Z</time>
      </trkpt>
      <trkpt lat="44.12437" lon="5.9704">
        <ele>527.79998779297</ele>
        <time>2022-04-06T08:16:27.781Z</time>
      </trkpt>
      <trkpt lat="44.12443" lon="5.97035">
        <ele>527.79998779297</ele>
        <time>2022-04-06T08:16:29.863Z</time>
      </trkpt>
      <trkpt lat="44.12444" lon="5.97023">
        <ele>527.59997558594</ele>
        <time>2022-04-06T08:16:31.948Z</time>
      </trkpt>
      <trkpt lat="44.12443" lon="5.97018">
        <ele>527.40002441406</ele>
        <time>2022-04-06T08:16:34.034Z</time>
      </trkpt>
      <trkpt lat="44.1244" lon="5.97003">
        <ele>528.40002441406</ele>
        <time>2022-04-06T08:16:36.124Z</time>
      </trkpt>
      <trkpt lat="44.12438" lon="5.97">
        <ele>529</ele>
        <time>2022-04-06T08:16:38.215Z</time>
      </trkpt>
      <trkpt lat="44.12434" lon="5.96992">
        <ele>530.40002441406</ele>
        <time>2022-04-06T08:16:40.308Z</time>
      </trkpt>
      <trkpt lat="44.12433" lon="5.96988">
        <ele>530.79998779297</ele>
        <time>2022-04-06T08:16:42.402Z</time>
      </trkpt>
      <trkpt lat="44.12431" lon="5.9698">
        <ele>531.40002441406</ele>
        <time>2022-04-06T08:16:44.498Z</time>
      </trkpt>
      <trkpt lat="44.12427" lon="5.96963">
        <ele>532.79998779297</ele>
        <time>2022-04-06T08:16:46.598Z</time>
      </trkpt>
      <trkpt lat="44.12418" lon="5.96939">
        <ele>533.20001220703</ele>
        <time>2022-04-06T08:16:48.704Z</time>
      </trkpt>
      <trkpt lat="44.12405" lon="5.9693">
        <ele>533.59997558594</ele>
        <time>2022-04-06T08:16:50.814Z</time>
      </trkpt>
      <trkpt lat="44.124" lon="5.96922">
        <ele>533.79998779297</ele>
        <time>2022-04-06T08:16:52.927Z</time>
      </trkpt>
      <trkpt lat="44.12389" lon="5.96912">
        <ele>533.79998779297</ele>
        <time>2022-04-06T08:16:55.044Z</time>
      </trkpt>
      <trkpt lat="44.12371" lon="5.96898">
        <ele>534.40002441406</ele>
        <time>2022-04-06T08:16:57.168Z</time>
      </trkpt>
      <trkpt lat="44.12368" lon="5.96893">
        <ele>534.59997558594</ele>
        <time>2022-04-06T08:16:59.293Z</time>
      </trkpt>
      <trkpt lat="44.12367" lon="5.96882">
        <ele>534.59997558594</ele>
        <time>2022-04-06T08:17:01.421Z</time>
      </trkpt>
      <trkpt lat="44.12366" lon="5.96872">
        <ele>534.79998779297</ele>
        <time>2022-04-06T08:17:03.551Z</time>
      </trkpt>
      <trkpt lat="44.12362" lon="5.9687">
        <ele>535</ele>
        <time>2022-04-06T08:17:05.682Z</time>
      </trkpt>
      <trkpt lat="44.12345" lon="5.96866">
        <ele>536</ele>
        <time>2022-04-06T08:17:07.819Z</time>
      </trkpt>
      <trkpt lat="44.1234" lon="5.96864">
        <ele>536.20001220703</ele>
        <time>2022-04-06T08:17:09.957Z</time>
      </trkpt>
      <trkpt lat="44.12334" lon="5.96863">
        <ele>536.40002441406</ele>
        <time>2022-04-06T08:17:12.097Z</time>
      </trkpt>
      <trkpt lat="44.12316" lon="5.96859">
        <ele>537</ele>
        <time>2022-04-06T08:17:14.243Z</time>
      </trkpt>
      <trkpt lat="44.12298" lon="5.96854">
        <ele>537.40002441406</ele>
        <time>2022-04-06T08:17:16.395Z</time>
      </trkpt>
      <trkpt lat="44.12295" lon="5.9685">
        <ele>537.40002441406</ele>
        <time>2022-04-06T08:17:18.548Z</time>
      </trkpt>
      <trkpt lat="44.12298" lon="5.96839">
        <ele>537.59997558594</ele>
        <time>2022-04-06T08:17:20.704Z</time>
      </trkpt>
      <trkpt lat="44.12311" lon="5.96822">
        <ele>538.20001220703</ele>
        <time>2022-04-06T08:17:22.865Z</time>
      </trkpt>
      <trkpt lat="44.12315" lon="5.96817">
        <ele>538.40002441406</ele>
        <time>2022-04-06T08:17:25.028Z</time>
      </trkpt>
      <trkpt lat="44.12319" lon="5.96811">
        <ele>538.79998779297</ele>
        <time>2022-04-06T08:17:27.193Z</time>
      </trkpt>
      <trkpt lat="44.1233" lon="5.968">
        <ele>539.40002441406</ele>
        <time>2022-04-06T08:17:29.362Z</time>
      </trkpt>
      <trkpt lat="44.12341" lon="5.96785">
        <ele>537.79998779297</ele>
        <time>2022-04-06T08:17:31.536Z</time>
      </trkpt>
      <trkpt lat="44.12344" lon="5.96782">
        <ele>537.40002441406</ele>
        <time>2022-04-06T08:17:33.711Z</time>
      </trkpt>
      <trkpt lat="44.12346" lon="5.96777">
        <ele>537.40002441406</ele>
        <time>2022-04-06T08:17:35.888Z</time>
      </trkpt>
      <trkpt lat="44.12347" lon="5.96775">
        <ele>537.59997558594</ele>
        <time>2022-04-06T08:17:38.065Z</time>
      </trkpt>
      <trkpt lat="44.12349" lon="5.96772">
        <ele>538.59997558594</ele>
        <time>2022-04-06T08:17:40.243Z</time>
      </trkpt>
      <trkpt lat="44.12348" lon="5.96769">
        <ele>539.20001220703</ele>
        <time>2022-04-06T08:17:42.422Z</time>
      </trkpt>
      <trkpt lat="44.12342" lon="5.96771">
        <ele>539.79998779297</ele>
        <time>2022-04-06T08:17:44.603Z</time>
      </trkpt>
      <trkpt lat="44.12339" lon="5.96772">
        <ele>539.79998779297</ele>
        <time>2022-04-06T08:17:46.785Z</time>
      </trkpt>
      <trkpt lat="44.12329" lon="5.96775">
        <ele>540</ele>
        <time>2022-04-06T08:17:48.970Z</time>
      </trkpt>
      <trkpt lat="44.12321" lon="5.96772">
        <ele>540</ele>
        <time>2022-04-06T08:17:51.158Z</time>
      </trkpt>
      <trkpt lat="44.12312" lon="5.96769">
        <ele>540.20001220703</ele>
        <time>2022-04-06T08:17:53.349Z</time>
      </trkpt>
      <trkpt lat="44.12305" lon="5.96758">
        <ele>540.40002441406</ele>
        <time>2022-04-06T08:17:55.543Z</time>
      </trkpt>
      <trkpt lat="44.12295" lon="5.96759">
        <ele>540.79998779297</ele>
        <time>2022-04-06T08:17:57.740Z</time>
      </trkpt>
      <trkpt lat="44.1229" lon="5.9676">
        <ele>540.79998779297</ele>
        <time>2022-04-06T08:17:59.939Z</time>
      </trkpt>
      <trkpt lat="44.12285" lon="5.96761">
        <ele>541</ele>
        <time>2022-04-06T08:18:02.139Z</time>
      </trkpt>
      <trkpt lat="44.12272" lon="5.96765">
        <ele>541.20001220703</ele>
        <time>2022-04-06T08:18:04.343Z</time>
      </trkpt>
      <trkpt lat="44.12264" lon="5.9676">
        <ele>541.20001220703</ele>
        <time>2022-04-06T08:18:06.550Z</time>
      </trkpt>
      <trkpt lat="44.12258" lon="5.96749">
        <ele>541.59997558594</ele>
        <time>2022-04-06T08:18:08.760Z</time>
      </trkpt>
      <trkpt lat="44.12259" lon="5.96745">
        <ele>541.79998779297</ele>
        <time>2022-04-06T08:18:10.971Z</time>
      </trkpt>
      <trkpt lat="44.1226" lon="5.96741">
        <ele>542</ele>
        <time>2022-04-06T08:18:13.183Z</time>
      </trkpt>
      <trkpt lat="44.1226" lon="5.96731">
        <ele>542.59997558594</ele>
        <time>2022-04-06T08:18:15.398Z</time>
      </trkpt>
      <trkpt lat="44.12254" lon="5.9673">
        <ele>543</ele>
        <time>2022-04-06T08:18:17.615Z</time>
      </trkpt>
      <trkpt lat="44.12246" lon="5.9673">
        <ele>543</ele>
        <time>2022-04-06T08:18:19.834Z</time>
      </trkpt>
      <trkpt lat="44.12241" lon="5.96731">
        <ele>543</ele>
        <time>2022-04-06T08:18:22.055Z</time>
      </trkpt>
      <trkpt lat="44.12228" lon="5.96737">
        <ele>542.59997558594</ele>
        <time>2022-04-06T08:18:24.280Z</time>
      </trkpt>
      <trkpt lat="44.1222" lon="5.96733">
        <ele>542.59997558594</ele>
        <time>2022-04-06T08:18:26.508Z</time>
      </trkpt>
      <trkpt lat="44.12218" lon="5.96733">
        <ele>543</ele>
        <time>2022-04-06T08:18:28.737Z</time>
      </trkpt>
      <trkpt lat="44.12212" lon="5.96737">
        <ele>543.40002441406</ele>
        <time>2022-04-06T08:18:30.968Z</time>
      </trkpt>
      <trkpt lat="44.12194" lon="5.96739">
        <ele>543.79998779297</ele>
        <time>2022-04-06T08:18:33.204Z</time>
      </trkpt>
      <trkpt lat="44.12188" lon="5.9674">
        <ele>544</ele>
        <time>2022-04-06T08:18:35.442Z</time>
      </trkpt>
      <trkpt lat="44.12177" lon="5.96745">
        <ele>544.40002441406</ele>
        <time>2022-04-06T08:18:37.684Z</time>
      </trkpt>
      <trkpt lat="44.12171" lon="5.96748">
        <ele>544.59997558594</ele>
        <time>2022-04-06T08:18:39.928Z</time>
      </trkpt>
      <trkpt lat="44.12155" lon="5.96746">
        <ele>544.79998779297</ele>
        <time>2022-04-06T08:18:42.177Z</time>
      </trkpt>
      <trkpt lat="44.1215" lon="5.96743">
        <ele>545</ele>
        <time>2022-04-06T08:18:44.428Z</time>
      </trkpt>
      <trkpt lat="44.12143" lon="5.9674">
        <ele>545</ele>
        <time>2022-04-06T08:18:46.681Z</time>
      </trkpt>
      <trkpt lat="44.12133" lon="5.96732">
        <ele>545.20001220703</ele>
        <time>2022-04-06T08:18:48.938Z</time>
      </trkpt>
      <trkpt lat="44.12128" lon="5.96719">
        <ele>545.40002441406</ele>
        <time>2022-04-06T08:18:51.198Z</time>
      </trkpt>
      <trkpt lat="44.1213" lon="5.96708">
        <ele>545.79998779297</ele>
        <time>2022-04-06T08:18:53.461Z</time>
      </trkpt>
      <trkpt lat="44.12132" lon="5.96701">
        <ele>545.79998779297</ele>
        <time>2022-04-06T08:18:55.725Z</time>
      </trkpt>
      <trkpt lat="44.12136" lon="5.96686">
        <ele>546</ele>
        <time>2022-04-06T08:18:57.993Z</time>
      </trkpt>
      <trkpt lat="44.12139" lon="5.96661">
        <ele>546.59997558594</ele>
        <time>2022-04-06T08:19:00.267Z</time>
      </trkpt>
      <trkpt lat="44.1214" lon="5.96652">
        <ele>546.79998779297</ele>
        <time>2022-04-06T08:19:02.543Z</time>
      </trkpt>
      <trkpt lat="44.12141" lon="5.96637">
        <ele>546.79998779297</ele>
        <time>2022-04-06T08:19:04.822Z</time>
      </trkpt>
      <trkpt lat="44.12142" lon="5.96631">
        <ele>546.79998779297</ele>
        <time>2022-04-06T08:19:07.103Z</time>
      </trkpt>
      <trkpt lat="44.12145" lon="5.96618">
        <ele>547</ele>
        <time>2022-04-06T08:19:09.387Z</time>
      </trkpt>
      <trkpt lat="44.12138" lon="5.96599">
        <ele>547.40002441406</ele>
        <time>2022-04-06T08:19:11.676Z</time>
      </trkpt>
      <trkpt lat="44.12137" lon="5.9658">
        <ele>547.59997558594</ele>
        <time>2022-04-06T08:19:13.969Z</time>
      </trkpt>
      <trkpt lat="44.12148" lon="5.96564">
        <ele>547.79998779297</ele>
        <time>2022-04-06T08:19:16.267Z</time>
      </trkpt>
      <trkpt lat="44.12151" lon="5.96559">
        <ele>548</ele>
        <time>2022-04-06T08:19:18.566Z</time>
      </trkpt>
      <trkpt lat="44.12152" lon="5.96554">
        <ele>548.20001220703</ele>
        <time>2022-04-06T08:19:20.867Z</time>
      </trkpt>
      <trkpt lat="44.12154" lon="5.96549">
        <ele>548.20001220703</ele>
        <time>2022-04-06T08:19:23.169Z</time>
      </trkpt>
      <trkpt lat="44.12158" lon="5.96537">
        <ele>548.20001220703</ele>
        <time>2022-04-06T08:19:25.474Z</time>
      </trkpt>
      <trkpt lat="44.12164" lon="5.96521">
        <ele>548.59997558594</ele>
        <time>2022-04-06T08:19:27.783Z</time>
      </trkpt>
      <trkpt lat="44.12169" lon="5.96513">
        <ele>549</ele>
        <time>2022-04-06T08:19:30.095Z</time>
      </trkpt>
      <trkpt lat="44.12174" lon="5.96505">
        <ele>550.40002441406</ele>
        <time>2022-04-06T08:19:32.409Z</time>
      </trkpt>
      <trkpt lat="44.12178" lon="5.96502">
        <ele>551.40002441406</ele>
        <time>2022-04-06T08:19:34.724Z</time>
      </trkpt>
      <trkpt lat="44.12181" lon="5.96499">
        <ele>551.79998779297</ele>
        <time>2022-04-06T08:19:37.040Z</time>
      </trkpt>
      <trkpt lat="44.12188" lon="5.96494">
        <ele>553</ele>
        <time>2022-04-06T08:19:39.359Z</time>
      </trkpt>
      <trkpt lat="44.12195" lon="5.9649">
        <ele>554.20001220703</ele>
        <time>2022-04-06T08:19:41.680Z</time>
      </trkpt>
      <trkpt lat="44.12199" lon="5.96488">
        <ele>554.59997558594</ele>
        <time>2022-04-06T08:19:44.003Z</time>
      </trkpt>
      <trkpt lat="44.12204" lon="5.96486">
        <ele>555</ele>
        <time>2022-04-06T08:19:46.327Z</time>
      </trkpt>
      <trkpt lat="44.12208" lon="5.96484">
        <ele>555.59997558594</ele>
        <time>2022-04-06T08:19:48.653Z</time>
      </trkpt>
      <trkpt lat="44.12217" lon="5.96481">
        <ele>556.79998779297</ele>
        <time>2022-04-06T08:19:50.982Z</time>
      </trkpt>
      <trkpt lat="44.12221" lon="5.9648">
        <ele>557.59997558594</ele>
        <time>2022-04-06T08:19:53.312Z</time>
      </trkpt>
      <trkpt lat="44.12225" lon="5.96478">
        <ele>558</ele>
        <time>2022-04-06T08:19:55.643Z</time>
      </trkpt>
      <trkpt lat="44.12237" lon="5.9647">
        <ele>559.40002441406</ele>
        <time>2022-04-06T08:19:57.978Z</time>
      </trkpt>
      <trkpt lat="44.12244" lon="5.96467">
        <ele>560.79998779297</ele>
        <time>2022-04-06T08:20:00.316Z</time>
      </trkpt>
      <trkpt lat="44.12251" lon="5.96463">
        <ele>562</ele>
        <time>2022-04-06T08:20:02.656Z</time>
      </trkpt>
      <trkpt lat="44.12262" lon="5.96454">
        <ele>562.79998779297</ele>
        <time>2022-04-06T08:20:05.000Z</time>
      </trkpt>
      <trkpt lat="44.1226" lon="5.96441">
        <ele>561.40002441406</ele>
        <time>2022-04-06T08:20:07.347Z</time>
      </trkpt>
      <trkpt lat="44.12259" lon="5.96438">
        <ele>560.59997558594</ele>
        <time>2022-04-06T08:20:09.695Z</time>
      </trkpt>
      <trkpt lat="44.12259" lon="5.96432">
        <ele>558.79998779297</ele>
        <time>2022-04-06T08:20:12.044Z</time>
      </trkpt>
      <trkpt lat="44.1226" lon="5.96429">
        <ele>558</ele>
        <time>2022-04-06T08:20:14.394Z</time>
      </trkpt>
      <trkpt lat="44.12263" lon="5.96426">
        <ele>557.20001220703</ele>
        <time>2022-04-06T08:20:16.745Z</time>
      </trkpt>
      <trkpt lat="44.12269" lon="5.96426">
        <ele>556.59997558594</ele>
        <time>2022-04-06T08:20:19.098Z</time>
      </trkpt>
      <trkpt lat="44.12278" lon="5.96416">
        <ele>556.20001220703</ele>
        <time>2022-04-06T08:20:21.455Z</time>
      </trkpt>
      <trkpt lat="44.12281" lon="5.96412">
        <ele>556.20001220703</ele>
        <time>2022-04-06T08:20:23.813Z</time>
      </trkpt>
      <trkpt lat="44.1229" lon="5.96388">
        <ele>557</ele>
        <time>2022-04-06T08:20:26.177Z</time>
      </trkpt>
      <trkpt lat="44.12289" lon="5.96382">
        <ele>557.20001220703</ele>
        <time>2022-04-06T08:20:28.543Z</time>
      </trkpt>
      <trkpt lat="44.12289" lon="5.96371">
        <ele>558.40002441406</ele>
        <time>2022-04-06T08:20:30.911Z</time>
      </trkpt>
      <trkpt lat="44.12289" lon="5.96368">
        <ele>559.20001220703</ele>
        <time>2022-04-06T08:20:33.280Z</time>
      </trkpt>
      <trkpt lat="44.12291" lon="5.96366">
        <ele>560</ele>
        <time>2022-04-06T08:20:35.650Z</time>
      </trkpt>
      <trkpt lat="44.12293" lon="5.96358">
        <ele>561.40002441406</ele>
        <time>2022-04-06T08:20:38.021Z</time>
      </trkpt>
      <trkpt lat="44.12294" lon="5.96354">
        <ele>562</ele>
        <time>2022-04-06T08:20:40.393Z</time>
      </trkpt>
      <trkpt lat="44.12295" lon="5.96351">
        <ele>562.59997558594</ele>
        <time>2022-04-06T08:20:42.766Z</time>
      </trkpt>
      <trkpt lat="44.12295" lon="5.96346">
        <ele>563.20001220703</ele>
        <time>2022-04-06T08:20:45.140Z</time>
      </trkpt>
      <trkpt lat="44.12298" lon="5.96342">
        <ele>563.79998779297</ele>
        <time>2022-04-06T08:20:47.515Z</time>
      </trkpt>
      <trkpt lat="44.12301" lon="5.96338">
        <ele>564.40002441406</ele>
        <time>2022-04-06T08:20:49.892Z</time>
      </trkpt>
      <trkpt lat="44.12304" lon="5.96335">
        <ele>565.20001220703</ele>
        <time>2022-04-06T08:20:52.270Z</time>
      </trkpt>
      <trkpt lat="44.1231" lon="5.9633">
        <ele>566.20001220703</ele>
        <time>2022-04-06T08:20:54.650Z</time>
      </trkpt>
      <trkpt lat="44.12315" lon="5.96321">
        <ele>567.59997558594</ele>
        <time>2022-04-06T08:20:57.033Z</time>
      </trkpt>
      <trkpt lat="44.12317" lon="5.96315">
        <ele>569</ele>
        <time>2022-04-06T08:20:59.417Z</time>
      </trkpt>
      <trkpt lat="44.12319" lon="5.96312">
        <ele>569.40002441406</ele>
        <time>2022-04-06T08:21:01.802Z</time>
      </trkpt>
      <trkpt lat="44.12321" lon="5.9631">
        <ele>570</ele>
        <time>2022-04-06T08:21:04.188Z</time>
      </trkpt>
      <trkpt lat="44.12323" lon="5.96308">
        <ele>570.59997558594</ele>
        <time>2022-04-06T08:21:06.575Z</time>
      </trkpt>
      <trkpt lat="44.12325" lon="5.96306">
        <ele>571.20001220703</ele>
        <time>2022-04-06T08:21:08.963Z</time>
      </trkpt>
      <trkpt lat="44.12328" lon="5.96303">
        <ele>572.40002441406</ele>
        <time>2022-04-06T08:21:11.352Z</time>
      </trkpt>
      <trkpt lat="44.12328" lon="5.963">
        <ele>573.20001220703</ele>
        <time>2022-04-06T08:21:13.741Z</time>
      </trkpt>
      <trkpt lat="44.12327" lon="5.96299">
        <ele>573.59997558594</ele>
        <time>2022-04-06T08:21:16.131Z</time>
      </trkpt>
      <trkpt lat="44.12326" lon="5.96298">
        <ele>573.79998779297</ele>
        <time>2022-04-06T08:21:18.521Z</time>
      </trkpt>
      <trkpt lat="44.12325" lon="5.96297">
        <ele>574</ele>
        <time>2022-04-06T08:21:20.912Z</time>
      </trkpt>
      <trkpt lat="44.12323" lon="5.96294">
        <ele>574.20001220703</ele>
        <time>2022-04-06T08:21:23.303Z</time>
      </trkpt>
      <trkpt lat="44.12314" lon="5.96273">
        <ele>573.40002441406</ele>
        <time>2022-04-06T08:21:25.700Z</time>
      </trkpt>
      <trkpt lat="44.12313" lon="5.96264">
        <ele>572.40002441406</ele>
        <time>2022-04-06T08:21:28.099Z</time>
      </trkpt>
      <trkpt lat="44.12311" lon="5.96261">
        <ele>572.20001220703</ele>
        <time>2022-04-06T08:21:30.499Z</time>
      </trkpt>
      <trkpt lat="44.12311" lon="5.96261">
        <ele>572.20001220703</ele>
        <time>2022-04-06T08:21:32.899Z</time>
      </trkpt>
      <trkpt lat="44.12307" lon="5.96262">
        <ele>572.20001220703</ele>
        <time>2022-04-06T08:21:35.301Z</time>
      </trkpt>
      <trkpt lat="44.12295" lon="5.96263">
        <ele>571.79998779297</ele>
        <time>2022-04-06T08:21:37.706Z</time>
      </trkpt>
      <trkpt lat="44.12286" lon="5.96261">
        <ele>571</ele>
        <time>2022-04-06T08:21:40.114Z</time>
      </trkpt>
      <trkpt lat="44.12279" lon="5.96258">
        <ele>570.59997558594</ele>
        <time>2022-04-06T08:21:42.524Z</time>
      </trkpt>
      <trkpt lat="44.12257" lon="5.96245">
        <ele>570.40002441406</ele>
        <time>2022-04-06T08:21:44.942Z</time>
      </trkpt>
      <trkpt lat="44.12236" lon="5.96233">
        <ele>570.79998779297</ele>
        <time>2022-04-06T08:21:47.367Z</time>
      </trkpt>
      <trkpt lat="44.1222" lon="5.96222">
        <ele>572</ele>
        <time>2022-04-06T08:21:49.798Z</time>
      </trkpt>
      <trkpt lat="44.12212" lon="5.96218">
        <ele>572.59997558594</ele>
        <time>2022-04-06T08:21:52.232Z</time>
      </trkpt>
      <trkpt lat="44.12207" lon="5.96217">
        <ele>573</ele>
        <time>2022-04-06T08:21:54.667Z</time>
      </trkpt>
      <trkpt lat="44.12203" lon="5.96217">
        <ele>573.40002441406</ele>
        <time>2022-04-06T08:21:57.103Z</time>
      </trkpt>
      <trkpt lat="44.12182" lon="5.96212">
        <ele>573.79998779297</ele>
        <time>2022-04-06T08:21:59.546Z</time>
      </trkpt>
      <trkpt lat="44.12174" lon="5.96209">
        <ele>574.40002441406</ele>
        <time>2022-04-06T08:22:01.992Z</time>
      </trkpt>
      <trkpt lat="44.12163" lon="5.96203">
        <ele>575.40002441406</ele>
        <time>2022-04-06T08:22:04.441Z</time>
      </trkpt>
      <trkpt lat="44.1216" lon="5.962">
        <ele>576</ele>
        <time>2022-04-06T08:22:06.892Z</time>
      </trkpt>
      <trkpt lat="44.12155" lon="5.96195">
        <ele>576.79998779297</ele>
        <time>2022-04-06T08:22:09.345Z</time>
      </trkpt>
      <trkpt lat="44.12148" lon="5.96191">
        <ele>578.20001220703</ele>
        <time>2022-04-06T08:22:11.800Z</time>
      </trkpt>
      <trkpt lat="44.12145" lon="5.96189">
        <ele>578.79998779297</ele>
        <time>2022-04-06T08:22:14.256Z</time>
      </trkpt>
      <trkpt lat="44.12142" lon="5.96187">
        <ele>579.20001220703</ele>
        <time>2022-04-06T08:22:16.713Z</time>
      </trkpt>
      <trkpt lat="44.12124" lon="5.9618">
        <ele>580</ele>
        <time>2022-04-06T08:22:19.176Z</time>
      </trkpt>
      <trkpt lat="44.12121" lon="5.96179">
        <ele>580.20001220703</ele>
        <time>2022-04-06T08:22:21.640Z</time>
      </trkpt>
      <trkpt lat="44.121" lon="5.96179">
        <ele>581.20001220703</ele>
        <time>2022-04-06T08:22:24.111Z</time>
      </trkpt>
      <trkpt lat="44.12079" lon="5.9618">
        <ele>582</ele>
        <time>2022-04-06T08:22:26.588Z</time>
      </trkpt>
      <trkpt lat="44.12072" lon="5.96178">
        <ele>582.40002441406</ele>
        <time>2022-04-06T08:22:29.067Z</time>
      </trkpt>
      <trkpt lat="44.12062" lon="5.96174">
        <ele>583.40002441406</ele>
        <time>2022-04-06T08:22:31.550Z</time>
      </trkpt>
      <trkpt lat="44.12059" lon="5.96173">
        <ele>583.79998779297</ele>
        <time>2022-04-06T08:22:34.034Z</time>
      </trkpt>
      <trkpt lat="44.12054" lon="5.96172">
        <ele>584.79998779297</ele>
        <time>2022-04-06T08:22:36.519Z</time>
      </trkpt>
      <trkpt lat="44.12049" lon="5.9617">
        <ele>586.40002441406</ele>
        <time>2022-04-06T08:22:39.006Z</time>
      </trkpt>
      <trkpt lat="44.12047" lon="5.96169">
        <ele>587</ele>
        <time>2022-04-06T08:22:41.494Z</time>
      </trkpt>
      <trkpt lat="44.12044" lon="5.96168">
        <ele>587.59997558594</ele>
        <time>2022-04-06T08:22:43.983Z</time>
      </trkpt>
      <trkpt lat="44.12038" lon="5.96166">
        <ele>588.79998779297</ele>
        <time>2022-04-06T08:22:46.474Z</time>
      </trkpt>
      <trkpt lat="44.12033" lon="5.96164">
        <ele>589.79998779297</ele>
        <time>2022-04-06T08:22:48.966Z</time>
      </trkpt>
      <trkpt lat="44.12027" lon="5.96163">
        <ele>591</ele>
        <time>2022-04-06T08:22:51.460Z</time>
      </trkpt>
      <trkpt lat="44.12022" lon="5.96161">
        <ele>592.20001220703</ele>
        <time>2022-04-06T08:22:53.956Z</time>
      </trkpt>
      <trkpt lat="44.12017" lon="5.96158">
        <ele>593.20001220703</ele>
        <time>2022-04-06T08:22:56.454Z</time>
      </trkpt>
      <trkpt lat="44.12008" lon="5.96154">
        <ele>594.40002441406</ele>
        <time>2022-04-06T08:22:58.954Z</time>
      </trkpt>
      <trkpt lat="44.12001" lon="5.9615">
        <ele>595.59997558594</ele>
        <time>2022-04-06T08:23:01.457Z</time>
      </trkpt>
      <trkpt lat="44.1199" lon="5.96147">
        <ele>596.79998779297</ele>
        <time>2022-04-06T08:23:03.963Z</time>
      </trkpt>
      <trkpt lat="44.11983" lon="5.96147">
        <ele>597.20001220703</ele>
        <time>2022-04-06T08:23:06.472Z</time>
      </trkpt>
      <trkpt lat="44.11977" lon="5.96146">
        <ele>597.59997558594</ele>
        <time>2022-04-06T08:23:08.982Z</time>
      </trkpt>
      <trkpt lat="44.11975" lon="5.96144">
        <ele>598</ele>
        <time>2022-04-06T08:23:11.493Z</time>
      </trkpt>
      <trkpt lat="44.11974" lon="5.96145">
        <ele>599.40002441406</ele>
        <time>2022-04-06T08:23:14.005Z</time>
      </trkpt>
      <trkpt lat="44.11978" lon="5.96148">
        <ele>599.40002441406</ele>
        <time>2022-04-06T08:23:16.518Z</time>
      </trkpt>
      <trkpt lat="44.11981" lon="5.96152">
        <ele>599.20001220703</ele>
        <time>2022-04-06T08:23:19.032Z</time>
      </trkpt>
      <trkpt lat="44.11985" lon="5.96158">
        <ele>599.59997558594</ele>
        <time>2022-04-06T08:23:21.549Z</time>
      </trkpt>
      <trkpt lat="44.11987" lon="5.96164">
        <ele>600.40002441406</ele>
        <time>2022-04-06T08:23:24.067Z</time>
      </trkpt>
      <trkpt lat="44.11989" lon="5.96167">
        <ele>600.40002441406</ele>
        <time>2022-04-06T08:23:26.586Z</time>
      </trkpt>
      <trkpt lat="44.11993" lon="5.96171">
        <ele>600.40002441406</ele>
        <time>2022-04-06T08:23:29.106Z</time>
      </trkpt>
      <trkpt lat="44.11995" lon="5.96179">
        <ele>599.20001220703</ele>
        <time>2022-04-06T08:23:31.628Z</time>
      </trkpt>
      <trkpt lat="44.11994" lon="5.96191">
        <ele>597.59997558594</ele>
        <time>2022-04-06T08:23:34.153Z</time>
      </trkpt>
      <trkpt lat="44.11992" lon="5.96196">
        <ele>596.40002441406</ele>
        <time>2022-04-06T08:23:36.679Z</time>
      </trkpt>
      <trkpt lat="44.11989" lon="5.96206">
        <ele>594.79998779297</ele>
        <time>2022-04-06T08:23:39.208Z</time>
      </trkpt>
      <trkpt lat="44.11987" lon="5.96215">
        <ele>593.40002441406</ele>
        <time>2022-04-06T08:23:41.739Z</time>
      </trkpt>
      <trkpt lat="44.11986" lon="5.96226">
        <ele>592.40002441406</ele>
        <time>2022-04-06T08:23:44.273Z</time>
      </trkpt>
      <trkpt lat="44.11985" lon="5.96229">
        <ele>592.20001220703</ele>
        <time>2022-04-06T08:23:46.807Z</time>
      </trkpt>
      <trkpt lat="44.11983" lon="5.96236">
        <ele>592.40002441406</ele>
        <time>2022-04-06T08:23:49.343Z</time>
      </trkpt>
      <trkpt lat="44.11981" lon="5.96238">
        <ele>592.20001220703</ele>
        <time>2022-04-06T08:23:51.880Z</time>
      </trkpt>
      <trkpt lat="44.11976" lon="5.96249">
        <ele>592.59997558594</ele>
        <time>2022-04-06T08:23:54.420Z</time>
      </trkpt>
      <trkpt lat="44.11976" lon="5.96262">
        <ele>592.40002441406</ele>
        <time>2022-04-06T08:23:56.963Z</time>
      </trkpt>
      <trkpt lat="44.11983" lon="5.9628">
        <ele>591.20001220703</ele>
        <time>2022-04-06T08:23:59.510Z</time>
      </trkpt>
      <trkpt lat="44.11985" lon="5.96285">
        <ele>590.59997558594</ele>
        <time>2022-04-06T08:24:02.059Z</time>
      </trkpt>
      <trkpt lat="44.11989" lon="5.96296">
        <ele>590</ele>
        <time>2022-04-06T08:24:04.611Z</time>
      </trkpt>
      <trkpt lat="44.1199" lon="5.96308">
        <ele>588.59997558594</ele>
        <time>2022-04-06T08:24:07.165Z</time>
      </trkpt>
      <trkpt lat="44.11991" lon="5.96313">
        <ele>587.59997558594</ele>
        <time>2022-04-06T08:24:09.720Z</time>
      </trkpt>
      <trkpt lat="44.11991" lon="5.96318">
        <ele>586.40002441406</ele>
        <time>2022-04-06T08:24:12.277Z</time>
      </trkpt>
      <trkpt lat="44.11991" lon="5.9633">
        <ele>584.59997558594</ele>
        <time>2022-04-06T08:24:14.836Z</time>
      </trkpt>
      <trkpt lat="44.11991" lon="5.96335">
        <ele>583.40002441406</ele>
        <time>2022-04-06T08:24:17.397Z</time>
      </trkpt>
      <trkpt lat="44.11991" lon="5.9634">
        <ele>582.20001220703</ele>
        <time>2022-04-06T08:24:19.959Z</time>
      </trkpt>
      <trkpt lat="44.1199" lon="5.96343">
        <ele>581</ele>
        <time>2022-04-06T08:24:22.521Z</time>
      </trkpt>
      <trkpt lat="44.11986" lon="5.96346">
        <ele>580</ele>
        <time>2022-04-06T08:24:25.085Z</time>
      </trkpt>
      <trkpt lat="44.11977" lon="5.96352">
        <ele>580.59997558594</ele>
        <time>2022-04-06T08:24:27.652Z</time>
      </trkpt>
      <trkpt lat="44.11976" lon="5.96354">
        <ele>580.79998779297</ele>
        <time>2022-04-06T08:24:30.219Z</time>
      </trkpt>
      <trkpt lat="44.11978" lon="5.96361">
        <ele>580.79998779297</ele>
        <time>2022-04-06T08:24:32.788Z</time>
      </trkpt>
      <trkpt lat="44.11978" lon="5.96371">
        <ele>580.40002441406</ele>
        <time>2022-04-06T08:24:35.359Z</time>
      </trkpt>
      <trkpt lat="44.11981" lon="5.9638">
        <ele>580</ele>
        <time>2022-04-06T08:24:37.933Z</time>
      </trkpt>
      <trkpt lat="44.11985" lon="5.96398">
        <ele>580.20001220703</ele>
        <time>2022-04-06T08:24:40.511Z</time>
      </trkpt>
      <trkpt lat="44.11991" lon="5.96419">
        <ele>580.79998779297</ele>
        <time>2022-04-06T08:24:43.094Z</time>
      </trkpt>
      <trkpt lat="44.11992" lon="5.96434">
        <ele>581.79998779297</ele>
        <time>2022-04-06T08:24:45.680Z</time>
      </trkpt>
      <trkpt lat="44.1199" lon="5.9645">
        <ele>582.59997558594</ele>
        <time>2022-04-06T08:24:48.270Z</time>
      </trkpt>
      <trkpt lat="44.11988" lon="5.96456">
        <ele>582.59997558594</ele>
        <time>2022-04-06T08:24:50.862Z</time>
      </trkpt>
      <trkpt lat="44.11986" lon="5.96461">
        <ele>582.59997558594</ele>
        <time>2022-04-06T08:24:53.455Z</time>
      </trkpt>
      <trkpt lat="44.11976" lon="5.96477">
        <ele>581.79998779297</ele>
        <time>2022-04-06T08:24:56.053Z</time>
      </trkpt>
      <trkpt lat="44.11961" lon="5.96485">
        <ele>580.40002441406</ele>
        <time>2022-04-06T08:24:58.656Z</time>
      </trkpt>
      <trkpt lat="44.11955" lon="5.96486">
        <ele>580.20001220703</ele>
        <time>2022-04-06T08:25:01.261Z</time>
      </trkpt>
      <trkpt lat="44.11947" lon="5.96494">
        <ele>579.59997558594</ele>
        <time>2022-04-06T08:25:03.869Z</time>
      </trkpt>
      <trkpt lat="44.11949" lon="5.96505">
        <ele>578.79998779297</ele>
        <time>2022-04-06T08:25:06.479Z</time>
      </trkpt>
      <trkpt lat="44.11948" lon="5.9651">
        <ele>578.40002441406</ele>
        <time>2022-04-06T08:25:09.091Z</time>
      </trkpt>
      <trkpt lat="44.11945" lon="5.96516">
        <ele>577.40002441406</ele>
        <time>2022-04-06T08:25:11.704Z</time>
      </trkpt>
      <trkpt lat="44.11936" lon="5.96525">
        <ele>575.79998779297</ele>
        <time>2022-04-06T08:25:14.321Z</time>
      </trkpt>
      <trkpt lat="44.11931" lon="5.96528">
        <ele>574.79998779297</ele>
        <time>2022-04-06T08:25:16.940Z</time>
      </trkpt>
      <trkpt lat="44.11925" lon="5.9653">
        <ele>574</ele>
        <time>2022-04-06T08:25:19.560Z</time>
      </trkpt>
      <trkpt lat="44.1192" lon="5.96532">
        <ele>573.20001220703</ele>
        <time>2022-04-06T08:25:22.182Z</time>
      </trkpt>
      <trkpt lat="44.11916" lon="5.96535">
        <ele>572.79998779297</ele>
        <time>2022-04-06T08:25:24.806Z</time>
      </trkpt>
      <trkpt lat="44.11912" lon="5.96538">
        <ele>572.59997558594</ele>
        <time>2022-04-06T08:25:27.431Z</time>
      </trkpt>
      <trkpt lat="44.11904" lon="5.96542">
        <ele>572</ele>
        <time>2022-04-06T08:25:30.059Z</time>
      </trkpt>
      <trkpt lat="44.11899" lon="5.96549">
        <ele>571</ele>
        <time>2022-04-06T08:25:32.689Z</time>
      </trkpt>
      <trkpt lat="44.11898" lon="5.96555">
        <ele>570.59997558594</ele>
        <time>2022-04-06T08:25:35.320Z</time>
      </trkpt>
      <trkpt lat="44.11899" lon="5.96567">
        <ele>569.59997558594</ele>
        <time>2022-04-06T08:25:37.954Z</time>
      </trkpt>
      <trkpt lat="44.11899" lon="5.96569">
        <ele>569.20001220703</ele>
        <time>2022-04-06T08:25:40.588Z</time>
      </trkpt>
      <trkpt lat="44.11897" lon="5.96572">
        <ele>568.20001220703</ele>
        <time>2022-04-06T08:25:43.223Z</time>
      </trkpt>
      <trkpt lat="44.11895" lon="5.96573">
        <ele>567.59997558594</ele>
        <time>2022-04-06T08:25:45.859Z</time>
      </trkpt>
      <trkpt lat="44.11893" lon="5.96576">
        <ele>566.79998779297</ele>
        <time>2022-04-06T08:25:48.496Z</time>
      </trkpt>
      <trkpt lat="44.1189" lon="5.96583">
        <ele>566</ele>
        <time>2022-04-06T08:25:51.135Z</time>
      </trkpt>
      <trkpt lat="44.1189" lon="5.96585">
        <ele>565.59997558594</ele>
        <time>2022-04-06T08:25:53.774Z</time>
      </trkpt>
      <trkpt lat="44.11891" lon="5.96588">
        <ele>565.20001220703</ele>
        <time>2022-04-06T08:25:56.414Z</time>
      </trkpt>
      <trkpt lat="44.11894" lon="5.96591">
        <ele>565</ele>
        <time>2022-04-06T08:25:59.055Z</time>
      </trkpt>
      <trkpt lat="44.11899" lon="5.96597">
        <ele>564.40002441406</ele>
        <time>2022-04-06T08:26:01.698Z</time>
      </trkpt>
      <trkpt lat="44.11903" lon="5.96603">
        <ele>562.40002441406</ele>
        <time>2022-04-06T08:26:04.343Z</time>
      </trkpt>
      <trkpt lat="44.11908" lon="5.96609">
        <ele>560.79998779297</ele>
        <time>2022-04-06T08:26:06.990Z</time>
      </trkpt>
      <trkpt lat="44.11915" lon="5.96618">
        <ele>559.59997558594</ele>
        <time>2022-04-06T08:26:09.640Z</time>
      </trkpt>
      <trkpt lat="44.11919" lon="5.96624">
        <ele>558.59997558594</ele>
        <time>2022-04-06T08:26:12.292Z</time>
      </trkpt>
      <trkpt lat="44.11922" lon="5.9663">
        <ele>558</ele>
        <time>2022-04-06T08:26:14.946Z</time>
      </trkpt>
      <trkpt lat="44.11928" lon="5.96643">
        <ele>557.20001220703</ele>
        <time>2022-04-06T08:26:17.603Z</time>
      </trkpt>
      <trkpt lat="44.11932" lon="5.9665">
        <ele>557</ele>
        <time>2022-04-06T08:26:20.262Z</time>
      </trkpt>
      <trkpt lat="44.11935" lon="5.96658">
        <ele>556.59997558594</ele>
        <time>2022-04-06T08:26:22.923Z</time>
      </trkpt>
      <trkpt lat="44.11941" lon="5.96672">
        <ele>556.20001220703</ele>
        <time>2022-04-06T08:26:25.588Z</time>
      </trkpt>
      <trkpt lat="44.11942" lon="5.96677">
        <ele>556</ele>
        <time>2022-04-06T08:26:28.254Z</time>
      </trkpt>
      <trkpt lat="44.11942" lon="5.96682">
        <ele>555.79998779297</ele>
        <time>2022-04-06T08:26:30.921Z</time>
      </trkpt>
      <trkpt lat="44.11933" lon="5.96694">
        <ele>555</ele>
        <time>2022-04-06T08:26:33.592Z</time>
      </trkpt>
      <trkpt lat="44.1193" lon="5.96697">
        <ele>554.59997558594</ele>
        <time>2022-04-06T08:26:36.264Z</time>
      </trkpt>
      <trkpt lat="44.11927" lon="5.967">
        <ele>554.20001220703</ele>
        <time>2022-04-06T08:26:38.938Z</time>
      </trkpt>
      <trkpt lat="44.11919" lon="5.96706">
        <ele>554</ele>
        <time>2022-04-06T08:26:41.614Z</time>
      </trkpt>
      <trkpt lat="44.11917" lon="5.96709">
        <ele>553.79998779297</ele>
        <time>2022-04-06T08:26:44.291Z</time>
      </trkpt>
      <trkpt lat="44.11917" lon="5.96714">
        <ele>553.59997558594</ele>
        <time>2022-04-06T08:26:46.969Z</time>
      </trkpt>
      <trkpt lat="44.11921" lon="5.96723">
        <ele>552.40002441406</ele>
        <time>2022-04-06T08:26:49.650Z</time>
      </trkpt>
      <trkpt lat="44.11925" lon="5.96728">
        <ele>552</ele>
        <time>2022-04-06T08:26:52.332Z</time>
      </trkpt>
      <trkpt lat="44.11929" lon="5.96733">
        <ele>551.20001220703</ele>
        <time>2022-04-06T08:26:55.016Z</time>
      </trkpt>
      <trkpt lat="44.11938" lon="5.9674">
        <ele>549.79998779297</ele>
        <time>2022-04-06T08:26:57.703Z</time>
      </trkpt>
      <trkpt lat="44.11947" lon="5.9674">
        <ele>548.59997558594</ele>
        <time>2022-04-06T08:27:00.393Z</time>
      </trkpt>
      <trkpt lat="44.11952" lon="5.96738">
        <ele>548.20001220703</ele>
        <time>2022-04-06T08:27:03.085Z</time>
      </trkpt>
      <trkpt lat="44.11956" lon="5.96734">
        <ele>548</ele>
        <time>2022-04-06T08:27:05.779Z</time>
      </trkpt>
      <trkpt lat="44.1196" lon="5.96731">
        <ele>548</ele>
        <time>2022-04-06T08:27:08.474Z</time>
      </trkpt>
      <trkpt lat="44.1197" lon="5.9673">
        <ele>548</ele>
        <time>2022-04-06T08:27:11.172Z</time>
      </trkpt>
      <trkpt lat="44.1198" lon="5.96736">
        <ele>547.79998779297</ele>
        <time>2022-04-06T08:27:13.874Z</time>
      </trkpt>
      <trkpt lat="44.11981" lon="5.96738">
        <ele>547.20001220703</ele>
        <time>2022-04-06T08:27:16.576Z</time>
      </trkpt>
      <trkpt lat="44.1198" lon="5.96742">
        <ele>546.59997558594</ele>
        <time>2022-04-06T08:27:19.279Z</time>
      </trkpt>
      <trkpt lat="44.11979" lon="5.9675">
        <ele>545.20001220703</ele>
        <time>2022-04-06T08:27:21.984Z</time>
      </trkpt>
      <trkpt lat="44.11979" lon="5.96754">
        <ele>544.40002441406</ele>
        <time>2022-04-06T08:27:24.690Z</time>
      </trkpt>
      <trkpt lat="44.11977" lon="5.96759">
        <ele>543.59997558594</ele>
        <time>2022-04-06T08:27:27.397Z</time>
      </trkpt>
      <trkpt lat="44.11973" lon="5.96767">
        <ele>541.79998779297</ele>
        <time>2022-04-06T08:27:30.106Z</time>
      </trkpt>
      <trkpt lat="44.1197" lon="5.96771">
        <ele>540.59997558594</ele>
        <time>2022-04-06T08:27:32.817Z</time>
      </trkpt>
      <trkpt lat="44.11971" lon="5.96782">
        <ele>539.79998779297</ele>
        <time>2022-04-06T08:27:35.530Z</time>
      </trkpt>
      <trkpt lat="44.11973" lon="5.96786">
        <ele>539</ele>
        <time>2022-04-06T08:27:38.244Z</time>
      </trkpt>
      <trkpt lat="44.11974" lon="5.96796">
        <ele>537.40002441406</ele>
        <time>2022-04-06T08:27:40.961Z</time>
      </trkpt>
      <trkpt lat="44.11978" lon="5.96803">
        <ele>536.59997558594</ele>
        <time>2022-04-06T08:27:43.680Z</time>
      </trkpt>
      <trkpt lat="44.11982" lon="5.96808">
        <ele>535.20001220703</ele>
        <time>2022-04-06T08:27:46.400Z</time>
      </trkpt>
      <trkpt lat="44.11985" lon="5.96812">
        <ele>534.40002441406</ele>
        <time>2022-04-06T08:27:49.122Z</time>
      </trkpt>
      <trkpt lat="44.11988" lon="5.96821">
        <ele>533.20001220703</ele>
        <time>2022-04-06T08:27:51.846Z</time>
      </trkpt>
      <trkpt lat="44.1199" lon="5.96826">
        <ele>533</ele>
        <time>2022-04-06T08:27:54.571Z</time>
      </trkpt>
      <trkpt lat="44.11996" lon="5.96836">
        <ele>532.40002441406</ele>
        <time>2022-04-06T08:27:57.299Z</time>
      </trkpt>
      <trkpt lat="44.12003" lon="5.9685">
        <ele>531.59997558594</ele>
        <time>2022-04-06T08:28:00.031Z</time>
      </trkpt>
      <trkpt lat="44.12004" lon="5.96857">
        <ele>531</ele>
        <time>2022-04-06T08:28:02.765Z</time>
      </trkpt>
      <trkpt lat="44.12005" lon="5.96865">
        <ele>530.20001220703</ele>
        <time>2022-04-06T08:28:05.501Z</time>
      </trkpt>
      <trkpt lat="44.12009" lon="5.9688">
        <ele>529</ele>
        <time>2022-04-06T08:28:08.240Z</time>
      </trkpt>
      <trkpt lat="44.12014" lon="5.96893">
        <ele>527.79998779297</ele>
        <time>2022-04-06T08:28:10.982Z</time>
      </trkpt>
      <trkpt lat="44.12016" lon="5.96898">
        <ele>527</ele>
        <time>2022-04-06T08:28:13.726Z</time>
      </trkpt>
      <trkpt lat="44.12017" lon="5.96905">
        <ele>526.40002441406</ele>
        <time>2022-04-06T08:28:16.471Z</time>
      </trkpt>
      <trkpt lat="44.12019" lon="5.96917">
        <ele>525</ele>
        <time>2022-04-06T08:28:19.219Z</time>
      </trkpt>
      <trkpt lat="44.12027" lon="5.9693">
        <ele>523.20001220703</ele>
        <time>2022-04-06T08:28:21.971Z</time>
      </trkpt>
      <trkpt lat="44.12027" lon="5.96936">
        <ele>522.20001220703</ele>
        <time>2022-04-06T08:28:24.724Z</time>
      </trkpt>
      <trkpt lat="44.12026" lon="5.96941">
        <ele>521.20001220703</ele>
        <time>2022-04-06T08:28:27.479Z</time>
      </trkpt>
      <trkpt lat="44.12025" lon="5.96951">
        <ele>520.40002441406</ele>
        <time>2022-04-06T08:28:30.236Z</time>
      </trkpt>
      <trkpt lat="44.12025" lon="5.96964">
        <ele>519.79998779297</ele>
        <time>2022-04-06T08:28:32.996Z</time>
      </trkpt>
      <trkpt lat="44.12027" lon="5.96984">
        <ele>518</ele>
        <time>2022-04-06T08:28:35.760Z</time>
      </trkpt>
      <trkpt lat="44.12027" lon="5.96992">
        <ele>516.59997558594</ele>
        <time>2022-04-06T08:28:38.526Z</time>
      </trkpt>
      <trkpt lat="44.12026" lon="5.96998">
        <ele>515.40002441406</ele>
        <time>2022-04-06T08:28:41.294Z</time>
      </trkpt>
      <trkpt lat="44.1202" lon="5.97009">
        <ele>514.40002441406</ele>
        <time>2022-04-06T08:28:44.065Z</time>
      </trkpt>
      <trkpt lat="44.12016" lon="5.97015">
        <ele>513.79998779297</ele>
        <time>2022-04-06T08:28:46.838Z</time>
      </trkpt>
      <trkpt lat="44.12013" lon="5.9702">
        <ele>513.40002441406</ele>
        <time>2022-04-06T08:28:49.612Z</time>
      </trkpt>
      <trkpt lat="44.12013" lon="5.97032">
        <ele>512.59997558594</ele>
        <time>2022-04-06T08:28:52.389Z</time>
      </trkpt>
      <trkpt lat="44.12016" lon="5.97036">
        <ele>512.20001220703</ele>
        <time>2022-04-06T08:28:55.167Z</time>
      </trkpt>
      <trkpt lat="44.1202" lon="5.97038">
        <ele>511</ele>
        <time>2022-04-06T08:28:57.947Z</time>
      </trkpt>
      <trkpt lat="44.12024" lon="5.97039">
        <ele>510.39999389648</ele>
        <time>2022-04-06T08:29:00.728Z</time>
      </trkpt>
      <trkpt lat="44.12028" lon="5.97041">
        <ele>509.60000610352</ele>
        <time>2022-04-06T08:29:03.510Z</time>
      </trkpt>
      <trkpt lat="44.12033" lon="5.97048">
        <ele>508.20001220703</ele>
        <time>2022-04-06T08:29:06.295Z</time>
      </trkpt>
      <trkpt lat="44.12035" lon="5.97055">
        <ele>506.79998779297</ele>
        <time>2022-04-06T08:29:09.081Z</time>
      </trkpt>
      <trkpt lat="44.12039" lon="5.97064">
        <ele>504.39999389648</ele>
        <time>2022-04-06T08:29:11.870Z</time>
      </trkpt>
      <trkpt lat="44.12042" lon="5.97069">
        <ele>503</ele>
        <time>2022-04-06T08:29:14.660Z</time>
      </trkpt>
      <trkpt lat="44.12044" lon="5.97072">
        <ele>501.60000610352</ele>
        <time>2022-04-06T08:29:17.451Z</time>
      </trkpt>
      <trkpt lat="44.12047" lon="5.97073">
        <ele>500.79998779297</ele>
        <time>2022-04-06T08:29:20.243Z</time>
      </trkpt>
      <trkpt lat="44.12047" lon="5.97072">
        <ele>500.39999389648</ele>
        <time>2022-04-06T08:29:23.035Z</time>
      </trkpt>
      <trkpt lat="44.12048" lon="5.97073">
        <ele>500.20001220703</ele>
        <time>2022-04-06T08:29:25.828Z</time>
      </trkpt>
      <trkpt lat="44.12049" lon="5.97071">
        <ele>502.20001220703</ele>
        <time>2022-04-06T08:29:28.621Z</time>
      </trkpt>
      <trkpt lat="44.12051" lon="5.9707">
        <ele>502.20001220703</ele>
        <time>2022-04-06T08:29:31.415Z</time>
      </trkpt>
      <trkpt lat="44.12062" lon="5.97069">
        <ele>502.79998779297</ele>
        <time>2022-04-06T08:29:34.212Z</time>
      </trkpt>
      <trkpt lat="44.1207" lon="5.97071">
        <ele>503.20001220703</ele>
        <time>2022-04-06T08:29:37.012Z</time>
      </trkpt>
      <trkpt lat="44.1208" lon="5.97075">
        <ele>504.39999389648</ele>
        <time>2022-04-06T08:29:39.815Z</time>
      </trkpt>
      <trkpt lat="44.12083" lon="5.97077">
        <ele>504.60000610352</ele>
        <time>2022-04-06T08:29:42.619Z</time>
      </trkpt>
      <trkpt lat="44.12092" lon="5.97083">
        <ele>505.39999389648</ele>
        <time>2022-04-06T08:29:45.426Z</time>
      </trkpt>
      <trkpt lat="44.12102" lon="5.97092">
        <ele>506.39999389648</ele>
        <time>2022-04-06T08:29:48.237Z</time>
      </trkpt>
      <trkpt lat="44.12105" lon="5.97094">
        <ele>506.79998779297</ele>
        <time>2022-04-06T08:29:51.049Z</time>
      </trkpt>
      <trkpt lat="44.12119" lon="5.97101">
        <ele>507.60000610352</ele>
        <time>2022-04-06T08:29:53.866Z</time>
      </trkpt>
      <trkpt lat="44.12125" lon="5.97104">
        <ele>508</ele>
        <time>2022-04-06T08:29:56.685Z</time>
      </trkpt>
      <trkpt lat="44.1214" lon="5.97111">
        <ele>509</ele>
        <time>2022-04-06T08:29:59.509Z</time>
      </trkpt>
      <trkpt lat="44.12153" lon="5.97115">
        <ele>510</ele>
        <time>2022-04-06T08:30:02.337Z</time>
      </trkpt>
      <trkpt lat="44.12156" lon="5.97115">
        <ele>510.20001220703</ele>
        <time>2022-04-06T08:30:05.166Z</time>
      </trkpt>
      <trkpt lat="44.12173" lon="5.97114">
        <ele>511.20001220703</ele>
        <time>2022-04-06T08:30:08.000Z</time>
      </trkpt>
      <trkpt lat="44.12177" lon="5.97113">
        <ele>511.39999389648</ele>
        <time>2022-04-06T08:30:10.835Z</time>
      </trkpt>
      <trkpt lat="44.1219" lon="5.97107">
        <ele>512.40002441406</ele>
        <time>2022-04-06T08:30:13.675Z</time>
      </trkpt>
      <trkpt lat="44.122" lon="5.97102">
        <ele>513.59997558594</ele>
        <time>2022-04-06T08:30:16.518Z</time>
      </trkpt>
      <trkpt lat="44.12202" lon="5.97101">
        <ele>513.79998779297</ele>
        <time>2022-04-06T08:30:19.362Z</time>
      </trkpt>
      <trkpt lat="44.12203" lon="5.97102">
        <ele>513.79998779297</ele>
        <time>2022-04-06T08:30:22.206Z</time>
      </trkpt>
      <trkpt lat="44.12205" lon="5.97111">
        <ele>514</ele>
        <time>2022-04-06T08:30:25.052Z</time>
      </trkpt>
      <trkpt lat="44.12206" lon="5.97111">
        <ele>513.59997558594</ele>
        <time>2022-04-06T08:30:27.899Z</time>
      </trkpt>
      <trkpt lat="44.12212" lon="5.97102">
        <ele>513.40002441406</ele>
        <time>2022-04-06T08:30:30.748Z</time>
      </trkpt>
      <trkpt lat="44.12213" lon="5.97098">
        <ele>513.59997558594</ele>
        <time>2022-04-06T08:30:33.598Z</time>
      </trkpt>
      <trkpt lat="44.12219" lon="5.97091">
        <ele>514.79998779297</ele>
        <time>2022-04-06T08:30:36.451Z</time>
      </trkpt>
      <trkpt lat="44.12221" lon="5.9709">
        <ele>515</ele>
        <time>2022-04-06T08:30:39.305Z</time>
      </trkpt>
      <trkpt lat="44.12228" lon="5.97082">
        <ele>515.79998779297</ele>
        <time>2022-04-06T08:30:42.161Z</time>
      </trkpt>
      <trkpt lat="44.12231" lon="5.97079">
        <ele>516</ele>
        <time>2022-04-06T08:30:45.018Z</time>
      </trkpt>
      <trkpt lat="44.12233" lon="5.97077">
        <ele>516.20001220703</ele>
        <time>2022-04-06T08:30:47.876Z</time>
      </trkpt>
      <trkpt lat="44.12243" lon="5.97067">
        <ele>517.20001220703</ele>
        <time>2022-04-06T08:30:50.738Z</time>
      </trkpt>
      <trkpt lat="44.12246" lon="5.97065">
        <ele>517.40002441406</ele>
        <time>2022-04-06T08:30:53.601Z</time>
      </trkpt>
      <trkpt lat="44.12253" lon="5.9706">
        <ele>518.40002441406</ele>
        <time>2022-04-06T08:30:56.467Z</time>
      </trkpt>
      <trkpt lat="44.12267" lon="5.9705">
        <ele>519.59997558594</ele>
        <time>2022-04-06T08:30:59.338Z</time>
      </trkpt>
      <trkpt lat="44.12287" lon="5.97041">
        <ele>520.59997558594</ele>
        <time>2022-04-06T08:31:02.215Z</time>
      </trkpt>
      <trkpt lat="44.12292" lon="5.97038">
        <ele>521</ele>
        <time>2022-04-06T08:31:05.094Z</time>
      </trkpt>
      <trkpt lat="44.12302" lon="5.97034">
        <ele>521.79998779297</ele>
        <time>2022-04-06T08:31:07.976Z</time>
      </trkpt>
      <trkpt lat="44.12317" lon="5.9703">
        <ele>522.59997558594</ele>
        <time>2022-04-06T08:31:10.863Z</time>
      </trkpt>
      <trkpt lat="44.1232" lon="5.97029">
        <ele>522.79998779297</ele>
        <time>2022-04-06T08:31:13.751Z</time>
      </trkpt>
      <trkpt lat="44.12338" lon="5.97024">
        <ele>523.79998779297</ele>
        <time>2022-04-06T08:31:16.645Z</time>
      </trkpt>
      <trkpt lat="44.12343" lon="5.97022">
        <ele>524.20001220703</ele>
        <time>2022-04-06T08:31:19.541Z</time>
      </trkpt>
      <trkpt lat="44.12357" lon="5.9702">
        <ele>524.79998779297</ele>
        <time>2022-04-06T08:31:22.441Z</time>
      </trkpt>
      <trkpt lat="44.1236" lon="5.9702">
        <ele>525</ele>
        <time>2022-04-06T08:31:25.342Z</time>
      </trkpt>
      <trkpt lat="44.12384" lon="5.9702">
        <ele>526</ele>
        <time>2022-04-06T08:31:28.251Z</time>
      </trkpt>
      <trkpt lat="44.12387" lon="5.9702">
        <ele>526.20001220703</ele>
        <time>2022-04-06T08:31:31.161Z</time>
      </trkpt>
      <trkpt lat="44.12393" lon="5.97022">
        <ele>526.59997558594</ele>
        <time>2022-04-06T08:31:34.072Z</time>
      </trkpt>
      <trkpt lat="44.12395" lon="5.97026">
        <ele>526.79998779297</ele>
        <time>2022-04-06T08:31:36.985Z</time>
      </trkpt>
      <trkpt lat="44.12396" lon="5.97028">
        <ele>527</ele>
        <time>2022-04-06T08:31:39.898Z</time>
      </trkpt>
      <trkpt lat="44.12396" lon="5.9703">
        <ele>527.20001220703</ele>
        <time>2022-04-06T08:31:42.812Z</time>
      </trkpt>
      <trkpt lat="44.12397" lon="5.97036">
        <ele>527.40002441406</ele>
        <time>2022-04-06T08:31:45.727Z</time>
      </trkpt>
      <trkpt lat="44.12397" lon="5.9704">
        <ele>527.40002441406</ele>
        <time>2022-04-06T08:31:48.643Z</time>
      </trkpt>
      <trkpt lat="44.12395" lon="5.97042">
        <ele>527.59997558594</ele>
        <time>2022-04-06T08:31:51.560Z</time>
      </trkpt>
      <trkpt lat="44.12387" lon="5.97043">
        <ele>527.40002441406</ele>
        <time>2022-04-06T08:31:54.479Z</time>
      </trkpt>
      <trkpt lat="44.12382" lon="5.97043">
        <ele>527.40002441406</ele>
        <time>2022-04-06T08:31:57.400Z</time>
      </trkpt>
      <trkpt lat="44.12369" lon="5.97042">
        <ele>527</ele>
        <time>2022-04-06T08:32:00.325Z</time>
      </trkpt>
      <trkpt lat="44.12361" lon="5.97038">
        <ele>526.20001220703</ele>
        <time>2022-04-06T08:32:03.253Z</time>
      </trkpt>
      <trkpt lat="44.12356" lon="5.97037">
        <ele>525.79998779297</ele>
        <time>2022-04-06T08:32:06.182Z</time>
      </trkpt>
      <trkpt lat="44.12345" lon="5.97039">
        <ele>524</ele>
        <time>2022-04-06T08:32:09.115Z</time>
      </trkpt>
      <trkpt lat="44.12334" lon="5.97041">
        <ele>522.40002441406</ele>
        <time>2022-04-06T08:32:12.051Z</time>
      </trkpt>
      <trkpt lat="44.12327" lon="5.97045">
        <ele>521.40002441406</ele>
        <time>2022-04-06T08:32:14.990Z</time>
      </trkpt>
      <trkpt lat="44.12323" lon="5.97047">
        <ele>521</ele>
        <time>2022-04-06T08:32:17.930Z</time>
      </trkpt>
      <trkpt lat="44.12315" lon="5.97051">
        <ele>520.59997558594</ele>
        <time>2022-04-06T08:32:20.873Z</time>
      </trkpt>
      <trkpt lat="44.12311" lon="5.97052">
        <ele>520.40002441406</ele>
        <time>2022-04-06T08:32:23.817Z</time>
      </trkpt>
      <trkpt lat="44.12301" lon="5.97056">
        <ele>519.59997558594</ele>
        <time>2022-04-06T08:32:26.764Z</time>
      </trkpt>
      <trkpt lat="44.12297" lon="5.97056">
        <ele>519</ele>
        <time>2022-04-06T08:32:29.713Z</time>
      </trkpt>
      <trkpt lat="44.12296" lon="5.97057">
        <ele>518.40002441406</ele>
        <time>2022-04-06T08:32:32.662Z</time>
      </trkpt>
      <trkpt lat="44.12295" lon="5.97057">
        <ele>518.20001220703</ele>
        <time>2022-04-06T08:32:35.611Z</time>
      </trkpt>
      <trkpt lat="44.12295" lon="5.97057">
        <ele>517.79998779297</ele>
        <time>2022-04-06T08:32:38.560Z</time>
      </trkpt>
      <trkpt lat="44.1229" lon="5.97059">
        <ele>517.20001220703</ele>
        <time>2022-04-06T08:32:41.511Z</time>
      </trkpt>
      <trkpt lat="44.12287" lon="5.97058">
        <ele>517.20001220703</ele>
        <time>2022-04-06T08:32:44.463Z</time>
      </trkpt>
      <trkpt lat="44.12282" lon="5.97058">
        <ele>517</ele>
        <time>2022-04-06T08:32:47.416Z</time>
      </trkpt>
      <trkpt lat="44.12274" lon="5.9706">
        <ele>515.79998779297</ele>
        <time>2022-04-06T08:32:50.372Z</time>
      </trkpt>
      <trkpt lat="44.1227" lon="5.97063">
        <ele>515.40002441406</ele>
        <time>2022-04-06T08:32:53.329Z</time>
      </trkpt>
      <trkpt lat="44.12267" lon="5.97071">
        <ele>515</ele>
        <time>2022-04-06T08:32:56.289Z</time>
      </trkpt>
      <trkpt lat="44.12266" lon="5.97074">
        <ele>514.79998779297</ele>
        <time>2022-04-06T08:32:59.249Z</time>
      </trkpt>
      <trkpt lat="44.12265" lon="5.97075">
        <ele>514.79998779297</ele>
        <time>2022-04-06T08:33:02.210Z</time>
      </trkpt>
      <trkpt lat="44.12261" lon="5.97075">
        <ele>514.40002441406</ele>
        <time>2022-04-06T08:33:05.172Z</time>
      </trkpt>
      <trkpt lat="44.12255" lon="5.97079">
        <ele>513.59997558594</ele>
        <time>2022-04-06T08:33:08.136Z</time>
      </trkpt>
      <trkpt lat="44.12255" lon="5.97083">
        <ele>513</ele>
        <time>2022-04-06T08:33:11.101Z</time>
      </trkpt>
      <trkpt lat="44.12253" lon="5.97091">
        <ele>512.20001220703</ele>
        <time>2022-04-06T08:33:14.068Z</time>
      </trkpt>
      <trkpt lat="44.12248" lon="5.97093">
        <ele>511.60000610352</ele>
        <time>2022-04-06T08:33:17.036Z</time>
      </trkpt>
      <trkpt lat="44.12242" lon="5.97096">
        <ele>511</ele>
        <time>2022-04-06T08:33:20.007Z</time>
      </trkpt>
      <trkpt lat="44.12239" lon="5.97099">
        <ele>510.39999389648</ele>
        <time>2022-04-06T08:33:22.979Z</time>
      </trkpt>
      <trkpt lat="44.12237" lon="5.97104">
        <ele>509.79998779297</ele>
        <time>2022-04-06T08:33:25.952Z</time>
      </trkpt>
      <trkpt lat="44.12233" lon="5.97107">
        <ele>509.20001220703</ele>
        <time>2022-04-06T08:33:28.926Z</time>
      </trkpt>
      <trkpt lat="44.12228" lon="5.97111">
        <ele>508.60000610352</ele>
        <time>2022-04-06T08:33:31.902Z</time>
      </trkpt>
      <trkpt lat="44.12227" lon="5.97115">
        <ele>508.20001220703</ele>
        <time>2022-04-06T08:33:34.879Z</time>
      </trkpt>
      <trkpt lat="44.12224" lon="5.97123">
        <ele>507.60000610352</ele>
        <time>2022-04-06T08:33:37.858Z</time>
      </trkpt>
      <trkpt lat="44.12219" lon="5.97127">
        <ele>507.20001220703</ele>
        <time>2022-04-06T08:33:40.839Z</time>
      </trkpt>
      <trkpt lat="44.12211" lon="5.97134">
        <ele>506.39999389648</ele>
        <time>2022-04-06T08:33:43.823Z</time>
      </trkpt>
      <trkpt lat="44.12209" lon="5.97139">
        <ele>506.20001220703</ele>
        <time>2022-04-06T08:33:46.808Z</time>
      </trkpt>
      <trkpt lat="44.12196" lon="5.97152">
        <ele>505.39999389648</ele>
        <time>2022-04-06T08:33:49.798Z</time>
      </trkpt>
      <trkpt lat="44.12189" lon="5.97156">
        <ele>505</ele>
        <time>2022-04-06T08:33:52.791Z</time>
      </trkpt>
      <trkpt lat="44.12181" lon="5.9717">
        <ele>504.60000610352</ele>
        <time>2022-04-06T08:33:55.788Z</time>
      </trkpt>
      <trkpt lat="44.12178" lon="5.97177">
        <ele>504.39999389648</ele>
        <time>2022-04-06T08:33:58.787Z</time>
      </trkpt>
      <trkpt lat="44.12175" lon="5.97183">
        <ele>504.20001220703</ele>
        <time>2022-04-06T08:34:01.787Z</time>
      </trkpt>
      <trkpt lat="44.12168" lon="5.97191">
        <ele>504</ele>
        <time>2022-04-06T08:34:04.790Z</time>
      </trkpt>
      <trkpt lat="44.12161" lon="5.97198">
        <ele>503.60000610352</ele>
        <time>2022-04-06T08:34:07.796Z</time>
      </trkpt>
      <trkpt lat="44.1215" lon="5.97213">
        <ele>503.20001220703</ele>
        <time>2022-04-06T08:34:10.807Z</time>
      </trkpt>
      <trkpt lat="44.12133" lon="5.97226">
        <ele>502.60000610352</ele>
        <time>2022-04-06T08:34:13.824Z</time>
      </trkpt>
      <trkpt lat="44.12128" lon="5.97235">
        <ele>502.60000610352</ele>
        <time>2022-04-06T08:34:16.843Z</time>
      </trkpt>
      <trkpt lat="44.12126" lon="5.97238">
        <ele>502.60000610352</ele>
        <time>2022-04-06T08:34:19.864Z</time>
      </trkpt>
      <trkpt lat="44.12123" lon="5.9724">
        <ele>502.60000610352</ele>
        <time>2022-04-06T08:34:22.886Z</time>
      </trkpt>
      <trkpt lat="44.1212" lon="5.97243">
        <ele>504</ele>
        <time>2022-04-06T08:34:25.909Z</time>
      </trkpt>
      <trkpt lat="44.12121" lon="5.97247">
        <ele>504.60000610352</ele>
        <time>2022-04-06T08:34:28.933Z</time>
      </trkpt>
      <trkpt lat="44.1212" lon="5.97252">
        <ele>505</ele>
        <time>2022-04-06T08:34:31.958Z</time>
      </trkpt>
      <trkpt lat="44.12118" lon="5.97258">
        <ele>505.60000610352</ele>
        <time>2022-04-06T08:34:34.984Z</time>
      </trkpt>
      <trkpt lat="44.12115" lon="5.97264">
        <ele>506</ele>
        <time>2022-04-06T08:34:38.012Z</time>
      </trkpt>
      <trkpt lat="44.12115" lon="5.97276">
        <ele>506.79998779297</ele>
        <time>2022-04-06T08:34:41.043Z</time>
      </trkpt>
      <trkpt lat="44.12115" lon="5.97282">
        <ele>507.20001220703</ele>
        <time>2022-04-06T08:34:44.075Z</time>
      </trkpt>
      <trkpt lat="44.12119" lon="5.97295">
        <ele>508</ele>
        <time>2022-04-06T08:34:47.110Z</time>
      </trkpt>
      <trkpt lat="44.12123" lon="5.97306">
        <ele>508.39999389648</ele>
        <time>2022-04-06T08:34:50.148Z</time>
      </trkpt>
      <trkpt lat="44.12119" lon="5.97327">
        <ele>508.39999389648</ele>
        <time>2022-04-06T08:34:53.191Z</time>
      </trkpt>
      <trkpt lat="44.1211" lon="5.9734">
        <ele>506.79998779297</ele>
        <time>2022-04-06T08:34:56.238Z</time>
      </trkpt>
      <trkpt lat="44.12104" lon="5.97343">
        <ele>505.79998779297</ele>
        <time>2022-04-06T08:34:59.287Z</time>
      </trkpt>
      <trkpt lat="44.12101" lon="5.97346">
        <ele>505.60000610352</ele>
        <time>2022-04-06T08:35:02.337Z</time>
      </trkpt>
      <trkpt lat="44.12099" lon="5.97349">
        <ele>505.39999389648</ele>
        <time>2022-04-06T08:35:05.388Z</time>
      </trkpt>
      <trkpt lat="44.12096" lon="5.97353">
        <ele>505.20001220703</ele>
        <time>2022-04-06T08:35:08.441Z</time>
      </trkpt>
      <trkpt lat="44.12087" lon="5.97361">
        <ele>504.39999389648</ele>
        <time>2022-04-06T08:35:11.497Z</time>
      </trkpt>
      <trkpt lat="44.12078" lon="5.97369">
        <ele>503.60000610352</ele>
        <time>2022-04-06T08:35:14.556Z</time>
      </trkpt>
      <trkpt lat="44.12075" lon="5.97373">
        <ele>502.60000610352</ele>
        <time>2022-04-06T08:35:17.617Z</time>
      </trkpt>
      <trkpt lat="44.12071" lon="5.97376">
        <ele>501.79998779297</ele>
        <time>2022-04-06T08:35:20.679Z</time>
      </trkpt>
      <trkpt lat="44.12067" lon="5.9738">
        <ele>501</ele>
        <time>2022-04-06T08:35:23.743Z</time>
      </trkpt>
      <trkpt lat="44.12061" lon="5.97384">
        <ele>500.39999389648</ele>
        <time>2022-04-06T08:35:26.808Z</time>
      </trkpt>
      <trkpt lat="44.12056" lon="5.97387">
        <ele>499.60000610352</ele>
        <time>2022-04-06T08:35:29.875Z</time>
      </trkpt>
      <trkpt lat="44.12052" lon="5.97391">
        <ele>498.39999389648</ele>
        <time>2022-04-06T08:35:32.944Z</time>
      </trkpt>
      <trkpt lat="44.12049" lon="5.97403">
        <ele>497</ele>
        <time>2022-04-06T08:35:36.016Z</time>
      </trkpt>
      <trkpt lat="44.12043" lon="5.97409">
        <ele>496.20001220703</ele>
        <time>2022-04-06T08:35:39.090Z</time>
      </trkpt>
      <trkpt lat="44.12037" lon="5.97411">
        <ele>496</ele>
        <time>2022-04-06T08:35:42.166Z</time>
      </trkpt>
      <trkpt lat="44.12027" lon="5.97417">
        <ele>494.60000610352</ele>
        <time>2022-04-06T08:35:45.246Z</time>
      </trkpt>
      <trkpt lat="44.12025" lon="5.97421">
        <ele>493.79998779297</ele>
        <time>2022-04-06T08:35:48.327Z</time>
      </trkpt>
      <trkpt lat="44.12023" lon="5.97427">
        <ele>493.20001220703</ele>
        <time>2022-04-06T08:35:51.409Z</time>
      </trkpt>
      <trkpt lat="44.12017" lon="5.97438">
        <ele>491.39999389648</ele>
        <time>2022-04-06T08:35:54.494Z</time>
      </trkpt>
      <trkpt lat="44.12014" lon="5.97444">
        <ele>491</ele>
        <time>2022-04-06T08:35:57.581Z</time>
      </trkpt>
      <trkpt lat="44.12012" lon="5.97459">
        <ele>490</ele>
        <time>2022-04-06T08:36:00.671Z</time>
      </trkpt>
      <trkpt lat="44.12011" lon="5.97467">
        <ele>489.39999389648</ele>
        <time>2022-04-06T08:36:03.763Z</time>
      </trkpt>
      <trkpt lat="44.12011" lon="5.97474">
        <ele>489</ele>
        <time>2022-04-06T08:36:06.857Z</time>
      </trkpt>
      <trkpt lat="44.1201" lon="5.97478">
        <ele>488.79998779297</ele>
        <time>2022-04-06T08:36:09.952Z</time>
      </trkpt>
      <trkpt lat="44.12007" lon="5.97481">
        <ele>488.60000610352</ele>
        <time>2022-04-06T08:36:13.048Z</time>
      </trkpt>
      <trkpt lat="44.12003" lon="5.9749">
        <ele>488.39999389648</ele>
        <time>2022-04-06T08:36:16.146Z</time>
      </trkpt>
      <trkpt lat="44.12001" lon="5.97496">
        <ele>487.79998779297</ele>
        <time>2022-04-06T08:36:19.246Z</time>
      </trkpt>
      <trkpt lat="44.11999" lon="5.97503">
        <ele>487.60000610352</ele>
        <time>2022-04-06T08:36:22.348Z</time>
      </trkpt>
      <trkpt lat="44.11997" lon="5.97509">
        <ele>487.20001220703</ele>
        <time>2022-04-06T08:36:25.451Z</time>
      </trkpt>
      <trkpt lat="44.11996" lon="5.97516">
        <ele>486.39999389648</ele>
        <time>2022-04-06T08:36:28.556Z</time>
      </trkpt>
      <trkpt lat="44.11991" lon="5.97532">
        <ele>484.79998779297</ele>
        <time>2022-04-06T08:36:31.665Z</time>
      </trkpt>
      <trkpt lat="44.11986" lon="5.97549">
        <ele>484</ele>
        <time>2022-04-06T08:36:34.778Z</time>
      </trkpt>
      <trkpt lat="44.11984" lon="5.97553">
        <ele>484</ele>
        <time>2022-04-06T08:36:37.892Z</time>
      </trkpt>
      <trkpt lat="44.11975" lon="5.97565">
        <ele>484</ele>
        <time>2022-04-06T08:36:41.010Z</time>
      </trkpt>
      <trkpt lat="44.11971" lon="5.97569">
        <ele>483.79998779297</ele>
        <time>2022-04-06T08:36:44.130Z</time>
      </trkpt>
      <trkpt lat="44.11963" lon="5.97579">
        <ele>483.20001220703</ele>
        <time>2022-04-06T08:36:47.253Z</time>
      </trkpt>
      <trkpt lat="44.11961" lon="5.97585">
        <ele>482.79998779297</ele>
        <time>2022-04-06T08:36:50.377Z</time>
      </trkpt>
      <trkpt lat="44.1196" lon="5.97587">
        <ele>482.60000610352</ele>
        <time>2022-04-06T08:36:53.502Z</time>
      </trkpt>
      <trkpt lat="44.1196" lon="5.97588">
        <ele>482.60000610352</ele>
        <time>2022-04-06T08:36:56.627Z</time>
      </trkpt>
      <trkpt lat="44.11962" lon="5.97592">
        <ele>482.39999389648</ele>
        <time>2022-04-06T08:36:59.753Z</time>
      </trkpt>
      <trkpt lat="44.11963" lon="5.97596">
        <ele>482.20001220703</ele>
        <time>2022-04-06T08:37:02.880Z</time>
      </trkpt>
      <trkpt lat="44.11965" lon="5.976">
        <ele>481.79998779297</ele>
        <time>2022-04-06T08:37:06.008Z</time>
      </trkpt>
      <trkpt lat="44.11965" lon="5.97605">
        <ele>480.79998779297</ele>
        <time>2022-04-06T08:37:09.137Z</time>
      </trkpt>
      <trkpt lat="44.11963" lon="5.9761">
        <ele>479.20001220703</ele>
        <time>2022-04-06T08:37:12.267Z</time>
      </trkpt>
      <trkpt lat="44.11963" lon="5.97613">
        <ele>478.20001220703</ele>
        <time>2022-04-06T08:37:15.398Z</time>
      </trkpt>
      <trkpt lat="44.11961" lon="5.97619">
        <ele>477</ele>
        <time>2022-04-06T08:37:18.531Z</time>
      </trkpt>
      <trkpt lat="44.11961" lon="5.97623">
        <ele>476.60000610352</ele>
        <time>2022-04-06T08:37:21.665Z</time>
      </trkpt>
      <trkpt lat="44.11965" lon="5.97629">
        <ele>475.79998779297</ele>
        <time>2022-04-06T08:37:24.801Z</time>
      </trkpt>
      <trkpt lat="44.11965" lon="5.97633">
        <ele>475.39999389648</ele>
        <time>2022-04-06T08:37:27.937Z</time>
      </trkpt>
      <trkpt lat="44.11965" lon="5.97636">
        <ele>475</ele>
        <time>2022-04-06T08:37:31.074Z</time>
      </trkpt>
      <trkpt lat="44.11967" lon="5.97642">
        <ele>474.60000610352</ele>
        <time>2022-04-06T08:37:34.212Z</time>
      </trkpt>
      <trkpt lat="44.11969" lon="5.97645">
        <ele>474.60000610352</ele>
        <time>2022-04-06T08:37:37.351Z</time>
      </trkpt>
      <trkpt lat="44.11977" lon="5.97656">
        <ele>475.20001220703</ele>
        <time>2022-04-06T08:37:40.494Z</time>
      </trkpt>
      <trkpt lat="44.11979" lon="5.97657">
        <ele>475.79998779297</ele>
        <time>2022-04-06T08:37:43.638Z</time>
      </trkpt>
      <trkpt lat="44.11981" lon="5.9766">
        <ele>476.20001220703</ele>
        <time>2022-04-06T08:37:46.783Z</time>
      </trkpt>
      <trkpt lat="44.11981" lon="5.97662">
        <ele>476.79998779297</ele>
        <time>2022-04-06T08:37:49.928Z</time>
      </trkpt>
      <trkpt lat="44.11981" lon="5.97664">
        <ele>477.20001220703</ele>
        <time>2022-04-06T08:37:53.074Z</time>
      </trkpt>
      <trkpt lat="44.11981" lon="5.97667">
        <ele>478</ele>
        <time>2022-04-06T08:37:56.220Z</time>
      </trkpt>
      <trkpt lat="44.11982" lon="5.9767">
        <ele>478.60000610352</ele>
        <time>2022-04-06T08:37:59.367Z</time>
      </trkpt>
      <trkpt lat="44.11984" lon="5.97674">
        <ele>479</ele>
        <time>2022-04-06T08:38:02.515Z</time>
      </trkpt>
      <trkpt lat="44.11987" lon="5.97682">
        <ele>479.20001220703</ele>
        <time>2022-04-06T08:38:05.665Z</time>
      </trkpt>
      <trkpt lat="44.11996" lon="5.97691">
        <ele>479</ele>
        <time>2022-04-06T08:38:08.819Z</time>
      </trkpt>
      <trkpt lat="44.12007" lon="5.97705">
        <ele>478.20001220703</ele>
        <time>2022-04-06T08:38:11.977Z</time>
      </trkpt>
      <trkpt lat="44.12008" lon="5.97709">
        <ele>477.79998779297</ele>
        <time>2022-04-06T08:38:15.136Z</time>
      </trkpt>
      <trkpt lat="44.12006" lon="5.97716">
        <ele>477.20001220703</ele>
        <time>2022-04-06T08:38:18.297Z</time>
      </trkpt>
      <trkpt lat="44.12004" lon="5.97719">
        <ele>476.39999389648</ele>
        <time>2022-04-06T08:38:21.459Z</time>
      </trkpt>
      <trkpt lat="44.12001" lon="5.97722">
        <ele>475.60000610352</ele>
        <time>2022-04-06T08:38:24.622Z</time>
      </trkpt>
      <trkpt lat="44.11999" lon="5.97725">
        <ele>475</ele>
        <time>2022-04-06T08:38:27.786Z</time>
      </trkpt>
      <trkpt lat="44.11997" lon="5.97727">
        <ele>473.79998779297</ele>
        <time>2022-04-06T08:38:30.951Z</time>
      </trkpt>
      <trkpt lat="44.11998" lon="5.9773">
        <ele>473.20001220703</ele>
        <time>2022-04-06T08:38:34.117Z</time>
      </trkpt>
      <trkpt lat="44.12" lon="5.97732">
        <ele>472.60000610352</ele>
        <time>2022-04-06T08:38:37.283Z</time>
      </trkpt>
      <trkpt lat="44.12002" lon="5.97738">
        <ele>472</ele>
        <time>2022-04-06T08:38:40.451Z</time>
      </trkpt>
      <trkpt lat="44.12002" lon="5.97741">
        <ele>471.60000610352</ele>
        <time>2022-04-06T08:38:43.620Z</time>
      </trkpt>
      <trkpt lat="44.11999" lon="5.9775">
        <ele>469.79998779297</ele>
        <time>2022-04-06T08:38:46.791Z</time>
      </trkpt>
      <trkpt lat="44.11999" lon="5.97755">
        <ele>468.60000610352</ele>
        <time>2022-04-06T08:38:49.963Z</time>
      </trkpt>
      <trkpt lat="44.11995" lon="5.97763">
        <ele>468.60000610352</ele>
        <time>2022-04-06T08:38:53.137Z</time>
      </trkpt>
      <trkpt lat="44.11995" lon="5.97767">
        <ele>468.79998779297</ele>
        <time>2022-04-06T08:38:56.312Z</time>
      </trkpt>
      <trkpt lat="44.11996" lon="5.97781">
        <ele>470</ele>
        <time>2022-04-06T08:38:59.490Z</time>
      </trkpt>
      <trkpt lat="44.11997" lon="5.97793">
        <ele>471.20001220703</ele>
        <time>2022-04-06T08:39:02.671Z</time>
      </trkpt>
      <trkpt lat="44.11996" lon="5.97798">
        <ele>471.60000610352</ele>
        <time>2022-04-06T08:39:05.853Z</time>
      </trkpt>
      <trkpt lat="44.11995" lon="5.97807">
        <ele>472.60000610352</ele>
        <time>2022-04-06T08:39:09.037Z</time>
      </trkpt>
      <trkpt lat="44.11994" lon="5.97814">
        <ele>473.20001220703</ele>
        <time>2022-04-06T08:39:12.223Z</time>
      </trkpt>
      <trkpt lat="44.11994" lon="5.97817">
        <ele>473.79998779297</ele>
        <time>2022-04-06T08:39:15.410Z</time>
      </trkpt>
      <trkpt lat="44.11995" lon="5.97822">
        <ele>474.39999389648</ele>
        <time>2022-04-06T08:39:18.598Z</time>
      </trkpt>
      <trkpt lat="44.11995" lon="5.9782">
        <ele>475.20001220703</ele>
        <time>2022-04-06T08:39:21.786Z</time>
      </trkpt>
      <trkpt lat="44.11991" lon="5.97824">
        <ele>476.20001220703</ele>
        <time>2022-04-06T08:39:24.976Z</time>
      </trkpt>
      <trkpt lat="44.11991" lon="5.97827">
        <ele>476.39999389648</ele>
        <time>2022-04-06T08:39:28.166Z</time>
      </trkpt>
      <trkpt lat="44.1199" lon="5.97828">
        <ele>476.79998779297</ele>
        <time>2022-04-06T08:39:31.357Z</time>
      </trkpt>
      <trkpt lat="44.11989" lon="5.9783">
        <ele>477</ele>
        <time>2022-04-06T08:39:34.548Z</time>
      </trkpt>
      <trkpt lat="44.11987" lon="5.97831">
        <ele>477</ele>
        <time>2022-04-06T08:39:37.740Z</time>
      </trkpt>
      <trkpt lat="44.11982" lon="5.97841">
        <ele>477.39999389648</ele>
        <time>2022-04-06T08:39:40.934Z</time>
      </trkpt>
      <trkpt lat="44.11975" lon="5.97849">
        <ele>477.39999389648</ele>
        <time>2022-04-06T08:39:44.131Z</time>
      </trkpt>
      <trkpt lat="44.11974" lon="5.97854">
        <ele>477.39999389648</ele>
        <time>2022-04-06T08:39:47.329Z</time>
      </trkpt>
      <trkpt lat="44.11975" lon="5.97861">
        <ele>477.60000610352</ele>
        <time>2022-04-06T08:39:50.529Z</time>
      </trkpt>
      <trkpt lat="44.11976" lon="5.97868">
        <ele>477.60000610352</ele>
        <time>2022-04-06T08:39:53.731Z</time>
      </trkpt>
      <trkpt lat="44.11977" lon="5.97872">
        <ele>478.39999389648</ele>
        <time>2022-04-06T08:39:56.934Z</time>
      </trkpt>
      <trkpt lat="44.11976" lon="5.97873">
        <ele>478.79998779297</ele>
        <time>2022-04-06T08:40:00.137Z</time>
      </trkpt>
      <trkpt lat="44.11972" lon="5.97875">
        <ele>479.39999389648</ele>
        <time>2022-04-06T08:40:03.341Z</time>
      </trkpt>
      <trkpt lat="44.11967" lon="5.97876">
        <ele>480.39999389648</ele>
        <time>2022-04-06T08:40:06.547Z</time>
      </trkpt>
      <trkpt lat="44.11965" lon="5.97876">
        <ele>480.79998779297</ele>
        <time>2022-04-06T08:40:09.754Z</time>
      </trkpt>
      <trkpt lat="44.11958" lon="5.97876">
        <ele>482.39999389648</ele>
        <time>2022-04-06T08:40:12.963Z</time>
      </trkpt>
      <trkpt lat="44.11956" lon="5.97876">
        <ele>483</ele>
        <time>2022-04-06T08:40:16.172Z</time>
      </trkpt>
      <trkpt lat="44.11953" lon="5.97877">
        <ele>483.79998779297</ele>
        <time>2022-04-06T08:40:19.382Z</time>
      </trkpt>
      <trkpt lat="44.11948" lon="5.97879">
        <ele>484.79998779297</ele>
        <time>2022-04-06T08:40:22.594Z</time>
      </trkpt>
      <trkpt lat="44.11947" lon="5.97882">
        <ele>485.39999389648</ele>
        <time>2022-04-06T08:40:25.807Z</time>
      </trkpt>
      <trkpt lat="44.11942" lon="5.97883">
        <ele>486.60000610352</ele>
        <time>2022-04-06T08:40:29.021Z</time>
      </trkpt>
      <trkpt lat="44.11941" lon="5.97883">
        <ele>487.60000610352</ele>
        <time>2022-04-06T08:40:32.235Z</time>
      </trkpt>
      <trkpt lat="44.11941" lon="5.97882">
        <ele>487.79998779297</ele>
        <time>2022-04-06T08:40:35.450Z</time>
      </trkpt>
      <trkpt lat="44.11938" lon="5.9788">
        <ele>489</ele>
        <time>2022-04-06T08:40:38.666Z</time>
      </trkpt>
      <trkpt lat="44.11935" lon="5.9788">
        <ele>489.39999389648</ele>
        <time>2022-04-06T08:40:41.883Z</time>
      </trkpt>
      <trkpt lat="44.11933" lon="5.97881">
        <ele>490.20001220703</ele>
        <time>2022-04-06T08:40:45.100Z</time>
      </trkpt>
      <trkpt lat="44.11925" lon="5.97884">
        <ele>491.20001220703</ele>
        <time>2022-04-06T08:40:48.320Z</time>
      </trkpt>
      <trkpt lat="44.11919" lon="5.97885">
        <ele>492</ele>
        <time>2022-04-06T08:40:51.542Z</time>
      </trkpt>
      <trkpt lat="44.11915" lon="5.97891">
        <ele>492.39999389648</ele>
        <time>2022-04-06T08:40:54.766Z</time>
      </trkpt>
      <trkpt lat="44.11912" lon="5.97897">
        <ele>492.60000610352</ele>
        <time>2022-04-06T08:40:57.991Z</time>
      </trkpt>
      <trkpt lat="44.11905" lon="5.97908">
        <ele>493.20001220703</ele>
        <time>2022-04-06T08:41:01.220Z</time>
      </trkpt>
      <trkpt lat="44.11899" lon="5.97919">
        <ele>493.60000610352</ele>
        <time>2022-04-06T08:41:04.452Z</time>
      </trkpt>
      <trkpt lat="44.11897" lon="5.9792">
        <ele>493.60000610352</ele>
        <time>2022-04-06T08:41:07.685Z</time>
      </trkpt>
      <trkpt lat="44.11893" lon="5.97923">
        <ele>494</ele>
        <time>2022-04-06T08:41:10.919Z</time>
      </trkpt>
      <trkpt lat="44.11889" lon="5.97926">
        <ele>494.20001220703</ele>
        <time>2022-04-06T08:41:14.154Z</time>
      </trkpt>
      <trkpt lat="44.11876" lon="5.97928">
        <ele>494</ele>
        <time>2022-04-06T08:41:17.393Z</time>
      </trkpt>
      <trkpt lat="44.11872" lon="5.97932">
        <ele>494.20001220703</ele>
        <time>2022-04-06T08:41:20.634Z</time>
      </trkpt>
      <trkpt lat="44.11869" lon="5.97931">
        <ele>494.39999389648</ele>
        <time>2022-04-06T08:41:23.876Z</time>
      </trkpt>
      <trkpt lat="44.11867" lon="5.97932">
        <ele>494.79998779297</ele>
        <time>2022-04-06T08:41:27.119Z</time>
      </trkpt>
      <trkpt lat="44.11866" lon="5.97937">
        <ele>496</ele>
        <time>2022-04-06T08:41:30.363Z</time>
      </trkpt>
      <trkpt lat="44.11867" lon="5.97938">
        <ele>496.20001220703</ele>
        <time>2022-04-06T08:41:33.607Z</time>
      </trkpt>
      <trkpt lat="44.11867" lon="5.97942">
        <ele>497</ele>
        <time>2022-04-06T08:41:36.852Z</time>
      </trkpt>
      <trkpt lat="44.11867" lon="5.97946">
        <ele>497.39999389648</ele>
        <time>2022-04-06T08:41:40.098Z</time>
      </trkpt>
      <trkpt lat="44.11866" lon="5.97949">
        <ele>497.39999389648</ele>
        <time>2022-04-06T08:41:43.345Z</time>
      </trkpt>
      <trkpt lat="44.11865" lon="5.97952">
        <ele>497.39999389648</ele>
        <time>2022-04-06T08:41:46.592Z</time>
      </trkpt>
      <trkpt lat="44.11864" lon="5.97955">
        <ele>497.60000610352</ele>
        <time>2022-04-06T08:41:49.840Z</time>
      </trkpt>
      <trkpt lat="44.11865" lon="5.97962">
        <ele>498.20001220703</ele>
        <time>2022-04-06T08:41:53.090Z</time>
      </trkpt>
      <trkpt lat="44.11866" lon="5.97963">
        <ele>498.60000610352</ele>
        <time>2022-04-06T08:41:56.340Z</time>
      </trkpt>
      <trkpt lat="44.11868" lon="5.97968">
        <ele>499.20001220703</ele>
        <time>2022-04-06T08:41:59.591Z</time>
      </trkpt>
      <trkpt lat="44.1187" lon="5.97973">
        <ele>499.79998779297</ele>
        <time>2022-04-06T08:42:02.844Z</time>
      </trkpt>
      <trkpt lat="44.1187" lon="5.97977">
        <ele>501.20001220703</ele>
        <time>2022-04-06T08:42:06.098Z</time>
      </trkpt>
      <trkpt lat="44.11869" lon="5.97979">
        <ele>501.39999389648</ele>
        <time>2022-04-06T08:42:09.352Z</time>
      </trkpt>
      <trkpt lat="44.11872" lon="5.97984">
        <ele>501.39999389648</ele>
        <time>2022-04-06T08:42:12.608Z</time>
      </trkpt>
      <trkpt lat="44.11879" lon="5.9799">
        <ele>500.60000610352</ele>
        <time>2022-04-06T08:42:15.866Z</time>
      </trkpt>
      <trkpt lat="44.11886" lon="5.97997">
        <ele>499.60000610352</ele>
        <time>2022-04-06T08:42:19.127Z</time>
      </trkpt>
      <trkpt lat="44.1189" lon="5.98001">
        <ele>499.20001220703</ele>
        <time>2022-04-06T08:42:22.389Z</time>
      </trkpt>
      <trkpt lat="44.11894" lon="5.98005">
        <ele>498.60000610352</ele>
        <time>2022-04-06T08:42:25.653Z</time>
      </trkpt>
      <trkpt lat="44.11903" lon="5.98011">
        <ele>497.79998779297</ele>
        <time>2022-04-06T08:42:28.920Z</time>
      </trkpt>
      <trkpt lat="44.11907" lon="5.98015">
        <ele>497.39999389648</ele>
        <time>2022-04-06T08:42:32.189Z</time>
      </trkpt>
      <trkpt lat="44.11908" lon="5.98021">
        <ele>497</ele>
        <time>2022-04-06T08:42:35.459Z</time>
      </trkpt>
      <trkpt lat="44.11907" lon="5.98031">
        <ele>496.20001220703</ele>
        <time>2022-04-06T08:42:38.731Z</time>
      </trkpt>
      <trkpt lat="44.11905" lon="5.98035">
        <ele>496</ele>
        <time>2022-04-06T08:42:42.004Z</time>
      </trkpt>
      <trkpt lat="44.11901" lon="5.9804">
        <ele>495.79998779297</ele>
        <time>2022-04-06T08:42:45.279Z</time>
      </trkpt>
      <trkpt lat="44.11894" lon="5.98048">
        <ele>496.60000610352</ele>
        <time>2022-04-06T08:42:48.557Z</time>
      </trkpt>
      <trkpt lat="44.11893" lon="5.9805">
        <ele>496.79998779297</ele>
        <time>2022-04-06T08:42:51.836Z</time>
      </trkpt>
      <trkpt lat="44.11892" lon="5.98053">
        <ele>497.39999389648</ele>
        <time>2022-04-06T08:42:55.115Z</time>
      </trkpt>
      <trkpt lat="44.11892" lon="5.9806">
        <ele>497.60000610352</ele>
        <time>2022-04-06T08:42:58.396Z</time>
      </trkpt>
      <trkpt lat="44.11893" lon="5.98064">
        <ele>497.79998779297</ele>
        <time>2022-04-06T08:43:01.678Z</time>
      </trkpt>
      <trkpt lat="44.11895" lon="5.98083">
        <ele>497.39999389648</ele>
        <time>2022-04-06T08:43:04.964Z</time>
      </trkpt>
      <trkpt lat="44.11892" lon="5.98095">
        <ele>497.60000610352</ele>
        <time>2022-04-06T08:43:08.253Z</time>
      </trkpt>
      <trkpt lat="44.11892" lon="5.98111">
        <ele>497.60000610352</ele>
        <time>2022-04-06T08:43:11.546Z</time>
      </trkpt>
      <trkpt lat="44.11891" lon="5.98112">
        <ele>497.60000610352</ele>
        <time>2022-04-06T08:43:14.839Z</time>
      </trkpt>
      <trkpt lat="44.11889" lon="5.98126">
        <ele>497.79998779297</ele>
        <time>2022-04-06T08:43:18.135Z</time>
      </trkpt>
      <trkpt lat="44.11887" lon="5.9813">
        <ele>498</ele>
        <time>2022-04-06T08:43:21.432Z</time>
      </trkpt>
      <trkpt lat="44.11886" lon="5.98131">
        <ele>498</ele>
        <time>2022-04-06T08:43:24.730Z</time>
      </trkpt>
      <trkpt lat="44.1188" lon="5.98134">
        <ele>499</ele>
        <time>2022-04-06T08:43:28.030Z</time>
      </trkpt>
      <trkpt lat="44.11878" lon="5.98134">
        <ele>499.39999389648</ele>
        <time>2022-04-06T08:43:31.331Z</time>
      </trkpt>
      <trkpt lat="44.11873" lon="5.98132">
        <ele>500.39999389648</ele>
        <time>2022-04-06T08:43:34.633Z</time>
      </trkpt>
      <trkpt lat="44.11869" lon="5.98132">
        <ele>501</ele>
        <time>2022-04-06T08:43:37.936Z</time>
      </trkpt>
      <trkpt lat="44.11865" lon="5.9813">
        <ele>501.60000610352</ele>
        <time>2022-04-06T08:43:41.241Z</time>
      </trkpt>
      <trkpt lat="44.11863" lon="5.98129">
        <ele>502</ele>
        <time>2022-04-06T08:43:44.546Z</time>
      </trkpt>
      <trkpt lat="44.1186" lon="5.98131">
        <ele>502.60000610352</ele>
        <time>2022-04-06T08:43:47.852Z</time>
      </trkpt>
      <trkpt lat="44.11858" lon="5.98133">
        <ele>503</ele>
        <time>2022-04-06T08:43:51.159Z</time>
      </trkpt>
      <trkpt lat="44.11854" lon="5.98132">
        <ele>503.39999389648</ele>
        <time>2022-04-06T08:43:54.467Z</time>
      </trkpt>
      <trkpt lat="44.11851" lon="5.98132">
        <ele>504.20001220703</ele>
        <time>2022-04-06T08:43:57.776Z</time>
      </trkpt>
      <trkpt lat="44.11849" lon="5.98132">
        <ele>504.39999389648</ele>
        <time>2022-04-06T08:44:01.086Z</time>
      </trkpt>
      <trkpt lat="44.11842" lon="5.98134">
        <ele>505.20001220703</ele>
        <time>2022-04-06T08:44:04.398Z</time>
      </trkpt>
      <trkpt lat="44.11837" lon="5.98137">
        <ele>506.20001220703</ele>
        <time>2022-04-06T08:44:07.712Z</time>
      </trkpt>
      <trkpt lat="44.11834" lon="5.98142">
        <ele>506.60000610352</ele>
        <time>2022-04-06T08:44:11.027Z</time>
      </trkpt>
      <trkpt lat="44.11829" lon="5.98148">
        <ele>507.60000610352</ele>
        <time>2022-04-06T08:44:14.344Z</time>
      </trkpt>
      <trkpt lat="44.11828" lon="5.9815">
        <ele>507.79998779297</ele>
        <time>2022-04-06T08:44:17.662Z</time>
      </trkpt>
      <trkpt lat="44.1182" lon="5.98161">
        <ele>509</ele>
        <time>2022-04-06T08:44:20.984Z</time>
      </trkpt>
      <trkpt lat="44.11818" lon="5.98163">
        <ele>509</ele>
        <time>2022-04-06T08:44:24.306Z</time>
      </trkpt>
      <trkpt lat="44.11813" lon="5.98167">
        <ele>509.79998779297</ele>
        <time>2022-04-06T08:44:27.630Z</time>
      </trkpt>
      <trkpt lat="44.11812" lon="5.9817">
        <ele>510</ele>
        <time>2022-04-06T08:44:30.955Z</time>
      </trkpt>
      <trkpt lat="44.11811" lon="5.98172">
        <ele>510.39999389648</ele>
        <time>2022-04-06T08:44:34.280Z</time>
      </trkpt>
      <trkpt lat="44.11804" lon="5.9818">
        <ele>511.39999389648</ele>
        <time>2022-04-06T08:44:37.608Z</time>
      </trkpt>
      <trkpt lat="44.11802" lon="5.9818">
        <ele>511.60000610352</ele>
        <time>2022-04-06T08:44:40.937Z</time>
      </trkpt>
      <trkpt lat="44.11796" lon="5.98184">
        <ele>512.40002441406</ele>
        <time>2022-04-06T08:44:44.268Z</time>
      </trkpt>
      <trkpt lat="44.11793" lon="5.98184">
        <ele>512.79998779297</ele>
        <time>2022-04-06T08:44:47.600Z</time>
      </trkpt>
      <trkpt lat="44.11787" lon="5.98185">
        <ele>514</ele>
        <time>2022-04-06T08:44:50.934Z</time>
      </trkpt>
      <trkpt lat="44.11785" lon="5.98188">
        <ele>514.59997558594</ele>
        <time>2022-04-06T08:44:54.269Z</time>
      </trkpt>
      <trkpt lat="44.11782" lon="5.98193">
        <ele>515.20001220703</ele>
        <time>2022-04-06T08:44:57.605Z</time>
      </trkpt>
      <trkpt lat="44.11781" lon="5.98195">
        <ele>515.79998779297</ele>
        <time>2022-04-06T08:45:00.942Z</time>
      </trkpt>
      <trkpt lat="44.11779" lon="5.98196">
        <ele>516.40002441406</ele>
        <time>2022-04-06T08:45:04.280Z</time>
      </trkpt>
      <trkpt lat="44.1177" lon="5.98204">
        <ele>517.79998779297</ele>
        <time>2022-04-06T08:45:07.621Z</time>
      </trkpt>
      <trkpt lat="44.11768" lon="5.98205">
        <ele>518.20001220703</ele>
        <time>2022-04-06T08:45:10.963Z</time>
      </trkpt>
      <trkpt lat="44.11766" lon="5.98204">
        <ele>519</ele>
        <time>2022-04-06T08:45:14.305Z</time>
      </trkpt>
      <trkpt lat="44.11758" lon="5.98209">
        <ele>520.40002441406</ele>
        <time>2022-04-06T08:45:17.650Z</time>
      </trkpt>
      <trkpt lat="44.11756" lon="5.9821">
        <ele>520.59997558594</ele>
        <time>2022-04-06T08:45:20.996Z</time>
      </trkpt>
      <trkpt lat="44.11753" lon="5.98219">
        <ele>521.20001220703</ele>
        <time>2022-04-06T08:45:24.344Z</time>
      </trkpt>
      <trkpt lat="44.11751" lon="5.98223">
        <ele>521.79998779297</ele>
        <time>2022-04-06T08:45:27.693Z</time>
      </trkpt>
      <trkpt lat="44.1175" lon="5.98224">
        <ele>522</ele>
        <time>2022-04-06T08:45:31.042Z</time>
      </trkpt>
      <trkpt lat="44.11745" lon="5.98227">
        <ele>523.20001220703</ele>
        <time>2022-04-06T08:45:34.393Z</time>
      </trkpt>
      <trkpt lat="44.1174" lon="5.98227">
        <ele>524</ele>
        <time>2022-04-06T08:45:37.746Z</time>
      </trkpt>
      <trkpt lat="44.11737" lon="5.98228">
        <ele>524.40002441406</ele>
        <time>2022-04-06T08:45:41.099Z</time>
      </trkpt>
      <trkpt lat="44.1173" lon="5.98225">
        <ele>525.59997558594</ele>
        <time>2022-04-06T08:45:44.455Z</time>
      </trkpt>
      <trkpt lat="44.11728" lon="5.98226">
        <ele>526</ele>
        <time>2022-04-06T08:45:47.812Z</time>
      </trkpt>
      <trkpt lat="44.11724" lon="5.98224">
        <ele>527</ele>
        <time>2022-04-06T08:45:51.170Z</time>
      </trkpt>
      <trkpt lat="44.1172" lon="5.98223">
        <ele>527.59997558594</ele>
        <time>2022-04-06T08:45:54.529Z</time>
      </trkpt>
      <trkpt lat="44.11717" lon="5.98225">
        <ele>528.40002441406</ele>
        <time>2022-04-06T08:45:57.889Z</time>
      </trkpt>
      <trkpt lat="44.11711" lon="5.9823">
        <ele>529.20001220703</ele>
        <time>2022-04-06T08:46:01.252Z</time>
      </trkpt>
      <trkpt lat="44.11708" lon="5.98234">
        <ele>529.40002441406</ele>
        <time>2022-04-06T08:46:04.616Z</time>
      </trkpt>
      <trkpt lat="44.11706" lon="5.98237">
        <ele>529.79998779297</ele>
        <time>2022-04-06T08:46:07.981Z</time>
      </trkpt>
      <trkpt lat="44.11698" lon="5.98239">
        <ele>530.20001220703</ele>
        <time>2022-04-06T08:46:11.348Z</time>
      </trkpt>
      <trkpt lat="44.11686" lon="5.9825">
        <ele>530.59997558594</ele>
        <time>2022-04-06T08:46:14.720Z</time>
      </trkpt>
      <trkpt lat="44.1168" lon="5.98261">
        <ele>531</ele>
        <time>2022-04-06T08:46:18.095Z</time>
      </trkpt>
      <trkpt lat="44.11674" lon="5.98263">
        <ele>531.20001220703</ele>
        <time>2022-04-06T08:46:21.472Z</time>
      </trkpt>
      <trkpt lat="44.11672" lon="5.98267">
        <ele>531.59997558594</ele>
        <time>2022-04-06T08:46:24.850Z</time>
      </trkpt>
      <trkpt lat="44.11669" lon="5.98271">
        <ele>531.79998779297</ele>
        <time>2022-04-06T08:46:28.229Z</time>
      </trkpt>
      <trkpt lat="44.11663" lon="5.98282">
        <ele>532.20001220703</ele>
        <time>2022-04-06T08:46:31.611Z</time>
      </trkpt>
      <trkpt lat="44.11648" lon="5.98293">
        <ele>532.79998779297</ele>
        <time>2022-04-06T08:46:34.999Z</time>
      </trkpt>
      <trkpt lat="44.11637" lon="5.98297">
        <ele>533.20001220703</ele>
        <time>2022-04-06T08:46:38.390Z</time>
      </trkpt>
      <trkpt lat="44.11626" lon="5.98297">
        <ele>534.20001220703</ele>
        <time>2022-04-06T08:46:41.785Z</time>
      </trkpt>
      <trkpt lat="44.1162" lon="5.98302">
        <ele>534.59997558594</ele>
        <time>2022-04-06T08:46:45.182Z</time>
      </trkpt>
      <trkpt lat="44.11605" lon="5.9831">
        <ele>535.20001220703</ele>
        <time>2022-04-06T08:46:48.584Z</time>
      </trkpt>
      <trkpt lat="44.11596" lon="5.98311">
        <ele>536.20001220703</ele>
        <time>2022-04-06T08:46:51.989Z</time>
      </trkpt>
      <trkpt lat="44.1159" lon="5.9831">
        <ele>537.20001220703</ele>
        <time>2022-04-06T08:46:55.396Z</time>
      </trkpt>
      <trkpt lat="44.11587" lon="5.9831">
        <ele>537.79998779297</ele>
        <time>2022-04-06T08:46:58.804Z</time>
      </trkpt>
      <trkpt lat="44.11579" lon="5.98307">
        <ele>539.20001220703</ele>
        <time>2022-04-06T08:47:02.215Z</time>
      </trkpt>
      <trkpt lat="44.11572" lon="5.98306">
        <ele>541</ele>
        <time>2022-04-06T08:47:05.628Z</time>
      </trkpt>
      <trkpt lat="44.11567" lon="5.98304">
        <ele>542</ele>
        <time>2022-04-06T08:47:09.042Z</time>
      </trkpt>
      <trkpt lat="44.11558" lon="5.98303">
        <ele>543.40002441406</ele>
        <time>2022-04-06T08:47:12.459Z</time>
      </trkpt>
      <trkpt lat="44.11549" lon="5.98303">
        <ele>544.59997558594</ele>
        <time>2022-04-06T08:47:15.879Z</time>
      </trkpt>
      <trkpt lat="44.11544" lon="5.98303">
        <ele>545.20001220703</ele>
        <time>2022-04-06T08:47:19.301Z</time>
      </trkpt>
      <trkpt lat="44.11539" lon="5.98304">
        <ele>545.79998779297</ele>
        <time>2022-04-06T08:47:22.724Z</time>
      </trkpt>
      <trkpt lat="44.11534" lon="5.98301">
        <ele>546.59997558594</ele>
        <time>2022-04-06T08:47:26.149Z</time>
      </trkpt>
      <trkpt lat="44.11531" lon="5.98299">
        <ele>547.20001220703</ele>
        <time>2022-04-06T08:47:29.575Z</time>
      </trkpt>
      <trkpt lat="44.11523" lon="5.98298">
        <ele>548.59997558594</ele>
        <time>2022-04-06T08:47:33.003Z</time>
      </trkpt>
      <trkpt lat="44.11521" lon="5.98297">
        <ele>549</ele>
        <time>2022-04-06T08:47:36.432Z</time>
      </trkpt>
      <trkpt lat="44.11519" lon="5.98295">
        <ele>549.40002441406</ele>
        <time>2022-04-06T08:47:39.862Z</time>
      </trkpt>
      <trkpt lat="44.11518" lon="5.98293">
        <ele>549.79998779297</ele>
        <time>2022-04-06T08:47:43.292Z</time>
      </trkpt>
      <trkpt lat="44.11514" lon="5.98289">
        <ele>550.20001220703</ele>
        <time>2022-04-06T08:47:46.724Z</time>
      </trkpt>
      <trkpt lat="44.11512" lon="5.98287">
        <ele>551</ele>
        <time>2022-04-06T08:47:50.157Z</time>
      </trkpt>
      <trkpt lat="44.11507" lon="5.98277">
        <ele>552.40002441406</ele>
        <time>2022-04-06T08:47:53.592Z</time>
      </trkpt>
      <trkpt lat="44.11503" lon="5.98262">
        <ele>553.79998779297</ele>
        <time>2022-04-06T08:47:57.031Z</time>
      </trkpt>
      <trkpt lat="44.11502" lon="5.98258">
        <ele>554.20001220703</ele>
        <time>2022-04-06T08:48:00.471Z</time>
      </trkpt>
      <trkpt lat="44.11499" lon="5.98248">
        <ele>554.79998779297</ele>
        <time>2022-04-06T08:48:03.913Z</time>
      </trkpt>
      <trkpt lat="44.11496" lon="5.98239">
        <ele>555.59997558594</ele>
        <time>2022-04-06T08:48:07.358Z</time>
      </trkpt>
      <trkpt lat="44.11492" lon="5.98233">
        <ele>556.20001220703</ele>
        <time>2022-04-06T08:48:10.805Z</time>
      </trkpt>
      <trkpt lat="44.11483" lon="5.9822">
        <ele>557.20001220703</ele>
        <time>2022-04-06T08:48:14.256Z</time>
      </trkpt>
      <trkpt lat="44.11477" lon="5.98209">
        <ele>558.40002441406</ele>
        <time>2022-04-06T08:48:17.710Z</time>
      </trkpt>
      <trkpt lat="44.11477" lon="5.98202">
        <ele>559.20001220703</ele>
        <time>2022-04-06T08:48:21.165Z</time>
      </trkpt>
      <trkpt lat="44.11477" lon="5.98199">
        <ele>559.59997558594</ele>
        <time>2022-04-06T08:48:24.621Z</time>
      </trkpt>
      <trkpt lat="44.11477" lon="5.98196">
        <ele>560.20001220703</ele>
        <time>2022-04-06T08:48:28.078Z</time>
      </trkpt>
      <trkpt lat="44.11476" lon="5.98193">
        <ele>560.59997558594</ele>
        <time>2022-04-06T08:48:31.536Z</time>
      </trkpt>
      <trkpt lat="44.11475" lon="5.98189">
        <ele>561.20001220703</ele>
        <time>2022-04-06T08:48:34.995Z</time>
      </trkpt>
      <trkpt lat="44.11473" lon="5.98186">
        <ele>561.79998779297</ele>
        <time>2022-04-06T08:48:38.455Z</time>
      </trkpt>
      <trkpt lat="44.11469" lon="5.98177">
        <ele>563</ele>
        <time>2022-04-06T08:48:41.917Z</time>
      </trkpt>
      <trkpt lat="44.11468" lon="5.9817">
        <ele>564.20001220703</ele>
        <time>2022-04-06T08:48:45.381Z</time>
      </trkpt>
      <trkpt lat="44.11468" lon="5.98164">
        <ele>565.59997558594</ele>
        <time>2022-04-06T08:48:48.846Z</time>
      </trkpt>
      <trkpt lat="44.11469" lon="5.98157">
        <ele>567</ele>
        <time>2022-04-06T08:48:52.313Z</time>
      </trkpt>
      <trkpt lat="44.11467" lon="5.98147">
        <ele>568</ele>
        <time>2022-04-06T08:48:55.782Z</time>
      </trkpt>
      <trkpt lat="44.11466" lon="5.98144">
        <ele>568.20001220703</ele>
        <time>2022-04-06T08:48:59.252Z</time>
      </trkpt>
      <trkpt lat="44.11464" lon="5.98134">
        <ele>569.40002441406</ele>
        <time>2022-04-06T08:49:02.724Z</time>
      </trkpt>
      <trkpt lat="44.11462" lon="5.98123">
        <ele>571</ele>
        <time>2022-04-06T08:49:06.199Z</time>
      </trkpt>
      <trkpt lat="44.11457" lon="5.98116">
        <ele>572.40002441406</ele>
        <time>2022-04-06T08:49:09.676Z</time>
      </trkpt>
      <trkpt lat="44.11455" lon="5.98115">
        <ele>572.59997558594</ele>
        <time>2022-04-06T08:49:13.153Z</time>
      </trkpt>
      <trkpt lat="44.11446" lon="5.98121">
        <ele>573.40002441406</ele>
        <time>2022-04-06T08:49:16.634Z</time>
      </trkpt>
      <trkpt lat="44.11444" lon="5.98125">
        <ele>573.59997558594</ele>
        <time>2022-04-06T08:49:20.116Z</time>
      </trkpt>
      <trkpt lat="44.11441" lon="5.98128">
        <ele>574</ele>
        <time>2022-04-06T08:49:23.599Z</time>
      </trkpt>
      <trkpt lat="44.11437" lon="5.98133">
        <ele>574.20001220703</ele>
        <time>2022-04-06T08:49:27.084Z</time>
      </trkpt>
      <trkpt lat="44.11433" lon="5.98135">
        <ele>574.40002441406</ele>
        <time>2022-04-06T08:49:30.570Z</time>
      </trkpt>
      <trkpt lat="44.11427" lon="5.98138">
        <ele>574.79998779297</ele>
        <time>2022-04-06T08:49:34.058Z</time>
      </trkpt>
      <trkpt lat="44.11423" lon="5.98139">
        <ele>575</ele>
        <time>2022-04-06T08:49:37.547Z</time>
      </trkpt>
      <trkpt lat="44.11417" lon="5.98145">
        <ele>575.20001220703</ele>
        <time>2022-04-06T08:49:41.039Z</time>
      </trkpt>
      <trkpt lat="44.11412" lon="5.98147">
        <ele>575.20001220703</ele>
        <time>2022-04-06T08:49:44.532Z</time>
      </trkpt>
      <trkpt lat="44.11396" lon="5.98155">
        <ele>575.40002441406</ele>
        <time>2022-04-06T08:49:48.031Z</time>
      </trkpt>
      <trkpt lat="44.11393" lon="5.98154">
        <ele>575.59997558594</ele>
        <time>2022-04-06T08:49:51.530Z</time>
      </trkpt>
      <trkpt lat="44.11385" lon="5.98149">
        <ele>576.40002441406</ele>
        <time>2022-04-06T08:49:55.032Z</time>
      </trkpt>
      <trkpt lat="44.11379" lon="5.98147">
        <ele>577.20001220703</ele>
        <time>2022-04-06T08:49:58.536Z</time>
      </trkpt>
      <trkpt lat="44.11373" lon="5.98146">
        <ele>577.59997558594</ele>
        <time>2022-04-06T08:50:02.042Z</time>
      </trkpt>
      <trkpt lat="44.1137" lon="5.98144">
        <ele>578</ele>
        <time>2022-04-06T08:50:05.549Z</time>
      </trkpt>
      <trkpt lat="44.11363" lon="5.98142">
        <ele>579</ele>
        <time>2022-04-06T08:50:09.058Z</time>
      </trkpt>
      <trkpt lat="44.11356" lon="5.98139">
        <ele>579.59997558594</ele>
        <time>2022-04-06T08:50:12.570Z</time>
      </trkpt>
      <trkpt lat="44.11351" lon="5.98135">
        <ele>580.40002441406</ele>
        <time>2022-04-06T08:50:16.084Z</time>
      </trkpt>
      <trkpt lat="44.11347" lon="5.9813">
        <ele>581.59997558594</ele>
        <time>2022-04-06T08:50:19.599Z</time>
      </trkpt>
      <trkpt lat="44.11344" lon="5.98129">
        <ele>582</ele>
        <time>2022-04-06T08:50:23.115Z</time>
      </trkpt>
      <trkpt lat="44.11342" lon="5.9813">
        <ele>582.40002441406</ele>
        <time>2022-04-06T08:50:26.632Z</time>
      </trkpt>
      <trkpt lat="44.11336" lon="5.98131">
        <ele>582.59997558594</ele>
        <time>2022-04-06T08:50:30.151Z</time>
      </trkpt>
      <trkpt lat="44.11333" lon="5.98133">
        <ele>582.79998779297</ele>
        <time>2022-04-06T08:50:33.671Z</time>
      </trkpt>
      <trkpt lat="44.11325" lon="5.98135">
        <ele>583.59997558594</ele>
        <time>2022-04-06T08:50:37.194Z</time>
      </trkpt>
      <trkpt lat="44.11322" lon="5.98137">
        <ele>584</ele>
        <time>2022-04-06T08:50:40.717Z</time>
      </trkpt>
      <trkpt lat="44.1132" lon="5.98138">
        <ele>584.40002441406</ele>
        <time>2022-04-06T08:50:44.241Z</time>
      </trkpt>
      <trkpt lat="44.11313" lon="5.98138">
        <ele>585</ele>
        <time>2022-04-06T08:50:47.767Z</time>
      </trkpt>
      <trkpt lat="44.11305" lon="5.98139">
        <ele>585.79998779297</ele>
        <time>2022-04-06T08:50:51.296Z</time>
      </trkpt>
      <trkpt lat="44.11302" lon="5.98141">
        <ele>586.20001220703</ele>
        <time>2022-04-06T08:50:54.826Z</time>
      </trkpt>
      <trkpt lat="44.11292" lon="5.98153">
        <ele>587</ele>
        <time>2022-04-06T08:50:58.360Z</time>
      </trkpt>
      <trkpt lat="44.11283" lon="5.98169">
        <ele>587.20001220703</ele>
        <time>2022-04-06T08:51:01.899Z</time>
      </trkpt>
      <trkpt lat="44.11271" lon="5.9819">
        <ele>587.20001220703</ele>
        <time>2022-04-06T08:51:05.444Z</time>
      </trkpt>
      <trkpt lat="44.11268" lon="5.98195">
        <ele>587</ele>
        <time>2022-04-06T08:51:08.990Z</time>
      </trkpt>
      <trkpt lat="44.11267" lon="5.9821">
        <ele>586.40002441406</ele>
        <time>2022-04-06T08:51:12.540Z</time>
      </trkpt>
      <trkpt lat="44.11266" lon="5.98227">
        <ele>586.20001220703</ele>
        <time>2022-04-06T08:51:16.094Z</time>
      </trkpt>
      <trkpt lat="44.11263" lon="5.98245">
        <ele>587</ele>
        <time>2022-04-06T08:51:19.652Z</time>
      </trkpt>
      <trkpt lat="44.11263" lon="5.9827">
        <ele>587.20001220703</ele>
        <time>2022-04-06T08:51:23.216Z</time>
      </trkpt>
      <trkpt lat="44.11261" lon="5.98298">
        <ele>586.40002441406</ele>
        <time>2022-04-06T08:51:26.786Z</time>
      </trkpt>
      <trkpt lat="44.11264" lon="5.98312">
        <ele>585.79998779297</ele>
        <time>2022-04-06T08:51:30.359Z</time>
      </trkpt>
      <trkpt lat="44.11263" lon="5.98318">
        <ele>585.20001220703</ele>
        <time>2022-04-06T08:51:33.934Z</time>
      </trkpt>
      <trkpt lat="44.11262" lon="5.98325">
        <ele>584.59997558594</ele>
        <time>2022-04-06T08:51:37.510Z</time>
      </trkpt>
      <trkpt lat="44.11262" lon="5.98342">
        <ele>583.40002441406</ele>
        <time>2022-04-06T08:51:41.090Z</time>
      </trkpt>
      <trkpt lat="44.11263" lon="5.98351">
        <ele>582.79998779297</ele>
        <time>2022-04-06T08:51:44.672Z</time>
      </trkpt>
      <trkpt lat="44.11262" lon="5.98359">
        <ele>582</ele>
        <time>2022-04-06T08:51:48.256Z</time>
      </trkpt>
      <trkpt lat="44.11259" lon="5.98366">
        <ele>581</ele>
        <time>2022-04-06T08:51:51.842Z</time>
      </trkpt>
      <trkpt lat="44.11254" lon="5.9837">
        <ele>580.20001220703</ele>
        <time>2022-04-06T08:51:55.430Z</time>
      </trkpt>
      <trkpt lat="44.11243" lon="5.98375">
        <ele>579.40002441406</ele>
        <time>2022-04-06T08:51:59.022Z</time>
      </trkpt>
      <trkpt lat="44.11238" lon="5.98375">
        <ele>579.20001220703</ele>
        <time>2022-04-06T08:52:02.615Z</time>
      </trkpt>
      <trkpt lat="44.11222" lon="5.9837">
        <ele>579.79998779297</ele>
        <time>2022-04-06T08:52:06.213Z</time>
      </trkpt>
      <trkpt lat="44.11217" lon="5.98369">
        <ele>580.20001220703</ele>
        <time>2022-04-06T08:52:09.813Z</time>
      </trkpt>
      <trkpt lat="44.11206" lon="5.98368">
        <ele>581.40002441406</ele>
        <time>2022-04-06T08:52:13.416Z</time>
      </trkpt>
      <trkpt lat="44.11201" lon="5.98369">
        <ele>581.79998779297</ele>
        <time>2022-04-06T08:52:17.021Z</time>
      </trkpt>
      <trkpt lat="44.11196" lon="5.98369">
        <ele>582.79998779297</ele>
        <time>2022-04-06T08:52:20.628Z</time>
      </trkpt>
      <trkpt lat="44.11191" lon="5.9837">
        <ele>583.20001220703</ele>
        <time>2022-04-06T08:52:24.236Z</time>
      </trkpt>
      <trkpt lat="44.11183" lon="5.98371">
        <ele>583.79998779297</ele>
        <time>2022-04-06T08:52:27.847Z</time>
      </trkpt>
      <trkpt lat="44.1118" lon="5.9837">
        <ele>584</ele>
        <time>2022-04-06T08:52:31.459Z</time>
      </trkpt>
      <trkpt lat="44.11175" lon="5.98364">
        <ele>585.20001220703</ele>
        <time>2022-04-06T08:52:35.073Z</time>
      </trkpt>
      <trkpt lat="44.11168" lon="5.98361">
        <ele>586.40002441406</ele>
        <time>2022-04-06T08:52:38.689Z</time>
      </trkpt>
      <trkpt lat="44.11164" lon="5.9836">
        <ele>586.79998779297</ele>
        <time>2022-04-06T08:52:42.306Z</time>
      </trkpt>
      <trkpt lat="44.11158" lon="5.98358">
        <ele>587.79998779297</ele>
        <time>2022-04-06T08:52:45.926Z</time>
      </trkpt>
      <trkpt lat="44.11151" lon="5.98356">
        <ele>588.59997558594</ele>
        <time>2022-04-06T08:52:49.548Z</time>
      </trkpt>
      <trkpt lat="44.11148" lon="5.98356">
        <ele>588.79998779297</ele>
        <time>2022-04-06T08:52:53.171Z</time>
      </trkpt>
      <trkpt lat="44.1114" lon="5.98356">
        <ele>590</ele>
        <time>2022-04-06T08:52:56.796Z</time>
      </trkpt>
      <trkpt lat="44.1113" lon="5.98355">
        <ele>591.20001220703</ele>
        <time>2022-04-06T08:53:00.424Z</time>
      </trkpt>
      <trkpt lat="44.11127" lon="5.98354">
        <ele>591.79998779297</ele>
        <time>2022-04-06T08:53:04.053Z</time>
      </trkpt>
      <trkpt lat="44.11124" lon="5.98354">
        <ele>592.59997558594</ele>
        <time>2022-04-06T08:53:07.683Z</time>
      </trkpt>
      <trkpt lat="44.11118" lon="5.98354">
        <ele>593.59997558594</ele>
        <time>2022-04-06T08:53:11.315Z</time>
      </trkpt>
      <trkpt lat="44.11112" lon="5.98352">
        <ele>594.79998779297</ele>
        <time>2022-04-06T08:53:14.949Z</time>
      </trkpt>
      <trkpt lat="44.11103" lon="5.98348">
        <ele>596.20001220703</ele>
        <time>2022-04-06T08:53:18.586Z</time>
      </trkpt>
      <trkpt lat="44.11096" lon="5.98344">
        <ele>597.59997558594</ele>
        <time>2022-04-06T08:53:22.225Z</time>
      </trkpt>
      <trkpt lat="44.11085" lon="5.98341">
        <ele>598.59997558594</ele>
        <time>2022-04-06T08:53:25.868Z</time>
      </trkpt>
      <trkpt lat="44.11075" lon="5.98338">
        <ele>599.79998779297</ele>
        <time>2022-04-06T08:53:29.514Z</time>
      </trkpt>
      <trkpt lat="44.11068" lon="5.98331">
        <ele>600.59997558594</ele>
        <time>2022-04-06T08:53:33.163Z</time>
      </trkpt>
      <trkpt lat="44.11067" lon="5.98331">
        <ele>600.79998779297</ele>
        <time>2022-04-06T08:53:36.812Z</time>
      </trkpt>
      <trkpt lat="44.11065" lon="5.98329">
        <ele>601</ele>
        <time>2022-04-06T08:53:40.462Z</time>
      </trkpt>
      <trkpt lat="44.11064" lon="5.98327">
        <ele>601</ele>
        <time>2022-04-06T08:53:44.113Z</time>
      </trkpt>
      <trkpt lat="44.11058" lon="5.98312">
        <ele>601.79998779297</ele>
        <time>2022-04-06T08:53:47.767Z</time>
      </trkpt>
      <trkpt lat="44.11056" lon="5.98306">
        <ele>602.20001220703</ele>
        <time>2022-04-06T08:53:51.423Z</time>
      </trkpt>
      <trkpt lat="44.1105" lon="5.98283">
        <ele>603</ele>
        <time>2022-04-06T08:53:55.085Z</time>
      </trkpt>
      <trkpt lat="44.11049" lon="5.98271">
        <ele>603.20001220703</ele>
        <time>2022-04-06T08:53:58.749Z</time>
      </trkpt>
      <trkpt lat="44.11051" lon="5.98259">
        <ele>604</ele>
        <time>2022-04-06T08:54:02.416Z</time>
      </trkpt>
      <trkpt lat="44.11053" lon="5.98251">
        <ele>604.40002441406</ele>
        <time>2022-04-06T08:54:06.085Z</time>
      </trkpt>
      <trkpt lat="44.11055" lon="5.98236">
        <ele>605.20001220703</ele>
        <time>2022-04-06T08:54:09.758Z</time>
      </trkpt>
      <trkpt lat="44.11056" lon="5.98233">
        <ele>605.40002441406</ele>
        <time>2022-04-06T08:54:13.431Z</time>
      </trkpt>
      <trkpt lat="44.1106" lon="5.98214">
        <ele>606.59997558594</ele>
        <time>2022-04-06T08:54:17.109Z</time>
      </trkpt>
      <trkpt lat="44.11062" lon="5.98203">
        <ele>607.40002441406</ele>
        <time>2022-04-06T08:54:20.790Z</time>
      </trkpt>
      <trkpt lat="44.11064" lon="5.982">
        <ele>607.59997558594</ele>
        <time>2022-04-06T08:54:24.471Z</time>
      </trkpt>
      <trkpt lat="44.11067" lon="5.98182">
        <ele>608.40002441406</ele>
        <time>2022-04-06T08:54:28.157Z</time>
      </trkpt>
      <trkpt lat="44.11067" lon="5.98178">
        <ele>608.79998779297</ele>
        <time>2022-04-06T08:54:31.843Z</time>
      </trkpt>
      <trkpt lat="44.11067" lon="5.98166">
        <ele>610.20001220703</ele>
        <time>2022-04-06T08:54:35.532Z</time>
      </trkpt>
      <trkpt lat="44.11065" lon="5.98159">
        <ele>611</ele>
        <time>2022-04-06T08:54:39.223Z</time>
      </trkpt>
      <trkpt lat="44.11064" lon="5.98156">
        <ele>611.40002441406</ele>
        <time>2022-04-06T08:54:42.915Z</time>
      </trkpt>
      <trkpt lat="44.11058" lon="5.98149">
        <ele>612.59997558594</ele>
        <time>2022-04-06T08:54:46.609Z</time>
      </trkpt>
      <trkpt lat="44.11052" lon="5.9814">
        <ele>613.59997558594</ele>
        <time>2022-04-06T08:54:50.306Z</time>
      </trkpt>
      <trkpt lat="44.11044" lon="5.98134">
        <ele>615.20001220703</ele>
        <time>2022-04-06T08:54:54.006Z</time>
      </trkpt>
      <trkpt lat="44.11039" lon="5.98133">
        <ele>616.59997558594</ele>
        <time>2022-04-06T08:54:57.707Z</time>
      </trkpt>
      <trkpt lat="44.11031" lon="5.98129">
        <ele>618</ele>
        <time>2022-04-06T08:55:01.411Z</time>
      </trkpt>
      <trkpt lat="44.11021" lon="5.98125">
        <ele>619</ele>
        <time>2022-04-06T08:55:05.118Z</time>
      </trkpt>
      <trkpt lat="44.11016" lon="5.98122">
        <ele>619.59997558594</ele>
        <time>2022-04-06T08:55:08.827Z</time>
      </trkpt>
      <trkpt lat="44.11008" lon="5.9812">
        <ele>620.20001220703</ele>
        <time>2022-04-06T08:55:12.539Z</time>
      </trkpt>
      <trkpt lat="44.10998" lon="5.98115">
        <ele>621</ele>
        <time>2022-04-06T08:55:16.254Z</time>
      </trkpt>
      <trkpt lat="44.10996" lon="5.98113">
        <ele>621.40002441406</ele>
        <time>2022-04-06T08:55:19.970Z</time>
      </trkpt>
      <trkpt lat="44.10985" lon="5.98109">
        <ele>622.20001220703</ele>
        <time>2022-04-06T08:55:23.689Z</time>
      </trkpt>
      <trkpt lat="44.10983" lon="5.98109">
        <ele>622.40002441406</ele>
        <time>2022-04-06T08:55:27.409Z</time>
      </trkpt>
      <trkpt lat="44.10972" lon="5.98106">
        <ele>622.20001220703</ele>
        <time>2022-04-06T08:55:31.133Z</time>
      </trkpt>
      <trkpt lat="44.10961" lon="5.981">
        <ele>621.20001220703</ele>
        <time>2022-04-06T08:55:34.860Z</time>
      </trkpt>
      <trkpt lat="44.10956" lon="5.98096">
        <ele>620.40002441406</ele>
        <time>2022-04-06T08:55:38.589Z</time>
      </trkpt>
      <trkpt lat="44.10951" lon="5.98091">
        <ele>619.20001220703</ele>
        <time>2022-04-06T08:55:42.320Z</time>
      </trkpt>
      <trkpt lat="44.10946" lon="5.98088">
        <ele>617.79998779297</ele>
        <time>2022-04-06T08:55:46.053Z</time>
      </trkpt>
      <trkpt lat="44.10943" lon="5.98085">
        <ele>617</ele>
        <time>2022-04-06T08:55:49.787Z</time>
      </trkpt>
      <trkpt lat="44.10942" lon="5.98081">
        <ele>616.20001220703</ele>
        <time>2022-04-06T08:55:53.522Z</time>
      </trkpt>
      <trkpt lat="44.10939" lon="5.98072">
        <ele>615.59997558594</ele>
        <time>2022-04-06T08:55:57.259Z</time>
      </trkpt>
      <trkpt lat="44.10938" lon="5.98066">
        <ele>615.40002441406</ele>
        <time>2022-04-06T08:56:00.997Z</time>
      </trkpt>
      <trkpt lat="44.10935" lon="5.9806">
        <ele>614.79998779297</ele>
        <time>2022-04-06T08:56:04.737Z</time>
      </trkpt>
      <trkpt lat="44.10926" lon="5.9805">
        <ele>614.20001220703</ele>
        <time>2022-04-06T08:56:08.481Z</time>
      </trkpt>
      <trkpt lat="44.10923" lon="5.98046">
        <ele>613.79998779297</ele>
        <time>2022-04-06T08:56:12.226Z</time>
      </trkpt>
      <trkpt lat="44.1091" lon="5.98036">
        <ele>613.59997558594</ele>
        <time>2022-04-06T08:56:15.976Z</time>
      </trkpt>
      <trkpt lat="44.10902" lon="5.98029">
        <ele>615.20001220703</ele>
        <time>2022-04-06T08:56:19.729Z</time>
      </trkpt>
      <trkpt lat="44.10898" lon="5.98022">
        <ele>616.79998779297</ele>
        <time>2022-04-06T08:56:23.484Z</time>
      </trkpt>
      <trkpt lat="44.10896" lon="5.98015">
        <ele>617.79998779297</ele>
        <time>2022-04-06T08:56:27.241Z</time>
      </trkpt>
      <trkpt lat="44.10891" lon="5.98003">
        <ele>618.79998779297</ele>
        <time>2022-04-06T08:56:31.000Z</time>
      </trkpt>
      <trkpt lat="44.10891" lon="5.98">
        <ele>619</ele>
        <time>2022-04-06T08:56:34.760Z</time>
      </trkpt>
      <trkpt lat="44.10889" lon="5.97998">
        <ele>619</ele>
        <time>2022-04-06T08:56:38.521Z</time>
      </trkpt>
      <trkpt lat="44.10888" lon="5.97996">
        <ele>619.40002441406</ele>
        <time>2022-04-06T08:56:42.283Z</time>
      </trkpt>
      <trkpt lat="44.10882" lon="5.97996">
        <ele>620.40002441406</ele>
        <time>2022-04-06T08:56:46.046Z</time>
      </trkpt>
      <trkpt lat="44.1088" lon="5.97997">
        <ele>620.79998779297</ele>
        <time>2022-04-06T08:56:49.810Z</time>
      </trkpt>
      <trkpt lat="44.10877" lon="5.97997">
        <ele>621.40002441406</ele>
        <time>2022-04-06T08:56:53.575Z</time>
      </trkpt>
      <trkpt lat="44.10869" lon="5.97995">
        <ele>621.79998779297</ele>
        <time>2022-04-06T08:56:57.343Z</time>
      </trkpt>
      <trkpt lat="44.10864" lon="5.97994">
        <ele>622</ele>
        <time>2022-04-06T08:57:01.112Z</time>
      </trkpt>
      <trkpt lat="44.10852" lon="5.97988">
        <ele>622.20001220703</ele>
        <time>2022-04-06T08:57:04.885Z</time>
      </trkpt>
      <trkpt lat="44.10848" lon="5.97988">
        <ele>622.20001220703</ele>
        <time>2022-04-06T08:57:08.660Z</time>
      </trkpt>
      <trkpt lat="44.1084" lon="5.97991">
        <ele>622.79998779297</ele>
        <time>2022-04-06T08:57:12.437Z</time>
      </trkpt>
      <trkpt lat="44.10834" lon="5.97997">
        <ele>623.20001220703</ele>
        <time>2022-04-06T08:57:16.216Z</time>
      </trkpt>
      <trkpt lat="44.1082" lon="5.98002">
        <ele>622.79998779297</ele>
        <time>2022-04-06T08:57:20.000Z</time>
      </trkpt>
      <trkpt lat="44.10803" lon="5.98">
        <ele>622.79998779297</ele>
        <time>2022-04-06T08:57:23.789Z</time>
      </trkpt>
      <trkpt lat="44.10793" lon="5.98001">
        <ele>622.79998779297</ele>
        <time>2022-04-06T08:57:27.581Z</time>
      </trkpt>
      <trkpt lat="44.10788" lon="5.98002">
        <ele>622.79998779297</ele>
        <time>2022-04-06T08:57:31.375Z</time>
      </trkpt>
      <trkpt lat="44.10783" lon="5.98003">
        <ele>623</ele>
        <time>2022-04-06T08:57:35.171Z</time>
      </trkpt>
      <trkpt lat="44.10775" lon="5.98001">
        <ele>622.59997558594</ele>
        <time>2022-04-06T08:57:38.969Z</time>
      </trkpt>
      <trkpt lat="44.10768" lon="5.98003">
        <ele>621.79998779297</ele>
        <time>2022-04-06T08:57:42.770Z</time>
      </trkpt>
      <trkpt lat="44.10766" lon="5.98008">
        <ele>621.20001220703</ele>
        <time>2022-04-06T08:57:46.572Z</time>
      </trkpt>
      <trkpt lat="44.10766" lon="5.98013">
        <ele>620.59997558594</ele>
        <time>2022-04-06T08:57:50.375Z</time>
      </trkpt>
      <trkpt lat="44.10766" lon="5.98022">
        <ele>619.59997558594</ele>
        <time>2022-04-06T08:57:54.180Z</time>
      </trkpt>
      <trkpt lat="44.10766" lon="5.98026">
        <ele>619.40002441406</ele>
        <time>2022-04-06T08:57:57.986Z</time>
      </trkpt>
      <trkpt lat="44.10765" lon="5.9803">
        <ele>619</ele>
        <time>2022-04-06T08:58:01.793Z</time>
      </trkpt>
      <trkpt lat="44.10765" lon="5.98032">
        <ele>618.59997558594</ele>
        <time>2022-04-06T08:58:05.600Z</time>
      </trkpt>
      <trkpt lat="44.10768" lon="5.9804">
        <ele>618.59997558594</ele>
        <time>2022-04-06T08:58:09.409Z</time>
      </trkpt>
      <trkpt lat="44.1077" lon="5.98044">
        <ele>618.40002441406</ele>
        <time>2022-04-06T08:58:13.219Z</time>
      </trkpt>
      <trkpt lat="44.10771" lon="5.98048">
        <ele>618.20001220703</ele>
        <time>2022-04-06T08:58:17.030Z</time>
      </trkpt>
      <trkpt lat="44.10776" lon="5.98064">
        <ele>617.20001220703</ele>
        <time>2022-04-06T08:58:20.845Z</time>
      </trkpt>
      <trkpt lat="44.10777" lon="5.98073">
        <ele>615.59997558594</ele>
        <time>2022-04-06T08:58:24.662Z</time>
      </trkpt>
      <trkpt lat="44.10782" lon="5.98083">
        <ele>614.59997558594</ele>
        <time>2022-04-06T08:58:28.482Z</time>
      </trkpt>
      <trkpt lat="44.10786" lon="5.98093">
        <ele>612.79998779297</ele>
        <time>2022-04-06T08:58:32.305Z</time>
      </trkpt>
      <trkpt lat="44.10788" lon="5.98105">
        <ele>611</ele>
        <time>2022-04-06T08:58:36.130Z</time>
      </trkpt>
      <trkpt lat="44.10789" lon="5.9811">
        <ele>610</ele>
        <time>2022-04-06T08:58:39.957Z</time>
      </trkpt>
      <trkpt lat="44.10793" lon="5.98116">
        <ele>608.40002441406</ele>
        <time>2022-04-06T08:58:43.786Z</time>
      </trkpt>
      <trkpt lat="44.10794" lon="5.98125">
        <ele>607</ele>
        <time>2022-04-06T08:58:47.616Z</time>
      </trkpt>
      <trkpt lat="44.10793" lon="5.9813">
        <ele>606.40002441406</ele>
        <time>2022-04-06T08:58:51.448Z</time>
      </trkpt>
      <trkpt lat="44.10792" lon="5.98137">
        <ele>605.40002441406</ele>
        <time>2022-04-06T08:58:55.281Z</time>
      </trkpt>
      <trkpt lat="44.10791" lon="5.98144">
        <ele>604.40002441406</ele>
        <time>2022-04-06T08:58:59.116Z</time>
      </trkpt>
      <trkpt lat="44.1079" lon="5.98149">
        <ele>603</ele>
        <time>2022-04-06T08:59:02.952Z</time>
      </trkpt>
      <trkpt lat="44.10787" lon="5.98154">
        <ele>602.20001220703</ele>
        <time>2022-04-06T08:59:06.790Z</time>
      </trkpt>
      <trkpt lat="44.10784" lon="5.98159">
        <ele>601.59997558594</ele>
        <time>2022-04-06T08:59:10.629Z</time>
      </trkpt>
      <trkpt lat="44.1078" lon="5.98173">
        <ele>600.20001220703</ele>
        <time>2022-04-06T08:59:14.472Z</time>
      </trkpt>
      <trkpt lat="44.10779" lon="5.98181">
        <ele>599.59997558594</ele>
        <time>2022-04-06T08:59:18.316Z</time>
      </trkpt>
      <trkpt lat="44.10779" lon="5.98188">
        <ele>599</ele>
        <time>2022-04-06T08:59:22.162Z</time>
      </trkpt>
      <trkpt lat="44.10777" lon="5.982">
        <ele>598.20001220703</ele>
        <time>2022-04-06T08:59:26.011Z</time>
      </trkpt>
      <trkpt lat="44.10777" lon="5.98208">
        <ele>597.79998779297</ele>
        <time>2022-04-06T08:59:29.862Z</time>
      </trkpt>
      <trkpt lat="44.10775" lon="5.98217">
        <ele>597.59997558594</ele>
        <time>2022-04-06T08:59:33.715Z</time>
      </trkpt>
      <trkpt lat="44.10774" lon="5.98221">
        <ele>597</ele>
        <time>2022-04-06T08:59:37.569Z</time>
      </trkpt>
      <trkpt lat="44.10774" lon="5.98226">
        <ele>596.40002441406</ele>
        <time>2022-04-06T08:59:41.424Z</time>
      </trkpt>
      <trkpt lat="44.10771" lon="5.98235">
        <ele>595</ele>
        <time>2022-04-06T08:59:45.281Z</time>
      </trkpt>
      <trkpt lat="44.10769" lon="5.98237">
        <ele>594.59997558594</ele>
        <time>2022-04-06T08:59:49.139Z</time>
      </trkpt>
      <trkpt lat="44.10765" lon="5.98241">
        <ele>594.20001220703</ele>
        <time>2022-04-06T08:59:52.999Z</time>
      </trkpt>
      <trkpt lat="44.10755" lon="5.9826">
        <ele>594</ele>
        <time>2022-04-06T08:59:56.864Z</time>
      </trkpt>
      <trkpt lat="44.10754" lon="5.98267">
        <ele>593.40002441406</ele>
        <time>2022-04-06T09:00:00.730Z</time>
      </trkpt>
      <trkpt lat="44.10752" lon="5.98286">
        <ele>592.40002441406</ele>
        <time>2022-04-06T09:00:04.601Z</time>
      </trkpt>
      <trkpt lat="44.10754" lon="5.98302">
        <ele>590.20001220703</ele>
        <time>2022-04-06T09:00:08.476Z</time>
      </trkpt>
      <trkpt lat="44.10752" lon="5.98315">
        <ele>588.79998779297</ele>
        <time>2022-04-06T09:00:12.353Z</time>
      </trkpt>
      <trkpt lat="44.10742" lon="5.98329">
        <ele>588.20001220703</ele>
        <time>2022-04-06T09:00:16.235Z</time>
      </trkpt>
      <trkpt lat="44.10736" lon="5.98342">
        <ele>587.40002441406</ele>
        <time>2022-04-06T09:00:20.120Z</time>
      </trkpt>
      <trkpt lat="44.10732" lon="5.98348">
        <ele>586.59997558594</ele>
        <time>2022-04-06T09:00:24.007Z</time>
      </trkpt>
      <trkpt lat="44.10729" lon="5.98355">
        <ele>585.59997558594</ele>
        <time>2022-04-06T09:00:27.896Z</time>
      </trkpt>
      <trkpt lat="44.10726" lon="5.98362">
        <ele>584.79998779297</ele>
        <time>2022-04-06T09:00:31.787Z</time>
      </trkpt>
      <trkpt lat="44.10724" lon="5.98369">
        <ele>584</ele>
        <time>2022-04-06T09:00:35.680Z</time>
      </trkpt>
      <trkpt lat="44.10725" lon="5.98376">
        <ele>582.79998779297</ele>
        <time>2022-04-06T09:00:39.574Z</time>
      </trkpt>
      <trkpt lat="44.10728" lon="5.98383">
        <ele>581.59997558594</ele>
        <time>2022-04-06T09:00:43.470Z</time>
      </trkpt>
      <trkpt lat="44.10732" lon="5.98389">
        <ele>580.40002441406</ele>
        <time>2022-04-06T09:00:47.368Z</time>
      </trkpt>
      <trkpt lat="44.10738" lon="5.98395">
        <ele>579.40002441406</ele>
        <time>2022-04-06T09:00:51.269Z</time>
      </trkpt>
      <trkpt lat="44.10744" lon="5.984">
        <ele>579</ele>
        <time>2022-04-06T09:00:55.172Z</time>
      </trkpt>
      <trkpt lat="44.10753" lon="5.98413">
        <ele>577.79998779297</ele>
        <time>2022-04-06T09:00:59.079Z</time>
      </trkpt>
      <trkpt lat="44.10757" lon="5.98419">
        <ele>576.79998779297</ele>
        <time>2022-04-06T09:01:02.988Z</time>
      </trkpt>
      <trkpt lat="44.10762" lon="5.98426">
        <ele>575.79998779297</ele>
        <time>2022-04-06T09:01:06.899Z</time>
      </trkpt>
      <trkpt lat="44.10766" lon="5.98433">
        <ele>574.79998779297</ele>
        <time>2022-04-06T09:01:10.812Z</time>
      </trkpt>
      <trkpt lat="44.1077" lon="5.98441">
        <ele>574.20001220703</ele>
        <time>2022-04-06T09:01:14.727Z</time>
      </trkpt>
      <trkpt lat="44.10771" lon="5.98448">
        <ele>573.40002441406</ele>
        <time>2022-04-06T09:01:18.644Z</time>
      </trkpt>
      <trkpt lat="44.1077" lon="5.98454">
        <ele>572.79998779297</ele>
        <time>2022-04-06T09:01:22.562Z</time>
      </trkpt>
      <trkpt lat="44.1077" lon="5.98461">
        <ele>572.40002441406</ele>
        <time>2022-04-06T09:01:26.482Z</time>
      </trkpt>
      <trkpt lat="44.10768" lon="5.98468">
        <ele>572</ele>
        <time>2022-04-06T09:01:30.403Z</time>
      </trkpt>
      <trkpt lat="44.10767" lon="5.98474">
        <ele>571.59997558594</ele>
        <time>2022-04-06T09:01:34.326Z</time>
      </trkpt>
      <trkpt lat="44.10765" lon="5.98481">
        <ele>571.20001220703</ele>
        <time>2022-04-06T09:01:38.251Z</time>
      </trkpt>
      <trkpt lat="44.10766" lon="5.985">
        <ele>570.40002441406</ele>
        <time>2022-04-06T09:01:42.180Z</time>
      </trkpt>
      <trkpt lat="44.10766" lon="5.98506">
        <ele>570.20001220703</ele>
        <time>2022-04-06T09:01:46.110Z</time>
      </trkpt>
      <trkpt lat="44.10763" lon="5.98521">
        <ele>570.20001220703</ele>
        <time>2022-04-06T09:01:50.044Z</time>
      </trkpt>
      <trkpt lat="44.1075" lon="5.98527">
        <ele>570</ele>
        <time>2022-04-06T09:01:53.982Z</time>
      </trkpt>
      <trkpt lat="44.10747" lon="5.9853">
        <ele>569.79998779297</ele>
        <time>2022-04-06T09:01:57.921Z</time>
      </trkpt>
      <trkpt lat="44.10744" lon="5.98536">
        <ele>569.40002441406</ele>
        <time>2022-04-06T09:02:01.862Z</time>
      </trkpt>
      <trkpt lat="44.1074" lon="5.98542">
        <ele>568.79998779297</ele>
        <time>2022-04-06T09:02:05.805Z</time>
      </trkpt>
      <trkpt lat="44.10736" lon="5.98553">
        <ele>567.79998779297</ele>
        <time>2022-04-06T09:02:09.751Z</time>
      </trkpt>
      <trkpt lat="44.10735" lon="5.98559">
        <ele>567.59997558594</ele>
        <time>2022-04-06T09:02:13.698Z</time>
      </trkpt>
      <trkpt lat="44.10735" lon="5.98565">
        <ele>567.20001220703</ele>
        <time>2022-04-06T09:02:17.646Z</time>
      </trkpt>
      <trkpt lat="44.10733" lon="5.98576">
        <ele>566.20001220703</ele>
        <time>2022-04-06T09:02:21.597Z</time>
      </trkpt>
      <trkpt lat="44.10733" lon="5.98582">
        <ele>565.79998779297</ele>
        <time>2022-04-06T09:02:25.549Z</time>
      </trkpt>
      <trkpt lat="44.10733" lon="5.98589">
        <ele>565.20001220703</ele>
        <time>2022-04-06T09:02:29.503Z</time>
      </trkpt>
      <trkpt lat="44.10729" lon="5.98602">
        <ele>563.59997558594</ele>
        <time>2022-04-06T09:02:33.460Z</time>
      </trkpt>
      <trkpt lat="44.10727" lon="5.98617">
        <ele>562.59997558594</ele>
        <time>2022-04-06T09:02:37.420Z</time>
      </trkpt>
      <trkpt lat="44.10725" lon="5.9863">
        <ele>561.59997558594</ele>
        <time>2022-04-06T09:02:41.384Z</time>
      </trkpt>
      <trkpt lat="44.10723" lon="5.98637">
        <ele>561.20001220703</ele>
        <time>2022-04-06T09:02:45.349Z</time>
      </trkpt>
      <trkpt lat="44.10722" lon="5.98645">
        <ele>560.79998779297</ele>
        <time>2022-04-06T09:02:49.316Z</time>
      </trkpt>
      <trkpt lat="44.10719" lon="5.98654">
        <ele>560</ele>
        <time>2022-04-06T09:02:53.285Z</time>
      </trkpt>
      <trkpt lat="44.10717" lon="5.98662">
        <ele>559.20001220703</ele>
        <time>2022-04-06T09:02:57.256Z</time>
      </trkpt>
      <trkpt lat="44.10714" lon="5.98669">
        <ele>558.79998779297</ele>
        <time>2022-04-06T09:03:01.229Z</time>
      </trkpt>
      <trkpt lat="44.10712" lon="5.98676">
        <ele>558.40002441406</ele>
        <time>2022-04-06T09:03:05.204Z</time>
      </trkpt>
      <trkpt lat="44.1071" lon="5.98685">
        <ele>557.40002441406</ele>
        <time>2022-04-06T09:03:09.181Z</time>
      </trkpt>
      <trkpt lat="44.10708" lon="5.98693">
        <ele>556.59997558594</ele>
        <time>2022-04-06T09:03:13.160Z</time>
      </trkpt>
      <trkpt lat="44.10705" lon="5.98701">
        <ele>555.59997558594</ele>
        <time>2022-04-06T09:03:17.141Z</time>
      </trkpt>
      <trkpt lat="44.10701" lon="5.98709">
        <ele>554.59997558594</ele>
        <time>2022-04-06T09:03:21.124Z</time>
      </trkpt>
      <trkpt lat="44.10698" lon="5.98718">
        <ele>553.79998779297</ele>
        <time>2022-04-06T09:03:25.110Z</time>
      </trkpt>
      <trkpt lat="44.10695" lon="5.98727">
        <ele>552.59997558594</ele>
        <time>2022-04-06T09:03:29.098Z</time>
      </trkpt>
      <trkpt lat="44.10692" lon="5.98734">
        <ele>552</ele>
        <time>2022-04-06T09:03:33.088Z</time>
      </trkpt>
      <trkpt lat="44.10688" lon="5.98741">
        <ele>551.20001220703</ele>
        <time>2022-04-06T09:03:37.080Z</time>
      </trkpt>
      <trkpt lat="44.10684" lon="5.98747">
        <ele>550.59997558594</ele>
        <time>2022-04-06T09:03:41.073Z</time>
      </trkpt>
      <trkpt lat="44.10682" lon="5.98756">
        <ele>550</ele>
        <time>2022-04-06T09:03:45.069Z</time>
      </trkpt>
      <trkpt lat="44.1068" lon="5.98771">
        <ele>548.40002441406</ele>
        <time>2022-04-06T09:03:49.068Z</time>
      </trkpt>
      <trkpt lat="44.1068" lon="5.98779">
        <ele>547.79998779297</ele>
        <time>2022-04-06T09:03:53.069Z</time>
      </trkpt>
      <trkpt lat="44.1068" lon="5.98787">
        <ele>546.59997558594</ele>
        <time>2022-04-06T09:03:57.072Z</time>
      </trkpt>
      <trkpt lat="44.10681" lon="5.98799">
        <ele>545.40002441406</ele>
        <time>2022-04-06T09:04:01.078Z</time>
      </trkpt>
      <trkpt lat="44.10679" lon="5.98804">
        <ele>544.79998779297</ele>
        <time>2022-04-06T09:04:05.085Z</time>
      </trkpt>
      <trkpt lat="44.10673" lon="5.98809">
        <ele>544</ele>
        <time>2022-04-06T09:04:09.094Z</time>
      </trkpt>
      <trkpt lat="44.10669" lon="5.9881">
        <ele>543.20001220703</ele>
        <time>2022-04-06T09:04:13.104Z</time>
      </trkpt>
      <trkpt lat="44.10665" lon="5.98809">
        <ele>542.79998779297</ele>
        <time>2022-04-06T09:04:17.116Z</time>
      </trkpt>
      <trkpt lat="44.10662" lon="5.98808">
        <ele>541.59997558594</ele>
        <time>2022-04-06T09:04:21.129Z</time>
      </trkpt>
      <trkpt lat="44.10657" lon="5.98803">
        <ele>540.40002441406</ele>
        <time>2022-04-06T09:04:25.144Z</time>
      </trkpt>
      <trkpt lat="44.10652" lon="5.98798">
        <ele>539.20001220703</ele>
        <time>2022-04-06T09:04:29.161Z</time>
      </trkpt>
      <trkpt lat="44.10647" lon="5.988">
        <ele>538.20001220703</ele>
        <time>2022-04-06T09:04:33.179Z</time>
      </trkpt>
      <trkpt lat="44.10644" lon="5.98818">
        <ele>538</ele>
        <time>2022-04-06T09:04:37.201Z</time>
      </trkpt>
      <trkpt lat="44.10647" lon="5.98839">
        <ele>539</ele>
        <time>2022-04-06T09:04:41.228Z</time>
      </trkpt>
      <trkpt lat="44.1065" lon="5.98849">
        <ele>539.40002441406</ele>
        <time>2022-04-06T09:04:45.258Z</time>
      </trkpt>
      <trkpt lat="44.10655" lon="5.9886">
        <ele>539.79998779297</ele>
        <time>2022-04-06T09:04:49.291Z</time>
      </trkpt>
      <trkpt lat="44.10663" lon="5.98868">
        <ele>540.40002441406</ele>
        <time>2022-04-06T09:04:53.327Z</time>
      </trkpt>
      <trkpt lat="44.10667" lon="5.98873">
        <ele>540.79998779297</ele>
        <time>2022-04-06T09:04:57.365Z</time>
      </trkpt>
      <trkpt lat="44.10677" lon="5.98885">
        <ele>541.40002441406</ele>
        <time>2022-04-06T09:05:01.407Z</time>
      </trkpt>
      <trkpt lat="44.10683" lon="5.98891">
        <ele>541.40002441406</ele>
        <time>2022-04-06T09:05:05.451Z</time>
      </trkpt>
      <trkpt lat="44.10696" lon="5.98905">
        <ele>541.20001220703</ele>
        <time>2022-04-06T09:05:09.500Z</time>
      </trkpt>
      <trkpt lat="44.10709" lon="5.98919">
        <ele>541.20001220703</ele>
        <time>2022-04-06T09:05:13.554Z</time>
      </trkpt>
      <trkpt lat="44.10719" lon="5.9894">
        <ele>541.40002441406</ele>
        <time>2022-04-06T09:05:17.614Z</time>
      </trkpt>
      <trkpt lat="44.10725" lon="5.98952">
        <ele>542.20001220703</ele>
        <time>2022-04-06T09:05:21.678Z</time>
      </trkpt>
      <trkpt lat="44.10728" lon="5.98958">
        <ele>542.20001220703</ele>
        <time>2022-04-06T09:05:25.743Z</time>
      </trkpt>
      <trkpt lat="44.10744" lon="5.98984">
        <ele>541.40002441406</ele>
        <time>2022-04-06T09:05:29.816Z</time>
      </trkpt>
      <trkpt lat="44.10747" lon="5.98988">
        <ele>541.20001220703</ele>
        <time>2022-04-06T09:05:33.890Z</time>
      </trkpt>
      <trkpt lat="44.1075" lon="5.98992">
        <ele>541</ele>
        <time>2022-04-06T09:05:37.966Z</time>
      </trkpt>
      <trkpt lat="44.10753" lon="5.98996">
        <ele>540.79998779297</ele>
        <time>2022-04-06T09:05:42.043Z</time>
      </trkpt>
      <trkpt lat="44.10756" lon="5.99">
        <ele>540.40002441406</ele>
        <time>2022-04-06T09:05:46.121Z</time>
      </trkpt>
      <trkpt lat="44.10758" lon="5.9901">
        <ele>539.59997558594</ele>
        <time>2022-04-06T09:05:50.202Z</time>
      </trkpt>
      <trkpt lat="44.10759" lon="5.99012">
        <ele>539.20001220703</ele>
        <time>2022-04-06T09:05:54.283Z</time>
      </trkpt>
      <trkpt lat="44.1076" lon="5.99013">
        <ele>539</ele>
        <time>2022-04-06T09:05:58.364Z</time>
      </trkpt>
      <trkpt lat="44.10761" lon="5.9902">
        <ele>538.59997558594</ele>
        <time>2022-04-06T09:06:02.447Z</time>
      </trkpt>
      <trkpt lat="44.1076" lon="5.99022">
        <ele>538.59997558594</ele>
        <time>2022-04-06T09:06:06.531Z</time>
      </trkpt>
      <trkpt lat="44.10755" lon="5.99042">
        <ele>538.20001220703</ele>
        <time>2022-04-06T09:06:10.620Z</time>
      </trkpt>
      <trkpt lat="44.10741" lon="5.99055">
        <ele>538.40002441406</ele>
        <time>2022-04-06T09:06:14.714Z</time>
      </trkpt>
      <trkpt lat="44.10726" lon="5.99067">
        <ele>538.40002441406</ele>
        <time>2022-04-06T09:06:18.813Z</time>
      </trkpt>
      <trkpt lat="44.10715" lon="5.99081">
        <ele>538</ele>
        <time>2022-04-06T09:06:22.917Z</time>
      </trkpt>
      <trkpt lat="44.10712" lon="5.99087">
        <ele>537.79998779297</ele>
        <time>2022-04-06T09:06:27.023Z</time>
      </trkpt>
      <trkpt lat="44.10706" lon="5.99098">
        <ele>537.59997558594</ele>
        <time>2022-04-06T09:06:31.132Z</time>
      </trkpt>
      <trkpt lat="44.10699" lon="5.99105">
        <ele>537.40002441406</ele>
        <time>2022-04-06T09:06:35.243Z</time>
      </trkpt>
      <trkpt lat="44.1069" lon="5.9911">
        <ele>537.79998779297</ele>
        <time>2022-04-06T09:06:39.358Z</time>
      </trkpt>
      <trkpt lat="44.10674" lon="5.99117">
        <ele>538.79998779297</ele>
        <time>2022-04-06T09:06:43.478Z</time>
      </trkpt>
      <trkpt lat="44.10671" lon="5.99121">
        <ele>539</ele>
        <time>2022-04-06T09:06:47.599Z</time>
      </trkpt>
      <trkpt lat="44.10658" lon="5.99134">
        <ele>539.20001220703</ele>
        <time>2022-04-06T09:06:51.725Z</time>
      </trkpt>
      <trkpt lat="44.10646" lon="5.99142">
        <ele>539.79998779297</ele>
        <time>2022-04-06T09:06:55.855Z</time>
      </trkpt>
      <trkpt lat="44.10642" lon="5.99145">
        <ele>540.20001220703</ele>
        <time>2022-04-06T09:06:59.987Z</time>
      </trkpt>
      <trkpt lat="44.10638" lon="5.99148">
        <ele>540.20001220703</ele>
        <time>2022-04-06T09:07:04.120Z</time>
      </trkpt>
      <trkpt lat="44.1063" lon="5.99152">
        <ele>540.40002441406</ele>
        <time>2022-04-06T09:07:08.256Z</time>
      </trkpt>
      <trkpt lat="44.10622" lon="5.99158">
        <ele>540.40002441406</ele>
        <time>2022-04-06T09:07:12.395Z</time>
      </trkpt>
      <trkpt lat="44.10613" lon="5.99164">
        <ele>540.20001220703</ele>
        <time>2022-04-06T09:07:16.537Z</time>
      </trkpt>
      <trkpt lat="44.10606" lon="5.99167">
        <ele>540.40002441406</ele>
        <time>2022-04-06T09:07:20.681Z</time>
      </trkpt>
      <trkpt lat="44.10605" lon="5.99163">
        <ele>540.79998779297</ele>
        <time>2022-04-06T09:07:24.826Z</time>
      </trkpt>
      <trkpt lat="44.10606" lon="5.99161">
        <ele>541.20001220703</ele>
        <time>2022-04-06T09:07:28.972Z</time>
      </trkpt>
      <trkpt lat="44.10608" lon="5.99159">
        <ele>541.59997558594</ele>
        <time>2022-04-06T09:07:33.119Z</time>
      </trkpt>
      <trkpt lat="44.10611" lon="5.99153">
        <ele>542.59997558594</ele>
        <time>2022-04-06T09:07:37.267Z</time>
      </trkpt>
      <trkpt lat="44.10616" lon="5.99144">
        <ele>544.20001220703</ele>
        <time>2022-04-06T09:07:41.418Z</time>
      </trkpt>
      <trkpt lat="44.1062" lon="5.99138">
        <ele>544.79998779297</ele>
        <time>2022-04-06T09:07:45.571Z</time>
      </trkpt>
      <trkpt lat="44.10622" lon="5.99136">
        <ele>545.40002441406</ele>
        <time>2022-04-06T09:07:49.725Z</time>
      </trkpt>
      <trkpt lat="44.10627" lon="5.99126">
        <ele>546.40002441406</ele>
        <time>2022-04-06T09:07:53.881Z</time>
      </trkpt>
      <trkpt lat="44.1063" lon="5.99119">
        <ele>547</ele>
        <time>2022-04-06T09:07:58.039Z</time>
      </trkpt>
      <trkpt lat="44.10635" lon="5.99109">
        <ele>547.59997558594</ele>
        <time>2022-04-06T09:08:02.200Z</time>
      </trkpt>
      <trkpt lat="44.10639" lon="5.99102">
        <ele>548</ele>
        <time>2022-04-06T09:08:06.363Z</time>
      </trkpt>
      <trkpt lat="44.10642" lon="5.99094">
        <ele>548.59997558594</ele>
        <time>2022-04-06T09:08:10.528Z</time>
      </trkpt>
      <trkpt lat="44.10647" lon="5.99083">
        <ele>549.40002441406</ele>
        <time>2022-04-06T09:08:14.696Z</time>
      </trkpt>
      <trkpt lat="44.10649" lon="5.99075">
        <ele>549.79998779297</ele>
        <time>2022-04-06T09:08:18.866Z</time>
      </trkpt>
      <trkpt lat="44.1065" lon="5.9906">
        <ele>550</ele>
        <time>2022-04-06T09:08:23.039Z</time>
      </trkpt>
      <trkpt lat="44.10649" lon="5.99055">
        <ele>550</ele>
        <time>2022-04-06T09:08:27.213Z</time>
      </trkpt>
      <trkpt lat="44.10645" lon="5.99044">
        <ele>550.59997558594</ele>
        <time>2022-04-06T09:08:31.390Z</time>
      </trkpt>
      <trkpt lat="44.10641" lon="5.9904">
        <ele>551.59997558594</ele>
        <time>2022-04-06T09:08:35.569Z</time>
      </trkpt>
      <trkpt lat="44.1064" lon="5.99042">
        <ele>551.79998779297</ele>
        <time>2022-04-06T09:08:39.748Z</time>
      </trkpt>
      <trkpt lat="44.10638" lon="5.99055">
        <ele>553.20001220703</ele>
        <time>2022-04-06T09:08:43.931Z</time>
      </trkpt>
      <trkpt lat="44.10636" lon="5.99059">
        <ele>553.40002441406</ele>
        <time>2022-04-06T09:08:48.115Z</time>
      </trkpt>
      <trkpt lat="44.10631" lon="5.99065">
        <ele>554</ele>
        <time>2022-04-06T09:08:52.301Z</time>
      </trkpt>
      <trkpt lat="44.10628" lon="5.99068">
        <ele>554.40002441406</ele>
        <time>2022-04-06T09:08:56.488Z</time>
      </trkpt>
      <trkpt lat="44.10626" lon="5.99072">
        <ele>554.59997558594</ele>
        <time>2022-04-06T09:09:00.676Z</time>
      </trkpt>
      <trkpt lat="44.10616" lon="5.99089">
        <ele>555.20001220703</ele>
        <time>2022-04-06T09:09:04.869Z</time>
      </trkpt>
      <trkpt lat="44.10613" lon="5.99092">
        <ele>555.40002441406</ele>
        <time>2022-04-06T09:09:09.063Z</time>
      </trkpt>
      <trkpt lat="44.1061" lon="5.99095">
        <ele>555.40002441406</ele>
        <time>2022-04-06T09:09:13.258Z</time>
      </trkpt>
      <trkpt lat="44.10598" lon="5.99103">
        <ele>556</ele>
        <time>2022-04-06T09:09:17.457Z</time>
      </trkpt>
      <trkpt lat="44.10589" lon="5.99104">
        <ele>556.79998779297</ele>
        <time>2022-04-06T09:09:21.659Z</time>
      </trkpt>
      <trkpt lat="44.10583" lon="5.99105">
        <ele>557.40002441406</ele>
        <time>2022-04-06T09:09:25.863Z</time>
      </trkpt>
      <trkpt lat="44.1058" lon="5.99106">
        <ele>557.79998779297</ele>
        <time>2022-04-06T09:09:30.068Z</time>
      </trkpt>
      <trkpt lat="44.10565" lon="5.99108">
        <ele>559</ele>
        <time>2022-04-06T09:09:34.278Z</time>
      </trkpt>
      <trkpt lat="44.10561" lon="5.99108">
        <ele>559.20001220703</ele>
        <time>2022-04-06T09:09:38.489Z</time>
      </trkpt>
      <trkpt lat="44.10548" lon="5.9911">
        <ele>559.20001220703</ele>
        <time>2022-04-06T09:09:42.704Z</time>
      </trkpt>
      <trkpt lat="44.1054" lon="5.9911">
        <ele>559</ele>
        <time>2022-04-06T09:09:46.922Z</time>
      </trkpt>
      <trkpt lat="44.10525" lon="5.99108">
        <ele>559</ele>
        <time>2022-04-06T09:09:51.145Z</time>
      </trkpt>
      <trkpt lat="44.10515" lon="5.99105">
        <ele>560.20001220703</ele>
        <time>2022-04-06T09:09:55.371Z</time>
      </trkpt>
      <trkpt lat="44.10512" lon="5.99104">
        <ele>560.40002441406</ele>
        <time>2022-04-06T09:09:59.598Z</time>
      </trkpt>
      <trkpt lat="44.10508" lon="5.99101">
        <ele>560.59997558594</ele>
        <time>2022-04-06T09:10:03.827Z</time>
      </trkpt>
      <trkpt lat="44.10498" lon="5.99094">
        <ele>561</ele>
        <time>2022-04-06T09:10:08.059Z</time>
      </trkpt>
      <trkpt lat="44.10497" lon="5.99092">
        <ele>561.20001220703</ele>
        <time>2022-04-06T09:10:12.291Z</time>
      </trkpt>
      <trkpt lat="44.1049" lon="5.99085">
        <ele>561.40002441406</ele>
        <time>2022-04-06T09:10:16.526Z</time>
      </trkpt>
      <trkpt lat="44.1048" lon="5.99079">
        <ele>561.20001220703</ele>
        <time>2022-04-06T09:10:20.765Z</time>
      </trkpt>
      <trkpt lat="44.1047" lon="5.99076">
        <ele>560.40002441406</ele>
        <time>2022-04-06T09:10:25.007Z</time>
      </trkpt>
      <trkpt lat="44.10463" lon="5.99074">
        <ele>559.79998779297</ele>
        <time>2022-04-06T09:10:29.251Z</time>
      </trkpt>
      <trkpt lat="44.10449" lon="5.99069">
        <ele>558.40002441406</ele>
        <time>2022-04-06T09:10:33.500Z</time>
      </trkpt>
      <trkpt lat="44.10442" lon="5.99066">
        <ele>557.59997558594</ele>
        <time>2022-04-06T09:10:37.751Z</time>
      </trkpt>
      <trkpt lat="44.10437" lon="5.99062">
        <ele>557</ele>
        <time>2022-04-06T09:10:42.004Z</time>
      </trkpt>
      <trkpt lat="44.10431" lon="5.9906">
        <ele>556.59997558594</ele>
        <time>2022-04-06T09:10:46.259Z</time>
      </trkpt>
      <trkpt lat="44.10418" lon="5.99058">
        <ele>556.40002441406</ele>
        <time>2022-04-06T09:10:50.518Z</time>
      </trkpt>
      <trkpt lat="44.10406" lon="5.99053">
        <ele>556</ele>
        <time>2022-04-06T09:10:54.781Z</time>
      </trkpt>
      <trkpt lat="44.10401" lon="5.9905">
        <ele>555.79998779297</ele>
        <time>2022-04-06T09:10:59.045Z</time>
      </trkpt>
      <trkpt lat="44.10397" lon="5.99049">
        <ele>556</ele>
        <time>2022-04-06T09:11:03.311Z</time>
      </trkpt>
      <trkpt lat="44.1039" lon="5.99045">
        <ele>556.59997558594</ele>
        <time>2022-04-06T09:11:07.579Z</time>
      </trkpt>
      <trkpt lat="44.10386" lon="5.99044">
        <ele>557.20001220703</ele>
        <time>2022-04-06T09:11:11.849Z</time>
      </trkpt>
      <trkpt lat="44.10379" lon="5.9904">
        <ele>557.59997558594</ele>
        <time>2022-04-06T09:11:16.121Z</time>
      </trkpt>
      <trkpt lat="44.10373" lon="5.99035">
        <ele>558.40002441406</ele>
        <time>2022-04-06T09:11:20.395Z</time>
      </trkpt>
      <trkpt lat="44.10369" lon="5.99033">
        <ele>558.59997558594</ele>
        <time>2022-04-06T09:11:24.670Z</time>
      </trkpt>
      <trkpt lat="44.1036" lon="5.99032">
        <ele>559</ele>
        <time>2022-04-06T09:11:28.948Z</time>
      </trkpt>
      <trkpt lat="44.10348" lon="5.99026">
        <ele>559.20001220703</ele>
        <time>2022-04-06T09:11:33.230Z</time>
      </trkpt>
      <trkpt lat="44.10338" lon="5.99019">
        <ele>559.59997558594</ele>
        <time>2022-04-06T09:11:37.516Z</time>
      </trkpt>
      <trkpt lat="44.1033" lon="5.99017">
        <ele>559.79998779297</ele>
        <time>2022-04-06T09:11:41.804Z</time>
      </trkpt>
      <trkpt lat="44.1032" lon="5.99012">
        <ele>560.79998779297</ele>
        <time>2022-04-06T09:11:46.096Z</time>
      </trkpt>
      <trkpt lat="44.10312" lon="5.9901">
        <ele>561.20001220703</ele>
        <time>2022-04-06T09:11:50.390Z</time>
      </trkpt>
      <trkpt lat="44.10303" lon="5.99008">
        <ele>562</ele>
        <time>2022-04-06T09:11:54.687Z</time>
      </trkpt>
      <trkpt lat="44.10299" lon="5.99009">
        <ele>562.20001220703</ele>
        <time>2022-04-06T09:11:58.985Z</time>
      </trkpt>
      <trkpt lat="44.10287" lon="5.99004">
        <ele>563</ele>
        <time>2022-04-06T09:12:03.287Z</time>
      </trkpt>
      <trkpt lat="44.10277" lon="5.99">
        <ele>564.40002441406</ele>
        <time>2022-04-06T09:12:07.593Z</time>
      </trkpt>
      <trkpt lat="44.10275" lon="5.98999">
        <ele>564.59997558594</ele>
        <time>2022-04-06T09:12:11.899Z</time>
      </trkpt>
      <trkpt lat="44.10276" lon="5.98999">
        <ele>565.40002441406</ele>
        <time>2022-04-06T09:12:16.206Z</time>
      </trkpt>
      <trkpt lat="44.10277" lon="5.99">
        <ele>566</ele>
        <time>2022-04-06T09:12:20.513Z</time>
      </trkpt>
      <trkpt lat="44.10281" lon="5.99">
        <ele>566.59997558594</ele>
        <time>2022-04-06T09:12:24.821Z</time>
      </trkpt>
      <trkpt lat="44.10292" lon="5.98999">
        <ele>567.79998779297</ele>
        <time>2022-04-06T09:12:29.133Z</time>
      </trkpt>
      <trkpt lat="44.10305" lon="5.98997">
        <ele>568.20001220703</ele>
        <time>2022-04-06T09:12:33.449Z</time>
      </trkpt>
      <trkpt lat="44.10311" lon="5.98992">
        <ele>568.79998779297</ele>
        <time>2022-04-06T09:12:37.767Z</time>
      </trkpt>
      <trkpt lat="44.10314" lon="5.98991">
        <ele>569.59997558594</ele>
        <time>2022-04-06T09:12:42.086Z</time>
      </trkpt>
      <trkpt lat="44.10316" lon="5.9899">
        <ele>570.20001220703</ele>
        <time>2022-04-06T09:12:46.406Z</time>
      </trkpt>
      <trkpt lat="44.10321" lon="5.98989">
        <ele>571.40002441406</ele>
        <time>2022-04-06T09:12:50.727Z</time>
      </trkpt>
      <trkpt lat="44.10324" lon="5.98989">
        <ele>571.59997558594</ele>
        <time>2022-04-06T09:12:55.049Z</time>
      </trkpt>
      <trkpt lat="44.10329" lon="5.98988">
        <ele>572.40002441406</ele>
        <time>2022-04-06T09:12:59.373Z</time>
      </trkpt>
      <trkpt lat="44.10338" lon="5.98989">
        <ele>573.20001220703</ele>
        <time>2022-04-06T09:13:03.700Z</time>
      </trkpt>
      <trkpt lat="44.10342" lon="5.98992">
        <ele>573.20001220703</ele>
        <time>2022-04-06T09:13:08.028Z</time>
      </trkpt>
      <trkpt lat="44.10356" lon="5.98996">
        <ele>572.59997558594</ele>
        <time>2022-04-06T09:13:12.361Z</time>
      </trkpt>
      <trkpt lat="44.10365" lon="5.98998">
        <ele>572.79998779297</ele>
        <time>2022-04-06T09:13:16.697Z</time>
      </trkpt>
      <trkpt lat="44.10368" lon="5.98998">
        <ele>573</ele>
        <time>2022-04-06T09:13:21.034Z</time>
      </trkpt>
      <trkpt lat="44.10378" lon="5.98996">
        <ele>573.59997558594</ele>
        <time>2022-04-06T09:13:25.374Z</time>
      </trkpt>
      <trkpt lat="44.10383" lon="5.98994">
        <ele>574.59997558594</ele>
        <time>2022-04-06T09:13:29.715Z</time>
      </trkpt>
      <trkpt lat="44.10386" lon="5.98994">
        <ele>575</ele>
        <time>2022-04-06T09:13:34.057Z</time>
      </trkpt>
      <trkpt lat="44.10397" lon="5.98993">
        <ele>575.79998779297</ele>
        <time>2022-04-06T09:13:38.403Z</time>
      </trkpt>
      <trkpt lat="44.10403" lon="5.98991">
        <ele>576.20001220703</ele>
        <time>2022-04-06T09:13:42.751Z</time>
      </trkpt>
      <trkpt lat="44.10408" lon="5.98985">
        <ele>577.59997558594</ele>
        <time>2022-04-06T09:13:47.101Z</time>
      </trkpt>
      <trkpt lat="44.10405" lon="5.98981">
        <ele>578.40002441406</ele>
        <time>2022-04-06T09:13:51.452Z</time>
      </trkpt>
      <trkpt lat="44.10402" lon="5.98979">
        <ele>578.79998779297</ele>
        <time>2022-04-06T09:13:55.804Z</time>
      </trkpt>
      <trkpt lat="44.104" lon="5.98978">
        <ele>579</ele>
        <time>2022-04-06T09:14:00.157Z</time>
      </trkpt>
      <trkpt lat="44.10385" lon="5.98976">
        <ele>579.59997558594</ele>
        <time>2022-04-06T09:14:04.515Z</time>
      </trkpt>
      <trkpt lat="44.10375" lon="5.98971">
        <ele>579.59997558594</ele>
        <time>2022-04-06T09:14:08.876Z</time>
      </trkpt>
      <trkpt lat="44.1037" lon="5.98969">
        <ele>579.79998779297</ele>
        <time>2022-04-06T09:14:13.238Z</time>
      </trkpt>
      <trkpt lat="44.10365" lon="5.98965">
        <ele>580.40002441406</ele>
        <time>2022-04-06T09:14:17.602Z</time>
      </trkpt>
      <trkpt lat="44.10362" lon="5.98964">
        <ele>580.59997558594</ele>
        <time>2022-04-06T09:14:21.967Z</time>
      </trkpt>
      <trkpt lat="44.10358" lon="5.98965">
        <ele>580.79998779297</ele>
        <time>2022-04-06T09:14:26.333Z</time>
      </trkpt>
      <trkpt lat="44.1035" lon="5.98963">
        <ele>580.59997558594</ele>
        <time>2022-04-06T09:14:30.702Z</time>
      </trkpt>
      <trkpt lat="44.10343" lon="5.98958">
        <ele>580.79998779297</ele>
        <time>2022-04-06T09:14:35.074Z</time>
      </trkpt>
      <trkpt lat="44.10326" lon="5.9895">
        <ele>581.59997558594</ele>
        <time>2022-04-06T09:14:39.451Z</time>
      </trkpt>
      <trkpt lat="44.10308" lon="5.98941">
        <ele>582.20001220703</ele>
        <time>2022-04-06T09:14:43.834Z</time>
      </trkpt>
      <trkpt lat="44.10305" lon="5.98937">
        <ele>582.59997558594</ele>
        <time>2022-04-06T09:14:48.219Z</time>
      </trkpt>
      <trkpt lat="44.10304" lon="5.98932">
        <ele>583.40002441406</ele>
        <time>2022-04-06T09:14:52.605Z</time>
      </trkpt>
      <trkpt lat="44.10302" lon="5.98927">
        <ele>583.79998779297</ele>
        <time>2022-04-06T09:14:56.992Z</time>
      </trkpt>
      <trkpt lat="44.10299" lon="5.98922">
        <ele>584</ele>
        <time>2022-04-06T09:15:01.381Z</time>
      </trkpt>
      <trkpt lat="44.10297" lon="5.98916">
        <ele>584.59997558594</ele>
        <time>2022-04-06T09:15:05.771Z</time>
      </trkpt>
      <trkpt lat="44.10295" lon="5.9891">
        <ele>585</ele>
        <time>2022-04-06T09:15:10.162Z</time>
      </trkpt>
      <trkpt lat="44.10292" lon="5.98899">
        <ele>586</ele>
        <time>2022-04-06T09:15:14.556Z</time>
      </trkpt>
      <trkpt lat="44.1029" lon="5.98894">
        <ele>586.40002441406</ele>
        <time>2022-04-06T09:15:18.952Z</time>
      </trkpt>
      <trkpt lat="44.10288" lon="5.98876">
        <ele>587.40002441406</ele>
        <time>2022-04-06T09:15:23.352Z</time>
      </trkpt>
      <trkpt lat="44.10286" lon="5.98864">
        <ele>587.40002441406</ele>
        <time>2022-04-06T09:15:27.755Z</time>
      </trkpt>
      <trkpt lat="44.10288" lon="5.98853">
        <ele>587.59997558594</ele>
        <time>2022-04-06T09:15:32.160Z</time>
      </trkpt>
      <trkpt lat="44.10291" lon="5.98845">
        <ele>588</ele>
        <time>2022-04-06T09:15:36.567Z</time>
      </trkpt>
      <trkpt lat="44.10298" lon="5.98835">
        <ele>588.79998779297</ele>
        <time>2022-04-06T09:15:40.977Z</time>
      </trkpt>
      <trkpt lat="44.10302" lon="5.98828">
        <ele>589.59997558594</ele>
        <time>2022-04-06T09:15:45.389Z</time>
      </trkpt>
      <trkpt lat="44.10306" lon="5.98821">
        <ele>589.79998779297</ele>
        <time>2022-04-06T09:15:49.803Z</time>
      </trkpt>
      <trkpt lat="44.10309" lon="5.98816">
        <ele>590.79998779297</ele>
        <time>2022-04-06T09:15:54.219Z</time>
      </trkpt>
      <trkpt lat="44.1031" lon="5.98812">
        <ele>591</ele>
        <time>2022-04-06T09:15:58.636Z</time>
      </trkpt>
      <trkpt lat="44.10316" lon="5.98798">
        <ele>591.59997558594</ele>
        <time>2022-04-06T09:16:03.057Z</time>
      </trkpt>
      <trkpt lat="44.10321" lon="5.9879">
        <ele>592.40002441406</ele>
        <time>2022-04-06T09:16:07.480Z</time>
      </trkpt>
      <trkpt lat="44.10329" lon="5.98778">
        <ele>593.40002441406</ele>
        <time>2022-04-06T09:16:11.907Z</time>
      </trkpt>
      <trkpt lat="44.10336" lon="5.98767">
        <ele>594.40002441406</ele>
        <time>2022-04-06T09:16:16.337Z</time>
      </trkpt>
      <trkpt lat="44.10337" lon="5.98765">
        <ele>594.40002441406</ele>
        <time>2022-04-06T09:16:20.767Z</time>
      </trkpt>
      <trkpt lat="44.10339" lon="5.98763">
        <ele>594.40002441406</ele>
        <time>2022-04-06T09:16:25.198Z</time>
      </trkpt>
      <trkpt lat="44.10342" lon="5.98755">
        <ele>599.40002441406</ele>
        <time>2022-04-06T09:16:29.631Z</time>
      </trkpt>
      <trkpt lat="44.10343" lon="5.98749">
        <ele>599.20001220703</ele>
        <time>2022-04-06T09:16:34.066Z</time>
      </trkpt>
      <trkpt lat="44.10348" lon="5.98733">
        <ele>598.79998779297</ele>
        <time>2022-04-06T09:16:38.505Z</time>
      </trkpt>
      <trkpt lat="44.10354" lon="5.98721">
        <ele>599</ele>
        <time>2022-04-06T09:16:42.947Z</time>
      </trkpt>
      <trkpt lat="44.10367" lon="5.98708">
        <ele>599.59997558594</ele>
        <time>2022-04-06T09:16:47.394Z</time>
      </trkpt>
      <trkpt lat="44.10374" lon="5.98703">
        <ele>599.40002441406</ele>
        <time>2022-04-06T09:16:51.844Z</time>
      </trkpt>
      <trkpt lat="44.1038" lon="5.98699">
        <ele>598.59997558594</ele>
        <time>2022-04-06T09:16:56.296Z</time>
      </trkpt>
      <trkpt lat="44.10384" lon="5.98696">
        <ele>598.20001220703</ele>
        <time>2022-04-06T09:17:00.749Z</time>
      </trkpt>
      <trkpt lat="44.1039" lon="5.98686">
        <ele>598.20001220703</ele>
        <time>2022-04-06T09:17:05.205Z</time>
      </trkpt>
      <trkpt lat="44.10401" lon="5.98677">
        <ele>598.40002441406</ele>
        <time>2022-04-06T09:17:09.665Z</time>
      </trkpt>
      <trkpt lat="44.10407" lon="5.98669">
        <ele>598.59997558594</ele>
        <time>2022-04-06T09:17:14.128Z</time>
      </trkpt>
      <trkpt lat="44.10413" lon="5.98662">
        <ele>598.59997558594</ele>
        <time>2022-04-06T09:17:18.593Z</time>
      </trkpt>
      <trkpt lat="44.10424" lon="5.98653">
        <ele>599.20001220703</ele>
        <time>2022-04-06T09:17:23.062Z</time>
      </trkpt>
      <trkpt lat="44.10428" lon="5.98651">
        <ele>599.40002441406</ele>
        <time>2022-04-06T09:17:27.533Z</time>
      </trkpt>
      <trkpt lat="44.10441" lon="5.9864">
        <ele>598.20001220703</ele>
        <time>2022-04-06T09:17:32.009Z</time>
      </trkpt>
      <trkpt lat="44.10446" lon="5.98637">
        <ele>597.79998779297</ele>
        <time>2022-04-06T09:17:36.486Z</time>
      </trkpt>
      <trkpt lat="44.10451" lon="5.98633">
        <ele>597.59997558594</ele>
        <time>2022-04-06T09:17:40.965Z</time>
      </trkpt>
      <trkpt lat="44.10458" lon="5.98627">
        <ele>597.40002441406</ele>
        <time>2022-04-06T09:17:45.447Z</time>
      </trkpt>
      <trkpt lat="44.1047" lon="5.98612">
        <ele>598</ele>
        <time>2022-04-06T09:17:49.934Z</time>
      </trkpt>
      <trkpt lat="44.10472" lon="5.98609">
        <ele>598</ele>
        <time>2022-04-06T09:17:54.422Z</time>
      </trkpt>
      <trkpt lat="44.10481" lon="5.986">
        <ele>598.79998779297</ele>
        <time>2022-04-06T09:17:58.913Z</time>
      </trkpt>
      <trkpt lat="44.10487" lon="5.98595">
        <ele>599.20001220703</ele>
        <time>2022-04-06T09:18:03.406Z</time>
      </trkpt>
      <trkpt lat="44.10489" lon="5.98591">
        <ele>599.20001220703</ele>
        <time>2022-04-06T09:18:07.900Z</time>
      </trkpt>
      <trkpt lat="44.10491" lon="5.98587">
        <ele>599.40002441406</ele>
        <time>2022-04-06T09:18:12.396Z</time>
      </trkpt>
      <trkpt lat="44.10498" lon="5.98581">
        <ele>599.40002441406</ele>
        <time>2022-04-06T09:18:16.894Z</time>
      </trkpt>
      <trkpt lat="44.10502" lon="5.98577">
        <ele>599.20001220703</ele>
        <time>2022-04-06T09:18:21.394Z</time>
      </trkpt>
      <trkpt lat="44.10506" lon="5.98572">
        <ele>599</ele>
        <time>2022-04-06T09:18:25.895Z</time>
      </trkpt>
      <trkpt lat="44.10511" lon="5.98568">
        <ele>598.40002441406</ele>
        <time>2022-04-06T09:18:30.398Z</time>
      </trkpt>
      <trkpt lat="44.10514" lon="5.98569">
        <ele>598.20001220703</ele>
        <time>2022-04-06T09:18:34.902Z</time>
      </trkpt>
      <trkpt lat="44.10522" lon="5.98563">
        <ele>597.20001220703</ele>
        <time>2022-04-06T09:18:39.409Z</time>
      </trkpt>
      <trkpt lat="44.10525" lon="5.98559">
        <ele>596.79998779297</ele>
        <time>2022-04-06T09:18:43.917Z</time>
      </trkpt>
      <trkpt lat="44.10527" lon="5.98556">
        <ele>596.59997558594</ele>
        <time>2022-04-06T09:18:48.426Z</time>
      </trkpt>
      <trkpt lat="44.1053" lon="5.98549">
        <ele>596.40002441406</ele>
        <time>2022-04-06T09:18:52.937Z</time>
      </trkpt>
      <trkpt lat="44.10531" lon="5.98545">
        <ele>596.40002441406</ele>
        <time>2022-04-06T09:18:57.449Z</time>
      </trkpt>
      <trkpt lat="44.10532" lon="5.98533">
        <ele>597</ele>
        <time>2022-04-06T09:19:01.964Z</time>
      </trkpt>
      <trkpt lat="44.10531" lon="5.98523">
        <ele>597.79998779297</ele>
        <time>2022-04-06T09:19:06.481Z</time>
      </trkpt>
      <trkpt lat="44.10529" lon="5.98516">
        <ele>598.40002441406</ele>
        <time>2022-04-06T09:19:11.000Z</time>
      </trkpt>
      <trkpt lat="44.10527" lon="5.98509">
        <ele>599.20001220703</ele>
        <time>2022-04-06T09:19:15.521Z</time>
      </trkpt>
      <trkpt lat="44.10525" lon="5.98499">
        <ele>600.40002441406</ele>
        <time>2022-04-06T09:19:20.044Z</time>
      </trkpt>
      <trkpt lat="44.10521" lon="5.98494">
        <ele>601.40002441406</ele>
        <time>2022-04-06T09:19:24.569Z</time>
      </trkpt>
      <trkpt lat="44.10518" lon="5.98488">
        <ele>602.40002441406</ele>
        <time>2022-04-06T09:19:29.096Z</time>
      </trkpt>
      <trkpt lat="44.10517" lon="5.98477">
        <ele>603.40002441406</ele>
        <time>2022-04-06T09:19:33.625Z</time>
      </trkpt>
      <trkpt lat="44.10515" lon="5.98474">
        <ele>603.79998779297</ele>
        <time>2022-04-06T09:19:38.155Z</time>
      </trkpt>
      <trkpt lat="44.1051" lon="5.98462">
        <ele>604.79998779297</ele>
        <time>2022-04-06T09:19:42.688Z</time>
      </trkpt>
      <trkpt lat="44.10509" lon="5.98458">
        <ele>605</ele>
        <time>2022-04-06T09:19:47.222Z</time>
      </trkpt>
      <trkpt lat="44.10503" lon="5.9844">
        <ele>605.79998779297</ele>
        <time>2022-04-06T09:19:51.761Z</time>
      </trkpt>
      <trkpt lat="44.10502" lon="5.98436">
        <ele>606</ele>
        <time>2022-04-06T09:19:56.300Z</time>
      </trkpt>
      <trkpt lat="44.10496" lon="5.98427">
        <ele>606.79998779297</ele>
        <time>2022-04-06T09:20:00.842Z</time>
      </trkpt>
      <trkpt lat="44.10494" lon="5.98427">
        <ele>607.40002441406</ele>
        <time>2022-04-06T09:20:05.385Z</time>
      </trkpt>
      <trkpt lat="44.10488" lon="5.98421">
        <ele>608.79998779297</ele>
        <time>2022-04-06T09:20:09.930Z</time>
      </trkpt>
      <trkpt lat="44.10486" lon="5.98419">
        <ele>609</ele>
        <time>2022-04-06T09:20:14.476Z</time>
      </trkpt>
      <trkpt lat="44.10485" lon="5.98418">
        <ele>609.40002441406</ele>
        <time>2022-04-06T09:20:19.022Z</time>
      </trkpt>
      <trkpt lat="44.10479" lon="5.98415">
        <ele>610.20001220703</ele>
        <time>2022-04-06T09:20:23.571Z</time>
      </trkpt>
      <trkpt lat="44.10476" lon="5.98414">
        <ele>610.59997558594</ele>
        <time>2022-04-06T09:20:28.120Z</time>
      </trkpt>
      <trkpt lat="44.10472" lon="5.9841">
        <ele>611.40002441406</ele>
        <time>2022-04-06T09:20:32.671Z</time>
      </trkpt>
      <trkpt lat="44.10464" lon="5.98402">
        <ele>612</ele>
        <time>2022-04-06T09:20:37.225Z</time>
      </trkpt>
      <trkpt lat="44.10454" lon="5.98387">
        <ele>612</ele>
        <time>2022-04-06T09:20:41.784Z</time>
      </trkpt>
      <trkpt lat="44.10442" lon="5.9838">
        <ele>612.59997558594</ele>
        <time>2022-04-06T09:20:46.347Z</time>
      </trkpt>
      <trkpt lat="44.10432" lon="5.98377">
        <ele>614.40002441406</ele>
        <time>2022-04-06T09:20:50.913Z</time>
      </trkpt>
      <trkpt lat="44.10427" lon="5.98375">
        <ele>615.40002441406</ele>
        <time>2022-04-06T09:20:55.481Z</time>
      </trkpt>
      <trkpt lat="44.10419" lon="5.98373">
        <ele>616.79998779297</ele>
        <time>2022-04-06T09:21:00.051Z</time>
      </trkpt>
      <trkpt lat="44.10412" lon="5.98371">
        <ele>618.20001220703</ele>
        <time>2022-04-06T09:21:04.624Z</time>
      </trkpt>
      <trkpt lat="44.10404" lon="5.98368">
        <ele>619.20001220703</ele>
        <time>2022-04-06T09:21:09.199Z</time>
      </trkpt>
      <trkpt lat="44.10401" lon="5.98367">
        <ele>619.59997558594</ele>
        <time>2022-04-06T09:21:13.775Z</time>
      </trkpt>
      <trkpt lat="44.10396" lon="5.98365">
        <ele>620.40002441406</ele>
        <time>2022-04-06T09:21:18.353Z</time>
      </trkpt>
      <trkpt lat="44.10387" lon="5.9836">
        <ele>621.40002441406</ele>
        <time>2022-04-06T09:21:22.934Z</time>
      </trkpt>
      <trkpt lat="44.1038" lon="5.98358">
        <ele>621.79998779297</ele>
        <time>2022-04-06T09:21:27.517Z</time>
      </trkpt>
      <trkpt lat="44.10371" lon="5.98357">
        <ele>622.40002441406</ele>
        <time>2022-04-06T09:21:32.103Z</time>
      </trkpt>
      <trkpt lat="44.10369" lon="5.98357">
        <ele>622.40002441406</ele>
        <time>2022-04-06T09:21:36.690Z</time>
      </trkpt>
      <trkpt lat="44.10361" lon="5.98351">
        <ele>622.79998779297</ele>
        <time>2022-04-06T09:21:41.280Z</time>
      </trkpt>
      <trkpt lat="44.10357" lon="5.98349">
        <ele>623</ele>
        <time>2022-04-06T09:21:45.871Z</time>
      </trkpt>
      <trkpt lat="44.10353" lon="5.9835">
        <ele>623.40002441406</ele>
        <time>2022-04-06T09:21:50.463Z</time>
      </trkpt>
      <trkpt lat="44.10351" lon="5.9835">
        <ele>623.79998779297</ele>
        <time>2022-04-06T09:21:55.056Z</time>
      </trkpt>
      <trkpt lat="44.10346" lon="5.98346">
        <ele>624.20001220703</ele>
        <time>2022-04-06T09:21:59.651Z</time>
      </trkpt>
      <trkpt lat="44.10344" lon="5.98343">
        <ele>624.40002441406</ele>
        <time>2022-04-06T09:22:04.246Z</time>
      </trkpt>
      <trkpt lat="44.10341" lon="5.9834">
        <ele>624.59997558594</ele>
        <time>2022-04-06T09:22:08.843Z</time>
      </trkpt>
      <trkpt lat="44.10337" lon="5.98339">
        <ele>624.79998779297</ele>
        <time>2022-04-06T09:22:13.441Z</time>
      </trkpt>
      <trkpt lat="44.10335" lon="5.98337">
        <ele>625</ele>
        <time>2022-04-06T09:22:18.040Z</time>
      </trkpt>
      <trkpt lat="44.10331" lon="5.98328">
        <ele>625</ele>
        <time>2022-04-06T09:22:22.641Z</time>
      </trkpt>
      <trkpt lat="44.10323" lon="5.98318">
        <ele>625</ele>
        <time>2022-04-06T09:22:27.246Z</time>
      </trkpt>
      <trkpt lat="44.10316" lon="5.98313">
        <ele>625.79998779297</ele>
        <time>2022-04-06T09:22:31.853Z</time>
      </trkpt>
      <trkpt lat="44.10314" lon="5.98311">
        <ele>626</ele>
        <time>2022-04-06T09:22:36.461Z</time>
      </trkpt>
      <trkpt lat="44.10311" lon="5.9831">
        <ele>626.20001220703</ele>
        <time>2022-04-06T09:22:41.070Z</time>
      </trkpt>
      <trkpt lat="44.10302" lon="5.98306">
        <ele>626.79998779297</ele>
        <time>2022-04-06T09:22:45.682Z</time>
      </trkpt>
      <trkpt lat="44.10297" lon="5.98302">
        <ele>627.20001220703</ele>
        <time>2022-04-06T09:22:50.295Z</time>
      </trkpt>
      <trkpt lat="44.10285" lon="5.98294">
        <ele>627.40002441406</ele>
        <time>2022-04-06T09:22:54.913Z</time>
      </trkpt>
      <trkpt lat="44.10283" lon="5.98293">
        <ele>627.59997558594</ele>
        <time>2022-04-06T09:22:59.531Z</time>
      </trkpt>
      <trkpt lat="44.1028" lon="5.9829">
        <ele>627.59997558594</ele>
        <time>2022-04-06T09:23:04.151Z</time>
      </trkpt>
      <trkpt lat="44.1028" lon="5.9829">
        <ele>627.59997558594</ele>
        <time>2022-04-06T09:23:08.771Z</time>
      </trkpt>
      <trkpt lat="44.10276" lon="5.98287">
        <ele>627.40002441406</ele>
        <time>2022-04-06T09:23:13.392Z</time>
      </trkpt>
      <trkpt lat="44.10273" lon="5.98283">
        <ele>627.40002441406</ele>
        <time>2022-04-06T09:23:18.014Z</time>
      </trkpt>
      <trkpt lat="44.10263" lon="5.98273">
        <ele>627.59997558594</ele>
        <time>2022-04-06T09:23:22.640Z</time>
      </trkpt>
      <trkpt lat="44.10245" lon="5.98245">
        <ele>627</ele>
        <time>2022-04-06T09:23:27.275Z</time>
      </trkpt>
      <trkpt lat="44.10242" lon="5.98241">
        <ele>627</ele>
        <time>2022-04-06T09:23:31.911Z</time>
      </trkpt>
      <trkpt lat="44.10235" lon="5.98223">
        <ele>626.59997558594</ele>
        <time>2022-04-06T09:23:36.552Z</time>
      </trkpt>
      <trkpt lat="44.10229" lon="5.98205">
        <ele>626</ele>
        <time>2022-04-06T09:23:41.197Z</time>
      </trkpt>
      <trkpt lat="44.10227" lon="5.98193">
        <ele>625.79998779297</ele>
        <time>2022-04-06T09:23:45.845Z</time>
      </trkpt>
      <trkpt lat="44.10227" lon="5.98186">
        <ele>625.59997558594</ele>
        <time>2022-04-06T09:23:50.495Z</time>
      </trkpt>
      <trkpt lat="44.10227" lon="5.9818">
        <ele>625.40002441406</ele>
        <time>2022-04-06T09:23:55.146Z</time>
      </trkpt>
      <trkpt lat="44.10227" lon="5.98173">
        <ele>625.20001220703</ele>
        <time>2022-04-06T09:23:59.799Z</time>
      </trkpt>
      <trkpt lat="44.10226" lon="5.98166">
        <ele>625</ele>
        <time>2022-04-06T09:24:04.453Z</time>
      </trkpt>
      <trkpt lat="44.10224" lon="5.98161">
        <ele>624.79998779297</ele>
        <time>2022-04-06T09:24:09.109Z</time>
      </trkpt>
      <trkpt lat="44.10214" lon="5.98158">
        <ele>624.40002441406</ele>
        <time>2022-04-06T09:24:13.768Z</time>
      </trkpt>
      <trkpt lat="44.10206" lon="5.98167">
        <ele>625</ele>
        <time>2022-04-06T09:24:18.430Z</time>
      </trkpt>
      <trkpt lat="44.10201" lon="5.98172">
        <ele>625.40002441406</ele>
        <time>2022-04-06T09:24:23.094Z</time>
      </trkpt>
      <trkpt lat="44.10194" lon="5.98174">
        <ele>626.59997558594</ele>
        <time>2022-04-06T09:24:27.761Z</time>
      </trkpt>
      <trkpt lat="44.10192" lon="5.98172">
        <ele>626.59997558594</ele>
        <time>2022-04-06T09:24:32.428Z</time>
      </trkpt>
      <trkpt lat="44.10192" lon="5.98159">
        <ele>627.59997558594</ele>
        <time>2022-04-06T09:24:37.098Z</time>
      </trkpt>
      <trkpt lat="44.10192" lon="5.98151">
        <ele>628.20001220703</ele>
        <time>2022-04-06T09:24:41.770Z</time>
      </trkpt>
      <trkpt lat="44.10192" lon="5.98147">
        <ele>628.79998779297</ele>
        <time>2022-04-06T09:24:46.443Z</time>
      </trkpt>
      <trkpt lat="44.10191" lon="5.9813">
        <ele>630</ele>
        <time>2022-04-06T09:24:51.120Z</time>
      </trkpt>
      <trkpt lat="44.10185" lon="5.98116">
        <ele>631.20001220703</ele>
        <time>2022-04-06T09:24:55.800Z</time>
      </trkpt>
      <trkpt lat="44.10184" lon="5.98113">
        <ele>631.59997558594</ele>
        <time>2022-04-06T09:25:00.481Z</time>
      </trkpt>
      <trkpt lat="44.10177" lon="5.98104">
        <ele>632.40002441406</ele>
        <time>2022-04-06T09:25:05.165Z</time>
      </trkpt>
      <trkpt lat="44.10173" lon="5.98099">
        <ele>633</ele>
        <time>2022-04-06T09:25:09.851Z</time>
      </trkpt>
      <trkpt lat="44.10168" lon="5.98093">
        <ele>633.40002441406</ele>
        <time>2022-04-06T09:25:14.539Z</time>
      </trkpt>
      <trkpt lat="44.1016" lon="5.98081">
        <ele>634.40002441406</ele>
        <time>2022-04-06T09:25:19.231Z</time>
      </trkpt>
      <trkpt lat="44.10156" lon="5.98075">
        <ele>634.79998779297</ele>
        <time>2022-04-06T09:25:23.925Z</time>
      </trkpt>
      <trkpt lat="44.1015" lon="5.98062">
        <ele>635.59997558594</ele>
        <time>2022-04-06T09:25:28.622Z</time>
      </trkpt>
      <trkpt lat="44.1015" lon="5.98058">
        <ele>635.59997558594</ele>
        <time>2022-04-06T09:25:33.320Z</time>
      </trkpt>
      <trkpt lat="44.10153" lon="5.98044">
        <ele>636.40002441406</ele>
        <time>2022-04-06T09:25:38.021Z</time>
      </trkpt>
      <trkpt lat="44.10154" lon="5.98041">
        <ele>636.59997558594</ele>
        <time>2022-04-06T09:25:42.723Z</time>
      </trkpt>
      <trkpt lat="44.1016" lon="5.98035">
        <ele>637.40002441406</ele>
        <time>2022-04-06T09:25:47.428Z</time>
      </trkpt>
      <trkpt lat="44.10162" lon="5.98033">
        <ele>637.79998779297</ele>
        <time>2022-04-06T09:25:52.133Z</time>
      </trkpt>
      <trkpt lat="44.10165" lon="5.98032">
        <ele>638</ele>
        <time>2022-04-06T09:25:56.839Z</time>
      </trkpt>
      <trkpt lat="44.1017" lon="5.98031">
        <ele>638.79998779297</ele>
        <time>2022-04-06T09:26:01.547Z</time>
      </trkpt>
      <trkpt lat="44.10182" lon="5.98027">
        <ele>639.59997558594</ele>
        <time>2022-04-06T09:26:06.259Z</time>
      </trkpt>
      <trkpt lat="44.10188" lon="5.98024">
        <ele>640</ele>
        <time>2022-04-06T09:26:10.973Z</time>
      </trkpt>
      <trkpt lat="44.102" lon="5.98017">
        <ele>641</ele>
        <time>2022-04-06T09:26:15.691Z</time>
      </trkpt>
      <trkpt lat="44.1021" lon="5.98012">
        <ele>642.20001220703</ele>
        <time>2022-04-06T09:26:20.412Z</time>
      </trkpt>
      <trkpt lat="44.10217" lon="5.98008">
        <ele>643.20001220703</ele>
        <time>2022-04-06T09:26:25.136Z</time>
      </trkpt>
      <trkpt lat="44.1022" lon="5.98007">
        <ele>643.59997558594</ele>
        <time>2022-04-06T09:26:29.861Z</time>
      </trkpt>
      <trkpt lat="44.10227" lon="5.98003">
        <ele>644.59997558594</ele>
        <time>2022-04-06T09:26:34.588Z</time>
      </trkpt>
      <trkpt lat="44.10231" lon="5.98001">
        <ele>645.59997558594</ele>
        <time>2022-04-06T09:26:39.316Z</time>
      </trkpt>
      <trkpt lat="44.10233" lon="5.98">
        <ele>646</ele>
        <time>2022-04-06T09:26:44.045Z</time>
      </trkpt>
      <trkpt lat="44.1024" lon="5.97997">
        <ele>647.20001220703</ele>
        <time>2022-04-06T09:26:48.776Z</time>
      </trkpt>
      <trkpt lat="44.10246" lon="5.97993">
        <ele>648.20001220703</ele>
        <time>2022-04-06T09:26:53.509Z</time>
      </trkpt>
      <trkpt lat="44.10252" lon="5.97987">
        <ele>649.40002441406</ele>
        <time>2022-04-06T09:26:58.245Z</time>
      </trkpt>
      <trkpt lat="44.10258" lon="5.97979">
        <ele>650.59997558594</ele>
        <time>2022-04-06T09:27:02.983Z</time>
      </trkpt>
      <trkpt lat="44.10261" lon="5.97975">
        <ele>651.59997558594</ele>
        <time>2022-04-06T09:27:07.723Z</time>
      </trkpt>
      <trkpt lat="44.10267" lon="5.97971">
        <ele>652.59997558594</ele>
        <time>2022-04-06T09:27:12.465Z</time>
      </trkpt>
      <trkpt lat="44.1027" lon="5.97967">
        <ele>653</ele>
        <time>2022-04-06T09:27:17.208Z</time>
      </trkpt>
      <trkpt lat="44.10272" lon="5.97958">
        <ele>653.79998779297</ele>
        <time>2022-04-06T09:27:21.953Z</time>
      </trkpt>
      <trkpt lat="44.10271" lon="5.97954">
        <ele>654.20001220703</ele>
        <time>2022-04-06T09:27:26.699Z</time>
      </trkpt>
      <trkpt lat="44.10266" lon="5.97947">
        <ele>655.20001220703</ele>
        <time>2022-04-06T09:27:31.447Z</time>
      </trkpt>
      <trkpt lat="44.10264" lon="5.97946">
        <ele>655.40002441406</ele>
        <time>2022-04-06T09:27:36.196Z</time>
      </trkpt>
      <trkpt lat="44.10262" lon="5.97945">
        <ele>655.79998779297</ele>
        <time>2022-04-06T09:27:40.946Z</time>
      </trkpt>
      <trkpt lat="44.10257" lon="5.97944">
        <ele>656.20001220703</ele>
        <time>2022-04-06T09:27:45.697Z</time>
      </trkpt>
      <trkpt lat="44.1025" lon="5.97943">
        <ele>656.59997558594</ele>
        <time>2022-04-06T09:27:50.451Z</time>
      </trkpt>
      <trkpt lat="44.10241" lon="5.97939">
        <ele>657</ele>
        <time>2022-04-06T09:27:55.208Z</time>
      </trkpt>
      <trkpt lat="44.10239" lon="5.97937">
        <ele>657.20001220703</ele>
        <time>2022-04-06T09:27:59.966Z</time>
      </trkpt>
      <trkpt lat="44.10224" lon="5.97932">
        <ele>658.40002441406</ele>
        <time>2022-04-06T09:28:04.728Z</time>
      </trkpt>
      <trkpt lat="44.10219" lon="5.9793">
        <ele>658.79998779297</ele>
        <time>2022-04-06T09:28:09.492Z</time>
      </trkpt>
      <trkpt lat="44.10212" lon="5.97925">
        <ele>659.40002441406</ele>
        <time>2022-04-06T09:28:14.258Z</time>
      </trkpt>
      <trkpt lat="44.10202" lon="5.97919">
        <ele>660.20001220703</ele>
        <time>2022-04-06T09:28:19.028Z</time>
      </trkpt>
      <trkpt lat="44.10196" lon="5.97914">
        <ele>660.59997558594</ele>
        <time>2022-04-06T09:28:23.800Z</time>
      </trkpt>
      <trkpt lat="44.10185" lon="5.97907">
        <ele>661.59997558594</ele>
        <time>2022-04-06T09:28:28.576Z</time>
      </trkpt>
      <trkpt lat="44.10174" lon="5.97901">
        <ele>662.79998779297</ele>
        <time>2022-04-06T09:28:33.356Z</time>
      </trkpt>
      <trkpt lat="44.10172" lon="5.97899">
        <ele>662.79998779297</ele>
        <time>2022-04-06T09:28:38.136Z</time>
      </trkpt>
      <trkpt lat="44.10161" lon="5.97894">
        <ele>664</ele>
        <time>2022-04-06T09:28:42.920Z</time>
      </trkpt>
      <trkpt lat="44.10157" lon="5.97892">
        <ele>664.20001220703</ele>
        <time>2022-04-06T09:28:47.705Z</time>
      </trkpt>
      <trkpt lat="44.10148" lon="5.97888">
        <ele>665</ele>
        <time>2022-04-06T09:28:52.493Z</time>
      </trkpt>
      <trkpt lat="44.10143" lon="5.97884">
        <ele>665.59997558594</ele>
        <time>2022-04-06T09:28:57.283Z</time>
      </trkpt>
      <trkpt lat="44.10137" lon="5.97876">
        <ele>666</ele>
        <time>2022-04-06T09:29:02.076Z</time>
      </trkpt>
      <trkpt lat="44.10137" lon="5.97872">
        <ele>666.20001220703</ele>
        <time>2022-04-06T09:29:06.870Z</time>
      </trkpt>
      <trkpt lat="44.1014" lon="5.97863">
        <ele>667.20001220703</ele>
        <time>2022-04-06T09:29:11.666Z</time>
      </trkpt>
      <trkpt lat="44.10143" lon="5.97858">
        <ele>667.79998779297</ele>
        <time>2022-04-06T09:29:16.464Z</time>
      </trkpt>
      <trkpt lat="44.10145" lon="5.97855">
        <ele>668.40002441406</ele>
        <time>2022-04-06T09:29:21.263Z</time>
      </trkpt>
      <trkpt lat="44.10153" lon="5.97847">
        <ele>669.59997558594</ele>
        <time>2022-04-06T09:29:26.065Z</time>
      </trkpt>
      <trkpt lat="44.10155" lon="5.97846">
        <ele>669.79998779297</ele>
        <time>2022-04-06T09:29:30.867Z</time>
      </trkpt>
      <trkpt lat="44.10164" lon="5.97844">
        <ele>670.59997558594</ele>
        <time>2022-04-06T09:29:35.672Z</time>
      </trkpt>
      <trkpt lat="44.10172" lon="5.97843">
        <ele>672</ele>
        <time>2022-04-06T09:29:40.480Z</time>
      </trkpt>
      <trkpt lat="44.10174" lon="5.97843">
        <ele>672.40002441406</ele>
        <time>2022-04-06T09:29:45.289Z</time>
      </trkpt>
      <trkpt lat="44.10179" lon="5.97841">
        <ele>673</ele>
        <time>2022-04-06T09:29:50.099Z</time>
      </trkpt>
      <trkpt lat="44.10191" lon="5.97837">
        <ele>674.20001220703</ele>
        <time>2022-04-06T09:29:54.913Z</time>
      </trkpt>
      <trkpt lat="44.10195" lon="5.97836">
        <ele>674.59997558594</ele>
        <time>2022-04-06T09:29:59.728Z</time>
      </trkpt>
      <trkpt lat="44.10201" lon="5.97832">
        <ele>675.40002441406</ele>
        <time>2022-04-06T09:30:04.545Z</time>
      </trkpt>
      <trkpt lat="44.10212" lon="5.97828">
        <ele>676.40002441406</ele>
        <time>2022-04-06T09:30:09.366Z</time>
      </trkpt>
      <trkpt lat="44.10221" lon="5.97824">
        <ele>677.59997558594</ele>
        <time>2022-04-06T09:30:14.190Z</time>
      </trkpt>
      <trkpt lat="44.10227" lon="5.9782">
        <ele>678.59997558594</ele>
        <time>2022-04-06T09:30:19.016Z</time>
      </trkpt>
      <trkpt lat="44.10237" lon="5.97818">
        <ele>679.79998779297</ele>
        <time>2022-04-06T09:30:23.845Z</time>
      </trkpt>
      <trkpt lat="44.10244" lon="5.97816">
        <ele>680.79998779297</ele>
        <time>2022-04-06T09:30:28.676Z</time>
      </trkpt>
      <trkpt lat="44.10248" lon="5.97816">
        <ele>681.20001220703</ele>
        <time>2022-04-06T09:30:33.509Z</time>
      </trkpt>
      <trkpt lat="44.10253" lon="5.97815">
        <ele>681.79998779297</ele>
        <time>2022-04-06T09:30:38.343Z</time>
      </trkpt>
      <trkpt lat="44.10259" lon="5.97808">
        <ele>683</ele>
        <time>2022-04-06T09:30:43.180Z</time>
      </trkpt>
      <trkpt lat="44.10253" lon="5.97801">
        <ele>683.40002441406</ele>
        <time>2022-04-06T09:30:48.019Z</time>
      </trkpt>
      <trkpt lat="44.10245" lon="5.97802">
        <ele>683.59997558594</ele>
        <time>2022-04-06T09:30:52.861Z</time>
      </trkpt>
      <trkpt lat="44.10239" lon="5.97802">
        <ele>683.79998779297</ele>
        <time>2022-04-06T09:30:57.705Z</time>
      </trkpt>
      <trkpt lat="44.10221" lon="5.97793">
        <ele>684</ele>
        <time>2022-04-06T09:31:02.555Z</time>
      </trkpt>
      <trkpt lat="44.10212" lon="5.97778">
        <ele>685.20001220703</ele>
        <time>2022-04-06T09:31:07.409Z</time>
      </trkpt>
      <trkpt lat="44.10211" lon="5.97775">
        <ele>685.40002441406</ele>
        <time>2022-04-06T09:31:12.264Z</time>
      </trkpt>
      <trkpt lat="44.10208" lon="5.97764">
        <ele>686.40002441406</ele>
        <time>2022-04-06T09:31:17.122Z</time>
      </trkpt>
      <trkpt lat="44.10205" lon="5.9775">
        <ele>687.79998779297</ele>
        <time>2022-04-06T09:31:21.983Z</time>
      </trkpt>
      <trkpt lat="44.10207" lon="5.97735">
        <ele>689</ele>
        <time>2022-04-06T09:31:26.848Z</time>
      </trkpt>
      <trkpt lat="44.10208" lon="5.97732">
        <ele>689.40002441406</ele>
        <time>2022-04-06T09:31:31.713Z</time>
      </trkpt>
      <trkpt lat="44.1021" lon="5.97725">
        <ele>690</ele>
        <time>2022-04-06T09:31:36.580Z</time>
      </trkpt>
      <trkpt lat="44.10212" lon="5.97723">
        <ele>690.59997558594</ele>
        <time>2022-04-06T09:31:41.448Z</time>
      </trkpt>
      <trkpt lat="44.10214" lon="5.97722">
        <ele>691</ele>
        <time>2022-04-06T09:31:46.316Z</time>
      </trkpt>
      <trkpt lat="44.10216" lon="5.97721">
        <ele>691.59997558594</ele>
        <time>2022-04-06T09:31:51.185Z</time>
      </trkpt>
      <trkpt lat="44.1022" lon="5.97719">
        <ele>692.59997558594</ele>
        <time>2022-04-06T09:31:56.055Z</time>
      </trkpt>
      <trkpt lat="44.10224" lon="5.97718">
        <ele>693.59997558594</ele>
        <time>2022-04-06T09:32:00.927Z</time>
      </trkpt>
      <trkpt lat="44.10227" lon="5.97718">
        <ele>694</ele>
        <time>2022-04-06T09:32:05.800Z</time>
      </trkpt>
      <trkpt lat="44.10229" lon="5.97719">
        <ele>694.59997558594</ele>
        <time>2022-04-06T09:32:10.673Z</time>
      </trkpt>
      <trkpt lat="44.10231" lon="5.9772">
        <ele>695</ele>
        <time>2022-04-06T09:32:15.547Z</time>
      </trkpt>
      <trkpt lat="44.10234" lon="5.97725">
        <ele>695.40002441406</ele>
        <time>2022-04-06T09:32:20.422Z</time>
      </trkpt>
      <trkpt lat="44.10235" lon="5.9773">
        <ele>696.20001220703</ele>
        <time>2022-04-06T09:32:25.299Z</time>
      </trkpt>
      <trkpt lat="44.10237" lon="5.97738">
        <ele>697.20001220703</ele>
        <time>2022-04-06T09:32:30.178Z</time>
      </trkpt>
      <trkpt lat="44.10239" lon="5.9774">
        <ele>697.20001220703</ele>
        <time>2022-04-06T09:32:35.057Z</time>
      </trkpt>
      <trkpt lat="44.10254" lon="5.97747">
        <ele>697.59997558594</ele>
        <time>2022-04-06T09:32:39.941Z</time>
      </trkpt>
      <trkpt lat="44.10272" lon="5.97751">
        <ele>697.20001220703</ele>
        <time>2022-04-06T09:32:44.831Z</time>
      </trkpt>
      <trkpt lat="44.10282" lon="5.97745">
        <ele>697.79998779297</ele>
        <time>2022-04-06T09:32:49.724Z</time>
      </trkpt>
      <trkpt lat="44.10283" lon="5.97741">
        <ele>697.79998779297</ele>
        <time>2022-04-06T09:32:54.618Z</time>
      </trkpt>
      <trkpt lat="44.10283" lon="5.97733">
        <ele>698</ele>
        <time>2022-04-06T09:32:59.514Z</time>
      </trkpt>
      <trkpt lat="44.1028" lon="5.97728">
        <ele>698.40002441406</ele>
        <time>2022-04-06T09:33:04.412Z</time>
      </trkpt>
      <trkpt lat="44.10278" lon="5.97726">
        <ele>699</ele>
        <time>2022-04-06T09:33:09.310Z</time>
      </trkpt>
      <trkpt lat="44.10276" lon="5.97724">
        <ele>699.59997558594</ele>
        <time>2022-04-06T09:33:14.209Z</time>
      </trkpt>
      <trkpt lat="44.10274" lon="5.97722">
        <ele>700</ele>
        <time>2022-04-06T09:33:19.109Z</time>
      </trkpt>
      <trkpt lat="44.10271" lon="5.97717">
        <ele>701</ele>
        <time>2022-04-06T09:33:24.010Z</time>
      </trkpt>
      <trkpt lat="44.10265" lon="5.97712">
        <ele>702.20001220703</ele>
        <time>2022-04-06T09:33:28.914Z</time>
      </trkpt>
      <trkpt lat="44.10264" lon="5.97709">
        <ele>702.59997558594</ele>
        <time>2022-04-06T09:33:33.818Z</time>
      </trkpt>
      <trkpt lat="44.10263" lon="5.97706">
        <ele>703.20001220703</ele>
        <time>2022-04-06T09:33:38.723Z</time>
      </trkpt>
      <trkpt lat="44.10262" lon="5.97703">
        <ele>703.40002441406</ele>
        <time>2022-04-06T09:33:43.629Z</time>
      </trkpt>
      <trkpt lat="44.1026" lon="5.97692">
        <ele>704.79998779297</ele>
        <time>2022-04-06T09:33:48.537Z</time>
      </trkpt>
      <trkpt lat="44.10259" lon="5.97689">
        <ele>705.20001220703</ele>
        <time>2022-04-06T09:33:53.446Z</time>
      </trkpt>
      <trkpt lat="44.10259" lon="5.97677">
        <ele>706</ele>
        <time>2022-04-06T09:33:58.358Z</time>
      </trkpt>
      <trkpt lat="44.10257" lon="5.97669">
        <ele>706.59997558594</ele>
        <time>2022-04-06T09:34:03.272Z</time>
      </trkpt>
      <trkpt lat="44.10257" lon="5.97665">
        <ele>707.20001220703</ele>
        <time>2022-04-06T09:34:08.187Z</time>
      </trkpt>
      <trkpt lat="44.10257" lon="5.9765">
        <ele>708.59997558594</ele>
        <time>2022-04-06T09:34:13.105Z</time>
      </trkpt>
      <trkpt lat="44.10257" lon="5.97642">
        <ele>709.59997558594</ele>
        <time>2022-04-06T09:34:18.025Z</time>
      </trkpt>
      <trkpt lat="44.10256" lon="5.97639">
        <ele>710</ele>
        <time>2022-04-06T09:34:22.946Z</time>
      </trkpt>
      <trkpt lat="44.10255" lon="5.97628">
        <ele>711.20001220703</ele>
        <time>2022-04-06T09:34:27.869Z</time>
      </trkpt>
      <trkpt lat="44.10253" lon="5.97622">
        <ele>712</ele>
        <time>2022-04-06T09:34:32.794Z</time>
      </trkpt>
      <trkpt lat="44.10252" lon="5.97619">
        <ele>712.59997558594</ele>
        <time>2022-04-06T09:34:37.719Z</time>
      </trkpt>
      <trkpt lat="44.10245" lon="5.9761">
        <ele>713.79998779297</ele>
        <time>2022-04-06T09:34:42.648Z</time>
      </trkpt>
      <trkpt lat="44.10243" lon="5.97607">
        <ele>713.79998779297</ele>
        <time>2022-04-06T09:34:47.577Z</time>
      </trkpt>
      <trkpt lat="44.10237" lon="5.97599">
        <ele>714.59997558594</ele>
        <time>2022-04-06T09:34:52.509Z</time>
      </trkpt>
      <trkpt lat="44.1023" lon="5.9759">
        <ele>715.59997558594</ele>
        <time>2022-04-06T09:34:57.444Z</time>
      </trkpt>
      <trkpt lat="44.10221" lon="5.97579">
        <ele>716.79998779297</ele>
        <time>2022-04-06T09:35:02.383Z</time>
      </trkpt>
      <trkpt lat="44.10217" lon="5.97571">
        <ele>717.59997558594</ele>
        <time>2022-04-06T09:35:07.324Z</time>
      </trkpt>
      <trkpt lat="44.10216" lon="5.97569">
        <ele>718</ele>
        <time>2022-04-06T09:35:12.266Z</time>
      </trkpt>
      <trkpt lat="44.10216" lon="5.97565">
        <ele>718.40002441406</ele>
        <time>2022-04-06T09:35:17.208Z</time>
      </trkpt>
      <trkpt lat="44.10217" lon="5.97559">
        <ele>719</ele>
        <time>2022-04-06T09:35:22.152Z</time>
      </trkpt>
      <trkpt lat="44.10224" lon="5.97554">
        <ele>720.20001220703</ele>
        <time>2022-04-06T09:35:27.099Z</time>
      </trkpt>
      <trkpt lat="44.10231" lon="5.97555">
        <ele>720.79998779297</ele>
        <time>2022-04-06T09:35:32.048Z</time>
      </trkpt>
      <trkpt lat="44.10235" lon="5.97558">
        <ele>721.20001220703</ele>
        <time>2022-04-06T09:35:36.998Z</time>
      </trkpt>
      <trkpt lat="44.10241" lon="5.97564">
        <ele>722.20001220703</ele>
        <time>2022-04-06T09:35:41.950Z</time>
      </trkpt>
      <trkpt lat="44.10243" lon="5.97564">
        <ele>722.40002441406</ele>
        <time>2022-04-06T09:35:46.903Z</time>
      </trkpt>
      <trkpt lat="44.10245" lon="5.97565">
        <ele>722.79998779297</ele>
        <time>2022-04-06T09:35:51.857Z</time>
      </trkpt>
      <trkpt lat="44.10249" lon="5.97566">
        <ele>723.20001220703</ele>
        <time>2022-04-06T09:35:56.812Z</time>
      </trkpt>
      <trkpt lat="44.1025" lon="5.97567">
        <ele>723.40002441406</ele>
        <time>2022-04-06T09:36:01.767Z</time>
      </trkpt>
      <trkpt lat="44.10252" lon="5.97567">
        <ele>723.79998779297</ele>
        <time>2022-04-06T09:36:06.723Z</time>
      </trkpt>
      <trkpt lat="44.10253" lon="5.97568">
        <ele>724</ele>
        <time>2022-04-06T09:36:11.679Z</time>
      </trkpt>
      <trkpt lat="44.10254" lon="5.97568">
        <ele>724.20001220703</ele>
        <time>2022-04-06T09:36:16.636Z</time>
      </trkpt>
      <trkpt lat="44.10259" lon="5.97573">
        <ele>723.79998779297</ele>
        <time>2022-04-06T09:36:21.594Z</time>
      </trkpt>
      <trkpt lat="44.1026" lon="5.97578">
        <ele>723.79998779297</ele>
        <time>2022-04-06T09:36:26.554Z</time>
      </trkpt>
      <trkpt lat="44.10266" lon="5.97597">
        <ele>722.59997558594</ele>
        <time>2022-04-06T09:36:31.518Z</time>
      </trkpt>
      <trkpt lat="44.10268" lon="5.97604">
        <ele>721.40002441406</ele>
        <time>2022-04-06T09:36:36.484Z</time>
      </trkpt>
      <trkpt lat="44.10268" lon="5.9761">
        <ele>720.40002441406</ele>
        <time>2022-04-06T09:36:41.451Z</time>
      </trkpt>
      <trkpt lat="44.10268" lon="5.97623">
        <ele>718.79998779297</ele>
        <time>2022-04-06T09:36:46.421Z</time>
      </trkpt>
      <trkpt lat="44.1027" lon="5.97635">
        <ele>717.79998779297</ele>
        <time>2022-04-06T09:36:51.394Z</time>
      </trkpt>
      <trkpt lat="44.1027" lon="5.97641">
        <ele>717</ele>
        <time>2022-04-06T09:36:56.369Z</time>
      </trkpt>
      <trkpt lat="44.10271" lon="5.97646">
        <ele>716</ele>
        <time>2022-04-06T09:37:01.345Z</time>
      </trkpt>
      <trkpt lat="44.10273" lon="5.97651">
        <ele>715</ele>
        <time>2022-04-06T09:37:06.322Z</time>
      </trkpt>
      <trkpt lat="44.10276" lon="5.97657">
        <ele>714.59997558594</ele>
        <time>2022-04-06T09:37:11.301Z</time>
      </trkpt>
      <trkpt lat="44.10283" lon="5.97667">
        <ele>713.79998779297</ele>
        <time>2022-04-06T09:37:16.283Z</time>
      </trkpt>
      <trkpt lat="44.10285" lon="5.97674">
        <ele>712.79998779297</ele>
        <time>2022-04-06T09:37:21.267Z</time>
      </trkpt>
      <trkpt lat="44.10286" lon="5.97681">
        <ele>712.20001220703</ele>
        <time>2022-04-06T09:37:26.252Z</time>
      </trkpt>
      <trkpt lat="44.10287" lon="5.97687">
        <ele>711.59997558594</ele>
        <time>2022-04-06T09:37:31.239Z</time>
      </trkpt>
      <trkpt lat="44.10288" lon="5.97693">
        <ele>710.79998779297</ele>
        <time>2022-04-06T09:37:36.227Z</time>
      </trkpt>
      <trkpt lat="44.10288" lon="5.97697">
        <ele>709.79998779297</ele>
        <time>2022-04-06T09:37:41.216Z</time>
      </trkpt>
      <trkpt lat="44.10287" lon="5.977">
        <ele>709</ele>
        <time>2022-04-06T09:37:46.206Z</time>
      </trkpt>
      <trkpt lat="44.10287" lon="5.97708">
        <ele>707.20001220703</ele>
        <time>2022-04-06T09:37:51.197Z</time>
      </trkpt>
      <trkpt lat="44.10289" lon="5.97709">
        <ele>706</ele>
        <time>2022-04-06T09:37:56.189Z</time>
      </trkpt>
      <trkpt lat="44.10291" lon="5.97711">
        <ele>704.79998779297</ele>
        <time>2022-04-06T09:38:01.182Z</time>
      </trkpt>
      <trkpt lat="44.10294" lon="5.97718">
        <ele>703.59997558594</ele>
        <time>2022-04-06T09:38:06.177Z</time>
      </trkpt>
      <trkpt lat="44.10298" lon="5.97724">
        <ele>702.20001220703</ele>
        <time>2022-04-06T09:38:11.174Z</time>
      </trkpt>
      <trkpt lat="44.10302" lon="5.97728">
        <ele>701</ele>
        <time>2022-04-06T09:38:16.172Z</time>
      </trkpt>
      <trkpt lat="44.10305" lon="5.9773">
        <ele>699.79998779297</ele>
        <time>2022-04-06T09:38:21.171Z</time>
      </trkpt>
      <trkpt lat="44.10309" lon="5.97736">
        <ele>698.40002441406</ele>
        <time>2022-04-06T09:38:26.172Z</time>
      </trkpt>
      <trkpt lat="44.10311" lon="5.97746">
        <ele>697.40002441406</ele>
        <time>2022-04-06T09:38:31.175Z</time>
      </trkpt>
      <trkpt lat="44.10311" lon="5.9775">
        <ele>696.20001220703</ele>
        <time>2022-04-06T09:38:36.179Z</time>
      </trkpt>
      <trkpt lat="44.10313" lon="5.97753">
        <ele>694.79998779297</ele>
        <time>2022-04-06T09:38:41.184Z</time>
      </trkpt>
      <trkpt lat="44.10317" lon="5.97756">
        <ele>693.59997558594</ele>
        <time>2022-04-06T09:38:46.191Z</time>
      </trkpt>
      <trkpt lat="44.1032" lon="5.97759">
        <ele>691.59997558594</ele>
        <time>2022-04-06T09:38:51.199Z</time>
      </trkpt>
      <trkpt lat="44.10324" lon="5.97761">
        <ele>690.20001220703</ele>
        <time>2022-04-06T09:38:56.208Z</time>
      </trkpt>
      <trkpt lat="44.10329" lon="5.97763">
        <ele>688.79998779297</ele>
        <time>2022-04-06T09:39:01.219Z</time>
      </trkpt>
      <trkpt lat="44.10333" lon="5.97766">
        <ele>687.79998779297</ele>
        <time>2022-04-06T09:39:06.231Z</time>
      </trkpt>
      <trkpt lat="44.10337" lon="5.97769">
        <ele>686.79998779297</ele>
        <time>2022-04-06T09:39:11.245Z</time>
      </trkpt>
      <trkpt lat="44.10345" lon="5.97776">
        <ele>685.20001220703</ele>
        <time>2022-04-06T09:39:16.262Z</time>
      </trkpt>
      <trkpt lat="44.10348" lon="5.9778">
        <ele>684.40002441406</ele>
        <time>2022-04-06T09:39:21.280Z</time>
      </trkpt>
      <trkpt lat="44.10349" lon="5.97785">
        <ele>683.40002441406</ele>
        <time>2022-04-06T09:39:26.299Z</time>
      </trkpt>
      <trkpt lat="44.10351" lon="5.97795">
        <ele>682</ele>
        <time>2022-04-06T09:39:31.321Z</time>
      </trkpt>
      <trkpt lat="44.10351" lon="5.978">
        <ele>681</ele>
        <time>2022-04-06T09:39:36.344Z</time>
      </trkpt>
      <trkpt lat="44.10352" lon="5.97804">
        <ele>679.59997558594</ele>
        <time>2022-04-06T09:39:41.368Z</time>
      </trkpt>
      <trkpt lat="44.10352" lon="5.97806">
        <ele>678.59997558594</ele>
        <time>2022-04-06T09:39:46.392Z</time>
      </trkpt>
      <trkpt lat="44.10349" lon="5.9781">
        <ele>677.40002441406</ele>
        <time>2022-04-06T09:39:51.418Z</time>
      </trkpt>
      <trkpt lat="44.10346" lon="5.97814">
        <ele>676.40002441406</ele>
        <time>2022-04-06T09:39:56.445Z</time>
      </trkpt>
      <trkpt lat="44.10345" lon="5.97819">
        <ele>675.59997558594</ele>
        <time>2022-04-06T09:40:01.473Z</time>
      </trkpt>
      <trkpt lat="44.10346" lon="5.97825">
        <ele>675.20001220703</ele>
        <time>2022-04-06T09:40:06.503Z</time>
      </trkpt>
      <trkpt lat="44.10348" lon="5.97831">
        <ele>674.40002441406</ele>
        <time>2022-04-06T09:40:11.534Z</time>
      </trkpt>
      <trkpt lat="44.1035" lon="5.97836">
        <ele>673.40002441406</ele>
        <time>2022-04-06T09:40:16.566Z</time>
      </trkpt>
      <trkpt lat="44.10352" lon="5.97844">
        <ele>672.20001220703</ele>
        <time>2022-04-06T09:40:21.600Z</time>
      </trkpt>
      <trkpt lat="44.10356" lon="5.97848">
        <ele>671.40002441406</ele>
        <time>2022-04-06T09:40:26.636Z</time>
      </trkpt>
      <trkpt lat="44.10359" lon="5.97852">
        <ele>671</ele>
        <time>2022-04-06T09:40:31.673Z</time>
      </trkpt>
      <trkpt lat="44.10362" lon="5.9786">
        <ele>669.79998779297</ele>
        <time>2022-04-06T09:40:36.712Z</time>
      </trkpt>
      <trkpt lat="44.10363" lon="5.97877">
        <ele>669</ele>
        <time>2022-04-06T09:40:41.755Z</time>
      </trkpt>
      <trkpt lat="44.10362" lon="5.97884">
        <ele>668.40002441406</ele>
        <time>2022-04-06T09:40:46.800Z</time>
      </trkpt>
      <trkpt lat="44.10362" lon="5.97893">
        <ele>667.59997558594</ele>
        <time>2022-04-06T09:40:51.847Z</time>
      </trkpt>
      <trkpt lat="44.10363" lon="5.97902">
        <ele>666.59997558594</ele>
        <time>2022-04-06T09:40:56.896Z</time>
      </trkpt>
      <trkpt lat="44.10363" lon="5.9791">
        <ele>665.79998779297</ele>
        <time>2022-04-06T09:41:01.947Z</time>
      </trkpt>
      <trkpt lat="44.10361" lon="5.97919">
        <ele>664.79998779297</ele>
        <time>2022-04-06T09:41:07.000Z</time>
      </trkpt>
      <trkpt lat="44.10358" lon="5.97928">
        <ele>663.59997558594</ele>
        <time>2022-04-06T09:41:12.055Z</time>
      </trkpt>
      <trkpt lat="44.10356" lon="5.97936">
        <ele>663</ele>
        <time>2022-04-06T09:41:17.112Z</time>
      </trkpt>
      <trkpt lat="44.10353" lon="5.97945">
        <ele>662.20001220703</ele>
        <time>2022-04-06T09:41:22.171Z</time>
      </trkpt>
      <trkpt lat="44.1035" lon="5.97962">
        <ele>660.40002441406</ele>
        <time>2022-04-06T09:41:27.234Z</time>
      </trkpt>
      <trkpt lat="44.10349" lon="5.97979">
        <ele>659.20001220703</ele>
        <time>2022-04-06T09:41:32.301Z</time>
      </trkpt>
      <trkpt lat="44.10345" lon="5.97993">
        <ele>657.20001220703</ele>
        <time>2022-04-06T09:41:37.371Z</time>
      </trkpt>
      <trkpt lat="44.10339" lon="5.98008">
        <ele>655.79998779297</ele>
        <time>2022-04-06T09:41:42.445Z</time>
      </trkpt>
      <trkpt lat="44.10331" lon="5.98019">
        <ele>653.79998779297</ele>
        <time>2022-04-06T09:41:47.523Z</time>
      </trkpt>
      <trkpt lat="44.10329" lon="5.98023">
        <ele>653</ele>
        <time>2022-04-06T09:41:52.602Z</time>
      </trkpt>
      <trkpt lat="44.10328" lon="5.98029">
        <ele>652</ele>
        <time>2022-04-06T09:41:57.682Z</time>
      </trkpt>
      <trkpt lat="44.10328" lon="5.98036">
        <ele>651.40002441406</ele>
        <time>2022-04-06T09:42:02.764Z</time>
      </trkpt>
      <trkpt lat="44.10327" lon="5.98043">
        <ele>650.79998779297</ele>
        <time>2022-04-06T09:42:07.848Z</time>
      </trkpt>
      <trkpt lat="44.10323" lon="5.98056">
        <ele>648.79998779297</ele>
        <time>2022-04-06T09:42:12.935Z</time>
      </trkpt>
      <trkpt lat="44.10321" lon="5.98063">
        <ele>647.79998779297</ele>
        <time>2022-04-06T09:42:18.024Z</time>
      </trkpt>
      <trkpt lat="44.10317" lon="5.98072">
        <ele>646</ele>
        <time>2022-04-06T09:42:23.115Z</time>
      </trkpt>
      <trkpt lat="44.1031" lon="5.98077">
        <ele>644.20001220703</ele>
        <time>2022-04-06T09:42:28.208Z</time>
      </trkpt>
      <trkpt lat="44.10307" lon="5.98081">
        <ele>643.59997558594</ele>
        <time>2022-04-06T09:42:33.303Z</time>
      </trkpt>
      <trkpt lat="44.10305" lon="5.98086">
        <ele>643</ele>
        <time>2022-04-06T09:42:38.399Z</time>
      </trkpt>
      <trkpt lat="44.10301" lon="5.98095">
        <ele>641.59997558594</ele>
        <time>2022-04-06T09:42:43.497Z</time>
      </trkpt>
      <trkpt lat="44.10298" lon="5.98097">
        <ele>640.40002441406</ele>
        <time>2022-04-06T09:42:48.597Z</time>
      </trkpt>
      <trkpt lat="44.10296" lon="5.98095">
        <ele>639.40002441406</ele>
        <time>2022-04-06T09:42:53.697Z</time>
      </trkpt>
      <trkpt lat="44.10295" lon="5.98092">
        <ele>638.40002441406</ele>
        <time>2022-04-06T09:42:58.798Z</time>
      </trkpt>
      <trkpt lat="44.10295" lon="5.98089">
        <ele>637.40002441406</ele>
        <time>2022-04-06T09:43:03.900Z</time>
      </trkpt>
      <trkpt lat="44.10291" lon="5.9809">
        <ele>636</ele>
        <time>2022-04-06T09:43:09.003Z</time>
      </trkpt>
      <trkpt lat="44.10284" lon="5.98094">
        <ele>634.59997558594</ele>
        <time>2022-04-06T09:43:14.109Z</time>
      </trkpt>
      <trkpt lat="44.1028" lon="5.98095">
        <ele>633.40002441406</ele>
        <time>2022-04-06T09:43:19.216Z</time>
      </trkpt>
      <trkpt lat="44.10275" lon="5.98095">
        <ele>631.79998779297</ele>
        <time>2022-04-06T09:43:24.325Z</time>
      </trkpt>
      <trkpt lat="44.1027" lon="5.98097">
        <ele>630.59997558594</ele>
        <time>2022-04-06T09:43:29.435Z</time>
      </trkpt>
      <trkpt lat="44.10262" lon="5.98101">
        <ele>629.40002441406</ele>
        <time>2022-04-06T09:43:34.548Z</time>
      </trkpt>
      <trkpt lat="44.10253" lon="5.98106">
        <ele>629</ele>
        <time>2022-04-06T09:43:39.664Z</time>
      </trkpt>
      <trkpt lat="44.10241" lon="5.98122">
        <ele>628.20001220703</ele>
        <time>2022-04-06T09:43:44.785Z</time>
      </trkpt>
      <trkpt lat="44.10234" lon="5.98133">
        <ele>627</ele>
        <time>2022-04-06T09:43:49.910Z</time>
      </trkpt>
      <trkpt lat="44.10231" lon="5.98138">
        <ele>626.40002441406</ele>
        <time>2022-04-06T09:43:55.036Z</time>
      </trkpt>
      <trkpt lat="44.1023" lon="5.98142">
        <ele>625.59997558594</ele>
        <time>2022-04-06T09:44:00.163Z</time>
      </trkpt>
      <trkpt lat="44.10229" lon="5.98147">
        <ele>624.59997558594</ele>
        <time>2022-04-06T09:44:05.291Z</time>
      </trkpt>
      <trkpt lat="44.10228" lon="5.98147">
        <ele>624.40002441406</ele>
        <time>2022-04-06T09:44:10.419Z</time>
      </trkpt>
      <trkpt lat="44.10227" lon="5.98155">
        <ele>624.20001220703</ele>
        <time>2022-04-06T09:44:15.549Z</time>
      </trkpt>
      <trkpt lat="44.10227" lon="5.98161">
        <ele>624</ele>
        <time>2022-04-06T09:44:20.680Z</time>
      </trkpt>
      <trkpt lat="44.10227" lon="5.98184">
        <ele>625</ele>
        <time>2022-04-06T09:44:25.817Z</time>
      </trkpt>
      <trkpt lat="44.10221" lon="5.98202">
        <ele>625.59997558594</ele>
        <time>2022-04-06T09:44:30.958Z</time>
      </trkpt>
      <trkpt lat="44.10218" lon="5.98222">
        <ele>625</ele>
        <time>2022-04-06T09:44:36.104Z</time>
      </trkpt>
      <trkpt lat="44.10217" lon="5.98232">
        <ele>625</ele>
        <time>2022-04-06T09:44:41.252Z</time>
      </trkpt>
      <trkpt lat="44.10216" lon="5.98246">
        <ele>625</ele>
        <time>2022-04-06T09:44:46.403Z</time>
      </trkpt>
      <trkpt lat="44.10215" lon="5.98253">
        <ele>624.79998779297</ele>
        <time>2022-04-06T09:44:51.556Z</time>
      </trkpt>
      <trkpt lat="44.10215" lon="5.98274">
        <ele>624.59997558594</ele>
        <time>2022-04-06T09:44:56.714Z</time>
      </trkpt>
      <trkpt lat="44.10208" lon="5.98292">
        <ele>623.79998779297</ele>
        <time>2022-04-06T09:45:01.876Z</time>
      </trkpt>
      <trkpt lat="44.10205" lon="5.98298">
        <ele>623.59997558594</ele>
        <time>2022-04-06T09:45:07.040Z</time>
      </trkpt>
      <trkpt lat="44.10202" lon="5.98304">
        <ele>622.79998779297</ele>
        <time>2022-04-06T09:45:12.206Z</time>
      </trkpt>
      <trkpt lat="44.10196" lon="5.98318">
        <ele>622</ele>
        <time>2022-04-06T09:45:17.375Z</time>
      </trkpt>
      <trkpt lat="44.10195" lon="5.98321">
        <ele>622</ele>
        <time>2022-04-06T09:45:22.545Z</time>
      </trkpt>
      <trkpt lat="44.10188" lon="5.98332">
        <ele>621.40002441406</ele>
        <time>2022-04-06T09:45:27.719Z</time>
      </trkpt>
      <trkpt lat="44.10185" lon="5.98336">
        <ele>621</ele>
        <time>2022-04-06T09:45:32.894Z</time>
      </trkpt>
      <trkpt lat="44.10179" lon="5.9835">
        <ele>619.79998779297</ele>
        <time>2022-04-06T09:45:38.073Z</time>
      </trkpt>
      <trkpt lat="44.10176" lon="5.98356">
        <ele>619.59997558594</ele>
        <time>2022-04-06T09:45:43.253Z</time>
      </trkpt>
      <trkpt lat="44.10173" lon="5.98362">
        <ele>619</ele>
        <time>2022-04-06T09:45:48.435Z</time>
      </trkpt>
      <trkpt lat="44.10164" lon="5.98381">
        <ele>617.59997558594</ele>
        <time>2022-04-06T09:45:53.622Z</time>
      </trkpt>
      <trkpt lat="44.10162" lon="5.98388">
        <ele>617.40002441406</ele>
        <time>2022-04-06T09:45:58.811Z</time>
      </trkpt>
      <trkpt lat="44.10159" lon="5.98392">
        <ele>617</ele>
        <time>2022-04-06T09:46:04.001Z</time>
      </trkpt>
      <trkpt lat="44.10158" lon="5.98395">
        <ele>616.79998779297</ele>
        <time>2022-04-06T09:46:09.192Z</time>
      </trkpt>
      <trkpt lat="44.10157" lon="5.98397">
        <ele>616.20001220703</ele>
        <time>2022-04-06T09:46:14.383Z</time>
      </trkpt>
      <trkpt lat="44.10155" lon="5.98396">
        <ele>616.20001220703</ele>
        <time>2022-04-06T09:46:19.575Z</time>
      </trkpt>
      <trkpt lat="44.10147" lon="5.98405">
        <ele>615.40002441406</ele>
        <time>2022-04-06T09:46:24.770Z</time>
      </trkpt>
      <trkpt lat="44.10144" lon="5.98411">
        <ele>615</ele>
        <time>2022-04-06T09:46:29.967Z</time>
      </trkpt>
      <trkpt lat="44.10142" lon="5.98417">
        <ele>614.79998779297</ele>
        <time>2022-04-06T09:46:35.165Z</time>
      </trkpt>
      <trkpt lat="44.1014" lon="5.98419">
        <ele>614.59997558594</ele>
        <time>2022-04-06T09:46:40.364Z</time>
      </trkpt>
      <trkpt lat="44.10137" lon="5.98422">
        <ele>614</ele>
        <time>2022-04-06T09:46:45.564Z</time>
      </trkpt>
      <trkpt lat="44.10131" lon="5.98419">
        <ele>613</ele>
        <time>2022-04-06T09:46:50.766Z</time>
      </trkpt>
      <trkpt lat="44.10126" lon="5.98419">
        <ele>612.20001220703</ele>
        <time>2022-04-06T09:46:55.970Z</time>
      </trkpt>
      <trkpt lat="44.10122" lon="5.98419">
        <ele>611.59997558594</ele>
        <time>2022-04-06T09:47:01.175Z</time>
      </trkpt>
      <trkpt lat="44.10118" lon="5.9842">
        <ele>611</ele>
        <time>2022-04-06T09:47:06.381Z</time>
      </trkpt>
      <trkpt lat="44.10112" lon="5.98424">
        <ele>610.20001220703</ele>
        <time>2022-04-06T09:47:11.589Z</time>
      </trkpt>
      <trkpt lat="44.10108" lon="5.98425">
        <ele>610</ele>
        <time>2022-04-06T09:47:16.799Z</time>
      </trkpt>
      <trkpt lat="44.10096" lon="5.98424">
        <ele>609</ele>
        <time>2022-04-06T09:47:22.012Z</time>
      </trkpt>
      <trkpt lat="44.10092" lon="5.98423">
        <ele>608.20001220703</ele>
        <time>2022-04-06T09:47:27.227Z</time>
      </trkpt>
      <trkpt lat="44.10087" lon="5.98422">
        <ele>607.40002441406</ele>
        <time>2022-04-06T09:47:32.443Z</time>
      </trkpt>
      <trkpt lat="44.10082" lon="5.9842">
        <ele>606.59997558594</ele>
        <time>2022-04-06T09:47:37.661Z</time>
      </trkpt>
      <trkpt lat="44.10077" lon="5.98421">
        <ele>605.79998779297</ele>
        <time>2022-04-06T09:47:42.881Z</time>
      </trkpt>
      <trkpt lat="44.10073" lon="5.98423">
        <ele>605.20001220703</ele>
        <time>2022-04-06T09:47:48.102Z</time>
      </trkpt>
      <trkpt lat="44.10061" lon="5.98427">
        <ele>604.20001220703</ele>
        <time>2022-04-06T09:47:53.327Z</time>
      </trkpt>
      <trkpt lat="44.10056" lon="5.98428">
        <ele>603.59997558594</ele>
        <time>2022-04-06T09:47:58.554Z</time>
      </trkpt>
      <trkpt lat="44.10051" lon="5.98432">
        <ele>602.79998779297</ele>
        <time>2022-04-06T09:48:03.782Z</time>
      </trkpt>
      <trkpt lat="44.10042" lon="5.98437">
        <ele>600.79998779297</ele>
        <time>2022-04-06T09:48:09.013Z</time>
      </trkpt>
      <trkpt lat="44.10038" lon="5.9844">
        <ele>599.79998779297</ele>
        <time>2022-04-06T09:48:14.246Z</time>
      </trkpt>
      <trkpt lat="44.10035" lon="5.98444">
        <ele>599</ele>
        <time>2022-04-06T09:48:19.480Z</time>
      </trkpt>
      <trkpt lat="44.10032" lon="5.98446">
        <ele>598.59997558594</ele>
        <time>2022-04-06T09:48:24.715Z</time>
      </trkpt>
      <trkpt lat="44.10027" lon="5.9845">
        <ele>598.20001220703</ele>
        <time>2022-04-06T09:48:29.952Z</time>
      </trkpt>
      <trkpt lat="44.10017" lon="5.98456">
        <ele>597.79998779297</ele>
        <time>2022-04-06T09:48:35.193Z</time>
      </trkpt>
      <trkpt lat="44.10004" lon="5.9846">
        <ele>596.59997558594</ele>
        <time>2022-04-06T09:48:40.438Z</time>
      </trkpt>
      <trkpt lat="44.09997" lon="5.98464">
        <ele>596</ele>
        <time>2022-04-06T09:48:45.685Z</time>
      </trkpt>
      <trkpt lat="44.09993" lon="5.98467">
        <ele>595.59997558594</ele>
        <time>2022-04-06T09:48:50.934Z</time>
      </trkpt>
      <trkpt lat="44.09987" lon="5.98472">
        <ele>595.20001220703</ele>
        <time>2022-04-06T09:48:56.185Z</time>
      </trkpt>
      <trkpt lat="44.09983" lon="5.98476">
        <ele>595</ele>
        <time>2022-04-06T09:49:01.437Z</time>
      </trkpt>
      <trkpt lat="44.0997" lon="5.98484">
        <ele>594.20001220703</ele>
        <time>2022-04-06T09:49:06.694Z</time>
      </trkpt>
      <trkpt lat="44.09964" lon="5.98486">
        <ele>593.59997558594</ele>
        <time>2022-04-06T09:49:11.953Z</time>
      </trkpt>
      <trkpt lat="44.09956" lon="5.98489">
        <ele>592.40002441406</ele>
        <time>2022-04-06T09:49:17.214Z</time>
      </trkpt>
      <trkpt lat="44.0995" lon="5.98491">
        <ele>591.40002441406</ele>
        <time>2022-04-06T09:49:22.477Z</time>
      </trkpt>
      <trkpt lat="44.0994" lon="5.98495">
        <ele>590.79998779297</ele>
        <time>2022-04-06T09:49:27.743Z</time>
      </trkpt>
      <trkpt lat="44.09931" lon="5.98496">
        <ele>591</ele>
        <time>2022-04-06T09:49:33.012Z</time>
      </trkpt>
      <trkpt lat="44.09919" lon="5.98502">
        <ele>591</ele>
        <time>2022-04-06T09:49:38.285Z</time>
      </trkpt>
      <trkpt lat="44.09916" lon="5.98505">
        <ele>590.40002441406</ele>
        <time>2022-04-06T09:49:43.560Z</time>
      </trkpt>
      <trkpt lat="44.09911" lon="5.98512">
        <ele>589.40002441406</ele>
        <time>2022-04-06T09:49:48.837Z</time>
      </trkpt>
      <trkpt lat="44.09909" lon="5.98513">
        <ele>588.40002441406</ele>
        <time>2022-04-06T09:49:54.115Z</time>
      </trkpt>
      <trkpt lat="44.09904" lon="5.98513">
        <ele>587</ele>
        <time>2022-04-06T09:49:59.394Z</time>
      </trkpt>
      <trkpt lat="44.09897" lon="5.98513">
        <ele>585.40002441406</ele>
        <time>2022-04-06T09:50:04.675Z</time>
      </trkpt>
      <trkpt lat="44.09892" lon="5.98512">
        <ele>584.20001220703</ele>
        <time>2022-04-06T09:50:09.958Z</time>
      </trkpt>
      <trkpt lat="44.09883" lon="5.98511">
        <ele>583</ele>
        <time>2022-04-06T09:50:15.244Z</time>
      </trkpt>
      <trkpt lat="44.09879" lon="5.98511">
        <ele>582.40002441406</ele>
        <time>2022-04-06T09:50:20.531Z</time>
      </trkpt>
      <trkpt lat="44.09873" lon="5.98511">
        <ele>582.20001220703</ele>
        <time>2022-04-06T09:50:25.820Z</time>
      </trkpt>
      <trkpt lat="44.09858" lon="5.98516">
        <ele>582.40002441406</ele>
        <time>2022-04-06T09:50:31.114Z</time>
      </trkpt>
      <trkpt lat="44.09844" lon="5.98514">
        <ele>582.40002441406</ele>
        <time>2022-04-06T09:50:36.412Z</time>
      </trkpt>
      <trkpt lat="44.0984" lon="5.98515">
        <ele>582</ele>
        <time>2022-04-06T09:50:41.712Z</time>
      </trkpt>
      <trkpt lat="44.09834" lon="5.98518">
        <ele>581.79998779297</ele>
        <time>2022-04-06T09:50:47.014Z</time>
      </trkpt>
      <trkpt lat="44.09829" lon="5.9852">
        <ele>581.79998779297</ele>
        <time>2022-04-06T09:50:52.317Z</time>
      </trkpt>
      <trkpt lat="44.09811" lon="5.98521">
        <ele>581.79998779297</ele>
        <time>2022-04-06T09:50:57.626Z</time>
      </trkpt>
      <trkpt lat="44.09799" lon="5.98516">
        <ele>581</ele>
        <time>2022-04-06T09:51:02.939Z</time>
      </trkpt>
      <trkpt lat="44.09794" lon="5.98512">
        <ele>580</ele>
        <time>2022-04-06T09:51:08.254Z</time>
      </trkpt>
      <trkpt lat="44.09788" lon="5.98509">
        <ele>579.59997558594</ele>
        <time>2022-04-06T09:51:13.571Z</time>
      </trkpt>
      <trkpt lat="44.09773" lon="5.98499">
        <ele>579.59997558594</ele>
        <time>2022-04-06T09:51:18.893Z</time>
      </trkpt>
      <trkpt lat="44.09766" lon="5.98498">
        <ele>578.79998779297</ele>
        <time>2022-04-06T09:51:24.217Z</time>
      </trkpt>
      <trkpt lat="44.09759" lon="5.98499">
        <ele>578</ele>
        <time>2022-04-06T09:51:29.543Z</time>
      </trkpt>
      <trkpt lat="44.09748" lon="5.98503">
        <ele>578.20001220703</ele>
        <time>2022-04-06T09:51:34.873Z</time>
      </trkpt>
      <trkpt lat="44.09743" lon="5.98506">
        <ele>578.40002441406</ele>
        <time>2022-04-06T09:51:40.205Z</time>
      </trkpt>
      <trkpt lat="44.09738" lon="5.98508">
        <ele>578.59997558594</ele>
        <time>2022-04-06T09:51:45.538Z</time>
      </trkpt>
      <trkpt lat="44.09726" lon="5.98515">
        <ele>578.40002441406</ele>
        <time>2022-04-06T09:51:50.876Z</time>
      </trkpt>
      <trkpt lat="44.09719" lon="5.98516">
        <ele>577.79998779297</ele>
        <time>2022-04-06T09:51:56.216Z</time>
      </trkpt>
      <trkpt lat="44.09716" lon="5.98517">
        <ele>577.20001220703</ele>
        <time>2022-04-06T09:52:01.557Z</time>
      </trkpt>
      <trkpt lat="44.09704" lon="5.98521">
        <ele>576</ele>
        <time>2022-04-06T09:52:06.901Z</time>
      </trkpt>
      <trkpt lat="44.09701" lon="5.98524">
        <ele>575.59997558594</ele>
        <time>2022-04-06T09:52:12.247Z</time>
      </trkpt>
      <trkpt lat="44.09691" lon="5.9853">
        <ele>574.40002441406</ele>
        <time>2022-04-06T09:52:17.596Z</time>
      </trkpt>
      <trkpt lat="44.09683" lon="5.98534">
        <ele>573.40002441406</ele>
        <time>2022-04-06T09:52:22.948Z</time>
      </trkpt>
      <trkpt lat="44.0967" lon="5.98539">
        <ele>572.20001220703</ele>
        <time>2022-04-06T09:52:28.304Z</time>
      </trkpt>
      <trkpt lat="44.09662" lon="5.98542">
        <ele>572</ele>
        <time>2022-04-06T09:52:33.663Z</time>
      </trkpt>
      <trkpt lat="44.09657" lon="5.98545">
        <ele>571.79998779297</ele>
        <time>2022-04-06T09:52:39.023Z</time>
      </trkpt>
      <trkpt lat="44.09646" lon="5.98547">
        <ele>571.59997558594</ele>
        <time>2022-04-06T09:52:44.387Z</time>
      </trkpt>
      <trkpt lat="44.09639" lon="5.98546">
        <ele>571.40002441406</ele>
        <time>2022-04-06T09:52:49.753Z</time>
      </trkpt>
      <trkpt lat="44.09638" lon="5.98548">
        <ele>571.40002441406</ele>
        <time>2022-04-06T09:52:55.120Z</time>
      </trkpt>
      <trkpt lat="44.09636" lon="5.98551">
        <ele>571.20001220703</ele>
        <time>2022-04-06T09:53:00.487Z</time>
      </trkpt>
      <trkpt lat="44.09637" lon="5.98545">
        <ele>571.59997558594</ele>
        <time>2022-04-06T09:53:05.856Z</time>
      </trkpt>
      <trkpt lat="44.09636" lon="5.98543">
        <ele>571.79998779297</ele>
        <time>2022-04-06T09:53:11.225Z</time>
      </trkpt>
      <trkpt lat="44.09632" lon="5.98539">
        <ele>572.40002441406</ele>
        <time>2022-04-06T09:53:16.596Z</time>
      </trkpt>
      <trkpt lat="44.09628" lon="5.98536">
        <ele>573.20001220703</ele>
        <time>2022-04-06T09:53:21.969Z</time>
      </trkpt>
      <trkpt lat="44.09621" lon="5.98521">
        <ele>572.59997558594</ele>
        <time>2022-04-06T09:53:27.345Z</time>
      </trkpt>
      <trkpt lat="44.09619" lon="5.9851">
        <ele>571.40002441406</ele>
        <time>2022-04-06T09:53:32.724Z</time>
      </trkpt>
      <trkpt lat="44.09618" lon="5.98502">
        <ele>571.20001220703</ele>
        <time>2022-04-06T09:53:38.105Z</time>
      </trkpt>
      <trkpt lat="44.09614" lon="5.98489">
        <ele>572.59997558594</ele>
        <time>2022-04-06T09:53:43.489Z</time>
      </trkpt>
      <trkpt lat="44.09612" lon="5.98485">
        <ele>573</ele>
        <time>2022-04-06T09:53:48.874Z</time>
      </trkpt>
      <trkpt lat="44.09609" lon="5.98482">
        <ele>573.40002441406</ele>
        <time>2022-04-06T09:53:54.260Z</time>
      </trkpt>
      <trkpt lat="44.09606" lon="5.98481">
        <ele>573.79998779297</ele>
        <time>2022-04-06T09:53:59.647Z</time>
      </trkpt>
      <trkpt lat="44.09601" lon="5.98478">
        <ele>575</ele>
        <time>2022-04-06T09:54:05.036Z</time>
      </trkpt>
      <trkpt lat="44.09598" lon="5.98477">
        <ele>575.59997558594</ele>
        <time>2022-04-06T09:54:10.426Z</time>
      </trkpt>
      <trkpt lat="44.09595" lon="5.98478">
        <ele>576.20001220703</ele>
        <time>2022-04-06T09:54:15.817Z</time>
      </trkpt>
      <trkpt lat="44.0959" lon="5.9848">
        <ele>576.79998779297</ele>
        <time>2022-04-06T09:54:21.210Z</time>
      </trkpt>
      <trkpt lat="44.09587" lon="5.98481">
        <ele>577.20001220703</ele>
        <time>2022-04-06T09:54:26.603Z</time>
      </trkpt>
      <trkpt lat="44.09583" lon="5.98485">
        <ele>578.40002441406</ele>
        <time>2022-04-06T09:54:31.998Z</time>
      </trkpt>
      <trkpt lat="44.0958" lon="5.98486">
        <ele>579</ele>
        <time>2022-04-06T09:54:37.394Z</time>
      </trkpt>
      <trkpt lat="44.09578" lon="5.98485">
        <ele>579.59997558594</ele>
        <time>2022-04-06T09:54:42.791Z</time>
      </trkpt>
      <trkpt lat="44.09571" lon="5.98478">
        <ele>580.59997558594</ele>
        <time>2022-04-06T09:54:48.190Z</time>
      </trkpt>
      <trkpt lat="44.09569" lon="5.98475">
        <ele>580.79998779297</ele>
        <time>2022-04-06T09:54:53.590Z</time>
      </trkpt>
      <trkpt lat="44.09566" lon="5.98468">
        <ele>581.40002441406</ele>
        <time>2022-04-06T09:54:58.992Z</time>
      </trkpt>
      <trkpt lat="44.09565" lon="5.98465">
        <ele>582</ele>
        <time>2022-04-06T09:55:04.395Z</time>
      </trkpt>
      <trkpt lat="44.0956" lon="5.9845">
        <ele>583</ele>
        <time>2022-04-06T09:55:09.802Z</time>
      </trkpt>
      <trkpt lat="44.0956" lon="5.98447">
        <ele>583</ele>
        <time>2022-04-06T09:55:15.209Z</time>
      </trkpt>
      <trkpt lat="44.0956" lon="5.98439">
        <ele>583</ele>
        <time>2022-04-06T09:55:20.618Z</time>
      </trkpt>
      <trkpt lat="44.0956" lon="5.98435">
        <ele>583</ele>
        <time>2022-04-06T09:55:26.028Z</time>
      </trkpt>
      <trkpt lat="44.0956" lon="5.98416">
        <ele>583</ele>
        <time>2022-04-06T09:55:31.442Z</time>
      </trkpt>
      <trkpt lat="44.09558" lon="5.98404">
        <ele>583.20001220703</ele>
        <time>2022-04-06T09:55:36.859Z</time>
      </trkpt>
      <trkpt lat="44.09553" lon="5.98398">
        <ele>583.20001220703</ele>
        <time>2022-04-06T09:55:42.278Z</time>
      </trkpt>
      <trkpt lat="44.09547" lon="5.98396">
        <ele>583.20001220703</ele>
        <time>2022-04-06T09:55:47.699Z</time>
      </trkpt>
      <trkpt lat="44.0954" lon="5.98391">
        <ele>583.59997558594</ele>
        <time>2022-04-06T09:55:53.123Z</time>
      </trkpt>
      <trkpt lat="44.09538" lon="5.9839">
        <ele>583.59997558594</ele>
        <time>2022-04-06T09:55:58.548Z</time>
      </trkpt>
      <trkpt lat="44.09536" lon="5.98388">
        <ele>583.59997558594</ele>
        <time>2022-04-06T09:56:03.973Z</time>
      </trkpt>
      <trkpt lat="44.09531" lon="5.98386">
        <ele>583.79998779297</ele>
        <time>2022-04-06T09:56:09.400Z</time>
      </trkpt>
      <trkpt lat="44.09526" lon="5.98381">
        <ele>584.20001220703</ele>
        <time>2022-04-06T09:56:14.829Z</time>
      </trkpt>
      <trkpt lat="44.09526" lon="5.98381">
        <ele>584.20001220703</ele>
        <time>2022-04-06T09:56:20.258Z</time>
      </trkpt>
      <trkpt lat="44.09522" lon="5.98385">
        <ele>584</ele>
        <time>2022-04-06T09:56:25.689Z</time>
      </trkpt>
      <trkpt lat="44.0952" lon="5.98389">
        <ele>583.79998779297</ele>
        <time>2022-04-06T09:56:31.121Z</time>
      </trkpt>
      <trkpt lat="44.09516" lon="5.98395">
        <ele>583.40002441406</ele>
        <time>2022-04-06T09:56:36.554Z</time>
      </trkpt>
      <trkpt lat="44.09513" lon="5.98396">
        <ele>583.40002441406</ele>
        <time>2022-04-06T09:56:41.989Z</time>
      </trkpt>
      <trkpt lat="44.09501" lon="5.98408">
        <ele>582.20001220703</ele>
        <time>2022-04-06T09:56:47.428Z</time>
      </trkpt>
      <trkpt lat="44.09499" lon="5.98414">
        <ele>581.79998779297</ele>
        <time>2022-04-06T09:56:52.869Z</time>
      </trkpt>
      <trkpt lat="44.09497" lon="5.9842">
        <ele>581</ele>
        <time>2022-04-06T09:56:58.311Z</time>
      </trkpt>
      <trkpt lat="44.09495" lon="5.98428">
        <ele>579.59997558594</ele>
        <time>2022-04-06T09:57:03.755Z</time>
      </trkpt>
      <trkpt lat="44.09492" lon="5.98435">
        <ele>578.59997558594</ele>
        <time>2022-04-06T09:57:09.201Z</time>
      </trkpt>
      <trkpt lat="44.09488" lon="5.98444">
        <ele>577.79998779297</ele>
        <time>2022-04-06T09:57:14.649Z</time>
      </trkpt>
      <trkpt lat="44.09485" lon="5.98451">
        <ele>576.59997558594</ele>
        <time>2022-04-06T09:57:20.099Z</time>
      </trkpt>
      <trkpt lat="44.09477" lon="5.98467">
        <ele>575.20001220703</ele>
        <time>2022-04-06T09:57:25.554Z</time>
      </trkpt>
      <trkpt lat="44.09473" lon="5.98475">
        <ele>574.79998779297</ele>
        <time>2022-04-06T09:57:31.011Z</time>
      </trkpt>
      <trkpt lat="44.09464" lon="5.985">
        <ele>573.59997558594</ele>
        <time>2022-04-06T09:57:36.474Z</time>
      </trkpt>
      <trkpt lat="44.0946" lon="5.98509">
        <ele>573.40002441406</ele>
        <time>2022-04-06T09:57:41.940Z</time>
      </trkpt>
      <trkpt lat="44.09456" lon="5.98517">
        <ele>572.79998779297</ele>
        <time>2022-04-06T09:57:47.408Z</time>
      </trkpt>
      <trkpt lat="44.09453" lon="5.98526">
        <ele>572.20001220703</ele>
        <time>2022-04-06T09:57:52.878Z</time>
      </trkpt>
      <trkpt lat="44.09449" lon="5.98537">
        <ele>571.79998779297</ele>
        <time>2022-04-06T09:57:58.351Z</time>
      </trkpt>
      <trkpt lat="44.09447" lon="5.98547">
        <ele>571.20001220703</ele>
        <time>2022-04-06T09:58:03.826Z</time>
      </trkpt>
      <trkpt lat="44.09442" lon="5.98567">
        <ele>570</ele>
        <time>2022-04-06T09:58:09.306Z</time>
      </trkpt>
      <trkpt lat="44.09439" lon="5.98576">
        <ele>569.79998779297</ele>
        <time>2022-04-06T09:58:14.788Z</time>
      </trkpt>
      <trkpt lat="44.09432" lon="5.98592">
        <ele>569.20001220703</ele>
        <time>2022-04-06T09:58:20.274Z</time>
      </trkpt>
      <trkpt lat="44.09429" lon="5.986">
        <ele>569</ele>
        <time>2022-04-06T09:58:25.763Z</time>
      </trkpt>
      <trkpt lat="44.09418" lon="5.98631">
        <ele>568.20001220703</ele>
        <time>2022-04-06T09:58:31.259Z</time>
      </trkpt>
      <trkpt lat="44.09409" lon="5.98659">
        <ele>568</ele>
        <time>2022-04-06T09:58:36.762Z</time>
      </trkpt>
      <trkpt lat="44.09408" lon="5.98662">
        <ele>567.79998779297</ele>
        <time>2022-04-06T09:58:42.266Z</time>
      </trkpt>
      <trkpt lat="44.09407" lon="5.98664">
        <ele>567.79998779297</ele>
        <time>2022-04-06T09:58:47.771Z</time>
      </trkpt>
      <trkpt lat="44.09406" lon="5.98666">
        <ele>567.59997558594</ele>
        <time>2022-04-06T09:58:53.276Z</time>
      </trkpt>
      <trkpt lat="44.09405" lon="5.98668">
        <ele>567.40002441406</ele>
        <time>2022-04-06T09:58:58.782Z</time>
      </trkpt>
      <trkpt lat="44.09407" lon="5.98665">
        <ele>567.40002441406</ele>
        <time>2022-04-06T09:59:04.289Z</time>
      </trkpt>
      <trkpt lat="44.09407" lon="5.98663">
        <ele>567.59997558594</ele>
        <time>2022-04-06T09:59:09.797Z</time>
      </trkpt>
      <trkpt lat="44.09411" lon="5.98649">
        <ele>567.59997558594</ele>
        <time>2022-04-06T09:59:15.308Z</time>
      </trkpt>
      <trkpt lat="44.09422" lon="5.98621">
        <ele>568</ele>
        <time>2022-04-06T09:59:20.826Z</time>
      </trkpt>
      <trkpt lat="44.09432" lon="5.98595">
        <ele>568.79998779297</ele>
        <time>2022-04-06T09:59:26.351Z</time>
      </trkpt>
      <trkpt lat="44.09434" lon="5.9859">
        <ele>569.20001220703</ele>
        <time>2022-04-06T09:59:31.877Z</time>
      </trkpt>
      <trkpt lat="44.09441" lon="5.98566">
        <ele>570</ele>
        <time>2022-04-06T09:59:37.409Z</time>
      </trkpt>
      <trkpt lat="44.09444" lon="5.98551">
        <ele>570</ele>
        <time>2022-04-06T09:59:42.945Z</time>
      </trkpt>
      <trkpt lat="44.09446" lon="5.9854">
        <ele>570.59997558594</ele>
        <time>2022-04-06T09:59:48.483Z</time>
      </trkpt>
      <trkpt lat="44.09451" lon="5.98521">
        <ele>571.20001220703</ele>
        <time>2022-04-06T09:59:54.026Z</time>
      </trkpt>
      <trkpt lat="44.09456" lon="5.98508">
        <ele>572.20001220703</ele>
        <time>2022-04-06T09:59:59.572Z</time>
      </trkpt>
      <trkpt lat="44.09462" lon="5.9849">
        <ele>573.40002441406</ele>
        <time>2022-04-06T10:00:05.123Z</time>
      </trkpt>
      <trkpt lat="44.09468" lon="5.98472">
        <ele>574.20001220703</ele>
        <time>2022-04-06T10:00:10.678Z</time>
      </trkpt>
      <trkpt lat="44.0947" lon="5.98467">
        <ele>574.59997558594</ele>
        <time>2022-04-06T10:00:16.234Z</time>
      </trkpt>
      <trkpt lat="44.09481" lon="5.98446">
        <ele>575</ele>
        <time>2022-04-06T10:00:21.797Z</time>
      </trkpt>
      <trkpt lat="44.09486" lon="5.98434">
        <ele>575.79998779297</ele>
        <time>2022-04-06T10:00:27.363Z</time>
      </trkpt>
      <trkpt lat="44.09487" lon="5.98427">
        <ele>576.59997558594</ele>
        <time>2022-04-06T10:00:32.930Z</time>
      </trkpt>
      <trkpt lat="44.09488" lon="5.98424">
        <ele>577.20001220703</ele>
        <time>2022-04-06T10:00:38.498Z</time>
      </trkpt>
      <trkpt lat="44.09491" lon="5.98417">
        <ele>578.40002441406</ele>
        <time>2022-04-06T10:00:44.068Z</time>
      </trkpt>
      <trkpt lat="44.09492" lon="5.98411">
        <ele>579.79998779297</ele>
        <time>2022-04-06T10:00:49.639Z</time>
      </trkpt>
      <trkpt lat="44.09492" lon="5.98408">
        <ele>580.40002441406</ele>
        <time>2022-04-06T10:00:55.211Z</time>
      </trkpt>
      <trkpt lat="44.09493" lon="5.98407">
        <ele>581.20001220703</ele>
        <time>2022-04-06T10:01:00.783Z</time>
      </trkpt>
      <trkpt lat="44.09495" lon="5.98404">
        <ele>581.59997558594</ele>
        <time>2022-04-06T10:01:06.356Z</time>
      </trkpt>
      <trkpt lat="44.09499" lon="5.984">
        <ele>582.20001220703</ele>
        <time>2022-04-06T10:01:11.931Z</time>
      </trkpt>
      <trkpt lat="44.09505" lon="5.98395">
        <ele>582.79998779297</ele>
        <time>2022-04-06T10:01:17.508Z</time>
      </trkpt>
      <trkpt lat="44.0951" lon="5.98384">
        <ele>583.40002441406</ele>
        <time>2022-04-06T10:01:23.088Z</time>
      </trkpt>
      <trkpt lat="44.09511" lon="5.98381">
        <ele>583.59997558594</ele>
        <time>2022-04-06T10:01:28.669Z</time>
      </trkpt>
      <trkpt lat="44.09512" lon="5.98383">
        <ele>584</ele>
        <time>2022-04-06T10:01:34.250Z</time>
      </trkpt>
      <trkpt lat="44.09512" lon="5.98383">
        <ele>584</ele>
        <time>2022-04-06T10:01:39.831Z</time>
      </trkpt>
      <trkpt lat="44.09511" lon="5.98378">
        <ele>584.20001220703</ele>
        <time>2022-04-06T10:01:45.414Z</time>
      </trkpt>
      <trkpt lat="44.09512" lon="5.98373">
        <ele>584.40002441406</ele>
        <time>2022-04-06T10:01:50.998Z</time>
      </trkpt>
      <trkpt lat="44.09516" lon="5.98359">
        <ele>585.40002441406</ele>
        <time>2022-04-06T10:01:56.585Z</time>
      </trkpt>
      <trkpt lat="44.09518" lon="5.98358">
        <ele>585.79998779297</ele>
        <time>2022-04-06T10:02:02.173Z</time>
      </trkpt>
      <trkpt lat="44.09521" lon="5.98353">
        <ele>586</ele>
        <time>2022-04-06T10:02:07.762Z</time>
      </trkpt>
      <trkpt lat="44.09523" lon="5.98345">
        <ele>586.20001220703</ele>
        <time>2022-04-06T10:02:13.353Z</time>
      </trkpt>
      <trkpt lat="44.09527" lon="5.98333">
        <ele>586.59997558594</ele>
        <time>2022-04-06T10:02:18.947Z</time>
      </trkpt>
      <trkpt lat="44.09529" lon="5.9833">
        <ele>586.79998779297</ele>
        <time>2022-04-06T10:02:24.542Z</time>
      </trkpt>
      <trkpt lat="44.09535" lon="5.98321">
        <ele>587.20001220703</ele>
        <time>2022-04-06T10:02:30.140Z</time>
      </trkpt>
      <trkpt lat="44.09537" lon="5.9832">
        <ele>587.40002441406</ele>
        <time>2022-04-06T10:02:35.739Z</time>
      </trkpt>
      <trkpt lat="44.09542" lon="5.98319">
        <ele>587.59997558594</ele>
        <time>2022-04-06T10:02:41.339Z</time>
      </trkpt>
      <trkpt lat="44.09545" lon="5.98314">
        <ele>588</ele>
        <time>2022-04-06T10:02:46.941Z</time>
      </trkpt>
      <trkpt lat="44.09554" lon="5.98307">
        <ele>589</ele>
        <time>2022-04-06T10:02:52.546Z</time>
      </trkpt>
      <trkpt lat="44.09565" lon="5.98304">
        <ele>589.59997558594</ele>
        <time>2022-04-06T10:02:58.155Z</time>
      </trkpt>
      <trkpt lat="44.09568" lon="5.98303">
        <ele>589.59997558594</ele>
        <time>2022-04-06T10:03:03.765Z</time>
      </trkpt>
      <trkpt lat="44.09572" lon="5.98301">
        <ele>589.59997558594</ele>
        <time>2022-04-06T10:03:09.376Z</time>
      </trkpt>
      <trkpt lat="44.09578" lon="5.98306">
        <ele>588.79998779297</ele>
        <time>2022-04-06T10:03:14.989Z</time>
      </trkpt>
      <trkpt lat="44.09583" lon="5.9831">
        <ele>588.59997558594</ele>
        <time>2022-04-06T10:03:20.604Z</time>
      </trkpt>
      <trkpt lat="44.09588" lon="5.98312">
        <ele>588.79998779297</ele>
        <time>2022-04-06T10:03:26.220Z</time>
      </trkpt>
      <trkpt lat="44.09601" lon="5.98308">
        <ele>589</ele>
        <time>2022-04-06T10:03:31.841Z</time>
      </trkpt>
      <trkpt lat="44.09607" lon="5.98311">
        <ele>589.40002441406</ele>
        <time>2022-04-06T10:03:37.464Z</time>
      </trkpt>
      <trkpt lat="44.09612" lon="5.9831">
        <ele>589.79998779297</ele>
        <time>2022-04-06T10:03:43.088Z</time>
      </trkpt>
      <trkpt lat="44.09617" lon="5.98303">
        <ele>590.59997558594</ele>
        <time>2022-04-06T10:03:48.715Z</time>
      </trkpt>
      <trkpt lat="44.09623" lon="5.98295">
        <ele>591.40002441406</ele>
        <time>2022-04-06T10:03:54.344Z</time>
      </trkpt>
      <trkpt lat="44.09626" lon="5.98291">
        <ele>592</ele>
        <time>2022-04-06T10:03:59.974Z</time>
      </trkpt>
      <trkpt lat="44.09634" lon="5.98285">
        <ele>592.79998779297</ele>
        <time>2022-04-06T10:04:05.607Z</time>
      </trkpt>
      <trkpt lat="44.09637" lon="5.98281">
        <ele>593.20001220703</ele>
        <time>2022-04-06T10:04:11.242Z</time>
      </trkpt>
      <trkpt lat="44.09647" lon="5.98271">
        <ele>594.59997558594</ele>
        <time>2022-04-06T10:04:16.881Z</time>
      </trkpt>
      <trkpt lat="44.09657" lon="5.98261">
        <ele>595.59997558594</ele>
        <time>2022-04-06T10:04:22.523Z</time>
      </trkpt>
      <trkpt lat="44.09664" lon="5.98249">
        <ele>596.79998779297</ele>
        <time>2022-04-06T10:04:28.169Z</time>
      </trkpt>
      <trkpt lat="44.09669" lon="5.98241">
        <ele>597.79998779297</ele>
        <time>2022-04-06T10:04:33.817Z</time>
      </trkpt>
      <trkpt lat="44.09671" lon="5.98238">
        <ele>598.20001220703</ele>
        <time>2022-04-06T10:04:39.466Z</time>
      </trkpt>
      <trkpt lat="44.09673" lon="5.98235">
        <ele>598.59997558594</ele>
        <time>2022-04-06T10:04:45.116Z</time>
      </trkpt>
      <trkpt lat="44.09676" lon="5.98228">
        <ele>599.40002441406</ele>
        <time>2022-04-06T10:04:50.768Z</time>
      </trkpt>
      <trkpt lat="44.09676" lon="5.98224">
        <ele>599.79998779297</ele>
        <time>2022-04-06T10:04:56.421Z</time>
      </trkpt>
      <trkpt lat="44.09678" lon="5.98217">
        <ele>601</ele>
        <time>2022-04-06T10:05:02.076Z</time>
      </trkpt>
      <trkpt lat="44.09681" lon="5.98212">
        <ele>602.20001220703</ele>
        <time>2022-04-06T10:05:07.732Z</time>
      </trkpt>
      <trkpt lat="44.09686" lon="5.98209">
        <ele>603</ele>
        <time>2022-04-06T10:05:13.390Z</time>
      </trkpt>
      <trkpt lat="44.09688" lon="5.98206">
        <ele>603.40002441406</ele>
        <time>2022-04-06T10:05:19.049Z</time>
      </trkpt>
      <trkpt lat="44.09693" lon="5.98198">
        <ele>604.40002441406</ele>
        <time>2022-04-06T10:05:24.710Z</time>
      </trkpt>
      <trkpt lat="44.09696" lon="5.98196">
        <ele>604.79998779297</ele>
        <time>2022-04-06T10:05:30.372Z</time>
      </trkpt>
      <trkpt lat="44.09705" lon="5.98192">
        <ele>606</ele>
        <time>2022-04-06T10:05:36.037Z</time>
      </trkpt>
      <trkpt lat="44.09705" lon="5.98189">
        <ele>606.20001220703</ele>
        <time>2022-04-06T10:05:41.703Z</time>
      </trkpt>
      <trkpt lat="44.09702" lon="5.9818">
        <ele>607</ele>
        <time>2022-04-06T10:05:47.371Z</time>
      </trkpt>
      <trkpt lat="44.09701" lon="5.98178">
        <ele>607.20001220703</ele>
        <time>2022-04-06T10:05:53.040Z</time>
      </trkpt>
      <trkpt lat="44.097" lon="5.98176">
        <ele>607.40002441406</ele>
        <time>2022-04-06T10:05:58.709Z</time>
      </trkpt>
      <trkpt lat="44.09694" lon="5.98167">
        <ele>608</ele>
        <time>2022-04-06T10:06:04.381Z</time>
      </trkpt>
      <trkpt lat="44.09691" lon="5.98162">
        <ele>608.59997558594</ele>
        <time>2022-04-06T10:06:10.055Z</time>
      </trkpt>
      <trkpt lat="44.09687" lon="5.98155">
        <ele>609.20001220703</ele>
        <time>2022-04-06T10:06:15.731Z</time>
      </trkpt>
      <trkpt lat="44.09685" lon="5.98151">
        <ele>609.79998779297</ele>
        <time>2022-04-06T10:06:21.408Z</time>
      </trkpt>
      <trkpt lat="44.09686" lon="5.98151">
        <ele>609.79998779297</ele>
        <time>2022-04-06T10:06:27.085Z</time>
      </trkpt>
      <trkpt lat="44.09686" lon="5.98149">
        <ele>610</ele>
        <time>2022-04-06T10:06:32.763Z</time>
      </trkpt>
      <trkpt lat="44.09686" lon="5.98148">
        <ele>610</ele>
        <time>2022-04-06T10:06:38.441Z</time>
      </trkpt>
      <trkpt lat="44.09684" lon="5.98143">
        <ele>610.40002441406</ele>
        <time>2022-04-06T10:06:44.120Z</time>
      </trkpt>
      <trkpt lat="44.09681" lon="5.9814">
        <ele>610.40002441406</ele>
        <time>2022-04-06T10:06:49.800Z</time>
      </trkpt>
      <trkpt lat="44.09678" lon="5.98136">
        <ele>610.59997558594</ele>
        <time>2022-04-06T10:06:55.481Z</time>
      </trkpt>
      <trkpt lat="44.09672" lon="5.9813">
        <ele>610.79998779297</ele>
        <time>2022-04-06T10:07:01.165Z</time>
      </trkpt>
      <trkpt lat="44.09666" lon="5.98121">
        <ele>611</ele>
        <time>2022-04-06T10:07:06.851Z</time>
      </trkpt>
      <trkpt lat="44.09661" lon="5.98114">
        <ele>611</ele>
        <time>2022-04-06T10:07:12.540Z</time>
      </trkpt>
      <trkpt lat="44.09651" lon="5.98102">
        <ele>611.59997558594</ele>
        <time>2022-04-06T10:07:18.233Z</time>
      </trkpt>
      <trkpt lat="44.09649" lon="5.981">
        <ele>611.59997558594</ele>
        <time>2022-04-06T10:07:23.927Z</time>
      </trkpt>
      <trkpt lat="44.09642" lon="5.98092">
        <ele>611.59997558594</ele>
        <time>2022-04-06T10:07:29.624Z</time>
      </trkpt>
      <trkpt lat="44.09638" lon="5.98088">
        <ele>611.40002441406</ele>
        <time>2022-04-06T10:07:35.322Z</time>
      </trkpt>
      <trkpt lat="44.09638" lon="5.98089">
        <ele>611.40002441406</ele>
        <time>2022-04-06T10:07:41.020Z</time>
      </trkpt>
      <trkpt lat="44.09636" lon="5.98093">
        <ele>611.20001220703</ele>
        <time>2022-04-06T10:07:46.720Z</time>
      </trkpt>
      <trkpt lat="44.09636" lon="5.98095">
        <ele>611</ele>
        <time>2022-04-06T10:07:52.420Z</time>
      </trkpt>
      <trkpt lat="44.09631" lon="5.98098">
        <ele>610.79998779297</ele>
        <time>2022-04-06T10:07:58.122Z</time>
      </trkpt>
      <trkpt lat="44.09628" lon="5.98097">
        <ele>610.59997558594</ele>
        <time>2022-04-06T10:08:03.825Z</time>
      </trkpt>
      <trkpt lat="44.09623" lon="5.98096">
        <ele>609.59997558594</ele>
        <time>2022-04-06T10:08:09.529Z</time>
      </trkpt>
      <trkpt lat="44.09622" lon="5.98097">
        <ele>609.40002441406</ele>
        <time>2022-04-06T10:08:15.234Z</time>
      </trkpt>
      <trkpt lat="44.09616" lon="5.98098">
        <ele>608.40002441406</ele>
        <time>2022-04-06T10:08:20.941Z</time>
      </trkpt>
      <trkpt lat="44.09614" lon="5.981">
        <ele>608.20001220703</ele>
        <time>2022-04-06T10:08:26.648Z</time>
      </trkpt>
      <trkpt lat="44.09606" lon="5.98108">
        <ele>607.59997558594</ele>
        <time>2022-04-06T10:08:32.358Z</time>
      </trkpt>
      <trkpt lat="44.09601" lon="5.98116">
        <ele>606.79998779297</ele>
        <time>2022-04-06T10:08:38.071Z</time>
      </trkpt>
      <trkpt lat="44.09599" lon="5.98121">
        <ele>606.59997558594</ele>
        <time>2022-04-06T10:08:43.785Z</time>
      </trkpt>
      <trkpt lat="44.09587" lon="5.98138">
        <ele>605.59997558594</ele>
        <time>2022-04-06T10:08:49.505Z</time>
      </trkpt>
      <trkpt lat="44.09586" lon="5.9814">
        <ele>605.59997558594</ele>
        <time>2022-04-06T10:08:55.225Z</time>
      </trkpt>
      <trkpt lat="44.09581" lon="5.98149">
        <ele>605.40002441406</ele>
        <time>2022-04-06T10:09:00.948Z</time>
      </trkpt>
      <trkpt lat="44.09576" lon="5.98159">
        <ele>604.59997558594</ele>
        <time>2022-04-06T10:09:06.673Z</time>
      </trkpt>
      <trkpt lat="44.09572" lon="5.98167">
        <ele>603.59997558594</ele>
        <time>2022-04-06T10:09:12.401Z</time>
      </trkpt>
      <trkpt lat="44.09569" lon="5.98176">
        <ele>602.59997558594</ele>
        <time>2022-04-06T10:09:18.131Z</time>
      </trkpt>
      <trkpt lat="44.09568" lon="5.98178">
        <ele>602.20001220703</ele>
        <time>2022-04-06T10:09:23.862Z</time>
      </trkpt>
      <trkpt lat="44.09567" lon="5.98178">
        <ele>601.59997558594</ele>
        <time>2022-04-06T10:09:29.593Z</time>
      </trkpt>
      <trkpt lat="44.09566" lon="5.98183">
        <ele>601.20001220703</ele>
        <time>2022-04-06T10:09:35.325Z</time>
      </trkpt>
      <trkpt lat="44.09565" lon="5.98186">
        <ele>601.40002441406</ele>
        <time>2022-04-06T10:09:41.058Z</time>
      </trkpt>
      <trkpt lat="44.09561" lon="5.98202">
        <ele>600.40002441406</ele>
        <time>2022-04-06T10:09:46.795Z</time>
      </trkpt>
      <trkpt lat="44.09553" lon="5.98215">
        <ele>598.59997558594</ele>
        <time>2022-04-06T10:09:52.536Z</time>
      </trkpt>
      <trkpt lat="44.09549" lon="5.9822">
        <ele>597.40002441406</ele>
        <time>2022-04-06T10:09:58.278Z</time>
      </trkpt>
      <trkpt lat="44.09546" lon="5.98225">
        <ele>596.79998779297</ele>
        <time>2022-04-06T10:10:04.022Z</time>
      </trkpt>
      <trkpt lat="44.09543" lon="5.98232">
        <ele>596</ele>
        <time>2022-04-06T10:10:09.767Z</time>
      </trkpt>
      <trkpt lat="44.09537" lon="5.98246">
        <ele>594.20001220703</ele>
        <time>2022-04-06T10:10:15.516Z</time>
      </trkpt>
      <trkpt lat="44.09535" lon="5.98253">
        <ele>593.40002441406</ele>
        <time>2022-04-06T10:10:21.267Z</time>
      </trkpt>
      <trkpt lat="44.09533" lon="5.9826">
        <ele>592.59997558594</ele>
        <time>2022-04-06T10:10:27.020Z</time>
      </trkpt>
      <trkpt lat="44.0953" lon="5.98269">
        <ele>591</ele>
        <time>2022-04-06T10:10:32.775Z</time>
      </trkpt>
      <trkpt lat="44.09524" lon="5.98286">
        <ele>589.79998779297</ele>
        <time>2022-04-06T10:10:38.534Z</time>
      </trkpt>
      <trkpt lat="44.09519" lon="5.98304">
        <ele>588.79998779297</ele>
        <time>2022-04-06T10:10:44.298Z</time>
      </trkpt>
      <trkpt lat="44.09517" lon="5.98317">
        <ele>588</ele>
        <time>2022-04-06T10:10:50.065Z</time>
      </trkpt>
      <trkpt lat="44.09516" lon="5.98323">
        <ele>587.59997558594</ele>
        <time>2022-04-06T10:10:55.833Z</time>
      </trkpt>
      <trkpt lat="44.09511" lon="5.98339">
        <ele>586.59997558594</ele>
        <time>2022-04-06T10:11:01.605Z</time>
      </trkpt>
      <trkpt lat="44.09509" lon="5.98343">
        <ele>586.59997558594</ele>
        <time>2022-04-06T10:11:07.378Z</time>
      </trkpt>
      <trkpt lat="44.09502" lon="5.98355">
        <ele>585.59997558594</ele>
        <time>2022-04-06T10:11:13.155Z</time>
      </trkpt>
      <trkpt lat="44.09499" lon="5.98361">
        <ele>585.20001220703</ele>
        <time>2022-04-06T10:11:18.933Z</time>
      </trkpt>
      <trkpt lat="44.09497" lon="5.98373">
        <ele>584.40002441406</ele>
        <time>2022-04-06T10:11:24.714Z</time>
      </trkpt>
      <trkpt lat="44.09495" lon="5.98378">
        <ele>584</ele>
        <time>2022-04-06T10:11:30.496Z</time>
      </trkpt>
      <trkpt lat="44.09493" lon="5.98389">
        <ele>583.20001220703</ele>
        <time>2022-04-06T10:11:36.281Z</time>
      </trkpt>
      <trkpt lat="44.09491" lon="5.98398">
        <ele>582</ele>
        <time>2022-04-06T10:11:42.068Z</time>
      </trkpt>
      <trkpt lat="44.09489" lon="5.98404">
        <ele>581.79998779297</ele>
        <time>2022-04-06T10:11:47.857Z</time>
      </trkpt>
      <trkpt lat="44.09485" lon="5.98416">
        <ele>580.40002441406</ele>
        <time>2022-04-06T10:11:53.649Z</time>
      </trkpt>
      <trkpt lat="44.09484" lon="5.98423">
        <ele>579.59997558594</ele>
        <time>2022-04-06T10:11:59.442Z</time>
      </trkpt>
      <trkpt lat="44.09481" lon="5.98428">
        <ele>578.59997558594</ele>
        <time>2022-04-06T10:12:05.237Z</time>
      </trkpt>
      <trkpt lat="44.09478" lon="5.98434">
        <ele>577.79998779297</ele>
        <time>2022-04-06T10:12:11.033Z</time>
      </trkpt>
      <trkpt lat="44.09475" lon="5.98441">
        <ele>576.59997558594</ele>
        <time>2022-04-06T10:12:16.831Z</time>
      </trkpt>
      <trkpt lat="44.09471" lon="5.98446">
        <ele>575.79998779297</ele>
        <time>2022-04-06T10:12:22.631Z</time>
      </trkpt>
      <trkpt lat="44.09468" lon="5.98452">
        <ele>575.20001220703</ele>
        <time>2022-04-06T10:12:28.433Z</time>
      </trkpt>
      <trkpt lat="44.09463" lon="5.98464">
        <ele>574.79998779297</ele>
        <time>2022-04-06T10:12:34.238Z</time>
      </trkpt>
      <trkpt lat="44.09457" lon="5.98486">
        <ele>574</ele>
        <time>2022-04-06T10:12:40.048Z</time>
      </trkpt>
      <trkpt lat="44.09453" lon="5.98497">
        <ele>573.40002441406</ele>
        <time>2022-04-06T10:12:45.861Z</time>
      </trkpt>
      <trkpt lat="44.09449" lon="5.98508">
        <ele>573</ele>
        <time>2022-04-06T10:12:51.677Z</time>
      </trkpt>
      <trkpt lat="44.09444" lon="5.9852">
        <ele>572.40002441406</ele>
        <time>2022-04-06T10:12:57.496Z</time>
      </trkpt>
      <trkpt lat="44.09443" lon="5.98527">
        <ele>572</ele>
        <time>2022-04-06T10:13:03.316Z</time>
      </trkpt>
      <trkpt lat="44.09441" lon="5.98535">
        <ele>571.40002441406</ele>
        <time>2022-04-06T10:13:09.138Z</time>
      </trkpt>
      <trkpt lat="44.09435" lon="5.98557">
        <ele>570.40002441406</ele>
        <time>2022-04-06T10:13:14.966Z</time>
      </trkpt>
      <trkpt lat="44.09433" lon="5.98564">
        <ele>570.20001220703</ele>
        <time>2022-04-06T10:13:20.795Z</time>
      </trkpt>
      <trkpt lat="44.09431" lon="5.9857">
        <ele>569.79998779297</ele>
        <time>2022-04-06T10:13:26.626Z</time>
      </trkpt>
      <trkpt lat="44.09424" lon="5.98587">
        <ele>569.59997558594</ele>
        <time>2022-04-06T10:13:32.461Z</time>
      </trkpt>
      <trkpt lat="44.09422" lon="5.98592">
        <ele>569.40002441406</ele>
        <time>2022-04-06T10:13:38.298Z</time>
      </trkpt>
      <trkpt lat="44.09412" lon="5.98618">
        <ele>568.59997558594</ele>
        <time>2022-04-06T10:13:44.141Z</time>
      </trkpt>
      <trkpt lat="44.0941" lon="5.98625">
        <ele>568.40002441406</ele>
        <time>2022-04-06T10:13:49.986Z</time>
      </trkpt>
      <trkpt lat="44.09406" lon="5.98637">
        <ele>568.20001220703</ele>
        <time>2022-04-06T10:13:55.834Z</time>
      </trkpt>
      <trkpt lat="44.09405" lon="5.98644">
        <ele>568.20001220703</ele>
        <time>2022-04-06T10:14:01.684Z</time>
      </trkpt>
      <trkpt lat="44.09399" lon="5.98664">
        <ele>568</ele>
        <time>2022-04-06T10:14:07.539Z</time>
      </trkpt>
      <trkpt lat="44.09395" lon="5.98678">
        <ele>567.79998779297</ele>
        <time>2022-04-06T10:14:13.397Z</time>
      </trkpt>
      <trkpt lat="44.09388" lon="5.98697">
        <ele>567.59997558594</ele>
        <time>2022-04-06T10:14:19.260Z</time>
      </trkpt>
      <trkpt lat="44.09375" lon="5.98728">
        <ele>569.59997558594</ele>
        <time>2022-04-06T10:14:25.131Z</time>
      </trkpt>
      <trkpt lat="44.09359" lon="5.98754">
        <ele>569.20001220703</ele>
        <time>2022-04-06T10:14:31.010Z</time>
      </trkpt>
      <trkpt lat="44.09346" lon="5.98773">
        <ele>568</ele>
        <time>2022-04-06T10:14:36.895Z</time>
      </trkpt>
      <trkpt lat="44.09343" lon="5.98778">
        <ele>567.59997558594</ele>
        <time>2022-04-06T10:14:42.782Z</time>
      </trkpt>
      <trkpt lat="44.09338" lon="5.98788">
        <ele>567</ele>
        <time>2022-04-06T10:14:48.671Z</time>
      </trkpt>
      <trkpt lat="44.09339" lon="5.98799">
        <ele>565.79998779297</ele>
        <time>2022-04-06T10:14:54.563Z</time>
      </trkpt>
      <trkpt lat="44.09343" lon="5.9881">
        <ele>564.79998779297</ele>
        <time>2022-04-06T10:15:00.458Z</time>
      </trkpt>
      <trkpt lat="44.09347" lon="5.98815">
        <ele>564.40002441406</ele>
        <time>2022-04-06T10:15:06.354Z</time>
      </trkpt>
      <trkpt lat="44.09356" lon="5.98823">
        <ele>563.59997558594</ele>
        <time>2022-04-06T10:15:12.254Z</time>
      </trkpt>
      <trkpt lat="44.09366" lon="5.9883">
        <ele>562.40002441406</ele>
        <time>2022-04-06T10:15:18.157Z</time>
      </trkpt>
      <trkpt lat="44.09371" lon="5.98833">
        <ele>561.20001220703</ele>
        <time>2022-04-06T10:15:24.062Z</time>
      </trkpt>
      <trkpt lat="44.09376" lon="5.9884">
        <ele>559.59997558594</ele>
        <time>2022-04-06T10:15:29.969Z</time>
      </trkpt>
      <trkpt lat="44.09375" lon="5.98849">
        <ele>558.59997558594</ele>
        <time>2022-04-06T10:15:35.878Z</time>
      </trkpt>
      <trkpt lat="44.09371" lon="5.98857">
        <ele>557.59997558594</ele>
        <time>2022-04-06T10:15:41.789Z</time>
      </trkpt>
      <trkpt lat="44.09369" lon="5.98862">
        <ele>557.20001220703</ele>
        <time>2022-04-06T10:15:47.702Z</time>
      </trkpt>
      <trkpt lat="44.09366" lon="5.98866">
        <ele>556.40002441406</ele>
        <time>2022-04-06T10:15:53.616Z</time>
      </trkpt>
      <trkpt lat="44.09363" lon="5.9887">
        <ele>555.59997558594</ele>
        <time>2022-04-06T10:15:59.531Z</time>
      </trkpt>
      <trkpt lat="44.09356" lon="5.98875">
        <ele>554.20001220703</ele>
        <time>2022-04-06T10:16:05.449Z</time>
      </trkpt>
      <trkpt lat="44.09343" lon="5.98877">
        <ele>553.20001220703</ele>
        <time>2022-04-06T10:16:11.371Z</time>
      </trkpt>
      <trkpt lat="44.09338" lon="5.98877">
        <ele>552.59997558594</ele>
        <time>2022-04-06T10:16:17.295Z</time>
      </trkpt>
      <trkpt lat="44.09332" lon="5.98877">
        <ele>552</ele>
        <time>2022-04-06T10:16:23.220Z</time>
      </trkpt>
      <trkpt lat="44.09319" lon="5.98879">
        <ele>550.59997558594</ele>
        <time>2022-04-06T10:16:29.150Z</time>
      </trkpt>
      <trkpt lat="44.09313" lon="5.98883">
        <ele>549.79998779297</ele>
        <time>2022-04-06T10:16:35.082Z</time>
      </trkpt>
      <trkpt lat="44.09308" lon="5.98888">
        <ele>549</ele>
        <time>2022-04-06T10:16:41.015Z</time>
      </trkpt>
      <trkpt lat="44.09302" lon="5.98897">
        <ele>548.20001220703</ele>
        <time>2022-04-06T10:16:46.951Z</time>
      </trkpt>
      <trkpt lat="44.093" lon="5.989">
        <ele>547.79998779297</ele>
        <time>2022-04-06T10:16:52.888Z</time>
      </trkpt>
      <trkpt lat="44.09295" lon="5.98902">
        <ele>547</ele>
        <time>2022-04-06T10:16:58.827Z</time>
      </trkpt>
      <trkpt lat="44.09293" lon="5.98903">
        <ele>546.59997558594</ele>
        <time>2022-04-06T10:17:04.767Z</time>
      </trkpt>
      <trkpt lat="44.09286" lon="5.98907">
        <ele>545.79998779297</ele>
        <time>2022-04-06T10:17:10.709Z</time>
      </trkpt>
      <trkpt lat="44.09286" lon="5.98908">
        <ele>545.79998779297</ele>
        <time>2022-04-06T10:17:16.651Z</time>
      </trkpt>
      <trkpt lat="44.09284" lon="5.98915">
        <ele>546</ele>
        <time>2022-04-06T10:17:22.595Z</time>
      </trkpt>
      <trkpt lat="44.09283" lon="5.98922">
        <ele>546</ele>
        <time>2022-04-06T10:17:28.540Z</time>
      </trkpt>
      <trkpt lat="44.09278" lon="5.98949">
        <ele>546.59997558594</ele>
        <time>2022-04-06T10:17:34.492Z</time>
      </trkpt>
      <trkpt lat="44.09272" lon="5.9898">
        <ele>547</ele>
        <time>2022-04-06T10:17:40.451Z</time>
      </trkpt>
      <trkpt lat="44.09271" lon="5.98995">
        <ele>547.20001220703</ele>
        <time>2022-04-06T10:17:46.413Z</time>
      </trkpt>
      <trkpt lat="44.0927" lon="5.99019">
        <ele>547.59997558594</ele>
        <time>2022-04-06T10:17:52.381Z</time>
      </trkpt>
      <trkpt lat="44.09269" lon="5.99062">
        <ele>547.79998779297</ele>
        <time>2022-04-06T10:17:58.359Z</time>
      </trkpt>
      <trkpt lat="44.09269" lon="5.99097">
        <ele>547.20001220703</ele>
        <time>2022-04-06T10:18:04.345Z</time>
      </trkpt>
      <trkpt lat="44.09268" lon="5.99147">
        <ele>546.79998779297</ele>
        <time>2022-04-06T10:18:10.342Z</time>
      </trkpt>
      <trkpt lat="44.09267" lon="5.99185">
        <ele>545.79998779297</ele>
        <time>2022-04-06T10:18:16.348Z</time>
      </trkpt>
      <trkpt lat="44.09267" lon="5.99204">
        <ele>545.79998779297</ele>
        <time>2022-04-06T10:18:22.358Z</time>
      </trkpt>
      <trkpt lat="44.09268" lon="5.99244">
        <ele>544.79998779297</ele>
        <time>2022-04-06T10:18:28.377Z</time>
      </trkpt>
      <trkpt lat="44.09269" lon="5.99257">
        <ele>544.40002441406</ele>
        <time>2022-04-06T10:18:34.399Z</time>
      </trkpt>
      <trkpt lat="44.0927" lon="5.99263">
        <ele>544.40002441406</ele>
        <time>2022-04-06T10:18:40.423Z</time>
      </trkpt>
      <trkpt lat="44.09267" lon="5.99275">
        <ele>544</ele>
        <time>2022-04-06T10:18:46.450Z</time>
      </trkpt>
      <trkpt lat="44.09257" lon="5.9928">
        <ele>544.20001220703</ele>
        <time>2022-04-06T10:18:52.480Z</time>
      </trkpt>
      <trkpt lat="44.09248" lon="5.99285">
        <ele>545</ele>
        <time>2022-04-06T10:18:58.513Z</time>
      </trkpt>
      <trkpt lat="44.09242" lon="5.99285">
        <ele>545.59997558594</ele>
        <time>2022-04-06T10:19:04.548Z</time>
      </trkpt>
      <trkpt lat="44.09237" lon="5.99283">
        <ele>546</ele>
        <time>2022-04-06T10:19:10.584Z</time>
      </trkpt>
      <trkpt lat="44.09227" lon="5.99276">
        <ele>547</ele>
        <time>2022-04-06T10:19:16.624Z</time>
      </trkpt>
      <trkpt lat="44.09224" lon="5.99273">
        <ele>547</ele>
        <time>2022-04-06T10:19:22.665Z</time>
      </trkpt>
      <trkpt lat="44.09198" lon="5.99253">
        <ele>547</ele>
        <time>2022-04-06T10:19:28.716Z</time>
      </trkpt>
      <trkpt lat="44.09174" lon="5.99242">
        <ele>547</ele>
        <time>2022-04-06T10:19:34.775Z</time>
      </trkpt>
      <trkpt lat="44.09135" lon="5.99231">
        <ele>546</ele>
        <time>2022-04-06T10:19:40.846Z</time>
      </trkpt>
      <trkpt lat="44.0913" lon="5.99231">
        <ele>545.79998779297</ele>
        <time>2022-04-06T10:19:46.919Z</time>
      </trkpt>
      <trkpt lat="44.09106" lon="5.9923">
        <ele>545</ele>
        <time>2022-04-06T10:19:52.999Z</time>
      </trkpt>
      <trkpt lat="44.09101" lon="5.9923">
        <ele>544.79998779297</ele>
        <time>2022-04-06T10:19:59.081Z</time>
      </trkpt>
      <trkpt lat="44.09068" lon="5.9923">
        <ele>544.20001220703</ele>
        <time>2022-04-06T10:20:05.173Z</time>
      </trkpt>
      <trkpt lat="44.09059" lon="5.99231">
        <ele>543.79998779297</ele>
        <time>2022-04-06T10:20:11.268Z</time>
      </trkpt>
      <trkpt lat="44.09028" lon="5.99233">
        <ele>542.40002441406</ele>
        <time>2022-04-06T10:20:17.373Z</time>
      </trkpt>
      <trkpt lat="44.09003" lon="5.99239">
        <ele>541.40002441406</ele>
        <time>2022-04-06T10:20:23.486Z</time>
      </trkpt>
      <trkpt lat="44.08997" lon="5.9924">
        <ele>541</ele>
        <time>2022-04-06T10:20:29.601Z</time>
      </trkpt>
      <trkpt lat="44.08987" lon="5.99243">
        <ele>540.40002441406</ele>
        <time>2022-04-06T10:20:35.719Z</time>
      </trkpt>
      <trkpt lat="44.08971" lon="5.99242">
        <ele>540</ele>
        <time>2022-04-06T10:20:41.842Z</time>
      </trkpt>
      <trkpt lat="44.08933" lon="5.99243">
        <ele>539.40002441406</ele>
        <time>2022-04-06T10:20:47.977Z</time>
      </trkpt>
      <trkpt lat="44.08923" lon="5.99244">
        <ele>539.20001220703</ele>
        <time>2022-04-06T10:20:54.116Z</time>
      </trkpt>
      <trkpt lat="44.08897" lon="5.99249">
        <ele>538.20001220703</ele>
        <time>2022-04-06T10:21:00.263Z</time>
      </trkpt>
      <trkpt lat="44.08892" lon="5.99251">
        <ele>537.79998779297</ele>
        <time>2022-04-06T10:21:06.412Z</time>
      </trkpt>
      <trkpt lat="44.08866" lon="5.99259">
        <ele>537.40002441406</ele>
        <time>2022-04-06T10:21:12.569Z</time>
      </trkpt>
      <trkpt lat="44.0883" lon="5.99273">
        <ele>537.59997558594</ele>
        <time>2022-04-06T10:21:18.738Z</time>
      </trkpt>
      <trkpt lat="44.08799" lon="5.99284">
        <ele>538</ele>
        <time>2022-04-06T10:21:24.917Z</time>
      </trkpt>
      <trkpt lat="44.08776" lon="5.99289">
        <ele>538.20001220703</ele>
        <time>2022-04-06T10:21:31.103Z</time>
      </trkpt>
      <trkpt lat="44.08772" lon="5.99284">
        <ele>537.79998779297</ele>
        <time>2022-04-06T10:21:37.291Z</time>
      </trkpt>
      <trkpt lat="44.0877" lon="5.99274">
        <ele>537.40002441406</ele>
        <time>2022-04-06T10:21:43.481Z</time>
      </trkpt>
      <trkpt lat="44.0877" lon="5.99271">
        <ele>537.20001220703</ele>
        <time>2022-04-06T10:21:49.672Z</time>
      </trkpt>
      <trkpt lat="44.0877" lon="5.99252">
        <ele>535.79998779297</ele>
        <time>2022-04-06T10:21:55.867Z</time>
      </trkpt>
      <trkpt lat="44.08769" lon="5.99246">
        <ele>535.59997558594</ele>
        <time>2022-04-06T10:22:02.064Z</time>
      </trkpt>
      <trkpt lat="44.08772" lon="5.99233">
        <ele>534.59997558594</ele>
        <time>2022-04-06T10:22:08.264Z</time>
      </trkpt>
      <trkpt lat="44.0878" lon="5.99229">
        <ele>533.59997558594</ele>
        <time>2022-04-06T10:22:14.466Z</time>
      </trkpt>
      <trkpt lat="44.08784" lon="5.99226">
        <ele>533</ele>
        <time>2022-04-06T10:22:20.670Z</time>
      </trkpt>
      <trkpt lat="44.08788" lon="5.99222">
        <ele>532</ele>
        <time>2022-04-06T10:22:26.875Z</time>
      </trkpt>
      <trkpt lat="44.08791" lon="5.99217">
        <ele>530.40002441406</ele>
        <time>2022-04-06T10:22:33.082Z</time>
      </trkpt>
      <trkpt lat="44.08791" lon="5.99211">
        <ele>529.40002441406</ele>
        <time>2022-04-06T10:22:39.290Z</time>
      </trkpt>
      <trkpt lat="44.08792" lon="5.99206">
        <ele>528.59997558594</ele>
        <time>2022-04-06T10:22:45.499Z</time>
      </trkpt>
      <trkpt lat="44.08794" lon="5.992">
        <ele>528</ele>
        <time>2022-04-06T10:22:51.710Z</time>
      </trkpt>
      <trkpt lat="44.08794" lon="5.99192">
        <ele>527.40002441406</ele>
        <time>2022-04-06T10:22:57.923Z</time>
      </trkpt>
      <trkpt lat="44.08794" lon="5.99183">
        <ele>526.79998779297</ele>
        <time>2022-04-06T10:23:04.138Z</time>
      </trkpt>
      <trkpt lat="44.08793" lon="5.99174">
        <ele>525.79998779297</ele>
        <time>2022-04-06T10:23:10.355Z</time>
      </trkpt>
      <trkpt lat="44.08791" lon="5.99165">
        <ele>525</ele>
        <time>2022-04-06T10:23:16.574Z</time>
      </trkpt>
      <trkpt lat="44.08791" lon="5.99155">
        <ele>524.20001220703</ele>
        <time>2022-04-06T10:23:22.795Z</time>
      </trkpt>
      <trkpt lat="44.08792" lon="5.99145">
        <ele>523.20001220703</ele>
        <time>2022-04-06T10:23:29.018Z</time>
      </trkpt>
      <trkpt lat="44.08795" lon="5.99136">
        <ele>522.20001220703</ele>
        <time>2022-04-06T10:23:35.244Z</time>
      </trkpt>
      <trkpt lat="44.08799" lon="5.9913">
        <ele>521.40002441406</ele>
        <time>2022-04-06T10:23:41.472Z</time>
      </trkpt>
      <trkpt lat="44.08803" lon="5.99125">
        <ele>521</ele>
        <time>2022-04-06T10:23:47.701Z</time>
      </trkpt>
      <trkpt lat="44.0881" lon="5.99122">
        <ele>520.59997558594</ele>
        <time>2022-04-06T10:23:53.933Z</time>
      </trkpt>
      <trkpt lat="44.08828" lon="5.99124">
        <ele>519.40002441406</ele>
        <time>2022-04-06T10:24:00.170Z</time>
      </trkpt>
      <trkpt lat="44.08833" lon="5.99119">
        <ele>518</ele>
        <time>2022-04-06T10:24:06.409Z</time>
      </trkpt>
      <trkpt lat="44.08837" lon="5.99113">
        <ele>516.79998779297</ele>
        <time>2022-04-06T10:24:12.650Z</time>
      </trkpt>
      <trkpt lat="44.08841" lon="5.99109">
        <ele>515.79998779297</ele>
        <time>2022-04-06T10:24:18.893Z</time>
      </trkpt>
      <trkpt lat="44.08848" lon="5.991">
        <ele>514</ele>
        <time>2022-04-06T10:24:25.139Z</time>
      </trkpt>
      <trkpt lat="44.0885" lon="5.99095">
        <ele>513.40002441406</ele>
        <time>2022-04-06T10:24:31.386Z</time>
      </trkpt>
      <trkpt lat="44.08851" lon="5.99091">
        <ele>512.20001220703</ele>
        <time>2022-04-06T10:24:37.634Z</time>
      </trkpt>
      <trkpt lat="44.0885" lon="5.99088">
        <ele>511</ele>
        <time>2022-04-06T10:24:43.883Z</time>
      </trkpt>
      <trkpt lat="44.08846" lon="5.99085">
        <ele>510</ele>
        <time>2022-04-06T10:24:50.133Z</time>
      </trkpt>
      <trkpt lat="44.08843" lon="5.99082">
        <ele>509.20001220703</ele>
        <time>2022-04-06T10:24:56.384Z</time>
      </trkpt>
      <trkpt lat="44.08837" lon="5.99076">
        <ele>508.20001220703</ele>
        <time>2022-04-06T10:25:02.637Z</time>
      </trkpt>
      <trkpt lat="44.08828" lon="5.99066">
        <ele>508.60000610352</ele>
        <time>2022-04-06T10:25:08.894Z</time>
      </trkpt>
      <trkpt lat="44.08816" lon="5.99067">
        <ele>508</ele>
        <time>2022-04-06T10:25:15.155Z</time>
      </trkpt>
      <trkpt lat="44.08811" lon="5.99069">
        <ele>507</ele>
        <time>2022-04-06T10:25:21.418Z</time>
      </trkpt>
      <trkpt lat="44.0881" lon="5.9907">
        <ele>506.20001220703</ele>
        <time>2022-04-06T10:25:27.681Z</time>
      </trkpt>
      <trkpt lat="44.08807" lon="5.99071">
        <ele>505.60000610352</ele>
        <time>2022-04-06T10:25:33.945Z</time>
      </trkpt>
      <trkpt lat="44.08801" lon="5.9907">
        <ele>505</ele>
        <time>2022-04-06T10:25:40.211Z</time>
      </trkpt>
      <trkpt lat="44.08797" lon="5.99069">
        <ele>504.79998779297</ele>
        <time>2022-04-06T10:25:46.478Z</time>
      </trkpt>
      <trkpt lat="44.08793" lon="5.99069">
        <ele>504.60000610352</ele>
        <time>2022-04-06T10:25:52.747Z</time>
      </trkpt>
      <trkpt lat="44.08783" lon="5.99069">
        <ele>504.79998779297</ele>
        <time>2022-04-06T10:25:59.019Z</time>
      </trkpt>
      <trkpt lat="44.0877" lon="5.99071">
        <ele>505</ele>
        <time>2022-04-06T10:26:05.295Z</time>
      </trkpt>
      <trkpt lat="44.08765" lon="5.99072">
        <ele>504.60000610352</ele>
        <time>2022-04-06T10:26:11.573Z</time>
      </trkpt>
      <trkpt lat="44.08748" lon="5.99073">
        <ele>503.20001220703</ele>
        <time>2022-04-06T10:26:17.856Z</time>
      </trkpt>
      <trkpt lat="44.0874" lon="5.99075">
        <ele>502.39999389648</ele>
        <time>2022-04-06T10:26:24.141Z</time>
      </trkpt>
      <trkpt lat="44.08722" lon="5.99079">
        <ele>502.60000610352</ele>
        <time>2022-04-06T10:26:30.432Z</time>
      </trkpt>
      <trkpt lat="44.08706" lon="5.99068">
        <ele>502.20001220703</ele>
        <time>2022-04-06T10:26:36.729Z</time>
      </trkpt>
      <trkpt lat="44.08695" lon="5.99061">
        <ele>502.20001220703</ele>
        <time>2022-04-06T10:26:43.030Z</time>
      </trkpt>
      <trkpt lat="44.08682" lon="5.99066">
        <ele>502.60000610352</ele>
        <time>2022-04-06T10:26:49.335Z</time>
      </trkpt>
      <trkpt lat="44.08669" lon="5.99074">
        <ele>501.20001220703</ele>
        <time>2022-04-06T10:26:55.644Z</time>
      </trkpt>
      <trkpt lat="44.08658" lon="5.99066">
        <ele>500.79998779297</ele>
        <time>2022-04-06T10:27:01.957Z</time>
      </trkpt>
      <trkpt lat="44.08653" lon="5.99075">
        <ele>500.79998779297</ele>
        <time>2022-04-06T10:27:08.273Z</time>
      </trkpt>
      <trkpt lat="44.08645" lon="5.99084">
        <ele>500.79998779297</ele>
        <time>2022-04-06T10:27:14.592Z</time>
      </trkpt>
      <trkpt lat="44.08636" lon="5.99088">
        <ele>501</ele>
        <time>2022-04-06T10:27:20.914Z</time>
      </trkpt>
      <trkpt lat="44.08626" lon="5.991">
        <ele>500.79998779297</ele>
        <time>2022-04-06T10:27:27.240Z</time>
      </trkpt>
      <trkpt lat="44.08618" lon="5.99105">
        <ele>500.79998779297</ele>
        <time>2022-04-06T10:27:33.569Z</time>
      </trkpt>
      <trkpt lat="44.08615" lon="5.99105">
        <ele>501</ele>
        <time>2022-04-06T10:27:39.899Z</time>
      </trkpt>
      <trkpt lat="44.08597" lon="5.99105">
        <ele>500.20001220703</ele>
        <time>2022-04-06T10:27:46.235Z</time>
      </trkpt>
      <trkpt lat="44.08584" lon="5.99108">
        <ele>499.39999389648</ele>
        <time>2022-04-06T10:27:52.575Z</time>
      </trkpt>
      <trkpt lat="44.08579" lon="5.99109">
        <ele>499.39999389648</ele>
        <time>2022-04-06T10:27:58.916Z</time>
      </trkpt>
      <trkpt lat="44.08569" lon="5.99106">
        <ele>499.20001220703</ele>
        <time>2022-04-06T10:28:05.261Z</time>
      </trkpt>
      <trkpt lat="44.08563" lon="5.99105">
        <ele>498.79998779297</ele>
        <time>2022-04-06T10:28:11.607Z</time>
      </trkpt>
      <trkpt lat="44.08558" lon="5.99105">
        <ele>498.20001220703</ele>
        <time>2022-04-06T10:28:17.955Z</time>
      </trkpt>
      <trkpt lat="44.08552" lon="5.99104">
        <ele>498.20001220703</ele>
        <time>2022-04-06T10:28:24.305Z</time>
      </trkpt>
      <trkpt lat="44.08535" lon="5.99098">
        <ele>497.39999389648</ele>
        <time>2022-04-06T10:28:30.661Z</time>
      </trkpt>
      <trkpt lat="44.08528" lon="5.99096">
        <ele>497</ele>
        <time>2022-04-06T10:28:37.019Z</time>
      </trkpt>
      <trkpt lat="44.08522" lon="5.99095">
        <ele>496.79998779297</ele>
        <time>2022-04-06T10:28:43.379Z</time>
      </trkpt>
      <trkpt lat="44.08511" lon="5.99093">
        <ele>496.60000610352</ele>
        <time>2022-04-06T10:28:49.742Z</time>
      </trkpt>
      <trkpt lat="44.08489" lon="5.99089">
        <ele>496.20001220703</ele>
        <time>2022-04-06T10:28:56.112Z</time>
      </trkpt>
      <trkpt lat="44.08483" lon="5.9909">
        <ele>495.79998779297</ele>
        <time>2022-04-06T10:29:02.484Z</time>
      </trkpt>
      <trkpt lat="44.08473" lon="5.99093">
        <ele>495</ele>
        <time>2022-04-06T10:29:08.859Z</time>
      </trkpt>
      <trkpt lat="44.08468" lon="5.99094">
        <ele>494.60000610352</ele>
        <time>2022-04-06T10:29:15.236Z</time>
      </trkpt>
      <trkpt lat="44.08455" lon="5.9909">
        <ele>494.20001220703</ele>
        <time>2022-04-06T10:29:21.617Z</time>
      </trkpt>
      <trkpt lat="44.0844" lon="5.99075">
        <ele>495.60000610352</ele>
        <time>2022-04-06T10:29:28.004Z</time>
      </trkpt>
      <trkpt lat="44.08435" lon="5.99074">
        <ele>496</ele>
        <time>2022-04-06T10:29:34.392Z</time>
      </trkpt>
      <trkpt lat="44.08425" lon="5.99073">
        <ele>497.60000610352</ele>
        <time>2022-04-06T10:29:40.784Z</time>
      </trkpt>
      <trkpt lat="44.0842" lon="5.99072">
        <ele>498</ele>
        <time>2022-04-06T10:29:47.178Z</time>
      </trkpt>
      <trkpt lat="44.08412" lon="5.99068">
        <ele>499.39999389648</ele>
        <time>2022-04-06T10:29:53.574Z</time>
      </trkpt>
      <trkpt lat="44.08407" lon="5.99062">
        <ele>500.60000610352</ele>
        <time>2022-04-06T10:29:59.972Z</time>
      </trkpt>
      <trkpt lat="44.08405" lon="5.99054">
        <ele>501.39999389648</ele>
        <time>2022-04-06T10:30:06.372Z</time>
      </trkpt>
      <trkpt lat="44.08404" lon="5.99049">
        <ele>502</ele>
        <time>2022-04-06T10:30:12.773Z</time>
      </trkpt>
      <trkpt lat="44.08401" lon="5.99045">
        <ele>502.20001220703</ele>
        <time>2022-04-06T10:30:19.175Z</time>
      </trkpt>
      <trkpt lat="44.08397" lon="5.99043">
        <ele>503.20001220703</ele>
        <time>2022-04-06T10:30:25.579Z</time>
      </trkpt>
      <trkpt lat="44.08395" lon="5.99043">
        <ele>503.39999389648</ele>
        <time>2022-04-06T10:30:31.984Z</time>
      </trkpt>
      <trkpt lat="44.08394" lon="5.99043">
        <ele>503.60000610352</ele>
        <time>2022-04-06T10:30:38.389Z</time>
      </trkpt>
      <trkpt lat="44.08389" lon="5.99047">
        <ele>504</ele>
        <time>2022-04-06T10:30:44.796Z</time>
      </trkpt>
      <trkpt lat="44.08381" lon="5.99045">
        <ele>504.20001220703</ele>
        <time>2022-04-06T10:30:51.205Z</time>
      </trkpt>
      <trkpt lat="44.08379" lon="5.9904">
        <ele>504.79998779297</ele>
        <time>2022-04-06T10:30:57.616Z</time>
      </trkpt>
      <trkpt lat="44.08378" lon="5.99041">
        <ele>505</ele>
        <time>2022-04-06T10:31:04.027Z</time>
      </trkpt>
      <trkpt lat="44.08381" lon="5.99034">
        <ele>505.20001220703</ele>
        <time>2022-04-06T10:31:10.440Z</time>
      </trkpt>
      <trkpt lat="44.08381" lon="5.99026">
        <ele>505.39999389648</ele>
        <time>2022-04-06T10:31:16.854Z</time>
      </trkpt>
      <trkpt lat="44.0838" lon="5.99017">
        <ele>506</ele>
        <time>2022-04-06T10:31:23.270Z</time>
      </trkpt>
      <trkpt lat="44.08379" lon="5.99008">
        <ele>506.39999389648</ele>
        <time>2022-04-06T10:31:29.688Z</time>
      </trkpt>
      <trkpt lat="44.08378" lon="5.99">
        <ele>507</ele>
        <time>2022-04-06T10:31:36.108Z</time>
      </trkpt>
      <trkpt lat="44.08373" lon="5.98984">
        <ele>507.79998779297</ele>
        <time>2022-04-06T10:31:42.532Z</time>
      </trkpt>
      <trkpt lat="44.08373" lon="5.9898">
        <ele>508</ele>
        <time>2022-04-06T10:31:48.957Z</time>
      </trkpt>
      <trkpt lat="44.0837" lon="5.98969">
        <ele>508.79998779297</ele>
        <time>2022-04-06T10:31:55.385Z</time>
      </trkpt>
      <trkpt lat="44.08368" lon="5.9896">
        <ele>509.20001220703</ele>
        <time>2022-04-06T10:32:01.815Z</time>
      </trkpt>
      <trkpt lat="44.08365" lon="5.98939">
        <ele>509.60000610352</ele>
        <time>2022-04-06T10:32:08.250Z</time>
      </trkpt>
      <trkpt lat="44.08362" lon="5.98928">
        <ele>509.79998779297</ele>
        <time>2022-04-06T10:32:14.688Z</time>
      </trkpt>
      <trkpt lat="44.08361" lon="5.98916">
        <ele>510</ele>
        <time>2022-04-06T10:32:21.128Z</time>
      </trkpt>
      <trkpt lat="44.08361" lon="5.98901">
        <ele>509.79998779297</ele>
        <time>2022-04-06T10:32:27.572Z</time>
      </trkpt>
      <trkpt lat="44.0836" lon="5.98899">
        <ele>510.20001220703</ele>
        <time>2022-04-06T10:32:34.016Z</time>
      </trkpt>
      <trkpt lat="44.08359" lon="5.98894">
        <ele>510.20001220703</ele>
        <time>2022-04-06T10:32:40.461Z</time>
      </trkpt>
      <trkpt lat="44.08357" lon="5.98885">
        <ele>510.39999389648</ele>
        <time>2022-04-06T10:32:46.908Z</time>
      </trkpt>
      <trkpt lat="44.0835" lon="5.98874">
        <ele>510.79998779297</ele>
        <time>2022-04-06T10:32:53.359Z</time>
      </trkpt>
      <trkpt lat="44.08346" lon="5.98855">
        <ele>511.79998779297</ele>
        <time>2022-04-06T10:32:59.814Z</time>
      </trkpt>
      <trkpt lat="44.08346" lon="5.98851">
        <ele>512.20001220703</ele>
        <time>2022-04-06T10:33:06.270Z</time>
      </trkpt>
      <trkpt lat="44.08345" lon="5.9884">
        <ele>513.79998779297</ele>
        <time>2022-04-06T10:33:12.729Z</time>
      </trkpt>
      <trkpt lat="44.08346" lon="5.98836">
        <ele>514.40002441406</ele>
        <time>2022-04-06T10:33:19.189Z</time>
      </trkpt>
      <trkpt lat="44.08346" lon="5.98832">
        <ele>515.20001220703</ele>
        <time>2022-04-06T10:33:25.650Z</time>
      </trkpt>
      <trkpt lat="44.08344" lon="5.98824">
        <ele>516.59997558594</ele>
        <time>2022-04-06T10:33:32.113Z</time>
      </trkpt>
      <trkpt lat="44.08337" lon="5.98823">
        <ele>517.79998779297</ele>
        <time>2022-04-06T10:33:38.578Z</time>
      </trkpt>
      <trkpt lat="44.08333" lon="5.98822">
        <ele>518.40002441406</ele>
        <time>2022-04-06T10:33:45.044Z</time>
      </trkpt>
      <trkpt lat="44.08328" lon="5.98815">
        <ele>519.20001220703</ele>
        <time>2022-04-06T10:33:51.513Z</time>
      </trkpt>
      <trkpt lat="44.08326" lon="5.98811">
        <ele>519.40002441406</ele>
        <time>2022-04-06T10:33:57.983Z</time>
      </trkpt>
      <trkpt lat="44.08324" lon="5.98802">
        <ele>520.20001220703</ele>
        <time>2022-04-06T10:34:04.455Z</time>
      </trkpt>
      <trkpt lat="44.08325" lon="5.98798">
        <ele>520.59997558594</ele>
        <time>2022-04-06T10:34:10.928Z</time>
      </trkpt>
      <trkpt lat="44.08328" lon="5.98791">
        <ele>521.20001220703</ele>
        <time>2022-04-06T10:34:17.403Z</time>
      </trkpt>
      <trkpt lat="44.08327" lon="5.98784">
        <ele>522.59997558594</ele>
        <time>2022-04-06T10:34:23.879Z</time>
      </trkpt>
      <trkpt lat="44.08318" lon="5.98782">
        <ele>523.59997558594</ele>
        <time>2022-04-06T10:34:30.358Z</time>
      </trkpt>
      <trkpt lat="44.0831" lon="5.98776">
        <ele>524</ele>
        <time>2022-04-06T10:34:36.840Z</time>
      </trkpt>
      <trkpt lat="44.08302" lon="5.98767">
        <ele>524</ele>
        <time>2022-04-06T10:34:43.325Z</time>
      </trkpt>
      <trkpt lat="44.08298" lon="5.98758">
        <ele>524.40002441406</ele>
        <time>2022-04-06T10:34:49.813Z</time>
      </trkpt>
      <trkpt lat="44.08298" lon="5.98754">
        <ele>524.59997558594</ele>
        <time>2022-04-06T10:34:56.302Z</time>
      </trkpt>
      <trkpt lat="44.08298" lon="5.98746">
        <ele>525</ele>
        <time>2022-04-06T10:35:02.792Z</time>
      </trkpt>
      <trkpt lat="44.08299" lon="5.98742">
        <ele>525.40002441406</ele>
        <time>2022-04-06T10:35:09.284Z</time>
      </trkpt>
      <trkpt lat="44.08299" lon="5.98737">
        <ele>525.59997558594</ele>
        <time>2022-04-06T10:35:15.777Z</time>
      </trkpt>
      <trkpt lat="44.083" lon="5.98729">
        <ele>526.20001220703</ele>
        <time>2022-04-06T10:35:22.271Z</time>
      </trkpt>
      <trkpt lat="44.08297" lon="5.98723">
        <ele>526.79998779297</ele>
        <time>2022-04-06T10:35:28.767Z</time>
      </trkpt>
      <trkpt lat="44.08292" lon="5.98723">
        <ele>527.20001220703</ele>
        <time>2022-04-06T10:35:35.265Z</time>
      </trkpt>
      <trkpt lat="44.08288" lon="5.9872">
        <ele>527.40002441406</ele>
        <time>2022-04-06T10:35:41.764Z</time>
      </trkpt>
      <trkpt lat="44.08285" lon="5.98718">
        <ele>527.59997558594</ele>
        <time>2022-04-06T10:35:48.264Z</time>
      </trkpt>
      <trkpt lat="44.08276" lon="5.98707">
        <ele>527.79998779297</ele>
        <time>2022-04-06T10:35:54.768Z</time>
      </trkpt>
      <trkpt lat="44.08274" lon="5.98695">
        <ele>528.20001220703</ele>
        <time>2022-04-06T10:36:01.275Z</time>
      </trkpt>
      <trkpt lat="44.08276" lon="5.98693">
        <ele>528.59997558594</ele>
        <time>2022-04-06T10:36:07.782Z</time>
      </trkpt>
      <trkpt lat="44.08281" lon="5.98684">
        <ele>529.59997558594</ele>
        <time>2022-04-06T10:36:14.292Z</time>
      </trkpt>
      <trkpt lat="44.08282" lon="5.98681">
        <ele>529.79998779297</ele>
        <time>2022-04-06T10:36:20.803Z</time>
      </trkpt>
      <trkpt lat="44.08283" lon="5.98674">
        <ele>530</ele>
        <time>2022-04-06T10:36:27.315Z</time>
      </trkpt>
      <trkpt lat="44.0828" lon="5.98667">
        <ele>530.59997558594</ele>
        <time>2022-04-06T10:36:33.829Z</time>
      </trkpt>
      <trkpt lat="44.0828" lon="5.9866">
        <ele>531.20001220703</ele>
        <time>2022-04-06T10:36:40.345Z</time>
      </trkpt>
      <trkpt lat="44.0828" lon="5.98652">
        <ele>531.59997558594</ele>
        <time>2022-04-06T10:36:46.863Z</time>
      </trkpt>
      <trkpt lat="44.08279" lon="5.98647">
        <ele>532</ele>
        <time>2022-04-06T10:36:53.382Z</time>
      </trkpt>
      <trkpt lat="44.0828" lon="5.98638">
        <ele>532.59997558594</ele>
        <time>2022-04-06T10:36:59.903Z</time>
      </trkpt>
      <trkpt lat="44.08281" lon="5.98629">
        <ele>533.20001220703</ele>
        <time>2022-04-06T10:37:06.426Z</time>
      </trkpt>
      <trkpt lat="44.08283" lon="5.98621">
        <ele>533.79998779297</ele>
        <time>2022-04-06T10:37:12.951Z</time>
      </trkpt>
      <trkpt lat="44.08287" lon="5.98609">
        <ele>534.20001220703</ele>
        <time>2022-04-06T10:37:19.479Z</time>
      </trkpt>
      <trkpt lat="44.08289" lon="5.98606">
        <ele>534.20001220703</ele>
        <time>2022-04-06T10:37:26.008Z</time>
      </trkpt>
      <trkpt lat="44.08294" lon="5.98606">
        <ele>534.20001220703</ele>
        <time>2022-04-06T10:37:32.538Z</time>
      </trkpt>
      <trkpt lat="44.08302" lon="5.98614">
        <ele>534</ele>
        <time>2022-04-06T10:37:39.071Z</time>
      </trkpt>
      <trkpt lat="44.08308" lon="5.9861">
        <ele>534.20001220703</ele>
        <time>2022-04-06T10:37:45.606Z</time>
      </trkpt>
      <trkpt lat="44.08305" lon="5.98604">
        <ele>534.59997558594</ele>
        <time>2022-04-06T10:37:52.143Z</time>
      </trkpt>
      <trkpt lat="44.08301" lon="5.986">
        <ele>535</ele>
        <time>2022-04-06T10:37:58.682Z</time>
      </trkpt>
      <trkpt lat="44.083" lon="5.98596">
        <ele>535</ele>
        <time>2022-04-06T10:38:05.222Z</time>
      </trkpt>
      <trkpt lat="44.08303" lon="5.98577">
        <ele>536</ele>
        <time>2022-04-06T10:38:11.766Z</time>
      </trkpt>
      <trkpt lat="44.08305" lon="5.98563">
        <ele>537.40002441406</ele>
        <time>2022-04-06T10:38:18.313Z</time>
      </trkpt>
      <trkpt lat="44.08305" lon="5.9856">
        <ele>538</ele>
        <time>2022-04-06T10:38:24.861Z</time>
      </trkpt>
      <trkpt lat="44.08305" lon="5.98552">
        <ele>538.79998779297</ele>
        <time>2022-04-06T10:38:31.411Z</time>
      </trkpt>
      <trkpt lat="44.08304" lon="5.9855">
        <ele>539</ele>
        <time>2022-04-06T10:38:37.962Z</time>
      </trkpt>
      <trkpt lat="44.08302" lon="5.98547">
        <ele>539.20001220703</ele>
        <time>2022-04-06T10:38:44.514Z</time>
      </trkpt>
      <trkpt lat="44.08298" lon="5.98548">
        <ele>539.59997558594</ele>
        <time>2022-04-06T10:38:51.067Z</time>
      </trkpt>
      <trkpt lat="44.08294" lon="5.98559">
        <ele>539.20001220703</ele>
        <time>2022-04-06T10:38:57.623Z</time>
      </trkpt>
      <trkpt lat="44.08286" lon="5.98564">
        <ele>538.79998779297</ele>
        <time>2022-04-06T10:39:04.181Z</time>
      </trkpt>
      <trkpt lat="44.08278" lon="5.98557">
        <ele>538.59997558594</ele>
        <time>2022-04-06T10:39:10.743Z</time>
      </trkpt>
      <trkpt lat="44.08277" lon="5.98546">
        <ele>539.40002441406</ele>
        <time>2022-04-06T10:39:17.307Z</time>
      </trkpt>
      <trkpt lat="44.08269" lon="5.98544">
        <ele>540.20001220703</ele>
        <time>2022-04-06T10:39:23.873Z</time>
      </trkpt>
      <trkpt lat="44.08264" lon="5.98544">
        <ele>540.59997558594</ele>
        <time>2022-04-06T10:39:30.441Z</time>
      </trkpt>
      <trkpt lat="44.08259" lon="5.98545">
        <ele>540.79998779297</ele>
        <time>2022-04-06T10:39:37.011Z</time>
      </trkpt>
      <trkpt lat="44.08253" lon="5.98545">
        <ele>541</ele>
        <time>2022-04-06T10:39:43.583Z</time>
      </trkpt>
      <trkpt lat="44.08247" lon="5.98542">
        <ele>540.59997558594</ele>
        <time>2022-04-06T10:39:50.157Z</time>
      </trkpt>
      <trkpt lat="44.08237" lon="5.98531">
        <ele>540.20001220703</ele>
        <time>2022-04-06T10:39:56.735Z</time>
      </trkpt>
      <trkpt lat="44.08231" lon="5.98521">
        <ele>539.59997558594</ele>
        <time>2022-04-06T10:40:03.316Z</time>
      </trkpt>
      <trkpt lat="44.08225" lon="5.98514">
        <ele>539.59997558594</ele>
        <time>2022-04-06T10:40:09.899Z</time>
      </trkpt>
      <trkpt lat="44.08216" lon="5.98502">
        <ele>539.59997558594</ele>
        <time>2022-04-06T10:40:16.486Z</time>
      </trkpt>
      <trkpt lat="44.08211" lon="5.98486">
        <ele>540</ele>
        <time>2022-04-06T10:40:23.077Z</time>
      </trkpt>
      <trkpt lat="44.0821" lon="5.98483">
        <ele>540</ele>
        <time>2022-04-06T10:40:29.669Z</time>
      </trkpt>
      <trkpt lat="44.08207" lon="5.9848">
        <ele>539.59997558594</ele>
        <time>2022-04-06T10:40:36.262Z</time>
      </trkpt>
      <trkpt lat="44.08201" lon="5.98488">
        <ele>538</ele>
        <time>2022-04-06T10:40:42.858Z</time>
      </trkpt>
      <trkpt lat="44.08198" lon="5.98492">
        <ele>537.40002441406</ele>
        <time>2022-04-06T10:40:49.455Z</time>
      </trkpt>
      <trkpt lat="44.08194" lon="5.98495">
        <ele>536.79998779297</ele>
        <time>2022-04-06T10:40:56.053Z</time>
      </trkpt>
      <trkpt lat="44.08191" lon="5.98496">
        <ele>536.40002441406</ele>
        <time>2022-04-06T10:41:02.652Z</time>
      </trkpt>
      <trkpt lat="44.08181" lon="5.98494">
        <ele>535.79998779297</ele>
        <time>2022-04-06T10:41:09.255Z</time>
      </trkpt>
      <trkpt lat="44.08178" lon="5.98492">
        <ele>535.79998779297</ele>
        <time>2022-04-06T10:41:15.859Z</time>
      </trkpt>
      <trkpt lat="44.08161" lon="5.98482">
        <ele>536.40002441406</ele>
        <time>2022-04-06T10:41:22.468Z</time>
      </trkpt>
      <trkpt lat="44.08159" lon="5.9848">
        <ele>536.59997558594</ele>
        <time>2022-04-06T10:41:29.078Z</time>
      </trkpt>
      <trkpt lat="44.08153" lon="5.98473">
        <ele>537</ele>
        <time>2022-04-06T10:41:35.691Z</time>
      </trkpt>
      <trkpt lat="44.08137" lon="5.98464">
        <ele>538.20001220703</ele>
        <time>2022-04-06T10:41:42.309Z</time>
      </trkpt>
      <trkpt lat="44.08132" lon="5.98465">
        <ele>538.79998779297</ele>
        <time>2022-04-06T10:41:48.929Z</time>
      </trkpt>
      <trkpt lat="44.08129" lon="5.98469">
        <ele>539.59997558594</ele>
        <time>2022-04-06T10:41:55.550Z</time>
      </trkpt>
      <trkpt lat="44.08125" lon="5.98474">
        <ele>540.59997558594</ele>
        <time>2022-04-06T10:42:02.173Z</time>
      </trkpt>
      <trkpt lat="44.0812" lon="5.98474">
        <ele>542</ele>
        <time>2022-04-06T10:42:08.797Z</time>
      </trkpt>
      <trkpt lat="44.08115" lon="5.98477">
        <ele>543</ele>
        <time>2022-04-06T10:42:15.423Z</time>
      </trkpt>
      <trkpt lat="44.08112" lon="5.98479">
        <ele>543.59997558594</ele>
        <time>2022-04-06T10:42:22.050Z</time>
      </trkpt>
      <trkpt lat="44.08109" lon="5.9848">
        <ele>543.79998779297</ele>
        <time>2022-04-06T10:42:28.678Z</time>
      </trkpt>
      <trkpt lat="44.08102" lon="5.98479">
        <ele>544.20001220703</ele>
        <time>2022-04-06T10:42:35.308Z</time>
      </trkpt>
      <trkpt lat="44.08095" lon="5.98481">
        <ele>544.40002441406</ele>
        <time>2022-04-06T10:42:41.941Z</time>
      </trkpt>
      <trkpt lat="44.08088" lon="5.98481">
        <ele>544.79998779297</ele>
        <time>2022-04-06T10:42:48.576Z</time>
      </trkpt>
      <trkpt lat="44.0808" lon="5.98479">
        <ele>545.59997558594</ele>
        <time>2022-04-06T10:42:55.213Z</time>
      </trkpt>
      <trkpt lat="44.08065" lon="5.98475">
        <ele>546.79998779297</ele>
        <time>2022-04-06T10:43:01.855Z</time>
      </trkpt>
      <trkpt lat="44.08058" lon="5.98475">
        <ele>547.20001220703</ele>
        <time>2022-04-06T10:43:08.499Z</time>
      </trkpt>
      <trkpt lat="44.08051" lon="5.98476">
        <ele>548</ele>
        <time>2022-04-06T10:43:15.146Z</time>
      </trkpt>
      <trkpt lat="44.08039" lon="5.98477">
        <ele>549</ele>
        <time>2022-04-06T10:43:21.797Z</time>
      </trkpt>
      <trkpt lat="44.08032" lon="5.98477">
        <ele>549.59997558594</ele>
        <time>2022-04-06T10:43:28.450Z</time>
      </trkpt>
      <trkpt lat="44.08029" lon="5.98477">
        <ele>550.20001220703</ele>
        <time>2022-04-06T10:43:35.104Z</time>
      </trkpt>
      <trkpt lat="44.08018" lon="5.98481">
        <ele>551.40002441406</ele>
        <time>2022-04-06T10:43:41.761Z</time>
      </trkpt>
      <trkpt lat="44.08015" lon="5.98482">
        <ele>551.79998779297</ele>
        <time>2022-04-06T10:43:48.419Z</time>
      </trkpt>
      <trkpt lat="44.08011" lon="5.98485">
        <ele>552.59997558594</ele>
        <time>2022-04-06T10:43:55.078Z</time>
      </trkpt>
      <trkpt lat="44.0801" lon="5.98487">
        <ele>552.79998779297</ele>
        <time>2022-04-06T10:44:01.738Z</time>
      </trkpt>
      <trkpt lat="44.08009" lon="5.98488">
        <ele>552.79998779297</ele>
        <time>2022-04-06T10:44:08.399Z</time>
      </trkpt>
      <trkpt lat="44.08007" lon="5.98488">
        <ele>553</ele>
        <time>2022-04-06T10:44:15.060Z</time>
      </trkpt>
      <trkpt lat="44.08006" lon="5.9849">
        <ele>554.40002441406</ele>
        <time>2022-04-06T10:44:21.722Z</time>
      </trkpt>
      <trkpt lat="44.08006" lon="5.98493">
        <ele>554.59997558594</ele>
        <time>2022-04-06T10:44:28.384Z</time>
      </trkpt>
      <trkpt lat="44.08007" lon="5.98508">
        <ele>554.59997558594</ele>
        <time>2022-04-06T10:44:35.050Z</time>
      </trkpt>
      <trkpt lat="44.08007" lon="5.98516">
        <ele>554.20001220703</ele>
        <time>2022-04-06T10:44:41.718Z</time>
      </trkpt>
      <trkpt lat="44.08009" lon="5.98529">
        <ele>553</ele>
        <time>2022-04-06T10:44:48.389Z</time>
      </trkpt>
      <trkpt lat="44.0801" lon="5.98548">
        <ele>552.20001220703</ele>
        <time>2022-04-06T10:44:55.064Z</time>
      </trkpt>
      <trkpt lat="44.0801" lon="5.9855">
        <ele>552</ele>
        <time>2022-04-06T10:45:01.740Z</time>
      </trkpt>
      <trkpt lat="44.08011" lon="5.98553">
        <ele>551.79998779297</ele>
        <time>2022-04-06T10:45:08.416Z</time>
      </trkpt>
      <trkpt lat="44.08016" lon="5.98559">
        <ele>551</ele>
        <time>2022-04-06T10:45:15.094Z</time>
      </trkpt>
      <trkpt lat="44.08019" lon="5.98562">
        <ele>550.20001220703</ele>
        <time>2022-04-06T10:45:21.774Z</time>
      </trkpt>
      <trkpt lat="44.08027" lon="5.9857">
        <ele>549</ele>
        <time>2022-04-06T10:45:28.456Z</time>
      </trkpt>
      <trkpt lat="44.08032" lon="5.98578">
        <ele>547.40002441406</ele>
        <time>2022-04-06T10:45:35.141Z</time>
      </trkpt>
      <trkpt lat="44.08034" lon="5.9858">
        <ele>546.59997558594</ele>
        <time>2022-04-06T10:45:41.827Z</time>
      </trkpt>
      <trkpt lat="44.08035" lon="5.98581">
        <ele>546</ele>
        <time>2022-04-06T10:45:48.513Z</time>
      </trkpt>
      <trkpt lat="44.08039" lon="5.98587">
        <ele>545</ele>
        <time>2022-04-06T10:45:55.201Z</time>
      </trkpt>
      <trkpt lat="44.08046" lon="5.9859">
        <ele>544</ele>
        <time>2022-04-06T10:46:01.891Z</time>
      </trkpt>
      <trkpt lat="44.08047" lon="5.98592">
        <ele>543.59997558594</ele>
        <time>2022-04-06T10:46:08.582Z</time>
      </trkpt>
      <trkpt lat="44.08049" lon="5.98592">
        <ele>542.79998779297</ele>
        <time>2022-04-06T10:46:15.274Z</time>
      </trkpt>
      <trkpt lat="44.08054" lon="5.98591">
        <ele>542.20001220703</ele>
        <time>2022-04-06T10:46:21.967Z</time>
      </trkpt>
      <trkpt lat="44.08059" lon="5.98589">
        <ele>541.59997558594</ele>
        <time>2022-04-06T10:46:28.662Z</time>
      </trkpt>
      <trkpt lat="44.08063" lon="5.98592">
        <ele>541</ele>
        <time>2022-04-06T10:46:35.358Z</time>
      </trkpt>
      <trkpt lat="44.08064" lon="5.98595">
        <ele>540.59997558594</ele>
        <time>2022-04-06T10:46:42.055Z</time>
      </trkpt>
      <trkpt lat="44.08069" lon="5.98597">
        <ele>540</ele>
        <time>2022-04-06T10:46:48.754Z</time>
      </trkpt>
      <trkpt lat="44.08077" lon="5.98605">
        <ele>539.59997558594</ele>
        <time>2022-04-06T10:46:55.456Z</time>
      </trkpt>
      <trkpt lat="44.0808" lon="5.98609">
        <ele>539</ele>
        <time>2022-04-06T10:47:02.159Z</time>
      </trkpt>
      <trkpt lat="44.08088" lon="5.98615">
        <ele>537.79998779297</ele>
        <time>2022-04-06T10:47:08.865Z</time>
      </trkpt>
      <trkpt lat="44.08092" lon="5.98619">
        <ele>536.59997558594</ele>
        <time>2022-04-06T10:47:15.573Z</time>
      </trkpt>
      <trkpt lat="44.08096" lon="5.98622">
        <ele>535.59997558594</ele>
        <time>2022-04-06T10:47:22.282Z</time>
      </trkpt>
      <trkpt lat="44.08099" lon="5.98626">
        <ele>534.40002441406</ele>
        <time>2022-04-06T10:47:28.992Z</time>
      </trkpt>
      <trkpt lat="44.08102" lon="5.98631">
        <ele>533.40002441406</ele>
        <time>2022-04-06T10:47:35.704Z</time>
      </trkpt>
      <trkpt lat="44.08104" lon="5.98637">
        <ele>532.59997558594</ele>
        <time>2022-04-06T10:47:42.417Z</time>
      </trkpt>
      <trkpt lat="44.08106" lon="5.98639">
        <ele>532.20001220703</ele>
        <time>2022-04-06T10:47:49.131Z</time>
      </trkpt>
      <trkpt lat="44.08108" lon="5.98638">
        <ele>531.79998779297</ele>
        <time>2022-04-06T10:47:55.846Z</time>
      </trkpt>
      <trkpt lat="44.08116" lon="5.98636">
        <ele>530.59997558594</ele>
        <time>2022-04-06T10:48:02.563Z</time>
      </trkpt>
      <trkpt lat="44.08128" lon="5.98645">
        <ele>529</ele>
        <time>2022-04-06T10:48:09.284Z</time>
      </trkpt>
      <trkpt lat="44.08134" lon="5.98651">
        <ele>528</ele>
        <time>2022-04-06T10:48:16.008Z</time>
      </trkpt>
      <trkpt lat="44.08137" lon="5.98655">
        <ele>527.59997558594</ele>
        <time>2022-04-06T10:48:22.733Z</time>
      </trkpt>
      <trkpt lat="44.08139" lon="5.98659">
        <ele>527.40002441406</ele>
        <time>2022-04-06T10:48:29.460Z</time>
      </trkpt>
      <trkpt lat="44.08146" lon="5.98675">
        <ele>527.20001220703</ele>
        <time>2022-04-06T10:48:36.191Z</time>
      </trkpt>
      <trkpt lat="44.08156" lon="5.98687">
        <ele>528.20001220703</ele>
        <time>2022-04-06T10:48:42.926Z</time>
      </trkpt>
      <trkpt lat="44.08151" lon="5.98689">
        <ele>529</ele>
        <time>2022-04-06T10:48:49.662Z</time>
      </trkpt>
      <trkpt lat="44.08149" lon="5.9869">
        <ele>529.20001220703</ele>
        <time>2022-04-06T10:48:56.399Z</time>
      </trkpt>
      <trkpt lat="44.08145" lon="5.987">
        <ele>529.59997558594</ele>
        <time>2022-04-06T10:49:03.139Z</time>
      </trkpt>
      <trkpt lat="44.08144" lon="5.98712">
        <ele>530.40002441406</ele>
        <time>2022-04-06T10:49:09.881Z</time>
      </trkpt>
      <trkpt lat="44.08147" lon="5.98721">
        <ele>531.40002441406</ele>
        <time>2022-04-06T10:49:16.626Z</time>
      </trkpt>
      <trkpt lat="44.0815" lon="5.98732">
        <ele>532.59997558594</ele>
        <time>2022-04-06T10:49:23.373Z</time>
      </trkpt>
      <trkpt lat="44.08149" lon="5.98735">
        <ele>533.20001220703</ele>
        <time>2022-04-06T10:49:30.121Z</time>
      </trkpt>
      <trkpt lat="44.08149" lon="5.98738">
        <ele>533.79998779297</ele>
        <time>2022-04-06T10:49:36.870Z</time>
      </trkpt>
      <trkpt lat="44.08148" lon="5.98739">
        <ele>534.79998779297</ele>
        <time>2022-04-06T10:49:43.619Z</time>
      </trkpt>
      <trkpt lat="44.08147" lon="5.98739">
        <ele>535.40002441406</ele>
        <time>2022-04-06T10:49:50.368Z</time>
      </trkpt>
      <trkpt lat="44.08147" lon="5.98744">
        <ele>536.40002441406</ele>
        <time>2022-04-06T10:49:57.118Z</time>
      </trkpt>
      <trkpt lat="44.08147" lon="5.98747">
        <ele>537</ele>
        <time>2022-04-06T10:50:03.869Z</time>
      </trkpt>
      <trkpt lat="44.0815" lon="5.98759">
        <ele>538</ele>
        <time>2022-04-06T10:50:10.623Z</time>
      </trkpt>
      <trkpt lat="44.0815" lon="5.98762">
        <ele>538.40002441406</ele>
        <time>2022-04-06T10:50:17.378Z</time>
      </trkpt>
      <trkpt lat="44.08152" lon="5.9877">
        <ele>539.20001220703</ele>
        <time>2022-04-06T10:50:24.135Z</time>
      </trkpt>
      <trkpt lat="44.08155" lon="5.98778">
        <ele>539.79998779297</ele>
        <time>2022-04-06T10:50:30.894Z</time>
      </trkpt>
      <trkpt lat="44.08157" lon="5.98789">
        <ele>540.40002441406</ele>
        <time>2022-04-06T10:50:37.655Z</time>
      </trkpt>
      <trkpt lat="44.08157" lon="5.9879">
        <ele>540.40002441406</ele>
        <time>2022-04-06T10:50:44.417Z</time>
      </trkpt>
      <trkpt lat="44.08154" lon="5.98785">
        <ele>541.59997558594</ele>
        <time>2022-04-06T10:50:51.180Z</time>
      </trkpt>
      <trkpt lat="44.08153" lon="5.98784">
        <ele>541.79998779297</ele>
        <time>2022-04-06T10:50:57.943Z</time>
      </trkpt>
      <trkpt lat="44.08149" lon="5.98784">
        <ele>542.79998779297</ele>
        <time>2022-04-06T10:51:04.708Z</time>
      </trkpt>
      <trkpt lat="44.08148" lon="5.98787">
        <ele>543.20001220703</ele>
        <time>2022-04-06T10:51:11.474Z</time>
      </trkpt>
      <trkpt lat="44.08148" lon="5.98791">
        <ele>544</ele>
        <time>2022-04-06T10:51:18.240Z</time>
      </trkpt>
      <trkpt lat="44.08149" lon="5.98796">
        <ele>544.79998779297</ele>
        <time>2022-04-06T10:51:25.008Z</time>
      </trkpt>
      <trkpt lat="44.0815" lon="5.98797">
        <ele>545</ele>
        <time>2022-04-06T10:51:31.776Z</time>
      </trkpt>
      <trkpt lat="44.08151" lon="5.98802">
        <ele>545.79998779297</ele>
        <time>2022-04-06T10:51:38.545Z</time>
      </trkpt>
      <trkpt lat="44.08147" lon="5.98803">
        <ele>546.40002441406</ele>
        <time>2022-04-06T10:51:45.315Z</time>
      </trkpt>
      <trkpt lat="44.08145" lon="5.98801">
        <ele>546.79998779297</ele>
        <time>2022-04-06T10:51:52.086Z</time>
      </trkpt>
      <trkpt lat="44.08143" lon="5.98799">
        <ele>547.40002441406</ele>
        <time>2022-04-06T10:51:58.858Z</time>
      </trkpt>
      <trkpt lat="44.0814" lon="5.98794">
        <ele>548</ele>
        <time>2022-04-06T10:52:05.632Z</time>
      </trkpt>
      <trkpt lat="44.08136" lon="5.98788">
        <ele>548.59997558594</ele>
        <time>2022-04-06T10:52:12.407Z</time>
      </trkpt>
      <trkpt lat="44.08126" lon="5.98778">
        <ele>549.20001220703</ele>
        <time>2022-04-06T10:52:19.186Z</time>
      </trkpt>
      <trkpt lat="44.0812" lon="5.98769">
        <ele>549.59997558594</ele>
        <time>2022-04-06T10:52:25.968Z</time>
      </trkpt>
      <trkpt lat="44.08113" lon="5.98762">
        <ele>550.40002441406</ele>
        <time>2022-04-06T10:52:32.753Z</time>
      </trkpt>
      <trkpt lat="44.0811" lon="5.98759">
        <ele>550.79998779297</ele>
        <time>2022-04-06T10:52:39.539Z</time>
      </trkpt>
      <trkpt lat="44.08103" lon="5.98751">
        <ele>551.79998779297</ele>
        <time>2022-04-06T10:52:46.328Z</time>
      </trkpt>
      <trkpt lat="44.08099" lon="5.98745">
        <ele>552.20001220703</ele>
        <time>2022-04-06T10:52:53.119Z</time>
      </trkpt>
      <trkpt lat="44.08094" lon="5.98732">
        <ele>551.79998779297</ele>
        <time>2022-04-06T10:52:59.913Z</time>
      </trkpt>
      <trkpt lat="44.08093" lon="5.98727">
        <ele>550.79998779297</ele>
        <time>2022-04-06T10:53:06.708Z</time>
      </trkpt>
      <trkpt lat="44.08093" lon="5.98721">
        <ele>550</ele>
        <time>2022-04-06T10:53:13.505Z</time>
      </trkpt>
      <trkpt lat="44.08088" lon="5.98714">
        <ele>549.20001220703</ele>
        <time>2022-04-06T10:53:20.304Z</time>
      </trkpt>
      <trkpt lat="44.08075" lon="5.98703">
        <ele>549.59997558594</ele>
        <time>2022-04-06T10:53:27.108Z</time>
      </trkpt>
      <trkpt lat="44.08069" lon="5.98693">
        <ele>551.20001220703</ele>
        <time>2022-04-06T10:53:33.914Z</time>
      </trkpt>
      <trkpt lat="44.0807" lon="5.9869">
        <ele>551.79998779297</ele>
        <time>2022-04-06T10:53:40.721Z</time>
      </trkpt>
      <trkpt lat="44.0807" lon="5.98685">
        <ele>552.20001220703</ele>
        <time>2022-04-06T10:53:47.529Z</time>
      </trkpt>
      <trkpt lat="44.08068" lon="5.98679">
        <ele>551.79998779297</ele>
        <time>2022-04-06T10:53:54.339Z</time>
      </trkpt>
      <trkpt lat="44.08065" lon="5.98673">
        <ele>551.59997558594</ele>
        <time>2022-04-06T10:54:01.151Z</time>
      </trkpt>
      <trkpt lat="44.08061" lon="5.98666">
        <ele>551.59997558594</ele>
        <time>2022-04-06T10:54:07.965Z</time>
      </trkpt>
      <trkpt lat="44.08058" lon="5.98654">
        <ele>552</ele>
        <time>2022-04-06T10:54:14.781Z</time>
      </trkpt>
      <trkpt lat="44.08057" lon="5.98647">
        <ele>552.59997558594</ele>
        <time>2022-04-06T10:54:21.599Z</time>
      </trkpt>
      <trkpt lat="44.08053" lon="5.98639">
        <ele>553</ele>
        <time>2022-04-06T10:54:28.419Z</time>
      </trkpt>
      <trkpt lat="44.08051" lon="5.98636">
        <ele>553</ele>
        <time>2022-04-06T10:54:35.240Z</time>
      </trkpt>
      <trkpt lat="44.08041" lon="5.98628">
        <ele>554.20001220703</ele>
        <time>2022-04-06T10:54:42.065Z</time>
      </trkpt>
      <trkpt lat="44.08038" lon="5.98628">
        <ele>554.59997558594</ele>
        <time>2022-04-06T10:54:48.891Z</time>
      </trkpt>
      <trkpt lat="44.08037" lon="5.98635">
        <ele>555.40002441406</ele>
        <time>2022-04-06T10:54:55.718Z</time>
      </trkpt>
      <trkpt lat="44.08036" lon="5.98639">
        <ele>555.79998779297</ele>
        <time>2022-04-06T10:55:02.546Z</time>
      </trkpt>
      <trkpt lat="44.08036" lon="5.98649">
        <ele>556.59997558594</ele>
        <time>2022-04-06T10:55:09.376Z</time>
      </trkpt>
      <trkpt lat="44.08035" lon="5.98662">
        <ele>557.20001220703</ele>
        <time>2022-04-06T10:55:16.209Z</time>
      </trkpt>
      <trkpt lat="44.08034" lon="5.98667">
        <ele>557.59997558594</ele>
        <time>2022-04-06T10:55:23.044Z</time>
      </trkpt>
      <trkpt lat="44.08033" lon="5.98672">
        <ele>558</ele>
        <time>2022-04-06T10:55:29.880Z</time>
      </trkpt>
      <trkpt lat="44.08032" lon="5.98686">
        <ele>559</ele>
        <time>2022-04-06T10:55:36.719Z</time>
      </trkpt>
      <trkpt lat="44.08032" lon="5.98691">
        <ele>559.40002441406</ele>
        <time>2022-04-06T10:55:43.559Z</time>
      </trkpt>
      <trkpt lat="44.08031" lon="5.98695">
        <ele>560</ele>
        <time>2022-04-06T10:55:50.400Z</time>
      </trkpt>
      <trkpt lat="44.0803" lon="5.9871">
        <ele>561.20001220703</ele>
        <time>2022-04-06T10:55:57.244Z</time>
      </trkpt>
      <trkpt lat="44.08029" lon="5.98714">
        <ele>561.59997558594</ele>
        <time>2022-04-06T10:56:04.089Z</time>
      </trkpt>
      <trkpt lat="44.08024" lon="5.98719">
        <ele>562.40002441406</ele>
        <time>2022-04-06T10:56:10.936Z</time>
      </trkpt>
      <trkpt lat="44.08022" lon="5.98721">
        <ele>563</ele>
        <time>2022-04-06T10:56:17.784Z</time>
      </trkpt>
      <trkpt lat="44.08019" lon="5.98722">
        <ele>563.40002441406</ele>
        <time>2022-04-06T10:56:24.633Z</time>
      </trkpt>
      <trkpt lat="44.08012" lon="5.98725">
        <ele>564.40002441406</ele>
        <time>2022-04-06T10:56:31.485Z</time>
      </trkpt>
      <trkpt lat="44.0801" lon="5.98726">
        <ele>564.79998779297</ele>
        <time>2022-04-06T10:56:38.337Z</time>
      </trkpt>
      <trkpt lat="44.08009" lon="5.98726">
        <ele>565</ele>
        <time>2022-04-06T10:56:45.189Z</time>
      </trkpt>
      <trkpt lat="44.08007" lon="5.98728">
        <ele>565.40002441406</ele>
        <time>2022-04-06T10:56:52.042Z</time>
      </trkpt>
      <trkpt lat="44.08005" lon="5.98729">
        <ele>565.20001220703</ele>
        <time>2022-04-06T10:56:58.896Z</time>
      </trkpt>
      <trkpt lat="44.08002" lon="5.98728">
        <ele>565</ele>
        <time>2022-04-06T10:57:05.751Z</time>
      </trkpt>
      <trkpt lat="44.07995" lon="5.98725">
        <ele>564.40002441406</ele>
        <time>2022-04-06T10:57:12.608Z</time>
      </trkpt>
      <trkpt lat="44.07993" lon="5.98724">
        <ele>564.20001220703</ele>
        <time>2022-04-06T10:57:19.466Z</time>
      </trkpt>
      <trkpt lat="44.0799" lon="5.98724">
        <ele>564</ele>
        <time>2022-04-06T10:57:26.325Z</time>
      </trkpt>
      <trkpt lat="44.07984" lon="5.9872">
        <ele>564</ele>
        <time>2022-04-06T10:57:33.186Z</time>
      </trkpt>
      <trkpt lat="44.07976" lon="5.98717">
        <ele>564</ele>
        <time>2022-04-06T10:57:40.049Z</time>
      </trkpt>
      <trkpt lat="44.07972" lon="5.98716">
        <ele>564.20001220703</ele>
        <time>2022-04-06T10:57:46.914Z</time>
      </trkpt>
      <trkpt lat="44.07962" lon="5.98712">
        <ele>564.40002441406</ele>
        <time>2022-04-06T10:57:53.782Z</time>
      </trkpt>
      <trkpt lat="44.07958" lon="5.9871">
        <ele>564.40002441406</ele>
        <time>2022-04-06T10:58:00.651Z</time>
      </trkpt>
      <trkpt lat="44.07945" lon="5.98707">
        <ele>564.20001220703</ele>
        <time>2022-04-06T10:58:07.524Z</time>
      </trkpt>
      <trkpt lat="44.07944" lon="5.98708">
        <ele>564</ele>
        <time>2022-04-06T10:58:14.398Z</time>
      </trkpt>
      <trkpt lat="44.07949" lon="5.98715">
        <ele>562.59997558594</ele>
        <time>2022-04-06T10:58:21.274Z</time>
      </trkpt>
      <trkpt lat="44.07959" lon="5.9872">
        <ele>561.40002441406</ele>
        <time>2022-04-06T10:58:28.153Z</time>
      </trkpt>
      <trkpt lat="44.07963" lon="5.98723">
        <ele>561.20001220703</ele>
        <time>2022-04-06T10:58:35.034Z</time>
      </trkpt>
      <trkpt lat="44.07967" lon="5.98726">
        <ele>561</ele>
        <time>2022-04-06T10:58:41.916Z</time>
      </trkpt>
      <trkpt lat="44.0797" lon="5.9873">
        <ele>560.40002441406</ele>
        <time>2022-04-06T10:58:48.800Z</time>
      </trkpt>
      <trkpt lat="44.07977" lon="5.98738">
        <ele>558.79998779297</ele>
        <time>2022-04-06T10:58:55.686Z</time>
      </trkpt>
      <trkpt lat="44.07981" lon="5.98742">
        <ele>557.79998779297</ele>
        <time>2022-04-06T10:59:02.574Z</time>
      </trkpt>
      <trkpt lat="44.07991" lon="5.98749">
        <ele>556.59997558594</ele>
        <time>2022-04-06T10:59:09.465Z</time>
      </trkpt>
      <trkpt lat="44.07996" lon="5.98753">
        <ele>556</ele>
        <time>2022-04-06T10:59:16.358Z</time>
      </trkpt>
      <trkpt lat="44.08" lon="5.98758">
        <ele>555.59997558594</ele>
        <time>2022-04-06T10:59:23.253Z</time>
      </trkpt>
      <trkpt lat="44.08004" lon="5.98764">
        <ele>554.79998779297</ele>
        <time>2022-04-06T10:59:30.150Z</time>
      </trkpt>
      <trkpt lat="44.08011" lon="5.98775">
        <ele>553.79998779297</ele>
        <time>2022-04-06T10:59:37.050Z</time>
      </trkpt>
      <trkpt lat="44.08011" lon="5.98784">
        <ele>552.40002441406</ele>
        <time>2022-04-06T10:59:43.952Z</time>
      </trkpt>
      <trkpt lat="44.08004" lon="5.98783">
        <ele>550.79998779297</ele>
        <time>2022-04-06T10:59:50.857Z</time>
      </trkpt>
      <trkpt lat="44.07994" lon="5.98782">
        <ele>549.59997558594</ele>
        <time>2022-04-06T10:59:57.765Z</time>
      </trkpt>
      <trkpt lat="44.07989" lon="5.9878">
        <ele>549.20001220703</ele>
        <time>2022-04-06T11:00:04.674Z</time>
      </trkpt>
      <trkpt lat="44.07979" lon="5.98784">
        <ele>548.20001220703</ele>
        <time>2022-04-06T11:00:11.586Z</time>
      </trkpt>
      <trkpt lat="44.07982" lon="5.98793">
        <ele>547</ele>
        <time>2022-04-06T11:00:18.501Z</time>
      </trkpt>
      <trkpt lat="44.07985" lon="5.98798">
        <ele>546.20001220703</ele>
        <time>2022-04-06T11:00:25.417Z</time>
      </trkpt>
      <trkpt lat="44.07987" lon="5.98804">
        <ele>545.20001220703</ele>
        <time>2022-04-06T11:00:32.335Z</time>
      </trkpt>
      <trkpt lat="44.0799" lon="5.98814">
        <ele>543.79998779297</ele>
        <time>2022-04-06T11:00:39.255Z</time>
      </trkpt>
      <trkpt lat="44.07995" lon="5.98823">
        <ele>542.40002441406</ele>
        <time>2022-04-06T11:00:46.178Z</time>
      </trkpt>
      <trkpt lat="44.08002" lon="5.98835">
        <ele>541</ele>
        <time>2022-04-06T11:00:53.104Z</time>
      </trkpt>
      <trkpt lat="44.0801" lon="5.98848">
        <ele>539.20001220703</ele>
        <time>2022-04-06T11:01:00.034Z</time>
      </trkpt>
      <trkpt lat="44.08018" lon="5.9886">
        <ele>537.79998779297</ele>
        <time>2022-04-06T11:01:06.968Z</time>
      </trkpt>
      <trkpt lat="44.08021" lon="5.98865">
        <ele>537.40002441406</ele>
        <time>2022-04-06T11:01:13.903Z</time>
      </trkpt>
      <trkpt lat="44.08024" lon="5.98868">
        <ele>536.79998779297</ele>
        <time>2022-04-06T11:01:20.839Z</time>
      </trkpt>
      <trkpt lat="44.08032" lon="5.9887">
        <ele>536.20001220703</ele>
        <time>2022-04-06T11:01:27.778Z</time>
      </trkpt>
      <trkpt lat="44.0804" lon="5.98873">
        <ele>535.59997558594</ele>
        <time>2022-04-06T11:01:34.720Z</time>
      </trkpt>
      <trkpt lat="44.08048" lon="5.98882">
        <ele>535.20001220703</ele>
        <time>2022-04-06T11:01:41.665Z</time>
      </trkpt>
      <trkpt lat="44.08051" lon="5.98888">
        <ele>534.79998779297</ele>
        <time>2022-04-06T11:01:48.612Z</time>
      </trkpt>
      <trkpt lat="44.08055" lon="5.98894">
        <ele>534.40002441406</ele>
        <time>2022-04-06T11:01:55.560Z</time>
      </trkpt>
      <trkpt lat="44.08064" lon="5.98906">
        <ele>533.20001220703</ele>
        <time>2022-04-06T11:02:02.512Z</time>
      </trkpt>
      <trkpt lat="44.08074" lon="5.98911">
        <ele>531.59997558594</ele>
        <time>2022-04-06T11:02:09.468Z</time>
      </trkpt>
      <trkpt lat="44.08076" lon="5.98913">
        <ele>531.20001220703</ele>
        <time>2022-04-06T11:02:16.425Z</time>
      </trkpt>
      <trkpt lat="44.08067" lon="5.98918">
        <ele>530.40002441406</ele>
        <time>2022-04-06T11:02:23.385Z</time>
      </trkpt>
      <trkpt lat="44.08056" lon="5.98919">
        <ele>528.79998779297</ele>
        <time>2022-04-06T11:02:30.348Z</time>
      </trkpt>
      <trkpt lat="44.08052" lon="5.98918">
        <ele>527.79998779297</ele>
        <time>2022-04-06T11:02:37.312Z</time>
      </trkpt>
      <trkpt lat="44.08049" lon="5.9892">
        <ele>527.20001220703</ele>
        <time>2022-04-06T11:02:44.277Z</time>
      </trkpt>
      <trkpt lat="44.08043" lon="5.9893">
        <ele>525.79998779297</ele>
        <time>2022-04-06T11:02:51.246Z</time>
      </trkpt>
      <trkpt lat="44.08045" lon="5.98942">
        <ele>524</ele>
        <time>2022-04-06T11:02:58.217Z</time>
      </trkpt>
      <trkpt lat="44.08046" lon="5.98948">
        <ele>523.40002441406</ele>
        <time>2022-04-06T11:03:05.190Z</time>
      </trkpt>
      <trkpt lat="44.08048" lon="5.98954">
        <ele>523</ele>
        <time>2022-04-06T11:03:12.164Z</time>
      </trkpt>
      <trkpt lat="44.0805" lon="5.98959">
        <ele>522.40002441406</ele>
        <time>2022-04-06T11:03:19.140Z</time>
      </trkpt>
      <trkpt lat="44.08055" lon="5.98968">
        <ele>521.59997558594</ele>
        <time>2022-04-06T11:03:26.118Z</time>
      </trkpt>
      <trkpt lat="44.08056" lon="5.98976">
        <ele>521</ele>
        <time>2022-04-06T11:03:33.098Z</time>
      </trkpt>
      <trkpt lat="44.08058" lon="5.98985">
        <ele>520.40002441406</ele>
        <time>2022-04-06T11:03:40.080Z</time>
      </trkpt>
      <trkpt lat="44.08065" lon="5.98998">
        <ele>518.79998779297</ele>
        <time>2022-04-06T11:03:47.066Z</time>
      </trkpt>
      <trkpt lat="44.08074" lon="5.99008">
        <ele>517.59997558594</ele>
        <time>2022-04-06T11:03:54.055Z</time>
      </trkpt>
      <trkpt lat="44.08077" lon="5.99013">
        <ele>517.40002441406</ele>
        <time>2022-04-06T11:04:01.046Z</time>
      </trkpt>
      <trkpt lat="44.08079" lon="5.99019">
        <ele>517.20001220703</ele>
        <time>2022-04-06T11:04:08.038Z</time>
      </trkpt>
      <trkpt lat="44.08083" lon="5.99027">
        <ele>516.79998779297</ele>
        <time>2022-04-06T11:04:15.033Z</time>
      </trkpt>
      <trkpt lat="44.08086" lon="5.99027">
        <ele>516.59997558594</ele>
        <time>2022-04-06T11:04:22.029Z</time>
      </trkpt>
      <trkpt lat="44.08102" lon="5.99027">
        <ele>516</ele>
        <time>2022-04-06T11:04:29.030Z</time>
      </trkpt>
      <trkpt lat="44.0811" lon="5.99028">
        <ele>516</ele>
        <time>2022-04-06T11:04:36.033Z</time>
      </trkpt>
      <trkpt lat="44.08116" lon="5.99031">
        <ele>516.20001220703</ele>
        <time>2022-04-06T11:04:43.038Z</time>
      </trkpt>
      <trkpt lat="44.08122" lon="5.99038">
        <ele>516.20001220703</ele>
        <time>2022-04-06T11:04:50.046Z</time>
      </trkpt>
      <trkpt lat="44.08131" lon="5.99046">
        <ele>515.79998779297</ele>
        <time>2022-04-06T11:04:57.057Z</time>
      </trkpt>
      <trkpt lat="44.08133" lon="5.99051">
        <ele>515</ele>
        <time>2022-04-06T11:05:04.070Z</time>
      </trkpt>
      <trkpt lat="44.08141" lon="5.99063">
        <ele>514.40002441406</ele>
        <time>2022-04-06T11:05:11.086Z</time>
      </trkpt>
      <trkpt lat="44.08145" lon="5.99072">
        <ele>513.79998779297</ele>
        <time>2022-04-06T11:05:18.105Z</time>
      </trkpt>
      <trkpt lat="44.0815" lon="5.99079">
        <ele>512.79998779297</ele>
        <time>2022-04-06T11:05:25.126Z</time>
      </trkpt>
      <trkpt lat="44.08154" lon="5.99086">
        <ele>512.20001220703</ele>
        <time>2022-04-06T11:05:32.149Z</time>
      </trkpt>
      <trkpt lat="44.08157" lon="5.99093">
        <ele>511.60000610352</ele>
        <time>2022-04-06T11:05:39.174Z</time>
      </trkpt>
      <trkpt lat="44.08162" lon="5.99109">
        <ele>510.20001220703</ele>
        <time>2022-04-06T11:05:46.203Z</time>
      </trkpt>
      <trkpt lat="44.08167" lon="5.99114">
        <ele>509.20001220703</ele>
        <time>2022-04-06T11:05:53.234Z</time>
      </trkpt>
      <trkpt lat="44.08172" lon="5.99119">
        <ele>508.39999389648</ele>
        <time>2022-04-06T11:06:00.266Z</time>
      </trkpt>
      <trkpt lat="44.08178" lon="5.9913">
        <ele>507.39999389648</ele>
        <time>2022-04-06T11:06:07.302Z</time>
      </trkpt>
      <trkpt lat="44.08181" lon="5.99134">
        <ele>507</ele>
        <time>2022-04-06T11:06:14.339Z</time>
      </trkpt>
      <trkpt lat="44.08186" lon="5.99138">
        <ele>506.39999389648</ele>
        <time>2022-04-06T11:06:21.378Z</time>
      </trkpt>
      <trkpt lat="44.0819" lon="5.99141">
        <ele>505.79998779297</ele>
        <time>2022-04-06T11:06:28.418Z</time>
      </trkpt>
      <trkpt lat="44.08194" lon="5.99144">
        <ele>505.39999389648</ele>
        <time>2022-04-06T11:06:35.460Z</time>
      </trkpt>
      <trkpt lat="44.08196" lon="5.99147">
        <ele>504.79998779297</ele>
        <time>2022-04-06T11:06:42.503Z</time>
      </trkpt>
      <trkpt lat="44.08191" lon="5.99153">
        <ele>503.60000610352</ele>
        <time>2022-04-06T11:06:49.548Z</time>
      </trkpt>
      <trkpt lat="44.08185" lon="5.99159">
        <ele>501.79998779297</ele>
        <time>2022-04-06T11:06:56.595Z</time>
      </trkpt>
      <trkpt lat="44.08182" lon="5.99162">
        <ele>500</ele>
        <time>2022-04-06T11:07:03.643Z</time>
      </trkpt>
      <trkpt lat="44.08179" lon="5.99165">
        <ele>499</ele>
        <time>2022-04-06T11:07:10.693Z</time>
      </trkpt>
      <trkpt lat="44.08177" lon="5.99169">
        <ele>498.20001220703</ele>
        <time>2022-04-06T11:07:17.744Z</time>
      </trkpt>
      <trkpt lat="44.08174" lon="5.99172">
        <ele>497.20001220703</ele>
        <time>2022-04-06T11:07:24.796Z</time>
      </trkpt>
      <trkpt lat="44.0817" lon="5.99176">
        <ele>495.39999389648</ele>
        <time>2022-04-06T11:07:31.850Z</time>
      </trkpt>
      <trkpt lat="44.08165" lon="5.99177">
        <ele>494.79998779297</ele>
        <time>2022-04-06T11:07:38.905Z</time>
      </trkpt>
      <trkpt lat="44.08161" lon="5.99181">
        <ele>493.60000610352</ele>
        <time>2022-04-06T11:07:45.962Z</time>
      </trkpt>
      <trkpt lat="44.08158" lon="5.99186">
        <ele>491.79998779297</ele>
        <time>2022-04-06T11:07:53.020Z</time>
      </trkpt>
      <trkpt lat="44.08156" lon="5.99191">
        <ele>490.60000610352</ele>
        <time>2022-04-06T11:08:00.079Z</time>
      </trkpt>
      <trkpt lat="44.08155" lon="5.99198">
        <ele>489.60000610352</ele>
        <time>2022-04-06T11:08:07.140Z</time>
      </trkpt>
      <trkpt lat="44.08153" lon="5.99203">
        <ele>489</ele>
        <time>2022-04-06T11:08:14.202Z</time>
      </trkpt>
      <trkpt lat="44.08151" lon="5.99208">
        <ele>488.60000610352</ele>
        <time>2022-04-06T11:08:21.265Z</time>
      </trkpt>
      <trkpt lat="44.08148" lon="5.99212">
        <ele>488.39999389648</ele>
        <time>2022-04-06T11:08:28.330Z</time>
      </trkpt>
      <trkpt lat="44.08141" lon="5.99218">
        <ele>488</ele>
        <time>2022-04-06T11:08:35.398Z</time>
      </trkpt>
      <trkpt lat="44.08137" lon="5.9922">
        <ele>487.79998779297</ele>
        <time>2022-04-06T11:08:42.467Z</time>
      </trkpt>
      <trkpt lat="44.08123" lon="5.99226">
        <ele>487.39999389648</ele>
        <time>2022-04-06T11:08:49.541Z</time>
      </trkpt>
      <trkpt lat="44.0812" lon="5.99226">
        <ele>487.39999389648</ele>
        <time>2022-04-06T11:08:56.615Z</time>
      </trkpt>
      <trkpt lat="44.08117" lon="5.99227">
        <ele>487.20001220703</ele>
        <time>2022-04-06T11:09:03.690Z</time>
      </trkpt>
      <trkpt lat="44.081" lon="5.99231">
        <ele>486.60000610352</ele>
        <time>2022-04-06T11:09:10.771Z</time>
      </trkpt>
      <trkpt lat="44.08082" lon="5.99235">
        <ele>486</ele>
        <time>2022-04-06T11:09:17.858Z</time>
      </trkpt>
      <trkpt lat="44.08071" lon="5.99246">
        <ele>485.20001220703</ele>
        <time>2022-04-06T11:09:24.949Z</time>
      </trkpt>
      <trkpt lat="44.08068" lon="5.9926">
        <ele>485.79998779297</ele>
        <time>2022-04-06T11:09:32.043Z</time>
      </trkpt>
      <trkpt lat="44.08065" lon="5.99263">
        <ele>486.20001220703</ele>
        <time>2022-04-06T11:09:39.138Z</time>
      </trkpt>
      <trkpt lat="44.0806" lon="5.99266">
        <ele>486.79998779297</ele>
        <time>2022-04-06T11:09:46.235Z</time>
      </trkpt>
      <trkpt lat="44.08058" lon="5.99267">
        <ele>487</ele>
        <time>2022-04-06T11:09:53.333Z</time>
      </trkpt>
      <trkpt lat="44.08049" lon="5.99275">
        <ele>488</ele>
        <time>2022-04-06T11:10:00.434Z</time>
      </trkpt>
      <trkpt lat="44.08047" lon="5.99278">
        <ele>488.39999389648</ele>
        <time>2022-04-06T11:10:07.536Z</time>
      </trkpt>
      <trkpt lat="44.08045" lon="5.99291">
        <ele>488.60000610352</ele>
        <time>2022-04-06T11:10:14.641Z</time>
      </trkpt>
      <trkpt lat="44.08041" lon="5.99309">
        <ele>488.60000610352</ele>
        <time>2022-04-06T11:10:21.750Z</time>
      </trkpt>
      <trkpt lat="44.08036" lon="5.99324">
        <ele>489.20001220703</ele>
        <time>2022-04-06T11:10:28.863Z</time>
      </trkpt>
      <trkpt lat="44.08033" lon="5.99331">
        <ele>489.39999389648</ele>
        <time>2022-04-06T11:10:35.978Z</time>
      </trkpt>
      <trkpt lat="44.08024" lon="5.99347">
        <ele>490.20001220703</ele>
        <time>2022-04-06T11:10:43.098Z</time>
      </trkpt>
      <trkpt lat="44.08019" lon="5.99359">
        <ele>491.20001220703</ele>
        <time>2022-04-06T11:10:50.221Z</time>
      </trkpt>
      <trkpt lat="44.08017" lon="5.99366">
        <ele>492</ele>
        <time>2022-04-06T11:10:57.345Z</time>
      </trkpt>
      <trkpt lat="44.08017" lon="5.99369">
        <ele>492.39999389648</ele>
        <time>2022-04-06T11:11:04.470Z</time>
      </trkpt>
      <trkpt lat="44.08013" lon="5.99386">
        <ele>493.60000610352</ele>
        <time>2022-04-06T11:11:11.599Z</time>
      </trkpt>
      <trkpt lat="44.08011" lon="5.99392">
        <ele>494.20001220703</ele>
        <time>2022-04-06T11:11:18.730Z</time>
      </trkpt>
      <trkpt lat="44.0801" lon="5.99399">
        <ele>494.60000610352</ele>
        <time>2022-04-06T11:11:25.862Z</time>
      </trkpt>
      <trkpt lat="44.08009" lon="5.99412">
        <ele>495.60000610352</ele>
        <time>2022-04-06T11:11:32.997Z</time>
      </trkpt>
      <trkpt lat="44.08009" lon="5.99428">
        <ele>496.60000610352</ele>
        <time>2022-04-06T11:11:40.136Z</time>
      </trkpt>
      <trkpt lat="44.08009" lon="5.99431">
        <ele>496.79998779297</ele>
        <time>2022-04-06T11:11:47.276Z</time>
      </trkpt>
      <trkpt lat="44.0801" lon="5.99441">
        <ele>497.60000610352</ele>
        <time>2022-04-06T11:11:54.418Z</time>
      </trkpt>
      <trkpt lat="44.08009" lon="5.99447">
        <ele>498.20001220703</ele>
        <time>2022-04-06T11:12:01.561Z</time>
      </trkpt>
      <trkpt lat="44.08008" lon="5.99453">
        <ele>498.79998779297</ele>
        <time>2022-04-06T11:12:08.706Z</time>
      </trkpt>
      <trkpt lat="44.08009" lon="5.99463">
        <ele>499.39999389648</ele>
        <time>2022-04-06T11:12:15.853Z</time>
      </trkpt>
      <trkpt lat="44.08013" lon="5.99472">
        <ele>499.79998779297</ele>
        <time>2022-04-06T11:12:23.002Z</time>
      </trkpt>
      <trkpt lat="44.08018" lon="5.9948">
        <ele>500.39999389648</ele>
        <time>2022-04-06T11:12:30.154Z</time>
      </trkpt>
      <trkpt lat="44.08025" lon="5.99491">
        <ele>501</ele>
        <time>2022-04-06T11:12:37.309Z</time>
      </trkpt>
      <trkpt lat="44.08037" lon="5.99507">
        <ele>501.20001220703</ele>
        <time>2022-04-06T11:12:44.469Z</time>
      </trkpt>
      <trkpt lat="44.08046" lon="5.99521">
        <ele>501.79998779297</ele>
        <time>2022-04-06T11:12:51.634Z</time>
      </trkpt>
      <trkpt lat="44.08053" lon="5.99534">
        <ele>502</ele>
        <time>2022-04-06T11:12:58.803Z</time>
      </trkpt>
      <trkpt lat="44.08069" lon="5.9956">
        <ele>502.60000610352</ele>
        <time>2022-04-06T11:13:05.979Z</time>
      </trkpt>
      <trkpt lat="44.08072" lon="5.99561">
        <ele>502.79998779297</ele>
        <time>2022-04-06T11:13:13.156Z</time>
      </trkpt>
      <trkpt lat="44.08082" lon="5.99566">
        <ele>504</ele>
        <time>2022-04-06T11:13:20.336Z</time>
      </trkpt>
      <trkpt lat="44.08087" lon="5.99567">
        <ele>505</ele>
        <time>2022-04-06T11:13:27.518Z</time>
      </trkpt>
      <trkpt lat="44.08089" lon="5.99568">
        <ele>505</ele>
        <time>2022-04-06T11:13:34.701Z</time>
      </trkpt>
      <trkpt lat="44.081" lon="5.99574">
        <ele>506.39999389648</ele>
        <time>2022-04-06T11:13:41.888Z</time>
      </trkpt>
      <trkpt lat="44.08105" lon="5.99577">
        <ele>506.79998779297</ele>
        <time>2022-04-06T11:13:49.076Z</time>
      </trkpt>
      <trkpt lat="44.08112" lon="5.99581">
        <ele>507.39999389648</ele>
        <time>2022-04-06T11:13:56.267Z</time>
      </trkpt>
      <trkpt lat="44.08125" lon="5.99587">
        <ele>508.60000610352</ele>
        <time>2022-04-06T11:14:03.462Z</time>
      </trkpt>
      <trkpt lat="44.08138" lon="5.99593">
        <ele>509.60000610352</ele>
        <time>2022-04-06T11:14:10.661Z</time>
      </trkpt>
      <trkpt lat="44.08148" lon="5.99599">
        <ele>510.39999389648</ele>
        <time>2022-04-06T11:14:17.864Z</time>
      </trkpt>
      <trkpt lat="44.0815" lon="5.99601">
        <ele>510.79998779297</ele>
        <time>2022-04-06T11:14:25.067Z</time>
      </trkpt>
      <trkpt lat="44.08166" lon="5.99609">
        <ele>512</ele>
        <time>2022-04-06T11:14:32.276Z</time>
      </trkpt>
      <trkpt lat="44.08168" lon="5.9961">
        <ele>512.20001220703</ele>
        <time>2022-04-06T11:14:39.486Z</time>
      </trkpt>
      <trkpt lat="44.08179" lon="5.99613">
        <ele>513</ele>
        <time>2022-04-06T11:14:46.699Z</time>
      </trkpt>
      <trkpt lat="44.08185" lon="5.99617">
        <ele>514</ele>
        <time>2022-04-06T11:14:53.914Z</time>
      </trkpt>
      <trkpt lat="44.08187" lon="5.99619">
        <ele>514.20001220703</ele>
        <time>2022-04-06T11:15:01.130Z</time>
      </trkpt>
      <trkpt lat="44.08195" lon="5.99627">
        <ele>515</ele>
        <time>2022-04-06T11:15:08.349Z</time>
      </trkpt>
      <trkpt lat="44.082" lon="5.99631">
        <ele>515.20001220703</ele>
        <time>2022-04-06T11:15:15.570Z</time>
      </trkpt>
      <trkpt lat="44.08208" lon="5.99631">
        <ele>516</ele>
        <time>2022-04-06T11:15:22.793Z</time>
      </trkpt>
      <trkpt lat="44.08213" lon="5.99629">
        <ele>516.59997558594</ele>
        <time>2022-04-06T11:15:30.018Z</time>
      </trkpt>
      <trkpt lat="44.08219" lon="5.99626">
        <ele>518</ele>
        <time>2022-04-06T11:15:37.245Z</time>
      </trkpt>
      <trkpt lat="44.0822" lon="5.99627">
        <ele>518.20001220703</ele>
        <time>2022-04-06T11:15:44.472Z</time>
      </trkpt>
      <trkpt lat="44.08221" lon="5.99634">
        <ele>518.40002441406</ele>
        <time>2022-04-06T11:15:51.701Z</time>
      </trkpt>
      <trkpt lat="44.08222" lon="5.99639">
        <ele>518.40002441406</ele>
        <time>2022-04-06T11:15:58.931Z</time>
      </trkpt>
      <trkpt lat="44.08221" lon="5.99651">
        <ele>517.40002441406</ele>
        <time>2022-04-06T11:16:06.164Z</time>
      </trkpt>
      <trkpt lat="44.08221" lon="5.99658">
        <ele>516.79998779297</ele>
        <time>2022-04-06T11:16:13.399Z</time>
      </trkpt>
      <trkpt lat="44.08221" lon="5.99665">
        <ele>515.40002441406</ele>
        <time>2022-04-06T11:16:20.635Z</time>
      </trkpt>
      <trkpt lat="44.08223" lon="5.9967">
        <ele>514.20001220703</ele>
        <time>2022-04-06T11:16:27.872Z</time>
      </trkpt>
      <trkpt lat="44.08225" lon="5.99673">
        <ele>513.40002441406</ele>
        <time>2022-04-06T11:16:35.110Z</time>
      </trkpt>
      <trkpt lat="44.08227" lon="5.99676">
        <ele>513</ele>
        <time>2022-04-06T11:16:42.349Z</time>
      </trkpt>
      <trkpt lat="44.08237" lon="5.99683">
        <ele>513.20001220703</ele>
        <time>2022-04-06T11:16:49.592Z</time>
      </trkpt>
      <trkpt lat="44.08241" lon="5.99687">
        <ele>514.20001220703</ele>
        <time>2022-04-06T11:16:56.837Z</time>
      </trkpt>
      <trkpt lat="44.08252" lon="5.99691">
        <ele>515.59997558594</ele>
        <time>2022-04-06T11:17:04.085Z</time>
      </trkpt>
      <trkpt lat="44.08264" lon="5.99697">
        <ele>516.79998779297</ele>
        <time>2022-04-06T11:17:11.337Z</time>
      </trkpt>
      <trkpt lat="44.08274" lon="5.99702">
        <ele>517.59997558594</ele>
        <time>2022-04-06T11:17:18.592Z</time>
      </trkpt>
      <trkpt lat="44.08277" lon="5.99703">
        <ele>517.79998779297</ele>
        <time>2022-04-06T11:17:25.849Z</time>
      </trkpt>
      <trkpt lat="44.08282" lon="5.99703">
        <ele>518.20001220703</ele>
        <time>2022-04-06T11:17:33.107Z</time>
      </trkpt>
      <trkpt lat="44.08285" lon="5.99703">
        <ele>518.40002441406</ele>
        <time>2022-04-06T11:17:40.366Z</time>
      </trkpt>
      <trkpt lat="44.08293" lon="5.99702">
        <ele>519.40002441406</ele>
        <time>2022-04-06T11:17:47.628Z</time>
      </trkpt>
      <trkpt lat="44.08302" lon="5.99699">
        <ele>520.59997558594</ele>
        <time>2022-04-06T11:17:54.892Z</time>
      </trkpt>
      <trkpt lat="44.08315" lon="5.997">
        <ele>521.59997558594</ele>
        <time>2022-04-06T11:18:02.161Z</time>
      </trkpt>
      <trkpt lat="44.08319" lon="5.99702">
        <ele>521.79998779297</ele>
        <time>2022-04-06T11:18:09.431Z</time>
      </trkpt>
      <trkpt lat="44.08323" lon="5.99702">
        <ele>522</ele>
        <time>2022-04-06T11:18:16.702Z</time>
      </trkpt>
      <trkpt lat="44.08332" lon="5.997">
        <ele>522</ele>
        <time>2022-04-06T11:18:23.976Z</time>
      </trkpt>
      <trkpt lat="44.08345" lon="5.99696">
        <ele>522.79998779297</ele>
        <time>2022-04-06T11:18:31.254Z</time>
      </trkpt>
      <trkpt lat="44.08348" lon="5.99696">
        <ele>523.59997558594</ele>
        <time>2022-04-06T11:18:38.533Z</time>
      </trkpt>
      <trkpt lat="44.08351" lon="5.99696">
        <ele>524.59997558594</ele>
        <time>2022-04-06T11:18:45.813Z</time>
      </trkpt>
      <trkpt lat="44.08357" lon="5.99697">
        <ele>525.59997558594</ele>
        <time>2022-04-06T11:18:53.095Z</time>
      </trkpt>
      <trkpt lat="44.08368" lon="5.99704">
        <ele>525.79998779297</ele>
        <time>2022-04-06T11:19:00.381Z</time>
      </trkpt>
      <trkpt lat="44.08379" lon="5.99705">
        <ele>526.40002441406</ele>
        <time>2022-04-06T11:19:07.670Z</time>
      </trkpt>
      <trkpt lat="44.08383" lon="5.99704">
        <ele>526.79998779297</ele>
        <time>2022-04-06T11:19:14.960Z</time>
      </trkpt>
      <trkpt lat="44.08389" lon="5.99701">
        <ele>527.79998779297</ele>
        <time>2022-04-06T11:19:22.253Z</time>
      </trkpt>
      <trkpt lat="44.08391" lon="5.997">
        <ele>528.40002441406</ele>
        <time>2022-04-06T11:19:29.546Z</time>
      </trkpt>
      <trkpt lat="44.08393" lon="5.997">
        <ele>529</ele>
        <time>2022-04-06T11:19:36.840Z</time>
      </trkpt>
      <trkpt lat="44.08395" lon="5.99698">
        <ele>529.79998779297</ele>
        <time>2022-04-06T11:19:44.135Z</time>
      </trkpt>
      <trkpt lat="44.08398" lon="5.99697">
        <ele>530.20001220703</ele>
        <time>2022-04-06T11:19:51.431Z</time>
      </trkpt>
      <trkpt lat="44.08404" lon="5.99694">
        <ele>531</ele>
        <time>2022-04-06T11:19:58.729Z</time>
      </trkpt>
      <trkpt lat="44.08407" lon="5.99691">
        <ele>531.59997558594</ele>
        <time>2022-04-06T11:20:06.028Z</time>
      </trkpt>
      <trkpt lat="44.0841" lon="5.99684">
        <ele>532.59997558594</ele>
        <time>2022-04-06T11:20:13.329Z</time>
      </trkpt>
      <trkpt lat="44.08411" lon="5.99683">
        <ele>533.59997558594</ele>
        <time>2022-04-06T11:20:20.630Z</time>
      </trkpt>
      <trkpt lat="44.08412" lon="5.99683">
        <ele>534.40002441406</ele>
        <time>2022-04-06T11:20:27.931Z</time>
      </trkpt>
      <trkpt lat="44.08421" lon="5.9968">
        <ele>535.79998779297</ele>
        <time>2022-04-06T11:20:35.235Z</time>
      </trkpt>
      <trkpt lat="44.0843" lon="5.99677">
        <ele>537</ele>
        <time>2022-04-06T11:20:42.542Z</time>
      </trkpt>
      <trkpt lat="44.08432" lon="5.99675">
        <ele>537.40002441406</ele>
        <time>2022-04-06T11:20:49.850Z</time>
      </trkpt>
      <trkpt lat="44.08434" lon="5.99673">
        <ele>538</ele>
        <time>2022-04-06T11:20:57.159Z</time>
      </trkpt>
      <trkpt lat="44.08438" lon="5.9967">
        <ele>539.20001220703</ele>
        <time>2022-04-06T11:21:04.469Z</time>
      </trkpt>
      <trkpt lat="44.08438" lon="5.99663">
        <ele>540.20001220703</ele>
        <time>2022-04-06T11:21:11.781Z</time>
      </trkpt>
      <trkpt lat="44.08437" lon="5.9966">
        <ele>540.59997558594</ele>
        <time>2022-04-06T11:21:19.093Z</time>
      </trkpt>
      <trkpt lat="44.08435" lon="5.99652">
        <ele>542.20001220703</ele>
        <time>2022-04-06T11:21:26.407Z</time>
      </trkpt>
      <trkpt lat="44.08437" lon="5.99647">
        <ele>543.59997558594</ele>
        <time>2022-04-06T11:21:33.723Z</time>
      </trkpt>
      <trkpt lat="44.08438" lon="5.99647">
        <ele>544</ele>
        <time>2022-04-06T11:21:41.039Z</time>
      </trkpt>
      <trkpt lat="44.08439" lon="5.99647">
        <ele>544.40002441406</ele>
        <time>2022-04-06T11:21:48.355Z</time>
      </trkpt>
      <trkpt lat="44.08441" lon="5.99647">
        <ele>544.59997558594</ele>
        <time>2022-04-06T11:21:55.672Z</time>
      </trkpt>
      <trkpt lat="44.08442" lon="5.99646">
        <ele>544.79998779297</ele>
        <time>2022-04-06T11:22:02.989Z</time>
      </trkpt>
      <trkpt lat="44.08446" lon="5.99642">
        <ele>545</ele>
        <time>2022-04-06T11:22:10.308Z</time>
      </trkpt>
      <trkpt lat="44.08452" lon="5.99638">
        <ele>545.40002441406</ele>
        <time>2022-04-06T11:22:17.629Z</time>
      </trkpt>
      <trkpt lat="44.08457" lon="5.99633">
        <ele>545.79998779297</ele>
        <time>2022-04-06T11:22:24.952Z</time>
      </trkpt>
      <trkpt lat="44.08464" lon="5.99625">
        <ele>547</ele>
        <time>2022-04-06T11:22:32.278Z</time>
      </trkpt>
      <trkpt lat="44.08468" lon="5.99624">
        <ele>547.59997558594</ele>
        <time>2022-04-06T11:22:39.605Z</time>
      </trkpt>
      <trkpt lat="44.08475" lon="5.99623">
        <ele>548</ele>
        <time>2022-04-06T11:22:46.934Z</time>
      </trkpt>
      <trkpt lat="44.08482" lon="5.99621">
        <ele>548.20001220703</ele>
        <time>2022-04-06T11:22:54.265Z</time>
      </trkpt>
      <trkpt lat="44.08489" lon="5.99616">
        <ele>549</ele>
        <time>2022-04-06T11:23:01.599Z</time>
      </trkpt>
      <trkpt lat="44.08493" lon="5.99614">
        <ele>549.20001220703</ele>
        <time>2022-04-06T11:23:08.934Z</time>
      </trkpt>
      <trkpt lat="44.08501" lon="5.99613">
        <ele>550</ele>
        <time>2022-04-06T11:23:16.272Z</time>
      </trkpt>
      <trkpt lat="44.08507" lon="5.99613">
        <ele>550.59997558594</ele>
        <time>2022-04-06T11:23:23.612Z</time>
      </trkpt>
      <trkpt lat="44.08511" lon="5.99613">
        <ele>551.40002441406</ele>
        <time>2022-04-06T11:23:30.953Z</time>
      </trkpt>
      <trkpt lat="44.0852" lon="5.99613">
        <ele>552.59997558594</ele>
        <time>2022-04-06T11:23:38.297Z</time>
      </trkpt>
      <trkpt lat="44.08526" lon="5.99614">
        <ele>553.59997558594</ele>
        <time>2022-04-06T11:23:45.643Z</time>
      </trkpt>
      <trkpt lat="44.08535" lon="5.99613">
        <ele>554.59997558594</ele>
        <time>2022-04-06T11:23:52.992Z</time>
      </trkpt>
      <trkpt lat="44.08537" lon="5.99613">
        <ele>554.79998779297</ele>
        <time>2022-04-06T11:24:00.341Z</time>
      </trkpt>
      <trkpt lat="44.08543" lon="5.99614">
        <ele>555.79998779297</ele>
        <time>2022-04-06T11:24:07.692Z</time>
      </trkpt>
      <trkpt lat="44.08545" lon="5.99614">
        <ele>556</ele>
        <time>2022-04-06T11:24:15.044Z</time>
      </trkpt>
      <trkpt lat="44.08545" lon="5.99613">
        <ele>556.20001220703</ele>
        <time>2022-04-06T11:24:22.396Z</time>
      </trkpt>
      <trkpt lat="44.08548" lon="5.99614">
        <ele>556.59997558594</ele>
        <time>2022-04-06T11:24:29.749Z</time>
      </trkpt>
      <trkpt lat="44.08552" lon="5.99614">
        <ele>557</ele>
        <time>2022-04-06T11:24:37.103Z</time>
      </trkpt>
      <trkpt lat="44.08555" lon="5.99615">
        <ele>557.59997558594</ele>
        <time>2022-04-06T11:24:44.458Z</time>
      </trkpt>
      <trkpt lat="44.08556" lon="5.9962">
        <ele>558.40002441406</ele>
        <time>2022-04-06T11:24:51.814Z</time>
      </trkpt>
      <trkpt lat="44.08556" lon="5.99623">
        <ele>558.79998779297</ele>
        <time>2022-04-06T11:24:59.171Z</time>
      </trkpt>
      <trkpt lat="44.08557" lon="5.99632">
        <ele>559.59997558594</ele>
        <time>2022-04-06T11:25:06.530Z</time>
      </trkpt>
      <trkpt lat="44.08557" lon="5.99635">
        <ele>559.59997558594</ele>
        <time>2022-04-06T11:25:13.890Z</time>
      </trkpt>
      <trkpt lat="44.08558" lon="5.99638">
        <ele>560</ele>
        <time>2022-04-06T11:25:21.250Z</time>
      </trkpt>
      <trkpt lat="44.08563" lon="5.99649">
        <ele>560.79998779297</ele>
        <time>2022-04-06T11:25:28.613Z</time>
      </trkpt>
      <trkpt lat="44.08564" lon="5.99652">
        <ele>561.20001220703</ele>
        <time>2022-04-06T11:25:35.977Z</time>
      </trkpt>
      <trkpt lat="44.08569" lon="5.99669">
        <ele>562.20001220703</ele>
        <time>2022-04-06T11:25:43.345Z</time>
      </trkpt>
      <trkpt lat="44.08578" lon="5.9967">
        <ele>563.20001220703</ele>
        <time>2022-04-06T11:25:50.716Z</time>
      </trkpt>
      <trkpt lat="44.08583" lon="5.99662">
        <ele>564</ele>
        <time>2022-04-06T11:25:58.089Z</time>
      </trkpt>
      <trkpt lat="44.08585" lon="5.9966">
        <ele>564.20001220703</ele>
        <time>2022-04-06T11:26:05.463Z</time>
      </trkpt>
      <trkpt lat="44.08594" lon="5.99652">
        <ele>565.20001220703</ele>
        <time>2022-04-06T11:26:12.841Z</time>
      </trkpt>
      <trkpt lat="44.08599" lon="5.99649">
        <ele>565.59997558594</ele>
        <time>2022-04-06T11:26:20.220Z</time>
      </trkpt>
      <trkpt lat="44.08607" lon="5.99642">
        <ele>566.20001220703</ele>
        <time>2022-04-06T11:26:27.602Z</time>
      </trkpt>
      <trkpt lat="44.08609" lon="5.99641">
        <ele>566.40002441406</ele>
        <time>2022-04-06T11:26:34.985Z</time>
      </trkpt>
      <trkpt lat="44.08621" lon="5.99635">
        <ele>567.40002441406</ele>
        <time>2022-04-06T11:26:42.372Z</time>
      </trkpt>
      <trkpt lat="44.08623" lon="5.99634">
        <ele>567.59997558594</ele>
        <time>2022-04-06T11:26:49.760Z</time>
      </trkpt>
      <trkpt lat="44.08632" lon="5.99631">
        <ele>568.40002441406</ele>
        <time>2022-04-06T11:26:57.151Z</time>
      </trkpt>
      <trkpt lat="44.08635" lon="5.99631">
        <ele>568.59997558594</ele>
        <time>2022-04-06T11:27:04.543Z</time>
      </trkpt>
      <trkpt lat="44.08642" lon="5.99629">
        <ele>569.40002441406</ele>
        <time>2022-04-06T11:27:11.937Z</time>
      </trkpt>
      <trkpt lat="44.08649" lon="5.99628">
        <ele>570.20001220703</ele>
        <time>2022-04-06T11:27:19.333Z</time>
      </trkpt>
      <trkpt lat="44.08653" lon="5.99627">
        <ele>571</ele>
        <time>2022-04-06T11:27:26.730Z</time>
      </trkpt>
      <trkpt lat="44.08665" lon="5.99625">
        <ele>572.20001220703</ele>
        <time>2022-04-06T11:27:34.131Z</time>
      </trkpt>
      <trkpt lat="44.08667" lon="5.99625">
        <ele>572.20001220703</ele>
        <time>2022-04-06T11:27:41.533Z</time>
      </trkpt>
      <trkpt lat="44.08674" lon="5.99624">
        <ele>573.20001220703</ele>
        <time>2022-04-06T11:27:48.937Z</time>
      </trkpt>
      <trkpt lat="44.08685" lon="5.99621">
        <ele>574</ele>
        <time>2022-04-06T11:27:56.345Z</time>
      </trkpt>
      <trkpt lat="44.08687" lon="5.99621">
        <ele>574.40002441406</ele>
        <time>2022-04-06T11:28:03.753Z</time>
      </trkpt>
      <trkpt lat="44.08694" lon="5.9962">
        <ele>575.59997558594</ele>
        <time>2022-04-06T11:28:11.164Z</time>
      </trkpt>
      <trkpt lat="44.08696" lon="5.9962">
        <ele>575.79998779297</ele>
        <time>2022-04-06T11:28:18.575Z</time>
      </trkpt>
      <trkpt lat="44.08706" lon="5.99618">
        <ele>576.79998779297</ele>
        <time>2022-04-06T11:28:25.989Z</time>
      </trkpt>
      <trkpt lat="44.08712" lon="5.99618">
        <ele>577.40002441406</ele>
        <time>2022-04-06T11:28:33.405Z</time>
      </trkpt>
      <trkpt lat="44.08717" lon="5.99617">
        <ele>578</ele>
        <time>2022-04-06T11:28:40.823Z</time>
      </trkpt>
      <trkpt lat="44.08728" lon="5.99618">
        <ele>579.20001220703</ele>
        <time>2022-04-06T11:28:48.244Z</time>
      </trkpt>
      <trkpt lat="44.08731" lon="5.99618">
        <ele>579.40002441406</ele>
        <time>2022-04-06T11:28:55.666Z</time>
      </trkpt>
      <trkpt lat="44.08739" lon="5.99618">
        <ele>580.40002441406</ele>
        <time>2022-04-06T11:29:03.091Z</time>
      </trkpt>
      <trkpt lat="44.08746" lon="5.99618">
        <ele>581.40002441406</ele>
        <time>2022-04-06T11:29:10.518Z</time>
      </trkpt>
      <trkpt lat="44.08751" lon="5.99619">
        <ele>581.79998779297</ele>
        <time>2022-04-06T11:29:17.946Z</time>
      </trkpt>
      <trkpt lat="44.08756" lon="5.9962">
        <ele>582.40002441406</ele>
        <time>2022-04-06T11:29:25.376Z</time>
      </trkpt>
      <trkpt lat="44.08763" lon="5.99615">
        <ele>583.40002441406</ele>
        <time>2022-04-06T11:29:32.809Z</time>
      </trkpt>
      <trkpt lat="44.08765" lon="5.99613">
        <ele>583.40002441406</ele>
        <time>2022-04-06T11:29:40.242Z</time>
      </trkpt>
      <trkpt lat="44.08772" lon="5.99604">
        <ele>584.40002441406</ele>
        <time>2022-04-06T11:29:47.678Z</time>
      </trkpt>
      <trkpt lat="44.08776" lon="5.996">
        <ele>584.59997558594</ele>
        <time>2022-04-06T11:29:55.116Z</time>
      </trkpt>
      <trkpt lat="44.08779" lon="5.99595">
        <ele>584.59997558594</ele>
        <time>2022-04-06T11:30:02.555Z</time>
      </trkpt>
      <trkpt lat="44.08779" lon="5.99591">
        <ele>584.59997558594</ele>
        <time>2022-04-06T11:30:09.995Z</time>
      </trkpt>
      <trkpt lat="44.08779" lon="5.99571">
        <ele>583.40002441406</ele>
        <time>2022-04-06T11:30:17.440Z</time>
      </trkpt>
      <trkpt lat="44.08777" lon="5.99563">
        <ele>583</ele>
        <time>2022-04-06T11:30:24.887Z</time>
      </trkpt>
      <trkpt lat="44.0877" lon="5.99557">
        <ele>582</ele>
        <time>2022-04-06T11:30:32.336Z</time>
      </trkpt>
      <trkpt lat="44.08766" lon="5.99555">
        <ele>581.59997558594</ele>
        <time>2022-04-06T11:30:39.787Z</time>
      </trkpt>
      <trkpt lat="44.08761" lon="5.99553">
        <ele>581.20001220703</ele>
        <time>2022-04-06T11:30:47.239Z</time>
      </trkpt>
      <trkpt lat="44.08756" lon="5.9955">
        <ele>580.79998779297</ele>
        <time>2022-04-06T11:30:54.693Z</time>
      </trkpt>
      <trkpt lat="44.08752" lon="5.99548">
        <ele>580.20001220703</ele>
        <time>2022-04-06T11:31:02.148Z</time>
      </trkpt>
      <trkpt lat="44.08749" lon="5.99547">
        <ele>579.79998779297</ele>
        <time>2022-04-06T11:31:09.604Z</time>
      </trkpt>
      <trkpt lat="44.08747" lon="5.99549">
        <ele>578.79998779297</ele>
        <time>2022-04-06T11:31:17.061Z</time>
      </trkpt>
      <trkpt lat="44.08748" lon="5.99549">
        <ele>578.40002441406</ele>
        <time>2022-04-06T11:31:24.518Z</time>
      </trkpt>
      <trkpt lat="44.08744" lon="5.99558">
        <ele>578.40002441406</ele>
        <time>2022-04-06T11:31:31.977Z</time>
      </trkpt>
      <trkpt lat="44.0874" lon="5.99559">
        <ele>578</ele>
        <time>2022-04-06T11:31:39.438Z</time>
      </trkpt>
      <trkpt lat="44.08737" lon="5.99561">
        <ele>577.79998779297</ele>
        <time>2022-04-06T11:31:46.900Z</time>
      </trkpt>
      <trkpt lat="44.08735" lon="5.99565">
        <ele>577.20001220703</ele>
        <time>2022-04-06T11:31:54.363Z</time>
      </trkpt>
      <trkpt lat="44.08732" lon="5.99567">
        <ele>576.20001220703</ele>
        <time>2022-04-06T11:32:01.827Z</time>
      </trkpt>
      <trkpt lat="44.08722" lon="5.99568">
        <ele>574.59997558594</ele>
        <time>2022-04-06T11:32:09.294Z</time>
      </trkpt>
      <trkpt lat="44.08711" lon="5.99564">
        <ele>573.20001220703</ele>
        <time>2022-04-06T11:32:16.765Z</time>
      </trkpt>
      <trkpt lat="44.08706" lon="5.9956">
        <ele>572</ele>
        <time>2022-04-06T11:32:24.237Z</time>
      </trkpt>
      <trkpt lat="44.08698" lon="5.99558">
        <ele>570.79998779297</ele>
        <time>2022-04-06T11:32:31.712Z</time>
      </trkpt>
      <trkpt lat="44.0869" lon="5.99558">
        <ele>569</ele>
        <time>2022-04-06T11:32:39.190Z</time>
      </trkpt>
      <trkpt lat="44.0868" lon="5.99556">
        <ele>567.20001220703</ele>
        <time>2022-04-06T11:32:46.671Z</time>
      </trkpt>
      <trkpt lat="44.08669" lon="5.99558">
        <ele>566.20001220703</ele>
        <time>2022-04-06T11:32:54.155Z</time>
      </trkpt>
      <trkpt lat="44.08663" lon="5.99557">
        <ele>565.59997558594</ele>
        <time>2022-04-06T11:33:01.641Z</time>
      </trkpt>
      <trkpt lat="44.08658" lon="5.99556">
        <ele>565</ele>
        <time>2022-04-06T11:33:09.129Z</time>
      </trkpt>
      <trkpt lat="44.08645" lon="5.9956">
        <ele>563.40002441406</ele>
        <time>2022-04-06T11:33:16.621Z</time>
      </trkpt>
      <trkpt lat="44.08639" lon="5.99563">
        <ele>562.59997558594</ele>
        <time>2022-04-06T11:33:24.115Z</time>
      </trkpt>
      <trkpt lat="44.08633" lon="5.99566">
        <ele>562</ele>
        <time>2022-04-06T11:33:31.611Z</time>
      </trkpt>
      <trkpt lat="44.08627" lon="5.99569">
        <ele>561.59997558594</ele>
        <time>2022-04-06T11:33:39.109Z</time>
      </trkpt>
      <trkpt lat="44.08617" lon="5.99577">
        <ele>561</ele>
        <time>2022-04-06T11:33:46.611Z</time>
      </trkpt>
      <trkpt lat="44.0861" lon="5.99591">
        <ele>561.40002441406</ele>
        <time>2022-04-06T11:33:54.117Z</time>
      </trkpt>
      <trkpt lat="44.08604" lon="5.99599">
        <ele>562.20001220703</ele>
        <time>2022-04-06T11:34:01.625Z</time>
      </trkpt>
      <trkpt lat="44.08598" lon="5.99598">
        <ele>562</ele>
        <time>2022-04-06T11:34:09.135Z</time>
      </trkpt>
      <trkpt lat="44.08595" lon="5.99594">
        <ele>561.79998779297</ele>
        <time>2022-04-06T11:34:16.647Z</time>
      </trkpt>
      <trkpt lat="44.08585" lon="5.99585">
        <ele>560.59997558594</ele>
        <time>2022-04-06T11:34:24.162Z</time>
      </trkpt>
      <trkpt lat="44.08579" lon="5.99582">
        <ele>559.79998779297</ele>
        <time>2022-04-06T11:34:31.679Z</time>
      </trkpt>
      <trkpt lat="44.08574" lon="5.99578">
        <ele>558.79998779297</ele>
        <time>2022-04-06T11:34:39.198Z</time>
      </trkpt>
      <trkpt lat="44.08566" lon="5.99566">
        <ele>557.20001220703</ele>
        <time>2022-04-06T11:34:46.721Z</time>
      </trkpt>
      <trkpt lat="44.08563" lon="5.99559">
        <ele>556</ele>
        <time>2022-04-06T11:34:54.246Z</time>
      </trkpt>
      <trkpt lat="44.08561" lon="5.99551">
        <ele>555.20001220703</ele>
        <time>2022-04-06T11:35:01.772Z</time>
      </trkpt>
      <trkpt lat="44.08559" lon="5.99545">
        <ele>553.79998779297</ele>
        <time>2022-04-06T11:35:09.300Z</time>
      </trkpt>
      <trkpt lat="44.08552" lon="5.9954">
        <ele>552.20001220703</ele>
        <time>2022-04-06T11:35:16.830Z</time>
      </trkpt>
      <trkpt lat="44.08549" lon="5.99536">
        <ele>551.59997558594</ele>
        <time>2022-04-06T11:35:24.362Z</time>
      </trkpt>
      <trkpt lat="44.08548" lon="5.99531">
        <ele>551</ele>
        <time>2022-04-06T11:35:31.895Z</time>
      </trkpt>
      <trkpt lat="44.08543" lon="5.9952">
        <ele>549.59997558594</ele>
        <time>2022-04-06T11:35:39.431Z</time>
      </trkpt>
      <trkpt lat="44.08533" lon="5.99517">
        <ele>547.79998779297</ele>
        <time>2022-04-06T11:35:46.970Z</time>
      </trkpt>
      <trkpt lat="44.08527" lon="5.99516">
        <ele>547.20001220703</ele>
        <time>2022-04-06T11:35:54.511Z</time>
      </trkpt>
      <trkpt lat="44.08521" lon="5.99514">
        <ele>546.40002441406</ele>
        <time>2022-04-06T11:36:02.054Z</time>
      </trkpt>
      <trkpt lat="44.08511" lon="5.99514">
        <ele>545</ele>
        <time>2022-04-06T11:36:09.600Z</time>
      </trkpt>
      <trkpt lat="44.08506" lon="5.99517">
        <ele>544.40002441406</ele>
        <time>2022-04-06T11:36:17.148Z</time>
      </trkpt>
      <trkpt lat="44.08503" lon="5.99521">
        <ele>543.40002441406</ele>
        <time>2022-04-06T11:36:24.697Z</time>
      </trkpt>
      <trkpt lat="44.08494" lon="5.99522">
        <ele>541.79998779297</ele>
        <time>2022-04-06T11:36:32.249Z</time>
      </trkpt>
      <trkpt lat="44.0849" lon="5.9952">
        <ele>541.20001220703</ele>
        <time>2022-04-06T11:36:39.802Z</time>
      </trkpt>
      <trkpt lat="44.08486" lon="5.99518">
        <ele>540.59997558594</ele>
        <time>2022-04-06T11:36:47.357Z</time>
      </trkpt>
      <trkpt lat="44.08474" lon="5.99514">
        <ele>539.59997558594</ele>
        <time>2022-04-06T11:36:54.916Z</time>
      </trkpt>
      <trkpt lat="44.08462" lon="5.99506">
        <ele>537.59997558594</ele>
        <time>2022-04-06T11:37:02.479Z</time>
      </trkpt>
      <trkpt lat="44.08455" lon="5.99503">
        <ele>536.40002441406</ele>
        <time>2022-04-06T11:37:10.044Z</time>
      </trkpt>
      <trkpt lat="44.08449" lon="5.99499">
        <ele>535.40002441406</ele>
        <time>2022-04-06T11:37:17.611Z</time>
      </trkpt>
      <trkpt lat="44.08438" lon="5.99493">
        <ele>533.40002441406</ele>
        <time>2022-04-06T11:37:25.182Z</time>
      </trkpt>
      <trkpt lat="44.08435" lon="5.99488">
        <ele>533</ele>
        <time>2022-04-06T11:37:32.755Z</time>
      </trkpt>
      <trkpt lat="44.08428" lon="5.99484">
        <ele>532.40002441406</ele>
        <time>2022-04-06T11:37:40.330Z</time>
      </trkpt>
      <trkpt lat="44.08424" lon="5.99484">
        <ele>532</ele>
        <time>2022-04-06T11:37:47.906Z</time>
      </trkpt>
      <trkpt lat="44.08414" lon="5.99481">
        <ele>530.59997558594</ele>
        <time>2022-04-06T11:37:55.485Z</time>
      </trkpt>
      <trkpt lat="44.0841" lon="5.99479">
        <ele>529.59997558594</ele>
        <time>2022-04-06T11:38:03.066Z</time>
      </trkpt>
      <trkpt lat="44.08407" lon="5.99477">
        <ele>529.20001220703</ele>
        <time>2022-04-06T11:38:10.648Z</time>
      </trkpt>
      <trkpt lat="44.08403" lon="5.99476">
        <ele>529</ele>
        <time>2022-04-06T11:38:18.231Z</time>
      </trkpt>
      <trkpt lat="44.08394" lon="5.99474">
        <ele>528.59997558594</ele>
        <time>2022-04-06T11:38:25.817Z</time>
      </trkpt>
      <trkpt lat="44.08385" lon="5.99475">
        <ele>528</ele>
        <time>2022-04-06T11:38:33.406Z</time>
      </trkpt>
      <trkpt lat="44.08383" lon="5.99477">
        <ele>527</ele>
        <time>2022-04-06T11:38:40.996Z</time>
      </trkpt>
      <trkpt lat="44.0838" lon="5.9948">
        <ele>525.79998779297</ele>
        <time>2022-04-06T11:38:48.587Z</time>
      </trkpt>
      <trkpt lat="44.08377" lon="5.99483">
        <ele>524.79998779297</ele>
        <time>2022-04-06T11:38:56.179Z</time>
      </trkpt>
      <trkpt lat="44.08374" lon="5.99481">
        <ele>524</ele>
        <time>2022-04-06T11:39:03.772Z</time>
      </trkpt>
      <trkpt lat="44.08372" lon="5.99476">
        <ele>523.40002441406</ele>
        <time>2022-04-06T11:39:11.366Z</time>
      </trkpt>
      <trkpt lat="44.0837" lon="5.9947">
        <ele>523</ele>
        <time>2022-04-06T11:39:18.962Z</time>
      </trkpt>
      <trkpt lat="44.08367" lon="5.99465">
        <ele>522.59997558594</ele>
        <time>2022-04-06T11:39:26.559Z</time>
      </trkpt>
      <trkpt lat="44.08363" lon="5.99461">
        <ele>522.40002441406</ele>
        <time>2022-04-06T11:39:34.158Z</time>
      </trkpt>
      <trkpt lat="44.08358" lon="5.99459">
        <ele>522</ele>
        <time>2022-04-06T11:39:41.758Z</time>
      </trkpt>
      <trkpt lat="44.08353" lon="5.99458">
        <ele>521.79998779297</ele>
        <time>2022-04-06T11:39:49.360Z</time>
      </trkpt>
      <trkpt lat="44.08347" lon="5.99459">
        <ele>521.20001220703</ele>
        <time>2022-04-06T11:39:56.964Z</time>
      </trkpt>
      <trkpt lat="44.08338" lon="5.99456">
        <ele>519.59997558594</ele>
        <time>2022-04-06T11:40:04.571Z</time>
      </trkpt>
      <trkpt lat="44.08332" lon="5.99444">
        <ele>517.79998779297</ele>
        <time>2022-04-06T11:40:12.181Z</time>
      </trkpt>
      <trkpt lat="44.08327" lon="5.99439">
        <ele>517</ele>
        <time>2022-04-06T11:40:19.793Z</time>
      </trkpt>
      <trkpt lat="44.08322" lon="5.99436">
        <ele>516.40002441406</ele>
        <time>2022-04-06T11:40:27.407Z</time>
      </trkpt>
      <trkpt lat="44.08311" lon="5.99427">
        <ele>515.59997558594</ele>
        <time>2022-04-06T11:40:35.025Z</time>
      </trkpt>
      <trkpt lat="44.08307" lon="5.99421">
        <ele>515</ele>
        <time>2022-04-06T11:40:42.645Z</time>
      </trkpt>
      <trkpt lat="44.08305" lon="5.99414">
        <ele>514.59997558594</ele>
        <time>2022-04-06T11:40:50.266Z</time>
      </trkpt>
      <trkpt lat="44.08301" lon="5.99401">
        <ele>514</ele>
        <time>2022-04-06T11:40:57.890Z</time>
      </trkpt>
      <trkpt lat="44.08295" lon="5.99392">
        <ele>513.20001220703</ele>
        <time>2022-04-06T11:41:05.517Z</time>
      </trkpt>
      <trkpt lat="44.08291" lon="5.99389">
        <ele>512.20001220703</ele>
        <time>2022-04-06T11:41:13.146Z</time>
      </trkpt>
      <trkpt lat="44.08287" lon="5.99386">
        <ele>511.20001220703</ele>
        <time>2022-04-06T11:41:20.776Z</time>
      </trkpt>
      <trkpt lat="44.08283" lon="5.9938">
        <ele>510</ele>
        <time>2022-04-06T11:41:28.408Z</time>
      </trkpt>
      <trkpt lat="44.08279" lon="5.99372">
        <ele>508.79998779297</ele>
        <time>2022-04-06T11:41:36.042Z</time>
      </trkpt>
      <trkpt lat="44.08272" lon="5.99355">
        <ele>507</ele>
        <time>2022-04-06T11:41:43.681Z</time>
      </trkpt>
      <trkpt lat="44.08269" lon="5.99339">
        <ele>505.79998779297</ele>
        <time>2022-04-06T11:41:51.324Z</time>
      </trkpt>
      <trkpt lat="44.08266" lon="5.99332">
        <ele>505.39999389648</ele>
        <time>2022-04-06T11:41:58.968Z</time>
      </trkpt>
      <trkpt lat="44.08264" lon="5.99324">
        <ele>505</ele>
        <time>2022-04-06T11:42:06.614Z</time>
      </trkpt>
      <trkpt lat="44.08263" lon="5.99317">
        <ele>504.79998779297</ele>
        <time>2022-04-06T11:42:14.262Z</time>
      </trkpt>
      <trkpt lat="44.08262" lon="5.99298">
        <ele>504.39999389648</ele>
        <time>2022-04-06T11:42:21.914Z</time>
      </trkpt>
      <trkpt lat="44.08258" lon="5.99291">
        <ele>505.60000610352</ele>
        <time>2022-04-06T11:42:29.568Z</time>
      </trkpt>
      <trkpt lat="44.08257" lon="5.99288">
        <ele>506.20001220703</ele>
        <time>2022-04-06T11:42:37.223Z</time>
      </trkpt>
      <trkpt lat="44.08261" lon="5.99287">
        <ele>507.39999389648</ele>
        <time>2022-04-06T11:42:44.879Z</time>
      </trkpt>
      <trkpt lat="44.08266" lon="5.99292">
        <ele>508.20001220703</ele>
        <time>2022-04-06T11:42:52.537Z</time>
      </trkpt>
      <trkpt lat="44.08268" lon="5.99295">
        <ele>509.60000610352</ele>
        <time>2022-04-06T11:43:00.196Z</time>
      </trkpt>
      <trkpt lat="44.0827" lon="5.993">
        <ele>511</ele>
        <time>2022-04-06T11:43:07.856Z</time>
      </trkpt>
      <trkpt lat="44.08273" lon="5.99304">
        <ele>512.20001220703</ele>
        <time>2022-04-06T11:43:15.518Z</time>
      </trkpt>
      <trkpt lat="44.08274" lon="5.99307">
        <ele>513.20001220703</ele>
        <time>2022-04-06T11:43:23.180Z</time>
      </trkpt>
      <trkpt lat="44.08276" lon="5.99312">
        <ele>514.59997558594</ele>
        <time>2022-04-06T11:43:30.844Z</time>
      </trkpt>
      <trkpt lat="44.08277" lon="5.99311">
        <ele>515</ele>
        <time>2022-04-06T11:43:38.508Z</time>
      </trkpt>
      <trkpt lat="44.08277" lon="5.99301">
        <ele>515.59997558594</ele>
        <time>2022-04-06T11:43:46.174Z</time>
      </trkpt>
      <trkpt lat="44.08279" lon="5.99306">
        <ele>516.40002441406</ele>
        <time>2022-04-06T11:43:53.841Z</time>
      </trkpt>
      <trkpt lat="44.0828" lon="5.99309">
        <ele>516.59997558594</ele>
        <time>2022-04-06T11:44:01.509Z</time>
      </trkpt>
      <trkpt lat="44.08281" lon="5.99313">
        <ele>517</ele>
        <time>2022-04-06T11:44:09.178Z</time>
      </trkpt>
      <trkpt lat="44.08282" lon="5.99318">
        <ele>517.59997558594</ele>
        <time>2022-04-06T11:44:16.848Z</time>
      </trkpt>
      <trkpt lat="44.08283" lon="5.99323">
        <ele>518.20001220703</ele>
        <time>2022-04-06T11:44:24.520Z</time>
      </trkpt>
      <trkpt lat="44.08286" lon="5.99331">
        <ele>519</ele>
        <time>2022-04-06T11:44:32.194Z</time>
      </trkpt>
      <trkpt lat="44.08288" lon="5.99334">
        <ele>519.40002441406</ele>
        <time>2022-04-06T11:44:39.868Z</time>
      </trkpt>
      <trkpt lat="44.08289" lon="5.99336">
        <ele>519.79998779297</ele>
        <time>2022-04-06T11:44:47.543Z</time>
      </trkpt>
      <trkpt lat="44.08292" lon="5.99341">
        <ele>520.59997558594</ele>
        <time>2022-04-06T11:44:55.220Z</time>
      </trkpt>
      <trkpt lat="44.08298" lon="5.99349">
        <ele>521.79998779297</ele>
        <time>2022-04-06T11:45:02.899Z</time>
      </trkpt>
      <trkpt lat="44.083" lon="5.99351">
        <ele>522.20001220703</ele>
        <time>2022-04-06T11:45:10.579Z</time>
      </trkpt>
      <trkpt lat="44.08302" lon="5.99352">
        <ele>522.40002441406</ele>
        <time>2022-04-06T11:45:18.260Z</time>
      </trkpt>
      <trkpt lat="44.08304" lon="5.99354">
        <ele>522.79998779297</ele>
        <time>2022-04-06T11:45:25.941Z</time>
      </trkpt>
      <trkpt lat="44.08306" lon="5.99356">
        <ele>523.40002441406</ele>
        <time>2022-04-06T11:45:33.623Z</time>
      </trkpt>
      <trkpt lat="44.0831" lon="5.99359">
        <ele>524.20001220703</ele>
        <time>2022-04-06T11:45:41.307Z</time>
      </trkpt>
      <trkpt lat="44.08315" lon="5.99364">
        <ele>524.79998779297</ele>
        <time>2022-04-06T11:45:48.993Z</time>
      </trkpt>
      <trkpt lat="44.08319" lon="5.99367">
        <ele>525.40002441406</ele>
        <time>2022-04-06T11:45:56.680Z</time>
      </trkpt>
      <trkpt lat="44.08322" lon="5.99369">
        <ele>525.59997558594</ele>
        <time>2022-04-06T11:46:04.368Z</time>
      </trkpt>
      <trkpt lat="44.08327" lon="5.99373">
        <ele>526.40002441406</ele>
        <time>2022-04-06T11:46:12.058Z</time>
      </trkpt>
      <trkpt lat="44.08334" lon="5.99375">
        <ele>527</ele>
        <time>2022-04-06T11:46:19.750Z</time>
      </trkpt>
      <trkpt lat="44.08341" lon="5.99375">
        <ele>527.40002441406</ele>
        <time>2022-04-06T11:46:27.444Z</time>
      </trkpt>
      <trkpt lat="44.08348" lon="5.99372">
        <ele>527.79998779297</ele>
        <time>2022-04-06T11:46:35.141Z</time>
      </trkpt>
      <trkpt lat="44.08351" lon="5.99372">
        <ele>528</ele>
        <time>2022-04-06T11:46:42.839Z</time>
      </trkpt>
      <trkpt lat="44.08362" lon="5.99376">
        <ele>528.79998779297</ele>
        <time>2022-04-06T11:46:50.540Z</time>
      </trkpt>
      <trkpt lat="44.08371" lon="5.99379">
        <ele>529.79998779297</ele>
        <time>2022-04-06T11:46:58.244Z</time>
      </trkpt>
      <trkpt lat="44.08374" lon="5.99379">
        <ele>530.20001220703</ele>
        <time>2022-04-06T11:47:05.949Z</time>
      </trkpt>
      <trkpt lat="44.08378" lon="5.99379">
        <ele>530.59997558594</ele>
        <time>2022-04-06T11:47:13.655Z</time>
      </trkpt>
      <trkpt lat="44.08381" lon="5.99378">
        <ele>531.40002441406</ele>
        <time>2022-04-06T11:47:21.362Z</time>
      </trkpt>
      <trkpt lat="44.08393" lon="5.99375">
        <ele>532.40002441406</ele>
        <time>2022-04-06T11:47:29.073Z</time>
      </trkpt>
      <trkpt lat="44.08396" lon="5.99376">
        <ele>532.59997558594</ele>
        <time>2022-04-06T11:47:36.785Z</time>
      </trkpt>
      <trkpt lat="44.08404" lon="5.99377">
        <ele>533.59997558594</ele>
        <time>2022-04-06T11:47:44.500Z</time>
      </trkpt>
      <trkpt lat="44.08412" lon="5.99379">
        <ele>534.20001220703</ele>
        <time>2022-04-06T11:47:52.217Z</time>
      </trkpt>
      <trkpt lat="44.08415" lon="5.99379">
        <ele>534.40002441406</ele>
        <time>2022-04-06T11:47:59.935Z</time>
      </trkpt>
      <trkpt lat="44.08426" lon="5.99384">
        <ele>536</ele>
        <time>2022-04-06T11:48:07.657Z</time>
      </trkpt>
      <trkpt lat="44.08429" lon="5.99386">
        <ele>536.59997558594</ele>
        <time>2022-04-06T11:48:15.380Z</time>
      </trkpt>
      <trkpt lat="44.08432" lon="5.99388">
        <ele>537</ele>
        <time>2022-04-06T11:48:23.104Z</time>
      </trkpt>
      <trkpt lat="44.0844" lon="5.99395">
        <ele>538.20001220703</ele>
        <time>2022-04-06T11:48:30.831Z</time>
      </trkpt>
      <trkpt lat="44.08442" lon="5.99398">
        <ele>538.79998779297</ele>
        <time>2022-04-06T11:48:38.559Z</time>
      </trkpt>
      <trkpt lat="44.08446" lon="5.99403">
        <ele>539.79998779297</ele>
        <time>2022-04-06T11:48:46.288Z</time>
      </trkpt>
      <trkpt lat="44.08449" lon="5.99415">
        <ele>540.59997558594</ele>
        <time>2022-04-06T11:48:54.020Z</time>
      </trkpt>
      <trkpt lat="44.08454" lon="5.99424">
        <ele>542</ele>
        <time>2022-04-06T11:49:01.755Z</time>
      </trkpt>
      <trkpt lat="44.08457" lon="5.99425">
        <ele>542.40002441406</ele>
        <time>2022-04-06T11:49:09.491Z</time>
      </trkpt>
      <trkpt lat="44.08463" lon="5.99428">
        <ele>543.20001220703</ele>
        <time>2022-04-06T11:49:17.229Z</time>
      </trkpt>
      <trkpt lat="44.08466" lon="5.9943">
        <ele>543.59997558594</ele>
        <time>2022-04-06T11:49:24.968Z</time>
      </trkpt>
      <trkpt lat="44.08469" lon="5.99432">
        <ele>544</ele>
        <time>2022-04-06T11:49:32.708Z</time>
      </trkpt>
      <trkpt lat="44.08472" lon="5.99433">
        <ele>544.40002441406</ele>
        <time>2022-04-06T11:49:40.449Z</time>
      </trkpt>
      <trkpt lat="44.08482" lon="5.99437">
        <ele>545.59997558594</ele>
        <time>2022-04-06T11:49:48.194Z</time>
      </trkpt>
      <trkpt lat="44.08485" lon="5.99439">
        <ele>546.20001220703</ele>
        <time>2022-04-06T11:49:55.940Z</time>
      </trkpt>
      <trkpt lat="44.08492" lon="5.99439">
        <ele>546.59997558594</ele>
        <time>2022-04-06T11:50:03.688Z</time>
      </trkpt>
      <trkpt lat="44.08499" lon="5.99438">
        <ele>547</ele>
        <time>2022-04-06T11:50:11.438Z</time>
      </trkpt>
      <trkpt lat="44.08508" lon="5.99436">
        <ele>547.79998779297</ele>
        <time>2022-04-06T11:50:19.191Z</time>
      </trkpt>
      <trkpt lat="44.08514" lon="5.99434">
        <ele>548.40002441406</ele>
        <time>2022-04-06T11:50:26.946Z</time>
      </trkpt>
      <trkpt lat="44.08518" lon="5.99432">
        <ele>548.79998779297</ele>
        <time>2022-04-06T11:50:34.702Z</time>
      </trkpt>
      <trkpt lat="44.0852" lon="5.99432">
        <ele>549</ele>
        <time>2022-04-06T11:50:42.459Z</time>
      </trkpt>
      <trkpt lat="44.08525" lon="5.99429">
        <ele>549.40002441406</ele>
        <time>2022-04-06T11:50:50.218Z</time>
      </trkpt>
      <trkpt lat="44.0853" lon="5.99427">
        <ele>549.20001220703</ele>
        <time>2022-04-06T11:50:57.978Z</time>
      </trkpt>
      <trkpt lat="44.08532" lon="5.99427">
        <ele>549.20001220703</ele>
        <time>2022-04-06T11:51:05.739Z</time>
      </trkpt>
      <trkpt lat="44.08543" lon="5.99422">
        <ele>549.20001220703</ele>
        <time>2022-04-06T11:51:13.503Z</time>
      </trkpt>
      <trkpt lat="44.0855" lon="5.99417">
        <ele>548.79998779297</ele>
        <time>2022-04-06T11:51:21.270Z</time>
      </trkpt>
      <trkpt lat="44.0856" lon="5.99414">
        <ele>548.20001220703</ele>
        <time>2022-04-06T11:51:29.040Z</time>
      </trkpt>
      <trkpt lat="44.08572" lon="5.99416">
        <ele>548</ele>
        <time>2022-04-06T11:51:36.814Z</time>
      </trkpt>
      <trkpt lat="44.08575" lon="5.99416">
        <ele>548</ele>
        <time>2022-04-06T11:51:44.589Z</time>
      </trkpt>
      <trkpt lat="44.08587" lon="5.9942">
        <ele>549.40002441406</ele>
        <time>2022-04-06T11:51:52.368Z</time>
      </trkpt>
      <trkpt lat="44.0859" lon="5.99422">
        <ele>549.79998779297</ele>
        <time>2022-04-06T11:52:00.148Z</time>
      </trkpt>
      <trkpt lat="44.08607" lon="5.99425">
        <ele>550.59997558594</ele>
        <time>2022-04-06T11:52:07.933Z</time>
      </trkpt>
      <trkpt lat="44.08615" lon="5.99423">
        <ele>550.79998779297</ele>
        <time>2022-04-06T11:52:15.721Z</time>
      </trkpt>
      <trkpt lat="44.08624" lon="5.99424">
        <ele>550.59997558594</ele>
        <time>2022-04-06T11:52:23.512Z</time>
      </trkpt>
      <trkpt lat="44.08639" lon="5.99428">
        <ele>550.79998779297</ele>
        <time>2022-04-06T11:52:31.307Z</time>
      </trkpt>
      <trkpt lat="44.08644" lon="5.9943">
        <ele>551.59997558594</ele>
        <time>2022-04-06T11:52:39.104Z</time>
      </trkpt>
      <trkpt lat="44.08648" lon="5.9943">
        <ele>551.79998779297</ele>
        <time>2022-04-06T11:52:46.902Z</time>
      </trkpt>
      <trkpt lat="44.08658" lon="5.9943">
        <ele>552</ele>
        <time>2022-04-06T11:52:54.704Z</time>
      </trkpt>
      <trkpt lat="44.08678" lon="5.99427">
        <ele>551.59997558594</ele>
        <time>2022-04-06T11:53:02.512Z</time>
      </trkpt>
      <trkpt lat="44.08688" lon="5.99435">
        <ele>552</ele>
        <time>2022-04-06T11:53:10.324Z</time>
      </trkpt>
      <trkpt lat="44.08696" lon="5.99432">
        <ele>552.79998779297</ele>
        <time>2022-04-06T11:53:18.138Z</time>
      </trkpt>
      <trkpt lat="44.08699" lon="5.99431">
        <ele>553</ele>
        <time>2022-04-06T11:53:25.953Z</time>
      </trkpt>
      <trkpt lat="44.08708" lon="5.99429">
        <ele>552.79998779297</ele>
        <time>2022-04-06T11:53:33.771Z</time>
      </trkpt>
      <trkpt lat="44.08721" lon="5.99431">
        <ele>552.59997558594</ele>
        <time>2022-04-06T11:53:41.593Z</time>
      </trkpt>
      <trkpt lat="44.08725" lon="5.99433">
        <ele>553</ele>
        <time>2022-04-06T11:53:49.416Z</time>
      </trkpt>
      <trkpt lat="44.0873" lon="5.99436">
        <ele>553.59997558594</ele>
        <time>2022-04-06T11:53:57.241Z</time>
      </trkpt>
      <trkpt lat="44.08732" lon="5.99439">
        <ele>554</ele>
        <time>2022-04-06T11:54:05.067Z</time>
      </trkpt>
      <trkpt lat="44.08735" lon="5.99439">
        <ele>554.40002441406</ele>
        <time>2022-04-06T11:54:12.894Z</time>
      </trkpt>
      <trkpt lat="44.08739" lon="5.99439">
        <ele>554.79998779297</ele>
        <time>2022-04-06T11:54:20.722Z</time>
      </trkpt>
      <trkpt lat="44.0875" lon="5.99435">
        <ele>555</ele>
        <time>2022-04-06T11:54:28.554Z</time>
      </trkpt>
      <trkpt lat="44.08752" lon="5.99435">
        <ele>555</ele>
        <time>2022-04-06T11:54:36.387Z</time>
      </trkpt>
      <trkpt lat="44.08756" lon="5.99436">
        <ele>555</ele>
        <time>2022-04-06T11:54:44.221Z</time>
      </trkpt>
      <trkpt lat="44.08772" lon="5.99435">
        <ele>555.20001220703</ele>
        <time>2022-04-06T11:54:52.060Z</time>
      </trkpt>
      <trkpt lat="44.08788" lon="5.99428">
        <ele>555</ele>
        <time>2022-04-06T11:54:59.904Z</time>
      </trkpt>
      <trkpt lat="44.088" lon="5.99427">
        <ele>555</ele>
        <time>2022-04-06T11:55:07.752Z</time>
      </trkpt>
      <trkpt lat="44.08807" lon="5.99426">
        <ele>555.40002441406</ele>
        <time>2022-04-06T11:55:15.602Z</time>
      </trkpt>
      <trkpt lat="44.0882" lon="5.99422">
        <ele>556.40002441406</ele>
        <time>2022-04-06T11:55:23.456Z</time>
      </trkpt>
      <trkpt lat="44.0883" lon="5.99419">
        <ele>557.40002441406</ele>
        <time>2022-04-06T11:55:31.314Z</time>
      </trkpt>
      <trkpt lat="44.08833" lon="5.99417">
        <ele>557.59997558594</ele>
        <time>2022-04-06T11:55:39.173Z</time>
      </trkpt>
      <trkpt lat="44.08836" lon="5.99415">
        <ele>558.20001220703</ele>
        <time>2022-04-06T11:55:47.033Z</time>
      </trkpt>
      <trkpt lat="44.08837" lon="5.99412">
        <ele>558.79998779297</ele>
        <time>2022-04-06T11:55:54.893Z</time>
      </trkpt>
      <trkpt lat="44.08837" lon="5.99408">
        <ele>559.40002441406</ele>
        <time>2022-04-06T11:56:02.754Z</time>
      </trkpt>
      <trkpt lat="44.08836" lon="5.99405">
        <ele>560</ele>
        <time>2022-04-06T11:56:10.616Z</time>
      </trkpt>
      <trkpt lat="44.08831" lon="5.99398">
        <ele>560.59997558594</ele>
        <time>2022-04-06T11:56:18.480Z</time>
      </trkpt>
      <trkpt lat="44.08829" lon="5.99385">
        <ele>560</ele>
        <time>2022-04-06T11:56:26.347Z</time>
      </trkpt>
      <trkpt lat="44.08835" lon="5.99375">
        <ele>558.59997558594</ele>
        <time>2022-04-06T11:56:34.217Z</time>
      </trkpt>
      <trkpt lat="44.0884" lon="5.99372">
        <ele>557.20001220703</ele>
        <time>2022-04-06T11:56:42.089Z</time>
      </trkpt>
      <trkpt lat="44.08844" lon="5.99372">
        <ele>556.79998779297</ele>
        <time>2022-04-06T11:56:49.962Z</time>
      </trkpt>
      <trkpt lat="44.08848" lon="5.9937">
        <ele>556.59997558594</ele>
        <time>2022-04-06T11:56:57.836Z</time>
      </trkpt>
      <trkpt lat="44.08857" lon="5.99364">
        <ele>556.20001220703</ele>
        <time>2022-04-06T11:57:05.714Z</time>
      </trkpt>
      <trkpt lat="44.08862" lon="5.99361">
        <ele>555.59997558594</ele>
        <time>2022-04-06T11:57:13.593Z</time>
      </trkpt>
      <trkpt lat="44.0887" lon="5.9936">
        <ele>554.59997558594</ele>
        <time>2022-04-06T11:57:21.475Z</time>
      </trkpt>
      <trkpt lat="44.08873" lon="5.99361">
        <ele>554.20001220703</ele>
        <time>2022-04-06T11:57:29.358Z</time>
      </trkpt>
      <trkpt lat="44.08885" lon="5.99365">
        <ele>554.59997558594</ele>
        <time>2022-04-06T11:57:37.245Z</time>
      </trkpt>
      <trkpt lat="44.08901" lon="5.99365">
        <ele>555</ele>
        <time>2022-04-06T11:57:45.137Z</time>
      </trkpt>
      <trkpt lat="44.08915" lon="5.99365">
        <ele>555.79998779297</ele>
        <time>2022-04-06T11:57:53.033Z</time>
      </trkpt>
      <trkpt lat="44.08922" lon="5.99368">
        <ele>556.20001220703</ele>
        <time>2022-04-06T11:58:00.932Z</time>
      </trkpt>
      <trkpt lat="44.08938" lon="5.99372">
        <ele>556.79998779297</ele>
        <time>2022-04-06T11:58:08.836Z</time>
      </trkpt>
      <trkpt lat="44.08941" lon="5.99372">
        <ele>557.20001220703</ele>
        <time>2022-04-06T11:58:16.741Z</time>
      </trkpt>
      <trkpt lat="44.08947" lon="5.99374">
        <ele>558</ele>
        <time>2022-04-06T11:58:24.648Z</time>
      </trkpt>
      <trkpt lat="44.08954" lon="5.99376">
        <ele>559.20001220703</ele>
        <time>2022-04-06T11:58:32.557Z</time>
      </trkpt>
      <trkpt lat="44.08973" lon="5.99372">
        <ele>559.20001220703</ele>
        <time>2022-04-06T11:58:40.472Z</time>
      </trkpt>
      <trkpt lat="44.08995" lon="5.99378">
        <ele>559.40002441406</ele>
        <time>2022-04-06T11:58:48.394Z</time>
      </trkpt>
      <trkpt lat="44.09005" lon="5.99371">
        <ele>559.59997558594</ele>
        <time>2022-04-06T11:58:56.320Z</time>
      </trkpt>
      <trkpt lat="44.09018" lon="5.99362">
        <ele>558.79998779297</ele>
        <time>2022-04-06T11:59:04.250Z</time>
      </trkpt>
      <trkpt lat="44.09027" lon="5.99364">
        <ele>558.20001220703</ele>
        <time>2022-04-06T11:59:12.183Z</time>
      </trkpt>
      <trkpt lat="44.0903" lon="5.99366">
        <ele>558.40002441406</ele>
        <time>2022-04-06T11:59:20.117Z</time>
      </trkpt>
      <trkpt lat="44.0904" lon="5.99376">
        <ele>560.20001220703</ele>
        <time>2022-04-06T11:59:28.055Z</time>
      </trkpt>
      <trkpt lat="44.09041" lon="5.99381">
        <ele>561.40002441406</ele>
        <time>2022-04-06T11:59:35.994Z</time>
      </trkpt>
      <trkpt lat="44.09043" lon="5.99387">
        <ele>562.59997558594</ele>
        <time>2022-04-06T11:59:43.935Z</time>
      </trkpt>
      <trkpt lat="44.09043" lon="5.99391">
        <ele>563.20001220703</ele>
        <time>2022-04-06T11:59:51.877Z</time>
      </trkpt>
      <trkpt lat="44.09042" lon="5.99393">
        <ele>563.59997558594</ele>
        <time>2022-04-06T11:59:59.819Z</time>
      </trkpt>
      <trkpt lat="44.09038" lon="5.99396">
        <ele>565.20001220703</ele>
        <time>2022-04-06T12:00:07.763Z</time>
      </trkpt>
      <trkpt lat="44.09036" lon="5.99397">
        <ele>565.79998779297</ele>
        <time>2022-04-06T12:00:15.708Z</time>
      </trkpt>
      <trkpt lat="44.09032" lon="5.99398">
        <ele>566.20001220703</ele>
        <time>2022-04-06T12:00:23.654Z</time>
      </trkpt>
      <trkpt lat="44.09024" lon="5.99397">
        <ele>566.40002441406</ele>
        <time>2022-04-06T12:00:31.602Z</time>
      </trkpt>
      <trkpt lat="44.0902" lon="5.99398">
        <ele>566.59997558594</ele>
        <time>2022-04-06T12:00:39.552Z</time>
      </trkpt>
      <trkpt lat="44.09003" lon="5.994">
        <ele>567</ele>
        <time>2022-04-06T12:00:47.507Z</time>
      </trkpt>
      <trkpt lat="44.08998" lon="5.994">
        <ele>567</ele>
        <time>2022-04-06T12:00:55.463Z</time>
      </trkpt>
      <trkpt lat="44.08994" lon="5.994">
        <ele>567.40002441406</ele>
        <time>2022-04-06T12:01:03.421Z</time>
      </trkpt>
      <trkpt lat="44.08982" lon="5.99404">
        <ele>568.59997558594</ele>
        <time>2022-04-06T12:01:11.383Z</time>
      </trkpt>
      <trkpt lat="44.08973" lon="5.99405">
        <ele>569.59997558594</ele>
        <time>2022-04-06T12:01:19.347Z</time>
      </trkpt>
      <trkpt lat="44.08964" lon="5.99405">
        <ele>570.59997558594</ele>
        <time>2022-04-06T12:01:27.314Z</time>
      </trkpt>
      <trkpt lat="44.0896" lon="5.99405">
        <ele>571</ele>
        <time>2022-04-06T12:01:35.283Z</time>
      </trkpt>
      <trkpt lat="44.08952" lon="5.99407">
        <ele>571.59997558594</ele>
        <time>2022-04-06T12:01:43.254Z</time>
      </trkpt>
      <trkpt lat="44.08952" lon="5.99411">
        <ele>572.20001220703</ele>
        <time>2022-04-06T12:01:51.226Z</time>
      </trkpt>
      <trkpt lat="44.08953" lon="5.99414">
        <ele>572.40002441406</ele>
        <time>2022-04-06T12:01:59.199Z</time>
      </trkpt>
      <trkpt lat="44.08958" lon="5.9942">
        <ele>573.40002441406</ele>
        <time>2022-04-06T12:02:07.174Z</time>
      </trkpt>
      <trkpt lat="44.0896" lon="5.99422">
        <ele>574</ele>
        <time>2022-04-06T12:02:15.150Z</time>
      </trkpt>
      <trkpt lat="44.08965" lon="5.99426">
        <ele>575</ele>
        <time>2022-04-06T12:02:23.128Z</time>
      </trkpt>
      <trkpt lat="44.08973" lon="5.99429">
        <ele>576</ele>
        <time>2022-04-06T12:02:31.108Z</time>
      </trkpt>
      <trkpt lat="44.0898" lon="5.99434">
        <ele>576.79998779297</ele>
        <time>2022-04-06T12:02:39.091Z</time>
      </trkpt>
      <trkpt lat="44.08984" lon="5.99437">
        <ele>577.40002441406</ele>
        <time>2022-04-06T12:02:47.075Z</time>
      </trkpt>
      <trkpt lat="44.08991" lon="5.99447">
        <ele>578.79998779297</ele>
        <time>2022-04-06T12:02:55.062Z</time>
      </trkpt>
      <trkpt lat="44.08996" lon="5.99453">
        <ele>580</ele>
        <time>2022-04-06T12:03:03.052Z</time>
      </trkpt>
      <trkpt lat="44.09003" lon="5.99459">
        <ele>581</ele>
        <time>2022-04-06T12:03:11.044Z</time>
      </trkpt>
      <trkpt lat="44.09007" lon="5.99461">
        <ele>581.79998779297</ele>
        <time>2022-04-06T12:03:19.037Z</time>
      </trkpt>
      <trkpt lat="44.09011" lon="5.99462">
        <ele>582</ele>
        <time>2022-04-06T12:03:27.032Z</time>
      </trkpt>
      <trkpt lat="44.09025" lon="5.9946">
        <ele>583</ele>
        <time>2022-04-06T12:03:35.031Z</time>
      </trkpt>
      <trkpt lat="44.09029" lon="5.99458">
        <ele>583</ele>
        <time>2022-04-06T12:03:43.032Z</time>
      </trkpt>
      <trkpt lat="44.09042" lon="5.99459">
        <ele>583.40002441406</ele>
        <time>2022-04-06T12:03:51.037Z</time>
      </trkpt>
      <trkpt lat="44.09057" lon="5.99468">
        <ele>584.20001220703</ele>
        <time>2022-04-06T12:03:59.047Z</time>
      </trkpt>
      <trkpt lat="44.09063" lon="5.99472">
        <ele>585.59997558594</ele>
        <time>2022-04-06T12:04:07.059Z</time>
      </trkpt>
      <trkpt lat="44.09069" lon="5.99475">
        <ele>586.79998779297</ele>
        <time>2022-04-06T12:04:15.073Z</time>
      </trkpt>
      <trkpt lat="44.09072" lon="5.99477">
        <ele>587</ele>
        <time>2022-04-06T12:04:23.088Z</time>
      </trkpt>
      <trkpt lat="44.09078" lon="5.99481">
        <ele>587.59997558594</ele>
        <time>2022-04-06T12:04:31.105Z</time>
      </trkpt>
      <trkpt lat="44.0908" lon="5.99485">
        <ele>587.79998779297</ele>
        <time>2022-04-06T12:04:39.123Z</time>
      </trkpt>
      <trkpt lat="44.09081" lon="5.99489">
        <ele>588.20001220703</ele>
        <time>2022-04-06T12:04:47.142Z</time>
      </trkpt>
      <trkpt lat="44.09082" lon="5.99501">
        <ele>588.59997558594</ele>
        <time>2022-04-06T12:04:55.164Z</time>
      </trkpt>
      <trkpt lat="44.09082" lon="5.99504">
        <ele>588.79998779297</ele>
        <time>2022-04-06T12:05:03.187Z</time>
      </trkpt>
      <trkpt lat="44.09083" lon="5.99507">
        <ele>589</ele>
        <time>2022-04-06T12:05:11.210Z</time>
      </trkpt>
      <trkpt lat="44.0909" lon="5.99522">
        <ele>589.20001220703</ele>
        <time>2022-04-06T12:05:19.237Z</time>
      </trkpt>
      <trkpt lat="44.09091" lon="5.99526">
        <ele>589</ele>
        <time>2022-04-06T12:05:27.265Z</time>
      </trkpt>
      <trkpt lat="44.09097" lon="5.99546">
        <ele>588.59997558594</ele>
        <time>2022-04-06T12:05:35.298Z</time>
      </trkpt>
      <trkpt lat="44.09105" lon="5.99558">
        <ele>587.79998779297</ele>
        <time>2022-04-06T12:05:43.335Z</time>
      </trkpt>
      <trkpt lat="44.09113" lon="5.99563">
        <ele>586.59997558594</ele>
        <time>2022-04-06T12:05:51.375Z</time>
      </trkpt>
      <trkpt lat="44.09114" lon="5.99564">
        <ele>586.20001220703</ele>
        <time>2022-04-06T12:05:59.415Z</time>
      </trkpt>
      <trkpt lat="44.09123" lon="5.99567">
        <ele>586</ele>
        <time>2022-04-06T12:06:07.458Z</time>
      </trkpt>
      <trkpt lat="44.09126" lon="5.9957">
        <ele>586</ele>
        <time>2022-04-06T12:06:15.502Z</time>
      </trkpt>
      <trkpt lat="44.09137" lon="5.99581">
        <ele>585</ele>
        <time>2022-04-06T12:06:23.550Z</time>
      </trkpt>
      <trkpt lat="44.09141" lon="5.99584">
        <ele>584.40002441406</ele>
        <time>2022-04-06T12:06:31.600Z</time>
      </trkpt>
      <trkpt lat="44.09146" lon="5.99586">
        <ele>583.79998779297</ele>
        <time>2022-04-06T12:06:39.652Z</time>
      </trkpt>
      <trkpt lat="44.09158" lon="5.9959">
        <ele>582.59997558594</ele>
        <time>2022-04-06T12:06:47.707Z</time>
      </trkpt>
      <trkpt lat="44.09163" lon="5.99589">
        <ele>582</ele>
        <time>2022-04-06T12:06:55.764Z</time>
      </trkpt>
      <trkpt lat="44.0917" lon="5.99587">
        <ele>581.20001220703</ele>
        <time>2022-04-06T12:07:03.823Z</time>
      </trkpt>
      <trkpt lat="44.09181" lon="5.99587">
        <ele>580.40002441406</ele>
        <time>2022-04-06T12:07:11.886Z</time>
      </trkpt>
      <trkpt lat="44.09185" lon="5.99589">
        <ele>580</ele>
        <time>2022-04-06T12:07:19.950Z</time>
      </trkpt>
      <trkpt lat="44.09192" lon="5.99592">
        <ele>579.20001220703</ele>
        <time>2022-04-06T12:07:28.016Z</time>
      </trkpt>
      <trkpt lat="44.09199" lon="5.99591">
        <ele>577.59997558594</ele>
        <time>2022-04-06T12:07:36.085Z</time>
      </trkpt>
      <trkpt lat="44.09203" lon="5.99593">
        <ele>576.20001220703</ele>
        <time>2022-04-06T12:07:44.155Z</time>
      </trkpt>
      <trkpt lat="44.09206" lon="5.99603">
        <ele>574.20001220703</ele>
        <time>2022-04-06T12:07:52.227Z</time>
      </trkpt>
      <trkpt lat="44.09207" lon="5.99609">
        <ele>573.20001220703</ele>
        <time>2022-04-06T12:08:00.301Z</time>
      </trkpt>
      <trkpt lat="44.09208" lon="5.99616">
        <ele>571.79998779297</ele>
        <time>2022-04-06T12:08:08.377Z</time>
      </trkpt>
      <trkpt lat="44.09208" lon="5.99623">
        <ele>570.40002441406</ele>
        <time>2022-04-06T12:08:16.454Z</time>
      </trkpt>
      <trkpt lat="44.0921" lon="5.99627">
        <ele>569.40002441406</ele>
        <time>2022-04-06T12:08:24.532Z</time>
      </trkpt>
      <trkpt lat="44.09211" lon="5.99628">
        <ele>568.59997558594</ele>
        <time>2022-04-06T12:08:32.611Z</time>
      </trkpt>
      <trkpt lat="44.09214" lon="5.99629">
        <ele>567.79998779297</ele>
        <time>2022-04-06T12:08:40.691Z</time>
      </trkpt>
      <trkpt lat="44.09219" lon="5.99634">
        <ele>566.40002441406</ele>
        <time>2022-04-06T12:08:48.773Z</time>
      </trkpt>
      <trkpt lat="44.09226" lon="5.99643">
        <ele>565.20001220703</ele>
        <time>2022-04-06T12:08:56.858Z</time>
      </trkpt>
      <trkpt lat="44.0923" lon="5.99646">
        <ele>564.40002441406</ele>
        <time>2022-04-06T12:09:04.944Z</time>
      </trkpt>
      <trkpt lat="44.09235" lon="5.99655">
        <ele>563.59997558594</ele>
        <time>2022-04-06T12:09:13.033Z</time>
      </trkpt>
      <trkpt lat="44.09239" lon="5.9966">
        <ele>563.20001220703</ele>
        <time>2022-04-06T12:09:21.123Z</time>
      </trkpt>
      <trkpt lat="44.09247" lon="5.99665">
        <ele>562.59997558594</ele>
        <time>2022-04-06T12:09:29.216Z</time>
      </trkpt>
      <trkpt lat="44.09253" lon="5.99665">
        <ele>562</ele>
        <time>2022-04-06T12:09:37.311Z</time>
      </trkpt>
      <trkpt lat="44.09261" lon="5.99666">
        <ele>560.59997558594</ele>
        <time>2022-04-06T12:09:45.409Z</time>
      </trkpt>
      <trkpt lat="44.09263" lon="5.99667">
        <ele>559.79998779297</ele>
        <time>2022-04-06T12:09:53.507Z</time>
      </trkpt>
      <trkpt lat="44.09265" lon="5.99674">
        <ele>558.59997558594</ele>
        <time>2022-04-06T12:10:01.607Z</time>
      </trkpt>
      <trkpt lat="44.09268" lon="5.9968">
        <ele>558.20001220703</ele>
        <time>2022-04-06T12:10:09.709Z</time>
      </trkpt>
      <trkpt lat="44.09274" lon="5.99693">
        <ele>557.79998779297</ele>
        <time>2022-04-06T12:10:17.814Z</time>
      </trkpt>
      <trkpt lat="44.09277" lon="5.99695">
        <ele>557.59997558594</ele>
        <time>2022-04-06T12:10:25.920Z</time>
      </trkpt>
      <trkpt lat="44.09279" lon="5.99696">
        <ele>557.20001220703</ele>
        <time>2022-04-06T12:10:34.027Z</time>
      </trkpt>
      <trkpt lat="44.09287" lon="5.99702">
        <ele>556.79998779297</ele>
        <time>2022-04-06T12:10:42.137Z</time>
      </trkpt>
      <trkpt lat="44.09294" lon="5.99705">
        <ele>555.79998779297</ele>
        <time>2022-04-06T12:10:50.249Z</time>
      </trkpt>
      <trkpt lat="44.09297" lon="5.99709">
        <ele>555.40002441406</ele>
        <time>2022-04-06T12:10:58.362Z</time>
      </trkpt>
      <trkpt lat="44.09298" lon="5.99713">
        <ele>555</ele>
        <time>2022-04-06T12:11:06.476Z</time>
      </trkpt>
      <trkpt lat="44.09299" lon="5.99718">
        <ele>554.40002441406</ele>
        <time>2022-04-06T12:11:14.591Z</time>
      </trkpt>
      <trkpt lat="44.09302" lon="5.99729">
        <ele>553.59997558594</ele>
        <time>2022-04-06T12:11:22.709Z</time>
      </trkpt>
      <trkpt lat="44.09304" lon="5.99732">
        <ele>553.40002441406</ele>
        <time>2022-04-06T12:11:30.828Z</time>
      </trkpt>
      <trkpt lat="44.09314" lon="5.9973">
        <ele>552.40002441406</ele>
        <time>2022-04-06T12:11:38.950Z</time>
      </trkpt>
      <trkpt lat="44.09319" lon="5.99727">
        <ele>551.59997558594</ele>
        <time>2022-04-06T12:11:47.074Z</time>
      </trkpt>
      <trkpt lat="44.09321" lon="5.99728">
        <ele>551.20001220703</ele>
        <time>2022-04-06T12:11:55.199Z</time>
      </trkpt>
      <trkpt lat="44.09321" lon="5.99729">
        <ele>550.79998779297</ele>
        <time>2022-04-06T12:12:03.324Z</time>
      </trkpt>
      <trkpt lat="44.09321" lon="5.99731">
        <ele>550.40002441406</ele>
        <time>2022-04-06T12:12:11.449Z</time>
      </trkpt>
      <trkpt lat="44.09323" lon="5.99736">
        <ele>549.79998779297</ele>
        <time>2022-04-06T12:12:19.576Z</time>
      </trkpt>
      <trkpt lat="44.09327" lon="5.99738">
        <ele>549.20001220703</ele>
        <time>2022-04-06T12:12:27.704Z</time>
      </trkpt>
      <trkpt lat="44.09332" lon="5.99738">
        <ele>548.79998779297</ele>
        <time>2022-04-06T12:12:35.833Z</time>
      </trkpt>
      <trkpt lat="44.09338" lon="5.99738">
        <ele>548</ele>
        <time>2022-04-06T12:12:43.964Z</time>
      </trkpt>
      <trkpt lat="44.09346" lon="5.99748">
        <ele>546.79998779297</ele>
        <time>2022-04-06T12:12:52.099Z</time>
      </trkpt>
      <trkpt lat="44.09348" lon="5.99753">
        <ele>546.40002441406</ele>
        <time>2022-04-06T12:13:00.235Z</time>
      </trkpt>
      <trkpt lat="44.09354" lon="5.9976">
        <ele>546.40002441406</ele>
        <time>2022-04-06T12:13:08.373Z</time>
      </trkpt>
      <trkpt lat="44.09357" lon="5.99764">
        <ele>546.59997558594</ele>
        <time>2022-04-06T12:13:16.513Z</time>
      </trkpt>
      <trkpt lat="44.09367" lon="5.99768">
        <ele>546.40002441406</ele>
        <time>2022-04-06T12:13:24.656Z</time>
      </trkpt>
      <trkpt lat="44.09372" lon="5.99782">
        <ele>545.59997558594</ele>
        <time>2022-04-06T12:13:32.803Z</time>
      </trkpt>
      <trkpt lat="44.09372" lon="5.9979">
        <ele>545.20001220703</ele>
        <time>2022-04-06T12:13:40.951Z</time>
      </trkpt>
      <trkpt lat="44.09373" lon="5.99797">
        <ele>544.79998779297</ele>
        <time>2022-04-06T12:13:49.101Z</time>
      </trkpt>
      <trkpt lat="44.09373" lon="5.99804">
        <ele>544.79998779297</ele>
        <time>2022-04-06T12:13:57.253Z</time>
      </trkpt>
      <trkpt lat="44.09375" lon="5.99811">
        <ele>544.59997558594</ele>
        <time>2022-04-06T12:14:05.406Z</time>
      </trkpt>
      <trkpt lat="44.09378" lon="5.99816">
        <ele>544.59997558594</ele>
        <time>2022-04-06T12:14:13.561Z</time>
      </trkpt>
      <trkpt lat="44.09384" lon="5.99827">
        <ele>544.20001220703</ele>
        <time>2022-04-06T12:14:21.719Z</time>
      </trkpt>
      <trkpt lat="44.09391" lon="5.99837">
        <ele>542.59997558594</ele>
        <time>2022-04-06T12:14:29.880Z</time>
      </trkpt>
      <trkpt lat="44.09395" lon="5.99845">
        <ele>541.40002441406</ele>
        <time>2022-04-06T12:14:38.043Z</time>
      </trkpt>
      <trkpt lat="44.09397" lon="5.99862">
        <ele>539.79998779297</ele>
        <time>2022-04-06T12:14:46.210Z</time>
      </trkpt>
      <trkpt lat="44.09398" lon="5.9987">
        <ele>539.20001220703</ele>
        <time>2022-04-06T12:14:54.379Z</time>
      </trkpt>
      <trkpt lat="44.09399" lon="5.99887">
        <ele>538.59997558594</ele>
        <time>2022-04-06T12:15:02.552Z</time>
      </trkpt>
      <trkpt lat="44.09403" lon="5.99906">
        <ele>537</ele>
        <time>2022-04-06T12:15:10.730Z</time>
      </trkpt>
      <trkpt lat="44.09406" lon="5.99914">
        <ele>536.20001220703</ele>
        <time>2022-04-06T12:15:18.910Z</time>
      </trkpt>
      <trkpt lat="44.09407" lon="5.99921">
        <ele>535</ele>
        <time>2022-04-06T12:15:27.091Z</time>
      </trkpt>
      <trkpt lat="44.0941" lon="5.99926">
        <ele>534</ele>
        <time>2022-04-06T12:15:35.274Z</time>
      </trkpt>
      <trkpt lat="44.09416" lon="5.99925">
        <ele>532.79998779297</ele>
        <time>2022-04-06T12:15:43.459Z</time>
      </trkpt>
      <trkpt lat="44.0943" lon="5.99929">
        <ele>530.79998779297</ele>
        <time>2022-04-06T12:15:51.648Z</time>
      </trkpt>
      <trkpt lat="44.09439" lon="5.99931">
        <ele>529.79998779297</ele>
        <time>2022-04-06T12:15:59.840Z</time>
      </trkpt>
      <trkpt lat="44.09449" lon="5.99935">
        <ele>527.20001220703</ele>
        <time>2022-04-06T12:16:08.035Z</time>
      </trkpt>
      <trkpt lat="44.09459" lon="5.99941">
        <ele>525.40002441406</ele>
        <time>2022-04-06T12:16:16.234Z</time>
      </trkpt>
      <trkpt lat="44.09469" lon="5.99947">
        <ele>524</ele>
        <time>2022-04-06T12:16:24.436Z</time>
      </trkpt>
      <trkpt lat="44.09477" lon="5.99951">
        <ele>523</ele>
        <time>2022-04-06T12:16:32.641Z</time>
      </trkpt>
      <trkpt lat="44.09488" lon="5.99957">
        <ele>521.20001220703</ele>
        <time>2022-04-06T12:16:40.850Z</time>
      </trkpt>
      <trkpt lat="44.09493" lon="5.99958">
        <ele>520.20001220703</ele>
        <time>2022-04-06T12:16:49.060Z</time>
      </trkpt>
      <trkpt lat="44.09497" lon="5.99959">
        <ele>519.59997558594</ele>
        <time>2022-04-06T12:16:57.272Z</time>
      </trkpt>
      <trkpt lat="44.09506" lon="5.99959">
        <ele>518.79998779297</ele>
        <time>2022-04-06T12:17:05.486Z</time>
      </trkpt>
      <trkpt lat="44.0951" lon="5.99958">
        <ele>518.59997558594</ele>
        <time>2022-04-06T12:17:13.702Z</time>
      </trkpt>
      <trkpt lat="44.09515" lon="5.99957">
        <ele>518.59997558594</ele>
        <time>2022-04-06T12:17:21.919Z</time>
      </trkpt>
      <trkpt lat="44.09515" lon="5.99956">
        <ele>518.59997558594</ele>
        <time>2022-04-06T12:17:30.136Z</time>
      </trkpt>
      <trkpt lat="44.09516" lon="5.99956">
        <ele>518.59997558594</ele>
        <time>2022-04-06T12:17:38.354Z</time>
      </trkpt>
    </trkseg>
  </trk>
</gpx>